<?xml version="1.0" encoding="windows-1252"?>
<gpx version="1.0" xmlns="http://www.topografix.com/GPX/1/0" creator="US Topo Maps" xmlns:xsi="http://www.w3.org/2001/XMLSchema-instance" xsi:schemaLocation="http://www.topografix.com/GPX/1/0 http://www.topografix.com/GPX/1/0/gpx.xsd">
	<name>Tapia Canyon and Tower Ruins Hike.JayNancy.2022-03-28</name>
	<desc>Export from GpsPrune</desc>
	<trk>
		<name>Tapia Canyon and Tower Ruins Hike.JayNancy.2022-03-28</name>
		<number>1</number>
		<trkseg>
<trkpt lat="35.50619319" lon="-107.14994997">
<ele>1792.9</ele>
<time>2022-03-28T16:43:03Z</time>
<speed>0</speed>
</trkpt>
<trkpt lat="35.50619622" lon="-107.14990484">
<ele>1795.6</ele>
<time>2022-03-28T16:43:20Z</time>
<speed>0</speed>
</trkpt>
<trkpt lat="35.50616163" lon="-107.14989026">
<ele>1794.9</ele>
<time>2022-03-28T16:43:37Z</time>
<speed>0.9</speed>
</trkpt>
<trkpt lat="35.50612055" lon="-107.14989555">
<ele>1793.9</ele>
<time>2022-03-28T16:43:42Z</time>
<speed>1.2</speed>
</trkpt>
<trkpt lat="35.50608621" lon="-107.14991611">
<ele>1793.2</ele>
<time>2022-03-28T16:43:46Z</time>
<speed>0.9</speed>
</trkpt>
<trkpt lat="35.50605632" lon="-107.14994702">
<ele>1794.2</ele>
<time>2022-03-28T16:44:06Z</time>
<speed>0.7</speed>
</trkpt>
<trkpt lat="35.5060505" lon="-107.14990283">
<ele>1793.1</ele>
<time>2022-03-28T16:44:24Z</time>
<speed>1.1</speed>
</trkpt>
<trkpt lat="35.50604254" lon="-107.14984928">
<ele>1791.5</ele>
<time>2022-03-28T16:44:29Z</time>
<speed>1.1</speed>
</trkpt>
<trkpt lat="35.50603104" lon="-107.14980559">
<ele>1789.8</ele>
<time>2022-03-28T16:44:33Z</time>
<speed>1.1</speed>
</trkpt>
<trkpt lat="35.50602353" lon="-107.14975809">
<ele>1788.7</ele>
<time>2022-03-28T16:44:37Z</time>
<speed>1.1</speed>
</trkpt>
<trkpt lat="35.50601636" lon="-107.14970677">
<ele>1788.7</ele>
<time>2022-03-28T16:44:41Z</time>
<speed>1.2</speed>
</trkpt>
<trkpt lat="35.50600872" lon="-107.14965401">
<ele>1788.4</ele>
<time>2022-03-28T16:44:45Z</time>
<speed>1.1</speed>
</trkpt>
<trkpt lat="35.50599685" lon="-107.14960784">
<ele>1789.2</ele>
<time>2022-03-28T16:44:49Z</time>
<speed>1</speed>
</trkpt>
<trkpt lat="35.505994" lon="-107.14955949">
<ele>1789.5</ele>
<time>2022-03-28T16:44:53Z</time>
<speed>1.1</speed>
</trkpt>
<trkpt lat="35.50599151" lon="-107.14951139">
<ele>1788.4</ele>
<time>2022-03-28T16:44:57Z</time>
<speed>0.9</speed>
</trkpt>
<trkpt lat="35.50598132" lon="-107.14946754">
<ele>1788.9</ele>
<time>2022-03-28T16:45:01Z</time>
<speed>1.2</speed>
</trkpt>
<trkpt lat="35.50597622" lon="-107.14941744">
<ele>1789.5</ele>
<time>2022-03-28T16:45:05Z</time>
<speed>1.3</speed>
</trkpt>
<trkpt lat="35.50596446" lon="-107.14937546">
<ele>1789.9</ele>
<time>2022-03-28T16:45:08Z</time>
<speed>1.3</speed>
</trkpt>
<trkpt lat="35.50595298" lon="-107.14933262">
<ele>1789.9</ele>
<time>2022-03-28T16:45:11Z</time>
<speed>1.2</speed>
</trkpt>
<trkpt lat="35.5059266" lon="-107.14929583">
<ele>1789.6</ele>
<time>2022-03-28T16:45:14Z</time>
<speed>1.4</speed>
</trkpt>
<trkpt lat="35.50590266" lon="-107.14924949">
<ele>1789.8</ele>
<time>2022-03-28T16:45:19Z</time>
<speed>1</speed>
</trkpt>
<trkpt lat="35.50589745" lon="-107.14919969">
<ele>1790.4</ele>
<time>2022-03-28T16:45:23Z</time>
<speed>1.1</speed>
</trkpt>
<trkpt lat="35.50589168" lon="-107.14914613">
<ele>1790.2</ele>
<time>2022-03-28T16:45:27Z</time>
<speed>1.2</speed>
</trkpt>
<trkpt lat="35.50587704" lon="-107.14909969">
<ele>1789.7</ele>
<time>2022-03-28T16:45:31Z</time>
<speed>1.3</speed>
</trkpt>
<trkpt lat="35.50588789" lon="-107.14905506">
<ele>1789</ele>
<time>2022-03-28T16:45:35Z</time>
<speed>1.1</speed>
</trkpt>
<trkpt lat="35.50590896" lon="-107.14901778">
<ele>1790</ele>
<time>2022-03-28T16:45:38Z</time>
<speed>1.6</speed>
</trkpt>
<trkpt lat="35.50589832" lon="-107.14897468">
<ele>1790.9</ele>
<time>2022-03-28T16:45:43Z</time>
<speed>0.7</speed>
</trkpt>
<trkpt lat="35.50591984" lon="-107.14893085">
<ele>1790.5</ele>
<time>2022-03-28T16:45:48Z</time>
<speed>0.8</speed>
</trkpt>
<trkpt lat="35.50590499" lon="-107.14889037">
<ele>1788.5</ele>
<time>2022-03-28T16:45:54Z</time>
<speed>1.1</speed>
</trkpt>
<trkpt lat="35.50586068" lon="-107.14887813">
<ele>1787.9</ele>
<time>2022-03-28T16:45:58Z</time>
<speed>1.1</speed>
</trkpt>
<trkpt lat="35.50582467" lon="-107.14886738">
<ele>1787.6</ele>
<time>2022-03-28T16:46:02Z</time>
<speed>0.9</speed>
</trkpt>
<trkpt lat="35.50577769" lon="-107.14885764">
<ele>1787</ele>
<time>2022-03-28T16:46:06Z</time>
<speed>1</speed>
</trkpt>
<trkpt lat="35.5057443" lon="-107.14887584">
<ele>1786.1</ele>
<time>2022-03-28T16:46:09Z</time>
<speed>0.9</speed>
</trkpt>
<trkpt lat="35.50571365" lon="-107.14891393">
<ele>1786.2</ele>
<time>2022-03-28T16:46:14Z</time>
<speed>0.8</speed>
</trkpt>
<trkpt lat="35.50569714" lon="-107.148872">
<ele>1785.7</ele>
<time>2022-03-28T16:46:33Z</time>
<speed>0.5</speed>
</trkpt>
<trkpt lat="35.50568229" lon="-107.14882786">
<ele>1784.4</ele>
<time>2022-03-28T16:46:38Z</time>
<speed>0.7</speed>
</trkpt>
<trkpt lat="35.5056405" lon="-107.14883268">
<ele>1783.2</ele>
<time>2022-03-28T16:46:44Z</time>
<speed>0.9</speed>
</trkpt>
<trkpt lat="35.50561245" lon="-107.14886176">
<ele>1785.3</ele>
<time>2022-03-28T16:47:07Z</time>
<speed>0.4</speed>
</trkpt>
<trkpt lat="35.50561685" lon="-107.14891472">
<ele>1785.2</ele>
<time>2022-03-28T16:47:22Z</time>
<speed>1.5</speed>
</trkpt>
<trkpt lat="35.50562868" lon="-107.14895826">
<ele>1785</ele>
<time>2022-03-28T16:47:26Z</time>
<speed>0.9</speed>
</trkpt>
<trkpt lat="35.50564222" lon="-107.14900125">
<ele>1786.1</ele>
<time>2022-03-28T16:47:30Z</time>
<speed>1.2</speed>
</trkpt>
<trkpt lat="35.50565729" lon="-107.14904289">
<ele>1786.5</ele>
<time>2022-03-28T16:47:34Z</time>
<speed>0.9</speed>
</trkpt>
<trkpt lat="35.50566326" lon="-107.14908641">
<ele>1786.1</ele>
<time>2022-03-28T16:47:38Z</time>
<speed>0.9</speed>
</trkpt>
<trkpt lat="35.5056719" lon="-107.14913451">
<ele>1784.5</ele>
<time>2022-03-28T16:47:42Z</time>
<speed>1.1</speed>
</trkpt>
<trkpt lat="35.50568151" lon="-107.14918651">
<ele>1784.9</ele>
<time>2022-03-28T16:47:47Z</time>
<speed>0.9</speed>
</trkpt>
<trkpt lat="35.50568471" lon="-107.14924218">
<ele>1784.8</ele>
<time>2022-03-28T16:47:52Z</time>
<speed>1</speed>
</trkpt>
<trkpt lat="35.505699" lon="-107.14928269">
<ele>1785.2</ele>
<time>2022-03-28T16:47:56Z</time>
<speed>0.8</speed>
</trkpt>
<trkpt lat="35.50571731" lon="-107.14932504">
<ele>1784</ele>
<time>2022-03-28T16:48:00Z</time>
<speed>1</speed>
</trkpt>
<trkpt lat="35.50573725" lon="-107.14936678">
<ele>1784.8</ele>
<time>2022-03-28T16:48:04Z</time>
<speed>1</speed>
</trkpt>
<trkpt lat="35.5057502" lon="-107.14941468">
<ele>1785</ele>
<time>2022-03-28T16:48:08Z</time>
<speed>1</speed>
</trkpt>
<trkpt lat="35.50576479" lon="-107.14946867">
<ele>1783.8</ele>
<time>2022-03-28T16:48:12Z</time>
<speed>1.1</speed>
</trkpt>
<trkpt lat="35.50577758" lon="-107.14951599">
<ele>1783</ele>
<time>2022-03-28T16:48:16Z</time>
<speed>0.9</speed>
</trkpt>
<trkpt lat="35.50580052" lon="-107.14955857">
<ele>1782.4</ele>
<time>2022-03-28T16:48:20Z</time>
<speed>1.1</speed>
</trkpt>
<trkpt lat="35.5058171" lon="-107.14960491">
<ele>1782.3</ele>
<time>2022-03-28T16:48:24Z</time>
<speed>1.1</speed>
</trkpt>
<trkpt lat="35.50583485" lon="-107.14964597">
<ele>1781.6</ele>
<time>2022-03-28T16:48:28Z</time>
<speed>1.1</speed>
</trkpt>
<trkpt lat="35.50584272" lon="-107.14969888">
<ele>1780.4</ele>
<time>2022-03-28T16:48:32Z</time>
<speed>1.1</speed>
</trkpt>
<trkpt lat="35.50585232" lon="-107.14974764">
<ele>1780.7</ele>
<time>2022-03-28T16:48:36Z</time>
<speed>1.1</speed>
</trkpt>
<trkpt lat="35.50586212" lon="-107.14979385">
<ele>1781.8</ele>
<time>2022-03-28T16:48:40Z</time>
<speed>1.1</speed>
</trkpt>
<trkpt lat="35.50586636" lon="-107.14983857">
<ele>1783</ele>
<time>2022-03-28T16:48:44Z</time>
<speed>1</speed>
</trkpt>
<trkpt lat="35.50587515" lon="-107.14988892">
<ele>1784.5</ele>
<time>2022-03-28T16:48:49Z</time>
<speed>0.9</speed>
</trkpt>
<trkpt lat="35.5058763" lon="-107.14993687">
<ele>1785.1</ele>
<time>2022-03-28T16:48:53Z</time>
<speed>1</speed>
</trkpt>
<trkpt lat="35.50588093" lon="-107.14998491">
<ele>1786</ele>
<time>2022-03-28T16:48:57Z</time>
<speed>1.1</speed>
</trkpt>
<trkpt lat="35.50588519" lon="-107.15003468">
<ele>1786.4</ele>
<time>2022-03-28T16:49:01Z</time>
<speed>1.1</speed>
</trkpt>
<trkpt lat="35.50589569" lon="-107.15008324">
<ele>1786.8</ele>
<time>2022-03-28T16:49:26Z</time>
<speed>0.9</speed>
</trkpt>
<trkpt lat="35.50589738" lon="-107.15013877">
<ele>1786.4</ele>
<time>2022-03-28T16:49:31Z</time>
<speed>1.1</speed>
</trkpt>
<trkpt lat="35.5058995" lon="-107.15018644">
<ele>1785.7</ele>
<time>2022-03-28T16:49:35Z</time>
<speed>1</speed>
</trkpt>
<trkpt lat="35.50590317" lon="-107.15023219">
<ele>1785.5</ele>
<time>2022-03-28T16:49:39Z</time>
<speed>1</speed>
</trkpt>
<trkpt lat="35.50590829" lon="-107.15027653">
<ele>1785.6</ele>
<time>2022-03-28T16:49:43Z</time>
<speed>1</speed>
</trkpt>
<trkpt lat="35.50590566" lon="-107.15032479">
<ele>1786.6</ele>
<time>2022-03-28T16:49:48Z</time>
<speed>0.9</speed>
</trkpt>
<trkpt lat="35.50590545" lon="-107.15037698">
<ele>1786.1</ele>
<time>2022-03-28T16:49:53Z</time>
<speed>0.9</speed>
</trkpt>
<trkpt lat="35.50590005" lon="-107.15042073">
<ele>1786.3</ele>
<time>2022-03-28T16:49:57Z</time>
<speed>1</speed>
</trkpt>
<trkpt lat="35.50589709" lon="-107.15046605">
<ele>1787.1</ele>
<time>2022-03-28T16:50:02Z</time>
<speed>0.8</speed>
</trkpt>
<trkpt lat="35.50588818" lon="-107.15051089">
<ele>1787.8</ele>
<time>2022-03-28T16:50:06Z</time>
<speed>1.2</speed>
</trkpt>
<trkpt lat="35.50589312" lon="-107.15056339">
<ele>1788.1</ele>
<time>2022-03-28T16:50:10Z</time>
<speed>1</speed>
</trkpt>
<trkpt lat="35.50589601" lon="-107.15061327">
<ele>1788.9</ele>
<time>2022-03-28T16:50:14Z</time>
<speed>1.1</speed>
</trkpt>
<trkpt lat="35.50589115" lon="-107.15066041">
<ele>1788.9</ele>
<time>2022-03-28T16:50:18Z</time>
<speed>1.1</speed>
</trkpt>
<trkpt lat="35.50587401" lon="-107.15070184">
<ele>1789.4</ele>
<time>2022-03-28T16:50:22Z</time>
<speed>0.9</speed>
</trkpt>
<trkpt lat="35.50587072" lon="-107.15075252">
<ele>1789.2</ele>
<time>2022-03-28T16:50:26Z</time>
<speed>1</speed>
</trkpt>
<trkpt lat="35.50585862" lon="-107.15079506">
<ele>1789.3</ele>
<time>2022-03-28T16:50:30Z</time>
<speed>1</speed>
</trkpt>
<trkpt lat="35.50585121" lon="-107.15083932">
<ele>1788.9</ele>
<time>2022-03-28T16:50:34Z</time>
<speed>1.1</speed>
</trkpt>
<trkpt lat="35.50584428" lon="-107.15088452">
<ele>1790.1</ele>
<time>2022-03-28T16:50:38Z</time>
<speed>1.1</speed>
</trkpt>
<trkpt lat="35.50583653" lon="-107.1509351">
<ele>1790.2</ele>
<time>2022-03-28T16:50:42Z</time>
<speed>1.1</speed>
</trkpt>
<trkpt lat="35.5058461" lon="-107.15098618">
<ele>1790.5</ele>
<time>2022-03-28T16:50:46Z</time>
<speed>1.1</speed>
</trkpt>
<trkpt lat="35.50585834" lon="-107.15103815">
<ele>1791</ele>
<time>2022-03-28T16:50:50Z</time>
<speed>1.2</speed>
</trkpt>
<trkpt lat="35.50586488" lon="-107.15108521">
<ele>1791.3</ele>
<time>2022-03-28T16:50:54Z</time>
<speed>1</speed>
</trkpt>
<trkpt lat="35.50585496" lon="-107.15113099">
<ele>1791.4</ele>
<time>2022-03-28T16:50:58Z</time>
<speed>1.1</speed>
</trkpt>
<trkpt lat="35.505857" lon="-107.15117917">
<ele>1791.5</ele>
<time>2022-03-28T16:51:02Z</time>
<speed>1</speed>
</trkpt>
<trkpt lat="35.50584435" lon="-107.15122888">
<ele>1791.7</ele>
<time>2022-03-28T16:51:07Z</time>
<speed>0.9</speed>
</trkpt>
<trkpt lat="35.50582939" lon="-107.15127481">
<ele>1791.8</ele>
<time>2022-03-28T16:51:11Z</time>
<speed>1.1</speed>
</trkpt>
<trkpt lat="35.50581321" lon="-107.15131498">
<ele>1792.5</ele>
<time>2022-03-28T16:51:16Z</time>
<speed>0.8</speed>
</trkpt>
<trkpt lat="35.50579246" lon="-107.1513575">
<ele>1790.9</ele>
<time>2022-03-28T16:51:22Z</time>
<speed>0.9</speed>
</trkpt>
<trkpt lat="35.50578764" lon="-107.15140128">
<ele>1790.8</ele>
<time>2022-03-28T16:51:39Z</time>
<speed>0.4</speed>
</trkpt>
<trkpt lat="35.50576016" lon="-107.15143714">
<ele>1790.4</ele>
<time>2022-03-28T16:51:45Z</time>
<speed>0.5</speed>
</trkpt>
<trkpt lat="35.50574649" lon="-107.15148111">
<ele>1790.5</ele>
<time>2022-03-28T16:51:49Z</time>
<speed>1.1</speed>
</trkpt>
<trkpt lat="35.50571972" lon="-107.15151755">
<ele>1791.2</ele>
<time>2022-03-28T16:51:53Z</time>
<speed>1.1</speed>
</trkpt>
<trkpt lat="35.50569494" lon="-107.15155631">
<ele>1791.4</ele>
<time>2022-03-28T16:51:57Z</time>
<speed>1</speed>
</trkpt>
<trkpt lat="35.5056696" lon="-107.15158971">
<ele>1791.9</ele>
<time>2022-03-28T16:52:01Z</time>
<speed>1</speed>
</trkpt>
<trkpt lat="35.50564257" lon="-107.15162728">
<ele>1792</ele>
<time>2022-03-28T16:52:05Z</time>
<speed>1</speed>
</trkpt>
<trkpt lat="35.5056168" lon="-107.15166743">
<ele>1792.1</ele>
<time>2022-03-28T16:52:09Z</time>
<speed>1.1</speed>
</trkpt>
<trkpt lat="35.50562153" lon="-107.1517169">
<ele>1792.5</ele>
<time>2022-03-28T16:52:13Z</time>
<speed>1</speed>
</trkpt>
<trkpt lat="35.50559786" lon="-107.15175732">
<ele>1791.7</ele>
<time>2022-03-28T16:52:17Z</time>
<speed>1</speed>
</trkpt>
<trkpt lat="35.50556947" lon="-107.15180044">
<ele>1791.2</ele>
<time>2022-03-28T16:52:21Z</time>
<speed>1</speed>
</trkpt>
<trkpt lat="35.50554356" lon="-107.15183241">
<ele>1791.3</ele>
<time>2022-03-28T16:52:25Z</time>
<speed>1</speed>
</trkpt>
<trkpt lat="35.50551974" lon="-107.15187786">
<ele>1791.5</ele>
<time>2022-03-28T16:52:30Z</time>
<speed>1.6</speed>
</trkpt>
<trkpt lat="35.50549113" lon="-107.1519128">
<ele>1794.5</ele>
<time>2022-03-28T16:52:34Z</time>
<speed>1.2</speed>
</trkpt>
<trkpt lat="35.50548015" lon="-107.1519577">
<ele>1792.3</ele>
<time>2022-03-28T16:52:47Z</time>
<speed>0.7</speed>
</trkpt>
<trkpt lat="35.50545582" lon="-107.15200035">
<ele>1791.6</ele>
<time>2022-03-28T16:52:51Z</time>
<speed>1.4</speed>
</trkpt>
<trkpt lat="35.50542816" lon="-107.15203574">
<ele>1790.2</ele>
<time>2022-03-28T16:52:55Z</time>
<speed>1.1</speed>
</trkpt>
<trkpt lat="35.50540757" lon="-107.15207661">
<ele>1788.4</ele>
<time>2022-03-28T16:52:59Z</time>
<speed>1.1</speed>
</trkpt>
<trkpt lat="35.50538173" lon="-107.1521218">
<ele>1788.3</ele>
<time>2022-03-28T16:53:03Z</time>
<speed>1.1</speed>
</trkpt>
<trkpt lat="35.50538085" lon="-107.15217621">
<ele>1787.2</ele>
<time>2022-03-28T16:53:22Z</time>
<speed>1</speed>
</trkpt>
<trkpt lat="35.50534745" lon="-107.15219766">
<ele>1788.4</ele>
<time>2022-03-28T16:53:25Z</time>
<speed>1.1</speed>
</trkpt>
<trkpt lat="35.50531341" lon="-107.15223522">
<ele>1789.5</ele>
<time>2022-03-28T16:53:29Z</time>
<speed>1</speed>
</trkpt>
<trkpt lat="35.50527919" lon="-107.15227036">
<ele>1790.5</ele>
<time>2022-03-28T16:53:33Z</time>
<speed>1.1</speed>
</trkpt>
<trkpt lat="35.50524943" lon="-107.15230781">
<ele>1791.4</ele>
<time>2022-03-28T16:53:37Z</time>
<speed>1.1</speed>
</trkpt>
<trkpt lat="35.50523378" lon="-107.15234902">
<ele>1792</ele>
<time>2022-03-28T16:53:41Z</time>
<speed>1</speed>
</trkpt>
<trkpt lat="35.50521226" lon="-107.15238751">
<ele>1791.1</ele>
<time>2022-03-28T16:53:49Z</time>
<speed>1</speed>
</trkpt>
<trkpt lat="35.50519717" lon="-107.15243145">
<ele>1791.2</ele>
<time>2022-03-28T16:53:53Z</time>
<speed>1.1</speed>
</trkpt>
<trkpt lat="35.50518936" lon="-107.15247898">
<ele>1790.6</ele>
<time>2022-03-28T16:53:57Z</time>
<speed>1.1</speed>
</trkpt>
<trkpt lat="35.50518887" lon="-107.15252446">
<ele>1790.2</ele>
<time>2022-03-28T16:54:01Z</time>
<speed>1.1</speed>
</trkpt>
<trkpt lat="35.50517752" lon="-107.15257422">
<ele>1790.8</ele>
<time>2022-03-28T16:54:05Z</time>
<speed>1.2</speed>
</trkpt>
<trkpt lat="35.50516154" lon="-107.15261852">
<ele>1791.8</ele>
<time>2022-03-28T16:54:09Z</time>
<speed>1.2</speed>
</trkpt>
<trkpt lat="35.50515284" lon="-107.15266986">
<ele>1792</ele>
<time>2022-03-28T16:54:13Z</time>
<speed>1.2</speed>
</trkpt>
<trkpt lat="35.50514251" lon="-107.15272361">
<ele>1790.9</ele>
<time>2022-03-28T16:54:17Z</time>
<speed>1.2</speed>
</trkpt>
<trkpt lat="35.50513238" lon="-107.15277827">
<ele>1789.3</ele>
<time>2022-03-28T16:54:21Z</time>
<speed>1.2</speed>
</trkpt>
<trkpt lat="35.505121" lon="-107.15283147">
<ele>1789.6</ele>
<time>2022-03-28T16:54:25Z</time>
<speed>1.2</speed>
</trkpt>
<trkpt lat="35.50511022" lon="-107.15288346">
<ele>1790.3</ele>
<time>2022-03-28T16:54:29Z</time>
<speed>1.2</speed>
</trkpt>
<trkpt lat="35.50509307" lon="-107.15292942">
<ele>1790.2</ele>
<time>2022-03-28T16:54:33Z</time>
<speed>1.1</speed>
</trkpt>
<trkpt lat="35.50509039" lon="-107.1529833">
<ele>1789.2</ele>
<time>2022-03-28T16:54:37Z</time>
<speed>1</speed>
</trkpt>
<trkpt lat="35.50507232" lon="-107.15303219">
<ele>1787.6</ele>
<time>2022-03-28T16:54:41Z</time>
<speed>1.1</speed>
</trkpt>
<trkpt lat="35.50505998" lon="-107.15308105">
<ele>1788.6</ele>
<time>2022-03-28T16:54:45Z</time>
<speed>1.1</speed>
</trkpt>
<trkpt lat="35.50505972" lon="-107.15313509">
<ele>1788.9</ele>
<time>2022-03-28T16:54:49Z</time>
<speed>1.2</speed>
</trkpt>
<trkpt lat="35.50504786" lon="-107.15317975">
<ele>1788.9</ele>
<time>2022-03-28T16:54:53Z</time>
<speed>1.2</speed>
</trkpt>
<trkpt lat="35.50504252" lon="-107.15323018">
<ele>1789</ele>
<time>2022-03-28T16:54:58Z</time>
<speed>0.7</speed>
</trkpt>
<trkpt lat="35.50502676" lon="-107.15327336">
<ele>1788.7</ele>
<time>2022-03-28T16:55:02Z</time>
<speed>1.3</speed>
</trkpt>
<trkpt lat="35.50501442" lon="-107.15332416">
<ele>1788</ele>
<time>2022-03-28T16:55:06Z</time>
<speed>1.1</speed>
</trkpt>
<trkpt lat="35.50500592" lon="-107.15337835">
<ele>1787.4</ele>
<time>2022-03-28T16:55:10Z</time>
<speed>1.2</speed>
</trkpt>
<trkpt lat="35.50500437" lon="-107.15343097">
<ele>1787.2</ele>
<time>2022-03-28T16:55:14Z</time>
<speed>1.1</speed>
</trkpt>
<trkpt lat="35.50500418" lon="-107.15348371">
<ele>1788.4</ele>
<time>2022-03-28T16:55:18Z</time>
<speed>1</speed>
</trkpt>
<trkpt lat="35.50499334" lon="-107.15353104">
<ele>1789</ele>
<time>2022-03-28T16:55:22Z</time>
<speed>1</speed>
</trkpt>
<trkpt lat="35.50500048" lon="-107.15358686">
<ele>1789.2</ele>
<time>2022-03-28T16:55:45Z</time>
<speed>1.1</speed>
</trkpt>
<trkpt lat="35.50500377" lon="-107.15363701">
<ele>1789.4</ele>
<time>2022-03-28T16:55:49Z</time>
<speed>1.1</speed>
</trkpt>
<trkpt lat="35.50499867" lon="-107.15368213">
<ele>1789.1</ele>
<time>2022-03-28T16:55:53Z</time>
<speed>1.1</speed>
</trkpt>
<trkpt lat="35.50499625" lon="-107.15373553">
<ele>1788.3</ele>
<time>2022-03-28T16:55:57Z</time>
<speed>1</speed>
</trkpt>
<trkpt lat="35.50498691" lon="-107.15378143">
<ele>1789.5</ele>
<time>2022-03-28T16:56:01Z</time>
<speed>1.2</speed>
</trkpt>
<trkpt lat="35.50498087" lon="-107.15383364">
<ele>1789.4</ele>
<time>2022-03-28T16:56:05Z</time>
<speed>1.1</speed>
</trkpt>
<trkpt lat="35.50497914" lon="-107.15388642">
<ele>1789.4</ele>
<time>2022-03-28T16:56:09Z</time>
<speed>1.2</speed>
</trkpt>
<trkpt lat="35.50497856" lon="-107.153942">
<ele>1789.3</ele>
<time>2022-03-28T16:56:13Z</time>
<speed>1.1</speed>
</trkpt>
<trkpt lat="35.50497425" lon="-107.15399346">
<ele>1788.2</ele>
<time>2022-03-28T16:56:17Z</time>
<speed>1.1</speed>
</trkpt>
<trkpt lat="35.50496847" lon="-107.15404625">
<ele>1787.3</ele>
<time>2022-03-28T16:56:21Z</time>
<speed>1.2</speed>
</trkpt>
<trkpt lat="35.50496806" lon="-107.15409859">
<ele>1787.8</ele>
<time>2022-03-28T16:56:25Z</time>
<speed>1.2</speed>
</trkpt>
<trkpt lat="35.50497271" lon="-107.15415061">
<ele>1788.2</ele>
<time>2022-03-28T16:56:29Z</time>
<speed>1.1</speed>
</trkpt>
<trkpt lat="35.50496561" lon="-107.15419698">
<ele>1788.6</ele>
<time>2022-03-28T16:56:33Z</time>
<speed>1.1</speed>
</trkpt>
<trkpt lat="35.50495393" lon="-107.15424479">
<ele>1789</ele>
<time>2022-03-28T16:56:37Z</time>
<speed>1.1</speed>
</trkpt>
<trkpt lat="35.5049346" lon="-107.15428684">
<ele>1791.4</ele>
<time>2022-03-28T16:56:43Z</time>
<speed>0.9</speed>
</trkpt>
<trkpt lat="35.50493014" lon="-107.15433575">
<ele>1791</ele>
<time>2022-03-28T16:56:47Z</time>
<speed>1</speed>
</trkpt>
<trkpt lat="35.50492445" lon="-107.15438357">
<ele>1790.2</ele>
<time>2022-03-28T16:56:51Z</time>
<speed>1.2</speed>
</trkpt>
<trkpt lat="35.50491792" lon="-107.15443807">
<ele>1790.7</ele>
<time>2022-03-28T16:56:55Z</time>
<speed>1.2</speed>
</trkpt>
<trkpt lat="35.50490868" lon="-107.15448208">
<ele>1791.1</ele>
<time>2022-03-28T16:56:58Z</time>
<speed>1.2</speed>
</trkpt>
<trkpt lat="35.50491259" lon="-107.15452845">
<ele>1791.3</ele>
<time>2022-03-28T16:57:05Z</time>
<speed>0.9</speed>
</trkpt>
<trkpt lat="35.50491793" lon="-107.15457478">
<ele>1792.4</ele>
<time>2022-03-28T16:57:09Z</time>
<speed>1.1</speed>
</trkpt>
<trkpt lat="35.50491493" lon="-107.15462065">
<ele>1793.4</ele>
<time>2022-03-28T16:57:14Z</time>
<speed>0.2</speed>
</trkpt>
<trkpt lat="35.50491988" lon="-107.15466776">
<ele>1793.1</ele>
<time>2022-03-28T16:57:23Z</time>
<speed>1</speed>
</trkpt>
<trkpt lat="35.50490321" lon="-107.15471948">
<ele>1793.4</ele>
<time>2022-03-28T16:57:28Z</time>
<speed>1.2</speed>
</trkpt>
<trkpt lat="35.50490252" lon="-107.15476519">
<ele>1793.9</ele>
<time>2022-03-28T16:57:32Z</time>
<speed>1.1</speed>
</trkpt>
<trkpt lat="35.50489249" lon="-107.15481421">
<ele>1793.8</ele>
<time>2022-03-28T16:57:36Z</time>
<speed>1.1</speed>
</trkpt>
<trkpt lat="35.50489166" lon="-107.15486603">
<ele>1793.6</ele>
<time>2022-03-28T16:57:40Z</time>
<speed>1</speed>
</trkpt>
<trkpt lat="35.50487964" lon="-107.15491513">
<ele>1794.4</ele>
<time>2022-03-28T16:57:44Z</time>
<speed>1</speed>
</trkpt>
<trkpt lat="35.50486494" lon="-107.15496386">
<ele>1794.5</ele>
<time>2022-03-28T16:57:48Z</time>
<speed>1.1</speed>
</trkpt>
<trkpt lat="35.50485475" lon="-107.15501041">
<ele>1794.5</ele>
<time>2022-03-28T16:57:52Z</time>
<speed>1.1</speed>
</trkpt>
<trkpt lat="35.50485668" lon="-107.15506049">
<ele>1795.6</ele>
<time>2022-03-28T16:57:56Z</time>
<speed>1.1</speed>
</trkpt>
<trkpt lat="35.50485863" lon="-107.15510871">
<ele>1796</ele>
<time>2022-03-28T16:58:00Z</time>
<speed>1.2</speed>
</trkpt>
<trkpt lat="35.50484973" lon="-107.15515797">
<ele>1796</ele>
<time>2022-03-28T16:58:04Z</time>
<speed>1.1</speed>
</trkpt>
<trkpt lat="35.50483899" lon="-107.15520375">
<ele>1797.1</ele>
<time>2022-03-28T16:58:15Z</time>
<speed>1.1</speed>
</trkpt>
<trkpt lat="35.5048275" lon="-107.1552529">
<ele>1796.3</ele>
<time>2022-03-28T16:58:19Z</time>
<speed>1.1</speed>
</trkpt>
<trkpt lat="35.50482329" lon="-107.15530464">
<ele>1796.3</ele>
<time>2022-03-28T16:58:23Z</time>
<speed>1.2</speed>
</trkpt>
<trkpt lat="35.5048201" lon="-107.15535884">
<ele>1796.3</ele>
<time>2022-03-28T16:58:27Z</time>
<speed>1.2</speed>
</trkpt>
<trkpt lat="35.5048145" lon="-107.15540951">
<ele>1796.6</ele>
<time>2022-03-28T16:58:31Z</time>
<speed>1.2</speed>
</trkpt>
<trkpt lat="35.50479789" lon="-107.15545827">
<ele>1796.3</ele>
<time>2022-03-28T16:58:35Z</time>
<speed>1.1</speed>
</trkpt>
<trkpt lat="35.50477699" lon="-107.15550481">
<ele>1796.1</ele>
<time>2022-03-28T16:58:39Z</time>
<speed>1.2</speed>
</trkpt>
<trkpt lat="35.50476731" lon="-107.1555541">
<ele>1797.1</ele>
<time>2022-03-28T16:58:43Z</time>
<speed>1.1</speed>
</trkpt>
<trkpt lat="35.50475951" lon="-107.15560896">
<ele>1796.2</ele>
<time>2022-03-28T16:58:47Z</time>
<speed>1.2</speed>
</trkpt>
<trkpt lat="35.50474938" lon="-107.15566236">
<ele>1795</ele>
<time>2022-03-28T16:58:51Z</time>
<speed>1.1</speed>
</trkpt>
<trkpt lat="35.50473688" lon="-107.15571681">
<ele>1794.1</ele>
<time>2022-03-28T16:58:55Z</time>
<speed>1</speed>
</trkpt>
<trkpt lat="35.50473346" lon="-107.15576931">
<ele>1794.7</ele>
<time>2022-03-28T16:59:05Z</time>
<speed>0.9</speed>
</trkpt>
<trkpt lat="35.50472153" lon="-107.15582219">
<ele>1795.2</ele>
<time>2022-03-28T16:59:10Z</time>
<speed>1.1</speed>
</trkpt>
<trkpt lat="35.50471507" lon="-107.15586642">
<ele>1795.4</ele>
<time>2022-03-28T16:59:14Z</time>
<speed>1</speed>
</trkpt>
<trkpt lat="35.50470461" lon="-107.15592025">
<ele>1794.6</ele>
<time>2022-03-28T16:59:18Z</time>
<speed>1.1</speed>
</trkpt>
<trkpt lat="35.50469681" lon="-107.15596877">
<ele>1795.1</ele>
<time>2022-03-28T16:59:22Z</time>
<speed>1.2</speed>
</trkpt>
<trkpt lat="35.50468915" lon="-107.15602465">
<ele>1794.8</ele>
<time>2022-03-28T16:59:26Z</time>
<speed>1.2</speed>
</trkpt>
<trkpt lat="35.50467781" lon="-107.15607386">
<ele>1794.8</ele>
<time>2022-03-28T16:59:30Z</time>
<speed>1.1</speed>
</trkpt>
<trkpt lat="35.5046512" lon="-107.15611658">
<ele>1795.3</ele>
<time>2022-03-28T16:59:34Z</time>
<speed>1.1</speed>
</trkpt>
<trkpt lat="35.50462574" lon="-107.15615948">
<ele>1795.6</ele>
<time>2022-03-28T16:59:38Z</time>
<speed>1.2</speed>
</trkpt>
<trkpt lat="35.50459269" lon="-107.15619038">
<ele>1797.4</ele>
<time>2022-03-28T16:59:42Z</time>
<speed>1.3</speed>
</trkpt>
<trkpt lat="35.50456068" lon="-107.15623189">
<ele>1797.4</ele>
<time>2022-03-28T16:59:47Z</time>
<speed>1.1</speed>
</trkpt>
<trkpt lat="35.50453205" lon="-107.15626776">
<ele>1797.2</ele>
<time>2022-03-28T16:59:51Z</time>
<speed>1</speed>
</trkpt>
<trkpt lat="35.5045069" lon="-107.15630297">
<ele>1798.2</ele>
<time>2022-03-28T16:59:55Z</time>
<speed>1</speed>
</trkpt>
<trkpt lat="35.50447488" lon="-107.15633822">
<ele>1797.7</ele>
<time>2022-03-28T17:00:00Z</time>
<speed>0.9</speed>
</trkpt>
<trkpt lat="35.50445078" lon="-107.15637294">
<ele>1798</ele>
<time>2022-03-28T17:00:05Z</time>
<speed>0.4</speed>
</trkpt>
<trkpt lat="35.50443522" lon="-107.15641893">
<ele>1797.8</ele>
<time>2022-03-28T17:00:29Z</time>
<speed>1</speed>
</trkpt>
<trkpt lat="35.50441797" lon="-107.15645932">
<ele>1798.2</ele>
<time>2022-03-28T17:00:33Z</time>
<speed>0.9</speed>
</trkpt>
<trkpt lat="35.50439732" lon="-107.1565043">
<ele>1798.3</ele>
<time>2022-03-28T17:00:44Z</time>
<speed>1.1</speed>
</trkpt>
<trkpt lat="35.50436763" lon="-107.15654075">
<ele>1798.4</ele>
<time>2022-03-28T17:00:48Z</time>
<speed>1.2</speed>
</trkpt>
<trkpt lat="35.50435122" lon="-107.15658601">
<ele>1797.7</ele>
<time>2022-03-28T17:00:52Z</time>
<speed>1.2</speed>
</trkpt>
<trkpt lat="35.50433715" lon="-107.15662696">
<ele>1797.4</ele>
<time>2022-03-28T17:00:55Z</time>
<speed>1.2</speed>
</trkpt>
<trkpt lat="35.50431147" lon="-107.15667319">
<ele>1796.8</ele>
<time>2022-03-28T17:00:59Z</time>
<speed>1.2</speed>
</trkpt>
<trkpt lat="35.50427861" lon="-107.15671053">
<ele>1796.8</ele>
<time>2022-03-28T17:01:03Z</time>
<speed>1.2</speed>
</trkpt>
<trkpt lat="35.50426369" lon="-107.15676399">
<ele>1795.1</ele>
<time>2022-03-28T17:01:07Z</time>
<speed>1.2</speed>
</trkpt>
<trkpt lat="35.50423613" lon="-107.15680514">
<ele>1796.2</ele>
<time>2022-03-28T17:01:11Z</time>
<speed>1.1</speed>
</trkpt>
<trkpt lat="35.50420493" lon="-107.15683398">
<ele>1797.4</ele>
<time>2022-03-28T17:01:15Z</time>
<speed>1.2</speed>
</trkpt>
<trkpt lat="35.50419008" lon="-107.15687981">
<ele>1798.6</ele>
<time>2022-03-28T17:01:19Z</time>
<speed>1.2</speed>
</trkpt>
<trkpt lat="35.50419036" lon="-107.15692957">
<ele>1797.9</ele>
<time>2022-03-28T17:01:22Z</time>
<speed>1.3</speed>
</trkpt>
<trkpt lat="35.50419108" lon="-107.15698389">
<ele>1798</ele>
<time>2022-03-28T17:01:26Z</time>
<speed>1.2</speed>
</trkpt>
<trkpt lat="35.5041741" lon="-107.15703516">
<ele>1797.4</ele>
<time>2022-03-28T17:01:30Z</time>
<speed>1.2</speed>
</trkpt>
<trkpt lat="35.50415388" lon="-107.1570809">
<ele>1796.2</ele>
<time>2022-03-28T17:01:34Z</time>
<speed>1.2</speed>
</trkpt>
<trkpt lat="35.50414069" lon="-107.15712938">
<ele>1796.3</ele>
<time>2022-03-28T17:01:38Z</time>
<speed>1</speed>
</trkpt>
<trkpt lat="35.50410331" lon="-107.15715695">
<ele>1796.8</ele>
<time>2022-03-28T17:01:42Z</time>
<speed>1.2</speed>
</trkpt>
<trkpt lat="35.5040796" lon="-107.15719554">
<ele>1796.7</ele>
<time>2022-03-28T17:01:46Z</time>
<speed>1</speed>
</trkpt>
<trkpt lat="35.504052" lon="-107.15723028">
<ele>1797.9</ele>
<time>2022-03-28T17:01:50Z</time>
<speed>1.1</speed>
</trkpt>
<trkpt lat="35.50402539" lon="-107.15727099">
<ele>1797.6</ele>
<time>2022-03-28T17:01:54Z</time>
<speed>1.1</speed>
</trkpt>
<trkpt lat="35.504006" lon="-107.15731495">
<ele>1798.2</ele>
<time>2022-03-28T17:01:58Z</time>
<speed>1.1</speed>
</trkpt>
<trkpt lat="35.50399739" lon="-107.1573587">
<ele>1797.3</ele>
<time>2022-03-28T17:02:01Z</time>
<speed>1.1</speed>
</trkpt>
<trkpt lat="35.50400397" lon="-107.15740344">
<ele>1797.6</ele>
<time>2022-03-28T17:02:04Z</time>
<speed>1.1</speed>
</trkpt>
<trkpt lat="35.50399706" lon="-107.15745668">
<ele>1796.7</ele>
<time>2022-03-28T17:02:08Z</time>
<speed>1.1</speed>
</trkpt>
<trkpt lat="35.50398319" lon="-107.15749942">
<ele>1796.6</ele>
<time>2022-03-28T17:02:12Z</time>
<speed>1</speed>
</trkpt>
<trkpt lat="35.50395028" lon="-107.15752352">
<ele>1797.1</ele>
<time>2022-03-28T17:02:16Z</time>
<speed>1.1</speed>
</trkpt>
<trkpt lat="35.5039379" lon="-107.15757223">
<ele>1797.7</ele>
<time>2022-03-28T17:02:20Z</time>
<speed>1.3</speed>
</trkpt>
<trkpt lat="35.50392767" lon="-107.15762585">
<ele>1797.2</ele>
<time>2022-03-28T17:02:24Z</time>
<speed>1.2</speed>
</trkpt>
<trkpt lat="35.50391434" lon="-107.15767572">
<ele>1797.5</ele>
<time>2022-03-28T17:02:28Z</time>
<speed>1.3</speed>
</trkpt>
<trkpt lat="35.50390519" lon="-107.15771915">
<ele>1795.9</ele>
<time>2022-03-28T17:02:31Z</time>
<speed>1.2</speed>
</trkpt>
<trkpt lat="35.50389285" lon="-107.15776646">
<ele>1796.6</ele>
<time>2022-03-28T17:02:35Z</time>
<speed>1.2</speed>
</trkpt>
<trkpt lat="35.50387118" lon="-107.15781062">
<ele>1796.8</ele>
<time>2022-03-28T17:02:39Z</time>
<speed>1.3</speed>
</trkpt>
<trkpt lat="35.5038531" lon="-107.15785606">
<ele>1796.9</ele>
<time>2022-03-28T17:02:43Z</time>
<speed>1.2</speed>
</trkpt>
<trkpt lat="35.50384254" lon="-107.1579086">
<ele>1796.3</ele>
<time>2022-03-28T17:02:50Z</time>
<speed>0.8</speed>
</trkpt>
<trkpt lat="35.50383756" lon="-107.15796356">
<ele>1796.2</ele>
<time>2022-03-28T17:02:55Z</time>
<speed>1.1</speed>
</trkpt>
<trkpt lat="35.50383842" lon="-107.15802154">
<ele>1794.6</ele>
<time>2022-03-28T17:02:59Z</time>
<speed>1.1</speed>
</trkpt>
<trkpt lat="35.50385025" lon="-107.15807588">
<ele>1794.8</ele>
<time>2022-03-28T17:03:03Z</time>
<speed>1.1</speed>
</trkpt>
<trkpt lat="35.50386006" lon="-107.1581216">
<ele>1795.1</ele>
<time>2022-03-28T17:03:07Z</time>
<speed>1.2</speed>
</trkpt>
<trkpt lat="35.50383749" lon="-107.15816992">
<ele>1794.1</ele>
<time>2022-03-28T17:03:12Z</time>
<speed>1.3</speed>
</trkpt>
<trkpt lat="35.50381726" lon="-107.15820729">
<ele>1793.6</ele>
<time>2022-03-28T17:03:16Z</time>
<speed>1.1</speed>
</trkpt>
<trkpt lat="35.5037852" lon="-107.1582478">
<ele>1793.9</ele>
<time>2022-03-28T17:03:20Z</time>
<speed>1.2</speed>
</trkpt>
<trkpt lat="35.50374958" lon="-107.15828005">
<ele>1794.3</ele>
<time>2022-03-28T17:03:24Z</time>
<speed>1.3</speed>
</trkpt>
<trkpt lat="35.50372316" lon="-107.15832106">
<ele>1794.4</ele>
<time>2022-03-28T17:03:28Z</time>
<speed>1</speed>
</trkpt>
<trkpt lat="35.50370742" lon="-107.15837063">
<ele>1794.1</ele>
<time>2022-03-28T17:03:33Z</time>
<speed>0.8</speed>
</trkpt>
<trkpt lat="35.50370841" lon="-107.15842529">
<ele>1794.4</ele>
<time>2022-03-28T17:03:49Z</time>
<speed>1</speed>
</trkpt>
<trkpt lat="35.50369528" lon="-107.15847144">
<ele>1794.8</ele>
<time>2022-03-28T17:03:53Z</time>
<speed>1.1</speed>
</trkpt>
<trkpt lat="35.50367093" lon="-107.15851262">
<ele>1794.7</ele>
<time>2022-03-28T17:03:57Z</time>
<speed>1.1</speed>
</trkpt>
<trkpt lat="35.50365262" lon="-107.15855579">
<ele>1794.5</ele>
<time>2022-03-28T17:04:01Z</time>
<speed>1.1</speed>
</trkpt>
<trkpt lat="35.50363822" lon="-107.15859914">
<ele>1795.3</ele>
<time>2022-03-28T17:04:05Z</time>
<speed>1.2</speed>
</trkpt>
<trkpt lat="35.50362422" lon="-107.15864748">
<ele>1795.3</ele>
<time>2022-03-28T17:04:09Z</time>
<speed>0.9</speed>
</trkpt>
<trkpt lat="35.50361083" lon="-107.15869448">
<ele>1793.8</ele>
<time>2022-03-28T17:04:13Z</time>
<speed>1</speed>
</trkpt>
<trkpt lat="35.50358991" lon="-107.15873322">
<ele>1793.7</ele>
<time>2022-03-28T17:04:27Z</time>
<speed>1</speed>
</trkpt>
<trkpt lat="35.50356311" lon="-107.15876537">
<ele>1794.3</ele>
<time>2022-03-28T17:04:31Z</time>
<speed>1</speed>
</trkpt>
<trkpt lat="35.50354038" lon="-107.15880665">
<ele>1794.9</ele>
<time>2022-03-28T17:04:35Z</time>
<speed>1.1</speed>
</trkpt>
<trkpt lat="35.50352877" lon="-107.15885488">
<ele>1794.4</ele>
<time>2022-03-28T17:04:39Z</time>
<speed>1.1</speed>
</trkpt>
<trkpt lat="35.5035202" lon="-107.15890033">
<ele>1795.6</ele>
<time>2022-03-28T17:04:43Z</time>
<speed>1.1</speed>
</trkpt>
<trkpt lat="35.50350987" lon="-107.15894338">
<ele>1795.3</ele>
<time>2022-03-28T17:04:47Z</time>
<speed>1</speed>
</trkpt>
<trkpt lat="35.50349973" lon="-107.15899418">
<ele>1794</ele>
<time>2022-03-28T17:04:51Z</time>
<speed>1.1</speed>
</trkpt>
<trkpt lat="35.503495" lon="-107.15904389">
<ele>1794.5</ele>
<time>2022-03-28T17:04:55Z</time>
<speed>1.2</speed>
</trkpt>
<trkpt lat="35.50348365" lon="-107.15909081">
<ele>1795.9</ele>
<time>2022-03-28T17:05:44Z</time>
<speed>0.7</speed>
</trkpt>
<trkpt lat="35.50348537" lon="-107.159136">
<ele>1796.2</ele>
<time>2022-03-28T17:05:49Z</time>
<speed>0.8</speed>
</trkpt>
<trkpt lat="35.50349263" lon="-107.15917981">
<ele>1795.7</ele>
<time>2022-03-28T17:05:53Z</time>
<speed>0.8</speed>
</trkpt>
<trkpt lat="35.50350282" lon="-107.15922525">
<ele>1796.9</ele>
<time>2022-03-28T17:07:11Z</time>
<speed>0.9</speed>
</trkpt>
<trkpt lat="35.5034962" lon="-107.1592733">
<ele>1796.1</ele>
<time>2022-03-28T17:07:17Z</time>
<speed>0.8</speed>
</trkpt>
<trkpt lat="35.5034807" lon="-107.15931977">
<ele>1797.5</ele>
<time>2022-03-28T17:07:23Z</time>
<speed>0.7</speed>
</trkpt>
<trkpt lat="35.50346192" lon="-107.15935978">
<ele>1798.1</ele>
<time>2022-03-28T17:07:28Z</time>
<speed>0.8</speed>
</trkpt>
<trkpt lat="35.5034408" lon="-107.15939855">
<ele>1798.1</ele>
<time>2022-03-28T17:07:33Z</time>
<speed>0.9</speed>
</trkpt>
<trkpt lat="35.50342883" lon="-107.15944143">
<ele>1797.4</ele>
<time>2022-03-28T17:07:37Z</time>
<speed>0.9</speed>
</trkpt>
<trkpt lat="35.50341648" lon="-107.15948428">
<ele>1797.4</ele>
<time>2022-03-28T17:07:42Z</time>
<speed>0.8</speed>
</trkpt>
<trkpt lat="35.50341138" lon="-107.15953015">
<ele>1797.5</ele>
<time>2022-03-28T17:07:47Z</time>
<speed>0.8</speed>
</trkpt>
<trkpt lat="35.50340705" lon="-107.15957674">
<ele>1796.2</ele>
<time>2022-03-28T17:07:51Z</time>
<speed>1</speed>
</trkpt>
<trkpt lat="35.50340809" lon="-107.15962363">
<ele>1796.7</ele>
<time>2022-03-28T17:07:55Z</time>
<speed>1</speed>
</trkpt>
<trkpt lat="35.50340447" lon="-107.15967684">
<ele>1797</ele>
<time>2022-03-28T17:08:00Z</time>
<speed>1</speed>
</trkpt>
<trkpt lat="35.50339014" lon="-107.15972679">
<ele>1795.2</ele>
<time>2022-03-28T17:08:05Z</time>
<speed>0.9</speed>
</trkpt>
<trkpt lat="35.50337148" lon="-107.15976516">
<ele>1794</ele>
<time>2022-03-28T17:08:09Z</time>
<speed>1</speed>
</trkpt>
<trkpt lat="35.5033579" lon="-107.159814">
<ele>1794.2</ele>
<time>2022-03-28T17:08:14Z</time>
<speed>0.9</speed>
</trkpt>
<trkpt lat="35.50333763" lon="-107.15985771">
<ele>1794.1</ele>
<time>2022-03-28T17:08:19Z</time>
<speed>1</speed>
</trkpt>
<trkpt lat="35.50331346" lon="-107.15989133">
<ele>1794.2</ele>
<time>2022-03-28T17:08:23Z</time>
<speed>1</speed>
</trkpt>
<trkpt lat="35.50329431" lon="-107.159929">
<ele>1792.5</ele>
<time>2022-03-28T17:08:27Z</time>
<speed>0.9</speed>
</trkpt>
<trkpt lat="35.50326935" lon="-107.1599698">
<ele>1791.9</ele>
<time>2022-03-28T17:08:32Z</time>
<speed>1</speed>
</trkpt>
<trkpt lat="35.50324865" lon="-107.16000963">
<ele>1790.8</ele>
<time>2022-03-28T17:08:36Z</time>
<speed>1.1</speed>
</trkpt>
<trkpt lat="35.50323191" lon="-107.16005064">
<ele>1789.8</ele>
<time>2022-03-28T17:08:40Z</time>
<speed>0.9</speed>
</trkpt>
<trkpt lat="35.5031945" lon="-107.16007412">
<ele>1792.4</ele>
<time>2022-03-28T17:08:45Z</time>
<speed>1</speed>
</trkpt>
<trkpt lat="35.50317195" lon="-107.16011034">
<ele>1793.7</ele>
<time>2022-03-28T17:08:51Z</time>
<speed>0.9</speed>
</trkpt>
<trkpt lat="35.50315334" lon="-107.16015439">
<ele>1792.9</ele>
<time>2022-03-28T17:08:56Z</time>
<speed>0.9</speed>
</trkpt>
<trkpt lat="35.50314366" lon="-107.16019999">
<ele>1793</ele>
<time>2022-03-28T17:09:00Z</time>
<speed>1.1</speed>
</trkpt>
<trkpt lat="35.50314664" lon="-107.16025557">
<ele>1793.9</ele>
<time>2022-03-28T17:09:04Z</time>
<speed>1</speed>
</trkpt>
<trkpt lat="35.50314931" lon="-107.16031001">
<ele>1794</ele>
<time>2022-03-28T17:09:08Z</time>
<speed>1</speed>
</trkpt>
<trkpt lat="35.50315476" lon="-107.16035742">
<ele>1795.2</ele>
<time>2022-03-28T17:09:12Z</time>
<speed>1</speed>
</trkpt>
<trkpt lat="35.50316393" lon="-107.16040849">
<ele>1795.4</ele>
<time>2022-03-28T17:09:16Z</time>
<speed>1.1</speed>
</trkpt>
<trkpt lat="35.50316721" lon="-107.16045279">
<ele>1796.5</ele>
<time>2022-03-28T17:09:20Z</time>
<speed>1.1</speed>
</trkpt>
<trkpt lat="35.50316716" lon="-107.16049864">
<ele>1797</ele>
<time>2022-03-28T17:09:24Z</time>
<speed>1</speed>
</trkpt>
<trkpt lat="35.50316714" lon="-107.16054535">
<ele>1798.1</ele>
<time>2022-03-28T17:09:36Z</time>
<speed>0.9</speed>
</trkpt>
<trkpt lat="35.50316346" lon="-107.1605969">
<ele>1797.7</ele>
<time>2022-03-28T17:09:40Z</time>
<speed>1.2</speed>
</trkpt>
<trkpt lat="35.50315865" lon="-107.16064711">
<ele>1797.9</ele>
<time>2022-03-28T17:09:44Z</time>
<speed>1.2</speed>
</trkpt>
<trkpt lat="35.50316174" lon="-107.16070014">
<ele>1797.1</ele>
<time>2022-03-28T17:09:48Z</time>
<speed>1</speed>
</trkpt>
<trkpt lat="35.50317191" lon="-107.16074714">
<ele>1797.5</ele>
<time>2022-03-28T17:09:52Z</time>
<speed>1.1</speed>
</trkpt>
<trkpt lat="35.50317864" lon="-107.16079453">
<ele>1797.3</ele>
<time>2022-03-28T17:09:56Z</time>
<speed>1.1</speed>
</trkpt>
<trkpt lat="35.50318366" lon="-107.16084296">
<ele>1797.9</ele>
<time>2022-03-28T17:10:00Z</time>
<speed>1.1</speed>
</trkpt>
<trkpt lat="35.50318553" lon="-107.16089189">
<ele>1797.8</ele>
<time>2022-03-28T17:10:04Z</time>
<speed>1.1</speed>
</trkpt>
<trkpt lat="35.50318305" lon="-107.16094288">
<ele>1798.4</ele>
<time>2022-03-28T17:10:08Z</time>
<speed>1.1</speed>
</trkpt>
<trkpt lat="35.50317138" lon="-107.16099741">
<ele>1797.3</ele>
<time>2022-03-28T17:10:12Z</time>
<speed>1.2</speed>
</trkpt>
<trkpt lat="35.50316923" lon="-107.16104151">
<ele>1797.1</ele>
<time>2022-03-28T17:10:15Z</time>
<speed>1.1</speed>
</trkpt>
<trkpt lat="35.50318164" lon="-107.16108968">
<ele>1797</ele>
<time>2022-03-28T17:10:21Z</time>
<speed>0.9</speed>
</trkpt>
<trkpt lat="35.50317866" lon="-107.16113448">
<ele>1797.9</ele>
<time>2022-03-28T17:10:25Z</time>
<speed>1.1</speed>
</trkpt>
<trkpt lat="35.50318373" lon="-107.16118604">
<ele>1797.9</ele>
<time>2022-03-28T17:10:30Z</time>
<speed>0.8</speed>
</trkpt>
<trkpt lat="35.50318145" lon="-107.16123072">
<ele>1798.9</ele>
<time>2022-03-28T17:10:36Z</time>
<speed>1</speed>
</trkpt>
<trkpt lat="35.50316543" lon="-107.16127458">
<ele>1799.7</ele>
<time>2022-03-28T17:10:40Z</time>
<speed>1</speed>
</trkpt>
<trkpt lat="35.50314688" lon="-107.16131873">
<ele>1801.3</ele>
<time>2022-03-28T17:10:44Z</time>
<speed>1.2</speed>
</trkpt>
<trkpt lat="35.50314349" lon="-107.16136577">
<ele>1802</ele>
<time>2022-03-28T17:10:48Z</time>
<speed>0.9</speed>
</trkpt>
<trkpt lat="35.50314621" lon="-107.16141796">
<ele>1801.7</ele>
<time>2022-03-28T17:10:52Z</time>
<speed>1</speed>
</trkpt>
<trkpt lat="35.50314895" lon="-107.16146769">
<ele>1801.7</ele>
<time>2022-03-28T17:10:57Z</time>
<speed>0.9</speed>
</trkpt>
<trkpt lat="35.503141" lon="-107.16151849">
<ele>1801.7</ele>
<time>2022-03-28T17:11:01Z</time>
<speed>1.1</speed>
</trkpt>
<trkpt lat="35.50313836" lon="-107.16156973">
<ele>1802</ele>
<time>2022-03-28T17:11:05Z</time>
<speed>1.1</speed>
</trkpt>
<trkpt lat="35.50314825" lon="-107.16162744">
<ele>1801.1</ele>
<time>2022-03-28T17:11:09Z</time>
<speed>1.3</speed>
</trkpt>
<trkpt lat="35.50314691" lon="-107.16168286">
<ele>1801.6</ele>
<time>2022-03-28T17:11:13Z</time>
<speed>1.2</speed>
</trkpt>
<trkpt lat="35.50314547" lon="-107.16173237">
<ele>1801.5</ele>
<time>2022-03-28T17:11:17Z</time>
<speed>1.1</speed>
</trkpt>
<trkpt lat="35.50312735" lon="-107.16177077">
<ele>1801.9</ele>
<time>2022-03-28T17:11:22Z</time>
<speed>1</speed>
</trkpt>
<trkpt lat="35.50310445" lon="-107.16181196">
<ele>1803</ele>
<time>2022-03-28T17:11:27Z</time>
<speed>1</speed>
</trkpt>
<trkpt lat="35.50308022" lon="-107.16184635">
<ele>1803.7</ele>
<time>2022-03-28T17:11:31Z</time>
<speed>1.1</speed>
</trkpt>
<trkpt lat="35.50306171" lon="-107.1618948">
<ele>1803.8</ele>
<time>2022-03-28T17:11:36Z</time>
<speed>1</speed>
</trkpt>
<trkpt lat="35.50305237" lon="-107.16194376">
<ele>1803.9</ele>
<time>2022-03-28T17:11:40Z</time>
<speed>1</speed>
</trkpt>
<trkpt lat="35.503059" lon="-107.16199379">
<ele>1803.5</ele>
<time>2022-03-28T17:11:44Z</time>
<speed>1.1</speed>
</trkpt>
<trkpt lat="35.50307247" lon="-107.16203477">
<ele>1803</ele>
<time>2022-03-28T17:11:48Z</time>
<speed>0.9</speed>
</trkpt>
<trkpt lat="35.50306075" lon="-107.16208084">
<ele>1801.8</ele>
<time>2022-03-28T17:11:52Z</time>
<speed>1.1</speed>
</trkpt>
<trkpt lat="35.50305021" lon="-107.16212611">
<ele>1802.4</ele>
<time>2022-03-28T17:11:56Z</time>
<speed>1</speed>
</trkpt>
<trkpt lat="35.50304667" lon="-107.1621709">
<ele>1802</ele>
<time>2022-03-28T17:12:00Z</time>
<speed>1</speed>
</trkpt>
<trkpt lat="35.50304181" lon="-107.16221676">
<ele>1802.4</ele>
<time>2022-03-28T17:12:04Z</time>
<speed>1.1</speed>
</trkpt>
<trkpt lat="35.50303501" lon="-107.16226527">
<ele>1802</ele>
<time>2022-03-28T17:12:08Z</time>
<speed>1.1</speed>
</trkpt>
<trkpt lat="35.50302268" lon="-107.16230689">
<ele>1802.8</ele>
<time>2022-03-28T17:12:12Z</time>
<speed>1</speed>
</trkpt>
<trkpt lat="35.50302683" lon="-107.16235881">
<ele>1802.5</ele>
<time>2022-03-28T17:12:16Z</time>
<speed>1.1</speed>
</trkpt>
<trkpt lat="35.50301692" lon="-107.16240621">
<ele>1801.8</ele>
<time>2022-03-28T17:12:20Z</time>
<speed>1.3</speed>
</trkpt>
<trkpt lat="35.50300964" lon="-107.16245459">
<ele>1801.9</ele>
<time>2022-03-28T17:12:24Z</time>
<speed>1.1</speed>
</trkpt>
<trkpt lat="35.50299967" lon="-107.16250157">
<ele>1801.9</ele>
<time>2022-03-28T17:12:28Z</time>
<speed>1</speed>
</trkpt>
<trkpt lat="35.50298478" lon="-107.16254588">
<ele>1801.5</ele>
<time>2022-03-28T17:12:32Z</time>
<speed>1.1</speed>
</trkpt>
<trkpt lat="35.50297803" lon="-107.16259843">
<ele>1801.1</ele>
<time>2022-03-28T17:12:36Z</time>
<speed>1.1</speed>
</trkpt>
<trkpt lat="35.50296976" lon="-107.16264973">
<ele>1801.3</ele>
<time>2022-03-28T17:12:40Z</time>
<speed>1.2</speed>
</trkpt>
<trkpt lat="35.50296211" lon="-107.16270146">
<ele>1802.1</ele>
<time>2022-03-28T17:12:44Z</time>
<speed>1.2</speed>
</trkpt>
<trkpt lat="35.50294352" lon="-107.16274373">
<ele>1802.9</ele>
<time>2022-03-28T17:12:48Z</time>
<speed>1.2</speed>
</trkpt>
<trkpt lat="35.50293024" lon="-107.16279453">
<ele>1803.1</ele>
<time>2022-03-28T17:12:52Z</time>
<speed>1.1</speed>
</trkpt>
<trkpt lat="35.50291505" lon="-107.16283811">
<ele>1802.8</ele>
<time>2022-03-28T17:12:56Z</time>
<speed>1.1</speed>
</trkpt>
<trkpt lat="35.50289792" lon="-107.16287808">
<ele>1802.7</ele>
<time>2022-03-28T17:13:00Z</time>
<speed>1.1</speed>
</trkpt>
<trkpt lat="35.5028866" lon="-107.16292362">
<ele>1801.5</ele>
<time>2022-03-28T17:13:04Z</time>
<speed>1.1</speed>
</trkpt>
<trkpt lat="35.50288199" lon="-107.16297245">
<ele>1801</ele>
<time>2022-03-28T17:13:08Z</time>
<speed>1</speed>
</trkpt>
<trkpt lat="35.50289897" lon="-107.16302032">
<ele>1800.3</ele>
<time>2022-03-28T17:13:12Z</time>
<speed>1.1</speed>
</trkpt>
<trkpt lat="35.50290912" lon="-107.16307144">
<ele>1799.9</ele>
<time>2022-03-28T17:13:16Z</time>
<speed>1.2</speed>
</trkpt>
<trkpt lat="35.50293123" lon="-107.16311182">
<ele>1798.8</ele>
<time>2022-03-28T17:13:27Z</time>
<speed>1</speed>
</trkpt>
<trkpt lat="35.50295132" lon="-107.16314904">
<ele>1798.1</ele>
<time>2022-03-28T17:13:31Z</time>
<speed>1.4</speed>
</trkpt>
<trkpt lat="35.50296643" lon="-107.16319508">
<ele>1797.5</ele>
<time>2022-03-28T17:13:35Z</time>
<speed>0.9</speed>
</trkpt>
<trkpt lat="35.50297807" lon="-107.16324401">
<ele>1797.4</ele>
<time>2022-03-28T17:13:40Z</time>
<speed>0.8</speed>
</trkpt>
<trkpt lat="35.50297789" lon="-107.16329004">
<ele>1798.1</ele>
<time>2022-03-28T17:13:46Z</time>
<speed>0.9</speed>
</trkpt>
<trkpt lat="35.50298949" lon="-107.16334112">
<ele>1797.9</ele>
<time>2022-03-28T17:13:52Z</time>
<speed>1</speed>
</trkpt>
<trkpt lat="35.50300791" lon="-107.16338361">
<ele>1798.7</ele>
<time>2022-03-28T17:13:57Z</time>
<speed>0.9</speed>
</trkpt>
<trkpt lat="35.50302976" lon="-107.16342886">
<ele>1798.4</ele>
<time>2022-03-28T17:14:12Z</time>
<speed>1.2</speed>
</trkpt>
<trkpt lat="35.50304259" lon="-107.16348279">
<ele>1797.6</ele>
<time>2022-03-28T17:14:16Z</time>
<speed>1.1</speed>
</trkpt>
<trkpt lat="35.50306052" lon="-107.1635287">
<ele>1799</ele>
<time>2022-03-28T17:14:20Z</time>
<speed>1</speed>
</trkpt>
<trkpt lat="35.50307396" lon="-107.16357122">
<ele>1800</ele>
<time>2022-03-28T17:14:24Z</time>
<speed>1.2</speed>
</trkpt>
<trkpt lat="35.50308486" lon="-107.16362255">
<ele>1800.1</ele>
<time>2022-03-28T17:14:28Z</time>
<speed>1.2</speed>
</trkpt>
<trkpt lat="35.50309755" lon="-107.16367348">
<ele>1800.5</ele>
<time>2022-03-28T17:14:32Z</time>
<speed>1.2</speed>
</trkpt>
<trkpt lat="35.50310675" lon="-107.16372579">
<ele>1800.3</ele>
<time>2022-03-28T17:14:36Z</time>
<speed>1.2</speed>
</trkpt>
<trkpt lat="35.50311821" lon="-107.16377641">
<ele>1799.8</ele>
<time>2022-03-28T17:14:40Z</time>
<speed>1.2</speed>
</trkpt>
<trkpt lat="35.50313449" lon="-107.16382173">
<ele>1801.5</ele>
<time>2022-03-28T17:14:44Z</time>
<speed>1.1</speed>
</trkpt>
<trkpt lat="35.50315488" lon="-107.16386906">
<ele>1801.7</ele>
<time>2022-03-28T17:14:48Z</time>
<speed>1.1</speed>
</trkpt>
<trkpt lat="35.50318207" lon="-107.16391239">
<ele>1801.7</ele>
<time>2022-03-28T17:14:52Z</time>
<speed>1.1</speed>
</trkpt>
<trkpt lat="35.50320183" lon="-107.16395168">
<ele>1800.6</ele>
<time>2022-03-28T17:14:55Z</time>
<speed>1.3</speed>
</trkpt>
<trkpt lat="35.50323157" lon="-107.1639942">
<ele>1801</ele>
<time>2022-03-28T17:14:59Z</time>
<speed>1.1</speed>
</trkpt>
<trkpt lat="35.5032505" lon="-107.16404165">
<ele>1799.5</ele>
<time>2022-03-28T17:15:03Z</time>
<speed>1.2</speed>
</trkpt>
<trkpt lat="35.5032697" lon="-107.16408781">
<ele>1798.6</ele>
<time>2022-03-28T17:15:07Z</time>
<speed>1.2</speed>
</trkpt>
<trkpt lat="35.50328068" lon="-107.16413365">
<ele>1798.4</ele>
<time>2022-03-28T17:15:11Z</time>
<speed>1.1</speed>
</trkpt>
<trkpt lat="35.50329661" lon="-107.16418063">
<ele>1798.4</ele>
<time>2022-03-28T17:15:15Z</time>
<speed>1.1</speed>
</trkpt>
<trkpt lat="35.50331813" lon="-107.16422504">
<ele>1798.5</ele>
<time>2022-03-28T17:15:19Z</time>
<speed>1.3</speed>
</trkpt>
<trkpt lat="35.50333523" lon="-107.16427043">
<ele>1798.8</ele>
<time>2022-03-28T17:15:23Z</time>
<speed>1.1</speed>
</trkpt>
<trkpt lat="35.50336446" lon="-107.16431523">
<ele>1799.9</ele>
<time>2022-03-28T17:15:27Z</time>
<speed>1.2</speed>
</trkpt>
<trkpt lat="35.5033938" lon="-107.16434634">
<ele>1800</ele>
<time>2022-03-28T17:15:31Z</time>
<speed>1.1</speed>
</trkpt>
<trkpt lat="35.5034116" lon="-107.16439537">
<ele>1798.9</ele>
<time>2022-03-28T17:15:35Z</time>
<speed>1.2</speed>
</trkpt>
<trkpt lat="35.50342798" lon="-107.16444733">
<ele>1798.1</ele>
<time>2022-03-28T17:15:39Z</time>
<speed>1.2</speed>
</trkpt>
<trkpt lat="35.50345527" lon="-107.16449038">
<ele>1798.1</ele>
<time>2022-03-28T17:15:43Z</time>
<speed>1.2</speed>
</trkpt>
<trkpt lat="35.50347486" lon="-107.16453184">
<ele>1798.4</ele>
<time>2022-03-28T17:15:47Z</time>
<speed>1</speed>
</trkpt>
<trkpt lat="35.50349299" lon="-107.16458027">
<ele>1798.3</ele>
<time>2022-03-28T17:15:51Z</time>
<speed>1.2</speed>
</trkpt>
<trkpt lat="35.50351983" lon="-107.16461441">
<ele>1797.8</ele>
<time>2022-03-28T17:15:55Z</time>
<speed>0.9</speed>
</trkpt>
<trkpt lat="35.5035368" lon="-107.16465454">
<ele>1797.9</ele>
<time>2022-03-28T17:15:59Z</time>
<speed>1</speed>
</trkpt>
<trkpt lat="35.50354471" lon="-107.16470332">
<ele>1797.8</ele>
<time>2022-03-28T17:16:03Z</time>
<speed>1.2</speed>
</trkpt>
<trkpt lat="35.50356496" lon="-107.16474873">
<ele>1796.7</ele>
<time>2022-03-28T17:16:07Z</time>
<speed>1.2</speed>
</trkpt>
<trkpt lat="35.50359199" lon="-107.16478709">
<ele>1797.2</ele>
<time>2022-03-28T17:16:11Z</time>
<speed>1.2</speed>
</trkpt>
<trkpt lat="35.50362648" lon="-107.16481283">
<ele>1797.4</ele>
<time>2022-03-28T17:16:15Z</time>
<speed>1.2</speed>
</trkpt>
<trkpt lat="35.50366539" lon="-107.16483968">
<ele>1796.9</ele>
<time>2022-03-28T17:16:19Z</time>
<speed>1.1</speed>
</trkpt>
<trkpt lat="35.50369408" lon="-107.16488159">
<ele>1797</ele>
<time>2022-03-28T17:16:23Z</time>
<speed>1.1</speed>
</trkpt>
<trkpt lat="35.50372938" lon="-107.16490742">
<ele>1796.2</ele>
<time>2022-03-28T17:16:27Z</time>
<speed>1.2</speed>
</trkpt>
<trkpt lat="35.50376087" lon="-107.16494568">
<ele>1795.6</ele>
<time>2022-03-28T17:16:31Z</time>
<speed>1.1</speed>
</trkpt>
<trkpt lat="35.50379381" lon="-107.16497696">
<ele>1795.5</ele>
<time>2022-03-28T17:16:35Z</time>
<speed>1.2</speed>
</trkpt>
<trkpt lat="35.503827" lon="-107.16501203">
<ele>1795.2</ele>
<time>2022-03-28T17:16:39Z</time>
<speed>1.1</speed>
</trkpt>
<trkpt lat="35.50384086" lon="-107.16505634">
<ele>1795.1</ele>
<time>2022-03-28T17:16:42Z</time>
<speed>1.2</speed>
</trkpt>
<trkpt lat="35.50386575" lon="-107.16510564">
<ele>1795.6</ele>
<time>2022-03-28T17:16:46Z</time>
<speed>1.2</speed>
</trkpt>
<trkpt lat="35.5038964" lon="-107.16514754">
<ele>1796</ele>
<time>2022-03-28T17:16:50Z</time>
<speed>1.2</speed>
</trkpt>
<trkpt lat="35.50392366" lon="-107.16518507">
<ele>1796.6</ele>
<time>2022-03-28T17:16:54Z</time>
<speed>1.2</speed>
</trkpt>
<trkpt lat="35.50395422" lon="-107.16521761">
<ele>1797.1</ele>
<time>2022-03-28T17:16:58Z</time>
<speed>1.1</speed>
</trkpt>
<trkpt lat="35.50397544" lon="-107.16526241">
<ele>1796.5</ele>
<time>2022-03-28T17:17:03Z</time>
<speed>0.8</speed>
</trkpt>
<trkpt lat="35.50399169" lon="-107.1653055">
<ele>1795.7</ele>
<time>2022-03-28T17:17:10Z</time>
<speed>0.6</speed>
</trkpt>
<trkpt lat="35.50401314" lon="-107.16534381">
<ele>1795.9</ele>
<time>2022-03-28T17:17:18Z</time>
<speed>0.9</speed>
</trkpt>
<trkpt lat="35.50404518" lon="-107.16537495">
<ele>1795.8</ele>
<time>2022-03-28T17:17:23Z</time>
<speed>0.9</speed>
</trkpt>
<trkpt lat="35.50407412" lon="-107.1654094">
<ele>1797</ele>
<time>2022-03-28T17:17:28Z</time>
<speed>0.7</speed>
</trkpt>
<trkpt lat="35.50408707" lon="-107.16545558">
<ele>1797.7</ele>
<time>2022-03-28T17:17:33Z</time>
<speed>0.8</speed>
</trkpt>
<trkpt lat="35.50410477" lon="-107.16550303">
<ele>1798</ele>
<time>2022-03-28T17:17:39Z</time>
<speed>0.7</speed>
</trkpt>
<trkpt lat="35.50410212" lon="-107.16554863">
<ele>1798.3</ele>
<time>2022-03-28T17:17:55Z</time>
<speed>0.8</speed>
</trkpt>
<trkpt lat="35.50411141" lon="-107.1655934">
<ele>1798.9</ele>
<time>2022-03-28T17:17:59Z</time>
<speed>0.9</speed>
</trkpt>
<trkpt lat="35.50414236" lon="-107.16562624">
<ele>1798.8</ele>
<time>2022-03-28T17:18:03Z</time>
<speed>1</speed>
</trkpt>
<trkpt lat="35.50416273" lon="-107.16567044">
<ele>1800.5</ele>
<time>2022-03-28T17:18:08Z</time>
<speed>0.8</speed>
</trkpt>
<trkpt lat="35.50417481" lon="-107.16571725">
<ele>1799.8</ele>
<time>2022-03-28T17:18:12Z</time>
<speed>1.1</speed>
</trkpt>
<trkpt lat="35.50417333" lon="-107.16576708">
<ele>1800.3</ele>
<time>2022-03-28T17:18:17Z</time>
<speed>1</speed>
</trkpt>
<trkpt lat="35.50416999" lon="-107.16582236">
<ele>1802.1</ele>
<time>2022-03-28T17:18:22Z</time>
<speed>1.1</speed>
</trkpt>
<trkpt lat="35.50416407" lon="-107.165867">
<ele>1803.1</ele>
<time>2022-03-28T17:18:26Z</time>
<speed>1</speed>
</trkpt>
<trkpt lat="35.50417105" lon="-107.16591462">
<ele>1803.9</ele>
<time>2022-03-28T17:18:30Z</time>
<speed>1</speed>
</trkpt>
<trkpt lat="35.50417569" lon="-107.16595927">
<ele>1804.6</ele>
<time>2022-03-28T17:18:34Z</time>
<speed>1.1</speed>
</trkpt>
<trkpt lat="35.50417233" lon="-107.16600702">
<ele>1805.9</ele>
<time>2022-03-28T17:18:38Z</time>
<speed>1.2</speed>
</trkpt>
<trkpt lat="35.50417595" lon="-107.16605865">
<ele>1805.2</ele>
<time>2022-03-28T17:18:42Z</time>
<speed>1.3</speed>
</trkpt>
<trkpt lat="35.50418441" lon="-107.16611166">
<ele>1804.6</ele>
<time>2022-03-28T17:18:46Z</time>
<speed>1.2</speed>
</trkpt>
<trkpt lat="35.50420224" lon="-107.16616425">
<ele>1804.2</ele>
<time>2022-03-28T17:18:50Z</time>
<speed>1.2</speed>
</trkpt>
<trkpt lat="35.50420936" lon="-107.16621524">
<ele>1804.5</ele>
<time>2022-03-28T17:18:54Z</time>
<speed>1.1</speed>
</trkpt>
<trkpt lat="35.50421687" lon="-107.16626992">
<ele>1804.4</ele>
<time>2022-03-28T17:18:58Z</time>
<speed>1.1</speed>
</trkpt>
<trkpt lat="35.50421931" lon="-107.16632514">
<ele>1804.3</ele>
<time>2022-03-28T17:19:02Z</time>
<speed>1.1</speed>
</trkpt>
<trkpt lat="35.50422172" lon="-107.16638033">
<ele>1804.5</ele>
<time>2022-03-28T17:19:06Z</time>
<speed>1.3</speed>
</trkpt>
<trkpt lat="35.50423251" lon="-107.16643308">
<ele>1804.9</ele>
<time>2022-03-28T17:19:10Z</time>
<speed>1.2</speed>
</trkpt>
<trkpt lat="35.50424643" lon="-107.16648275">
<ele>1805.1</ele>
<time>2022-03-28T17:19:14Z</time>
<speed>1.1</speed>
</trkpt>
<trkpt lat="35.50425961" lon="-107.16652882">
<ele>1806.4</ele>
<time>2022-03-28T17:19:18Z</time>
<speed>1</speed>
</trkpt>
<trkpt lat="35.50426789" lon="-107.16657839">
<ele>1806.8</ele>
<time>2022-03-28T17:19:22Z</time>
<speed>1.3</speed>
</trkpt>
<trkpt lat="35.50426979" lon="-107.16663211">
<ele>1806</ele>
<time>2022-03-28T17:20:31Z</time>
<speed>0.9</speed>
</trkpt>
<trkpt lat="35.50426903" lon="-107.16668168">
<ele>1804.8</ele>
<time>2022-03-28T17:21:26Z</time>
<speed>1.1</speed>
</trkpt>
<trkpt lat="35.50428558" lon="-107.16672223">
<ele>1803.9</ele>
<time>2022-03-28T17:21:30Z</time>
<speed>0.9</speed>
</trkpt>
<trkpt lat="35.50431212" lon="-107.16675263">
<ele>1804.6</ele>
<time>2022-03-28T17:21:33Z</time>
<speed>1.3</speed>
</trkpt>
<trkpt lat="35.50434499" lon="-107.16678138">
<ele>1805</ele>
<time>2022-03-28T17:21:37Z</time>
<speed>1.1</speed>
</trkpt>
<trkpt lat="35.50434121" lon="-107.16683769">
<ele>1804.1</ele>
<time>2022-03-28T17:21:42Z</time>
<speed>1.1</speed>
</trkpt>
<trkpt lat="35.50432842" lon="-107.16688885">
<ele>1803.1</ele>
<time>2022-03-28T17:21:46Z</time>
<speed>1</speed>
</trkpt>
<trkpt lat="35.50432223" lon="-107.1669328">
<ele>1804.7</ele>
<time>2022-03-28T17:22:03Z</time>
<speed>0.2</speed>
</trkpt>
<trkpt lat="35.50432081" lon="-107.16698415">
<ele>1805</ele>
<time>2022-03-28T17:22:10Z</time>
<speed>1.2</speed>
</trkpt>
<trkpt lat="35.50431006" lon="-107.16703218">
<ele>1804.8</ele>
<time>2022-03-28T17:22:14Z</time>
<speed>1.2</speed>
</trkpt>
<trkpt lat="35.50430461" lon="-107.16708699">
<ele>1805</ele>
<time>2022-03-28T17:22:18Z</time>
<speed>1.1</speed>
</trkpt>
<trkpt lat="35.50430242" lon="-107.16713792">
<ele>1804.7</ele>
<time>2022-03-28T17:22:22Z</time>
<speed>1.3</speed>
</trkpt>
<trkpt lat="35.50429919" lon="-107.16719432">
<ele>1804.5</ele>
<time>2022-03-28T17:22:26Z</time>
<speed>1</speed>
</trkpt>
<trkpt lat="35.50431253" lon="-107.16723705">
<ele>1804.4</ele>
<time>2022-03-28T17:22:30Z</time>
<speed>1.1</speed>
</trkpt>
<trkpt lat="35.50432678" lon="-107.16727995">
<ele>1804.9</ele>
<time>2022-03-28T17:22:34Z</time>
<speed>1.1</speed>
</trkpt>
<trkpt lat="35.5043195" lon="-107.16732373">
<ele>1806.6</ele>
<time>2022-03-28T17:22:38Z</time>
<speed>1</speed>
</trkpt>
<trkpt lat="35.50430946" lon="-107.16736825">
<ele>1807.1</ele>
<time>2022-03-28T17:22:42Z</time>
<speed>1.1</speed>
</trkpt>
<trkpt lat="35.50430431" lon="-107.16741486">
<ele>1807</ele>
<time>2022-03-28T17:22:46Z</time>
<speed>1</speed>
</trkpt>
<trkpt lat="35.50431236" lon="-107.16746461">
<ele>1807.3</ele>
<time>2022-03-28T17:22:51Z</time>
<speed>1.1</speed>
</trkpt>
<trkpt lat="35.50430519" lon="-107.16751501">
<ele>1807</ele>
<time>2022-03-28T17:22:55Z</time>
<speed>1.2</speed>
</trkpt>
<trkpt lat="35.50430096" lon="-107.16756681">
<ele>1807</ele>
<time>2022-03-28T17:22:59Z</time>
<speed>1.2</speed>
</trkpt>
<trkpt lat="35.50430624" lon="-107.16761267">
<ele>1807.1</ele>
<time>2022-03-28T17:23:03Z</time>
<speed>1.1</speed>
</trkpt>
<trkpt lat="35.50431021" lon="-107.16766064">
<ele>1806.7</ele>
<time>2022-03-28T17:23:07Z</time>
<speed>1</speed>
</trkpt>
<trkpt lat="35.50432249" lon="-107.16770739">
<ele>1806.8</ele>
<time>2022-03-28T17:23:12Z</time>
<speed>1.1</speed>
</trkpt>
<trkpt lat="35.50433159" lon="-107.16775769">
<ele>1806.3</ele>
<time>2022-03-28T17:23:16Z</time>
<speed>1.2</speed>
</trkpt>
<trkpt lat="35.50431465" lon="-107.16780534">
<ele>1805.5</ele>
<time>2022-03-28T17:23:20Z</time>
<speed>1.4</speed>
</trkpt>
<trkpt lat="35.50429841" lon="-107.16786076">
<ele>1803.9</ele>
<time>2022-03-28T17:23:31Z</time>
<speed>1.5</speed>
</trkpt>
<trkpt lat="35.50430026" lon="-107.16791315">
<ele>1803.9</ele>
<time>2022-03-28T17:23:34Z</time>
<speed>1.3</speed>
</trkpt>
<trkpt lat="35.50430283" lon="-107.16795761">
<ele>1804.3</ele>
<time>2022-03-28T17:23:37Z</time>
<speed>1.2</speed>
</trkpt>
<trkpt lat="35.50429842" lon="-107.16800545">
<ele>1806.9</ele>
<time>2022-03-28T17:23:40Z</time>
<speed>1.2</speed>
</trkpt>
<trkpt lat="35.50429952" lon="-107.16805276">
<ele>1807.3</ele>
<time>2022-03-28T17:23:43Z</time>
<speed>1.2</speed>
</trkpt>
<trkpt lat="35.50430231" lon="-107.16809763">
<ele>1807.2</ele>
<time>2022-03-28T17:23:46Z</time>
<speed>1.2</speed>
</trkpt>
<trkpt lat="35.50430581" lon="-107.16814282">
<ele>1807.3</ele>
<time>2022-03-28T17:23:50Z</time>
<speed>1.1</speed>
</trkpt>
<trkpt lat="35.50432485" lon="-107.16818631">
<ele>1809.8</ele>
<time>2022-03-28T17:25:09Z</time>
<speed>0.9</speed>
</trkpt>
<trkpt lat="35.50433333" lon="-107.16823242">
<ele>1810</ele>
<time>2022-03-28T17:25:13Z</time>
<speed>0.9</speed>
</trkpt>
<trkpt lat="35.50434756" lon="-107.16827655">
<ele>1809.4</ele>
<time>2022-03-28T17:26:03Z</time>
<speed>0.7</speed>
</trkpt>
<trkpt lat="35.50435775" lon="-107.16832939">
<ele>1809.7</ele>
<time>2022-03-28T17:26:08Z</time>
<speed>0.9</speed>
</trkpt>
<trkpt lat="35.50435881" lon="-107.16837694">
<ele>1810</ele>
<time>2022-03-28T17:26:12Z</time>
<speed>1</speed>
</trkpt>
<trkpt lat="35.5043558" lon="-107.16842626">
<ele>1808.4</ele>
<time>2022-03-28T17:26:16Z</time>
<speed>1.3</speed>
</trkpt>
<trkpt lat="35.50435238" lon="-107.16847732">
<ele>1807.2</ele>
<time>2022-03-28T17:26:20Z</time>
<speed>1.2</speed>
</trkpt>
<trkpt lat="35.50436618" lon="-107.16851881">
<ele>1805.9</ele>
<time>2022-03-28T17:26:23Z</time>
<speed>1.1</speed>
</trkpt>
<trkpt lat="35.50437534" lon="-107.16856585">
<ele>1805.2</ele>
<time>2022-03-28T17:26:26Z</time>
<speed>1.2</speed>
</trkpt>
<trkpt lat="35.50437283" lon="-107.16861822">
<ele>1805.5</ele>
<time>2022-03-28T17:26:30Z</time>
<speed>1.1</speed>
</trkpt>
<trkpt lat="35.50437385" lon="-107.16866978">
<ele>1807.3</ele>
<time>2022-03-28T17:26:35Z</time>
<speed>0.9</speed>
</trkpt>
<trkpt lat="35.50437698" lon="-107.16871848">
<ele>1807.1</ele>
<time>2022-03-28T17:26:39Z</time>
<speed>1</speed>
</trkpt>
<trkpt lat="35.50439172" lon="-107.16876568">
<ele>1807.1</ele>
<time>2022-03-28T17:26:43Z</time>
<speed>1</speed>
</trkpt>
<trkpt lat="35.50439511" lon="-107.16882058">
<ele>1807.8</ele>
<time>2022-03-28T17:26:47Z</time>
<speed>1.1</speed>
</trkpt>
<trkpt lat="35.50439568" lon="-107.16887336">
<ele>1808.6</ele>
<time>2022-03-28T17:26:51Z</time>
<speed>1.1</speed>
</trkpt>
<trkpt lat="35.50440074" lon="-107.16892419">
<ele>1808.6</ele>
<time>2022-03-28T17:26:55Z</time>
<speed>1.1</speed>
</trkpt>
<trkpt lat="35.50440531" lon="-107.16897544">
<ele>1808.9</ele>
<time>2022-03-28T17:26:59Z</time>
<speed>1.1</speed>
</trkpt>
<trkpt lat="35.50441774" lon="-107.16903244">
<ele>1807.8</ele>
<time>2022-03-28T17:27:03Z</time>
<speed>1.3</speed>
</trkpt>
<trkpt lat="35.50442638" lon="-107.16908363">
<ele>1806.7</ele>
<time>2022-03-28T17:27:07Z</time>
<speed>1.1</speed>
</trkpt>
<trkpt lat="35.50443325" lon="-107.16913191">
<ele>1807.3</ele>
<time>2022-03-28T17:27:11Z</time>
<speed>1.1</speed>
</trkpt>
<trkpt lat="35.50443218" lon="-107.1691805">
<ele>1807.1</ele>
<time>2022-03-28T17:27:15Z</time>
<speed>1.1</speed>
</trkpt>
<trkpt lat="35.50444077" lon="-107.16923318">
<ele>1807.2</ele>
<time>2022-03-28T17:27:19Z</time>
<speed>1.2</speed>
</trkpt>
<trkpt lat="35.5044453" lon="-107.16927982">
<ele>1808.1</ele>
<time>2022-03-28T17:27:23Z</time>
<speed>1.1</speed>
</trkpt>
<trkpt lat="35.50444617" lon="-107.16932407">
<ele>1808.6</ele>
<time>2022-03-28T17:27:27Z</time>
<speed>0.4</speed>
</trkpt>
<trkpt lat="35.50444738" lon="-107.16937604">
<ele>1808.6</ele>
<time>2022-03-28T17:27:39Z</time>
<speed>1</speed>
</trkpt>
<trkpt lat="35.50444231" lon="-107.1694265">
<ele>1808.9</ele>
<time>2022-03-28T17:27:43Z</time>
<speed>1.2</speed>
</trkpt>
<trkpt lat="35.5044279" lon="-107.16947981">
<ele>1809.3</ele>
<time>2022-03-28T17:27:47Z</time>
<speed>1.1</speed>
</trkpt>
<trkpt lat="35.50441255" lon="-107.16953006">
<ele>1809.3</ele>
<time>2022-03-28T17:27:51Z</time>
<speed>1.1</speed>
</trkpt>
<trkpt lat="35.50440474" lon="-107.16957965">
<ele>1809.8</ele>
<time>2022-03-28T17:27:55Z</time>
<speed>1.2</speed>
</trkpt>
<trkpt lat="35.5044" lon="-107.16962889">
<ele>1810.7</ele>
<time>2022-03-28T17:27:59Z</time>
<speed>1.1</speed>
</trkpt>
<trkpt lat="35.50438482" lon="-107.16966894">
<ele>1810.7</ele>
<time>2022-03-28T17:28:03Z</time>
<speed>1.2</speed>
</trkpt>
<trkpt lat="35.50437682" lon="-107.16971549">
<ele>1810.7</ele>
<time>2022-03-28T17:28:07Z</time>
<speed>1.1</speed>
</trkpt>
<trkpt lat="35.50436716" lon="-107.16976506">
<ele>1810.8</ele>
<time>2022-03-28T17:28:11Z</time>
<speed>1.2</speed>
</trkpt>
<trkpt lat="35.50434828" lon="-107.16981232">
<ele>1810.4</ele>
<time>2022-03-28T17:28:15Z</time>
<speed>1.2</speed>
</trkpt>
<trkpt lat="35.50433545" lon="-107.16986422">
<ele>1811.3</ele>
<time>2022-03-28T17:28:19Z</time>
<speed>1.1</speed>
</trkpt>
<trkpt lat="35.50431628" lon="-107.16991535">
<ele>1810.4</ele>
<time>2022-03-28T17:28:23Z</time>
<speed>1.2</speed>
</trkpt>
<trkpt lat="35.50429697" lon="-107.16996423">
<ele>1810.9</ele>
<time>2022-03-28T17:28:27Z</time>
<speed>1.2</speed>
</trkpt>
<trkpt lat="35.50427716" lon="-107.17001729">
<ele>1810.7</ele>
<time>2022-03-28T17:28:31Z</time>
<speed>1.3</speed>
</trkpt>
<trkpt lat="35.50425968" lon="-107.17006966">
<ele>1810.4</ele>
<time>2022-03-28T17:28:35Z</time>
<speed>1.2</speed>
</trkpt>
<trkpt lat="35.50424031" lon="-107.17011257">
<ele>1811</ele>
<time>2022-03-28T17:28:39Z</time>
<speed>1.2</speed>
</trkpt>
<trkpt lat="35.50422851" lon="-107.17016467">
<ele>1810.3</ele>
<time>2022-03-28T17:28:43Z</time>
<speed>1.2</speed>
</trkpt>
<trkpt lat="35.50422013" lon="-107.17021471">
<ele>1810.1</ele>
<time>2022-03-28T17:28:47Z</time>
<speed>1</speed>
</trkpt>
<trkpt lat="35.50421221" lon="-107.17026249">
<ele>1810.3</ele>
<time>2022-03-28T17:28:51Z</time>
<speed>1.2</speed>
</trkpt>
<trkpt lat="35.50420284" lon="-107.17031321">
<ele>1810.4</ele>
<time>2022-03-28T17:28:55Z</time>
<speed>1.2</speed>
</trkpt>
<trkpt lat="35.50418025" lon="-107.17035602">
<ele>1810.1</ele>
<time>2022-03-28T17:28:59Z</time>
<speed>1.2</speed>
</trkpt>
<trkpt lat="35.50416494" lon="-107.17039997">
<ele>1810.8</ele>
<time>2022-03-28T17:29:03Z</time>
<speed>1.1</speed>
</trkpt>
<trkpt lat="35.50414583" lon="-107.1704469">
<ele>1811.8</ele>
<time>2022-03-28T17:29:07Z</time>
<speed>1.1</speed>
</trkpt>
<trkpt lat="35.50411807" lon="-107.17048606">
<ele>1812</ele>
<time>2022-03-28T17:29:11Z</time>
<speed>1.1</speed>
</trkpt>
<trkpt lat="35.5040898" lon="-107.17052812">
<ele>1811.3</ele>
<time>2022-03-28T17:29:15Z</time>
<speed>1.3</speed>
</trkpt>
<trkpt lat="35.50406639" lon="-107.17057183">
<ele>1810.8</ele>
<time>2022-03-28T17:29:19Z</time>
<speed>1.1</speed>
</trkpt>
<trkpt lat="35.50403998" lon="-107.17061625">
<ele>1810.8</ele>
<time>2022-03-28T17:29:23Z</time>
<speed>1.2</speed>
</trkpt>
<trkpt lat="35.50401306" lon="-107.1706575">
<ele>1810.4</ele>
<time>2022-03-28T17:29:27Z</time>
<speed>1.2</speed>
</trkpt>
<trkpt lat="35.50398307" lon="-107.17069823">
<ele>1810.2</ele>
<time>2022-03-28T17:29:31Z</time>
<speed>1.1</speed>
</trkpt>
<trkpt lat="35.50393926" lon="-107.17070917">
<ele>1810.5</ele>
<time>2022-03-28T17:29:35Z</time>
<speed>1.2</speed>
</trkpt>
<trkpt lat="35.50390793" lon="-107.17073564">
<ele>1811.7</ele>
<time>2022-03-28T17:29:39Z</time>
<speed>1.1</speed>
</trkpt>
<trkpt lat="35.50386464" lon="-107.170749">
<ele>1812.2</ele>
<time>2022-03-28T17:29:44Z</time>
<speed>1</speed>
</trkpt>
<trkpt lat="35.50382456" lon="-107.17077312">
<ele>1813.3</ele>
<time>2022-03-28T17:29:51Z</time>
<speed>0.9</speed>
</trkpt>
<trkpt lat="35.50382091" lon="-107.17082169">
<ele>1810.7</ele>
<time>2022-03-28T17:32:27Z</time>
<speed>0.5</speed>
</trkpt>
<trkpt lat="35.50381339" lon="-107.17086832">
<ele>1810.4</ele>
<time>2022-03-28T17:32:32Z</time>
<speed>1.1</speed>
</trkpt>
<trkpt lat="35.50377895" lon="-107.17088403">
<ele>1809.4</ele>
<time>2022-03-28T17:32:35Z</time>
<speed>0.9</speed>
</trkpt>
<trkpt lat="35.50374556" lon="-107.17090372">
<ele>1808.4</ele>
<time>2022-03-28T17:32:43Z</time>
<speed>0.9</speed>
</trkpt>
<trkpt lat="35.5037173" lon="-107.17093207">
<ele>1808.7</ele>
<time>2022-03-28T17:32:46Z</time>
<speed>1.1</speed>
</trkpt>
<trkpt lat="35.50368225" lon="-107.17095542">
<ele>1808.7</ele>
<time>2022-03-28T17:32:50Z</time>
<speed>0.7</speed>
</trkpt>
<trkpt lat="35.50364598" lon="-107.17096363">
<ele>1809</ele>
<time>2022-03-28T17:32:54Z</time>
<speed>0.8</speed>
</trkpt>
<trkpt lat="35.50360845" lon="-107.17098328">
<ele>1809</ele>
<time>2022-03-28T17:32:59Z</time>
<speed>1</speed>
</trkpt>
<trkpt lat="35.50358549" lon="-107.17102427">
<ele>1807.6</ele>
<time>2022-03-28T17:33:04Z</time>
<speed>0.9</speed>
</trkpt>
<trkpt lat="35.50355088" lon="-107.17104938">
<ele>1807.8</ele>
<time>2022-03-28T17:33:08Z</time>
<speed>1.1</speed>
</trkpt>
<trkpt lat="35.50352069" lon="-107.17108929">
<ele>1808.2</ele>
<time>2022-03-28T17:33:12Z</time>
<speed>1.1</speed>
</trkpt>
<trkpt lat="35.50349642" lon="-107.17113132">
<ele>1808</ele>
<time>2022-03-28T17:33:17Z</time>
<speed>1</speed>
</trkpt>
<trkpt lat="35.50346879" lon="-107.1711599">
<ele>1808.8</ele>
<time>2022-03-28T17:33:21Z</time>
<speed>1.1</speed>
</trkpt>
<trkpt lat="35.50344584" lon="-107.17119912">
<ele>1810.4</ele>
<time>2022-03-28T17:33:25Z</time>
<speed>1</speed>
</trkpt>
<trkpt lat="35.50341303" lon="-107.17123492">
<ele>1811.1</ele>
<time>2022-03-28T17:33:43Z</time>
<speed>0.9</speed>
</trkpt>
<trkpt lat="35.50338391" lon="-107.17126197">
<ele>1811.4</ele>
<time>2022-03-28T17:33:47Z</time>
<speed>1.1</speed>
</trkpt>
<trkpt lat="35.50336636" lon="-107.17131183">
<ele>1811.7</ele>
<time>2022-03-28T17:33:57Z</time>
<speed>0.9</speed>
</trkpt>
<trkpt lat="35.50333715" lon="-107.17134451">
<ele>1811.9</ele>
<time>2022-03-28T17:34:01Z</time>
<speed>1.1</speed>
</trkpt>
<trkpt lat="35.5033033" lon="-107.17137448">
<ele>1812.2</ele>
<time>2022-03-28T17:34:05Z</time>
<speed>1.1</speed>
</trkpt>
<trkpt lat="35.50326148" lon="-107.17138999">
<ele>1812.5</ele>
<time>2022-03-28T17:34:09Z</time>
<speed>1.2</speed>
</trkpt>
<trkpt lat="35.50322266" lon="-107.17141072">
<ele>1811.7</ele>
<time>2022-03-28T17:34:12Z</time>
<speed>2</speed>
</trkpt>
<trkpt lat="35.50317747" lon="-107.17140807">
<ele>1811.7</ele>
<time>2022-03-28T17:34:17Z</time>
<speed>1.1</speed>
</trkpt>
<trkpt lat="35.5031398" lon="-107.17139386">
<ele>1812.2</ele>
<time>2022-03-28T17:34:21Z</time>
<speed>1.1</speed>
</trkpt>
<trkpt lat="35.50309811" lon="-107.17138446">
<ele>1812.6</ele>
<time>2022-03-28T17:34:25Z</time>
<speed>1.2</speed>
</trkpt>
<trkpt lat="35.50305796" lon="-107.17137209">
<ele>1812.7</ele>
<time>2022-03-28T17:34:29Z</time>
<speed>1.2</speed>
</trkpt>
<trkpt lat="35.50302127" lon="-107.17135309">
<ele>1811.9</ele>
<time>2022-03-28T17:34:33Z</time>
<speed>1.2</speed>
</trkpt>
<trkpt lat="35.50298698" lon="-107.17133533">
<ele>1811.7</ele>
<time>2022-03-28T17:34:36Z</time>
<speed>1.2</speed>
</trkpt>
<trkpt lat="35.50294625" lon="-107.17131333">
<ele>1810.5</ele>
<time>2022-03-28T17:34:40Z</time>
<speed>1.3</speed>
</trkpt>
<trkpt lat="35.50290353" lon="-107.17130496">
<ele>1809</ele>
<time>2022-03-28T17:34:44Z</time>
<speed>1.1</speed>
</trkpt>
<trkpt lat="35.50285916" lon="-107.17130465">
<ele>1809</ele>
<time>2022-03-28T17:34:49Z</time>
<speed>1</speed>
</trkpt>
<trkpt lat="35.50282327" lon="-107.1712892">
<ele>1807.8</ele>
<time>2022-03-28T17:34:53Z</time>
<speed>1</speed>
</trkpt>
<trkpt lat="35.50278446" lon="-107.17126094">
<ele>1807.6</ele>
<time>2022-03-28T17:34:58Z</time>
<speed>1.1</speed>
</trkpt>
<trkpt lat="35.50275018" lon="-107.17122768">
<ele>1807.4</ele>
<time>2022-03-28T17:35:02Z</time>
<speed>1</speed>
</trkpt>
<trkpt lat="35.50271955" lon="-107.17118695">
<ele>1806.5</ele>
<time>2022-03-28T17:35:07Z</time>
<speed>1</speed>
</trkpt>
<trkpt lat="35.50269996" lon="-107.1711493">
<ele>1807.1</ele>
<time>2022-03-28T17:35:11Z</time>
<speed>0.9</speed>
</trkpt>
<trkpt lat="35.50266333" lon="-107.17112896">
<ele>1809.3</ele>
<time>2022-03-28T17:35:16Z</time>
<speed>0.8</speed>
</trkpt>
<trkpt lat="35.50263291" lon="-107.17109483">
<ele>1808.9</ele>
<time>2022-03-28T17:35:21Z</time>
<speed>0.8</speed>
</trkpt>
<trkpt lat="35.50260369" lon="-107.17105887">
<ele>1809.2</ele>
<time>2022-03-28T17:35:26Z</time>
<speed>0.8</speed>
</trkpt>
<trkpt lat="35.5025758" lon="-107.17102114">
<ele>1810.1</ele>
<time>2022-03-28T17:35:34Z</time>
<speed>0.8</speed>
</trkpt>
<trkpt lat="35.50254789" lon="-107.17099314">
<ele>1810.5</ele>
<time>2022-03-28T17:35:40Z</time>
<speed>0.8</speed>
</trkpt>
<trkpt lat="35.50252241" lon="-107.17096086">
<ele>1810</ele>
<time>2022-03-28T17:35:54Z</time>
<speed>0</speed>
</trkpt>
<trkpt lat="35.50248822" lon="-107.17093282">
<ele>1808.8</ele>
<time>2022-03-28T17:36:54Z</time>
<speed>0.8</speed>
</trkpt>
<trkpt lat="35.50245847" lon="-107.17090437">
<ele>1808</ele>
<time>2022-03-28T17:37:06Z</time>
<speed>0.6</speed>
</trkpt>
<trkpt lat="35.50242655" lon="-107.17093007">
<ele>1807.9</ele>
<time>2022-03-28T17:37:34Z</time>
<speed>0.6</speed>
</trkpt>
<trkpt lat="35.50238876" lon="-107.17091189">
<ele>1807.9</ele>
<time>2022-03-28T17:37:39Z</time>
<speed>1.1</speed>
</trkpt>
<trkpt lat="35.50235335" lon="-107.17089564">
<ele>1807.9</ele>
<time>2022-03-28T17:37:43Z</time>
<speed>0.7</speed>
</trkpt>
<trkpt lat="35.50232656" lon="-107.17085706">
<ele>1807</ele>
<time>2022-03-28T17:37:49Z</time>
<speed>0.9</speed>
</trkpt>
<trkpt lat="35.50229724" lon="-107.17081922">
<ele>1807.1</ele>
<time>2022-03-28T17:38:09Z</time>
<speed>0.7</speed>
</trkpt>
<trkpt lat="35.50227136" lon="-107.17078371">
<ele>1807.1</ele>
<time>2022-03-28T17:38:30Z</time>
<speed>1</speed>
</trkpt>
<trkpt lat="35.5022417" lon="-107.17075416">
<ele>1807.4</ele>
<time>2022-03-28T17:38:40Z</time>
<speed>0.5</speed>
</trkpt>
<trkpt lat="35.50219769" lon="-107.17076057">
<ele>1807.9</ele>
<time>2022-03-28T17:38:45Z</time>
<speed>0.9</speed>
</trkpt>
<trkpt lat="35.50215541" lon="-107.17076045">
<ele>1808.3</ele>
<time>2022-03-28T17:38:49Z</time>
<speed>1</speed>
</trkpt>
<trkpt lat="35.50211781" lon="-107.17078631">
<ele>1808.5</ele>
<time>2022-03-28T17:38:53Z</time>
<speed>0.8</speed>
</trkpt>
<trkpt lat="35.50207759" lon="-107.17080092">
<ele>1810.2</ele>
<time>2022-03-28T17:38:57Z</time>
<speed>1.1</speed>
</trkpt>
<trkpt lat="35.50204502" lon="-107.17082761">
<ele>1810.4</ele>
<time>2022-03-28T17:39:02Z</time>
<speed>0.6</speed>
</trkpt>
<trkpt lat="35.50200712" lon="-107.17085232">
<ele>1811.4</ele>
<time>2022-03-28T17:39:06Z</time>
<speed>1</speed>
</trkpt>
<trkpt lat="35.50197037" lon="-107.17085858">
<ele>1811</ele>
<time>2022-03-28T17:39:10Z</time>
<speed>1</speed>
</trkpt>
<trkpt lat="35.5019299" lon="-107.17086879">
<ele>1810.5</ele>
<time>2022-03-28T17:39:15Z</time>
<speed>0.8</speed>
</trkpt>
<trkpt lat="35.50189799" lon="-107.17089789">
<ele>1812</ele>
<time>2022-03-28T17:39:49Z</time>
<speed>1.1</speed>
</trkpt>
<trkpt lat="35.50185489" lon="-107.17088858">
<ele>1812.2</ele>
<time>2022-03-28T17:39:53Z</time>
<speed>1.2</speed>
</trkpt>
<trkpt lat="35.50181839" lon="-107.17090497">
<ele>1812.4</ele>
<time>2022-03-28T17:40:08Z</time>
<speed>0.9</speed>
</trkpt>
<trkpt lat="35.50178268" lon="-107.17091634">
<ele>1812.8</ele>
<time>2022-03-28T17:40:12Z</time>
<speed>1</speed>
</trkpt>
<trkpt lat="35.50174474" lon="-107.17091646">
<ele>1811.8</ele>
<time>2022-03-28T17:40:16Z</time>
<speed>1.1</speed>
</trkpt>
<trkpt lat="35.50170673" lon="-107.17091043">
<ele>1811.2</ele>
<time>2022-03-28T17:40:21Z</time>
<speed>0.9</speed>
</trkpt>
<trkpt lat="35.5016654" lon="-107.17089905">
<ele>1811.5</ele>
<time>2022-03-28T17:40:26Z</time>
<speed>1.1</speed>
</trkpt>
<trkpt lat="35.50162689" lon="-107.17090023">
<ele>1812.8</ele>
<time>2022-03-28T17:40:30Z</time>
<speed>1</speed>
</trkpt>
<trkpt lat="35.50158509" lon="-107.17090537">
<ele>1814.4</ele>
<time>2022-03-28T17:40:35Z</time>
<speed>0.9</speed>
</trkpt>
<trkpt lat="35.50154028" lon="-107.17090996">
<ele>1814.2</ele>
<time>2022-03-28T17:40:40Z</time>
<speed>0.9</speed>
</trkpt>
<trkpt lat="35.50150361" lon="-107.17090115">
<ele>1813.8</ele>
<time>2022-03-28T17:40:44Z</time>
<speed>0.9</speed>
</trkpt>
<trkpt lat="35.50147606" lon="-107.17093992">
<ele>1814.3</ele>
<time>2022-03-28T17:40:50Z</time>
<speed>0.9</speed>
</trkpt>
<trkpt lat="35.50144446" lon="-107.17096865">
<ele>1814.4</ele>
<time>2022-03-28T17:40:54Z</time>
<speed>1.1</speed>
</trkpt>
<trkpt lat="35.50141101" lon="-107.17100516">
<ele>1814.3</ele>
<time>2022-03-28T17:40:58Z</time>
<speed>1.1</speed>
</trkpt>
<trkpt lat="35.50138334" lon="-107.17103849">
<ele>1814.6</ele>
<time>2022-03-28T17:41:03Z</time>
<speed>0.9</speed>
</trkpt>
<trkpt lat="35.50136783" lon="-107.17108883">
<ele>1814.7</ele>
<time>2022-03-28T17:41:08Z</time>
<speed>0.9</speed>
</trkpt>
<trkpt lat="35.50132708" lon="-107.1710858">
<ele>1815.8</ele>
<time>2022-03-28T17:41:14Z</time>
<speed>0.9</speed>
</trkpt>
<trkpt lat="35.50130507" lon="-107.17112564">
<ele>1815.9</ele>
<time>2022-03-28T17:41:18Z</time>
<speed>1.2</speed>
</trkpt>
<trkpt lat="35.501283" lon="-107.17116417">
<ele>1816.3</ele>
<time>2022-03-28T17:41:23Z</time>
<speed>0.6</speed>
</trkpt>
<trkpt lat="35.50126296" lon="-107.17120552">
<ele>1815.1</ele>
<time>2022-03-28T17:41:28Z</time>
<speed>0.4</speed>
</trkpt>
<trkpt lat="35.50123703" lon="-107.17123993">
<ele>1815.7</ele>
<time>2022-03-28T17:41:33Z</time>
<speed>1</speed>
</trkpt>
<trkpt lat="35.50121635" lon="-107.17128049">
<ele>1815.2</ele>
<time>2022-03-28T17:41:39Z</time>
<speed>0.4</speed>
</trkpt>
<trkpt lat="35.50119513" lon="-107.17131954">
<ele>1814.4</ele>
<time>2022-03-28T17:41:46Z</time>
<speed>0.6</speed>
</trkpt>
<trkpt lat="35.50117792" lon="-107.1713631">
<ele>1814.3</ele>
<time>2022-03-28T17:41:52Z</time>
<speed>0.9</speed>
</trkpt>
<trkpt lat="35.50117416" lon="-107.17140853">
<ele>1812.7</ele>
<time>2022-03-28T17:41:58Z</time>
<speed>0.3</speed>
</trkpt>
<trkpt lat="35.5011448" lon="-107.17144874">
<ele>1812.7</ele>
<time>2022-03-28T17:42:05Z</time>
<speed>1</speed>
</trkpt>
<trkpt lat="35.50111846" lon="-107.17148619">
<ele>1812.9</ele>
<time>2022-03-28T17:42:10Z</time>
<speed>1</speed>
</trkpt>
<trkpt lat="35.50109886" lon="-107.17152691">
<ele>1812.7</ele>
<time>2022-03-28T17:42:15Z</time>
<speed>0.9</speed>
</trkpt>
<trkpt lat="35.50107532" lon="-107.17156774">
<ele>1812.4</ele>
<time>2022-03-28T17:42:20Z</time>
<speed>1.1</speed>
</trkpt>
<trkpt lat="35.50104703" lon="-107.17160212">
<ele>1813.5</ele>
<time>2022-03-28T17:42:25Z</time>
<speed>0.9</speed>
</trkpt>
<trkpt lat="35.50101875" lon="-107.17163913">
<ele>1812.9</ele>
<time>2022-03-28T17:42:50Z</time>
<speed>0.7</speed>
</trkpt>
<trkpt lat="35.50099268" lon="-107.17167724">
<ele>1814.6</ele>
<time>2022-03-28T17:42:56Z</time>
<speed>0.9</speed>
</trkpt>
<trkpt lat="35.50097543" lon="-107.17172553">
<ele>1814.9</ele>
<time>2022-03-28T17:43:02Z</time>
<speed>0.8</speed>
</trkpt>
<trkpt lat="35.5009532" lon="-107.17176399">
<ele>1814.9</ele>
<time>2022-03-28T17:43:09Z</time>
<speed>0.4</speed>
</trkpt>
<trkpt lat="35.50093083" lon="-107.17179969">
<ele>1814.4</ele>
<time>2022-03-28T17:43:14Z</time>
<speed>0.8</speed>
</trkpt>
<trkpt lat="35.5009187" lon="-107.17184913">
<ele>1814.2</ele>
<time>2022-03-28T17:43:19Z</time>
<speed>0.8</speed>
</trkpt>
<trkpt lat="35.50087907" lon="-107.17186885">
<ele>1813.1</ele>
<time>2022-03-28T17:43:23Z</time>
<speed>0.7</speed>
</trkpt>
<trkpt lat="35.50084864" lon="-107.17190022">
<ele>1813.1</ele>
<time>2022-03-28T17:43:35Z</time>
<speed>0.5</speed>
</trkpt>
<trkpt lat="35.50083201" lon="-107.17194165">
<ele>1814.5</ele>
<time>2022-03-28T17:43:40Z</time>
<speed>0.9</speed>
</trkpt>
<trkpt lat="35.50080469" lon="-107.17197701">
<ele>1813.9</ele>
<time>2022-03-28T17:43:44Z</time>
<speed>0.8</speed>
</trkpt>
<trkpt lat="35.50078808" lon="-107.17201829">
<ele>1813</ele>
<time>2022-03-28T17:44:00Z</time>
<speed>0.6</speed>
</trkpt>
<trkpt lat="35.50076732" lon="-107.17205846">
<ele>1812.6</ele>
<time>2022-03-28T17:44:05Z</time>
<speed>1</speed>
</trkpt>
<trkpt lat="35.50075639" lon="-107.1721007">
<ele>1812.5</ele>
<time>2022-03-28T17:44:10Z</time>
<speed>0.4</speed>
</trkpt>
<trkpt lat="35.50073453" lon="-107.17213644">
<ele>1814.1</ele>
<time>2022-03-28T17:44:40Z</time>
<speed>0.7</speed>
</trkpt>
<trkpt lat="35.5007319" lon="-107.17218101">
<ele>1813.8</ele>
<time>2022-03-28T17:44:45Z</time>
<speed>0.8</speed>
</trkpt>
<trkpt lat="35.5007568" lon="-107.17221555">
<ele>1815</ele>
<time>2022-03-28T17:44:49Z</time>
<speed>0.6</speed>
</trkpt>
<trkpt lat="35.50078581" lon="-107.17224867">
<ele>1816.7</ele>
<time>2022-03-28T17:44:54Z</time>
<speed>0.7</speed>
</trkpt>
<trkpt lat="35.50080734" lon="-107.17228466">
<ele>1816.4</ele>
<time>2022-03-28T17:45:06Z</time>
<speed>0.9</speed>
</trkpt>
<trkpt lat="35.50081414" lon="-107.17233074">
<ele>1817.4</ele>
<time>2022-03-28T17:45:11Z</time>
<speed>0.4</speed>
</trkpt>
<trkpt lat="35.50080586" lon="-107.17237541">
<ele>1818.1</ele>
<time>2022-03-28T17:45:19Z</time>
<speed>0.7</speed>
</trkpt>
<trkpt lat="35.50078278" lon="-107.17241397">
<ele>1819.1</ele>
<time>2022-03-28T17:45:28Z</time>
<speed>0.6</speed>
</trkpt>
<trkpt lat="35.50080913" lon="-107.17245578">
<ele>1820</ele>
<time>2022-03-28T17:45:34Z</time>
<speed>0.9</speed>
</trkpt>
<trkpt lat="35.50084397" lon="-107.17248297">
<ele>1820.2</ele>
<time>2022-03-28T17:45:38Z</time>
<speed>1</speed>
</trkpt>
<trkpt lat="35.50087907" lon="-107.17250861">
<ele>1820.8</ele>
<time>2022-03-28T17:45:42Z</time>
<speed>0.8</speed>
</trkpt>
<trkpt lat="35.5009155" lon="-107.17251772">
<ele>1820.5</ele>
<time>2022-03-28T17:45:53Z</time>
<speed>0.2</speed>
</trkpt>
<trkpt lat="35.50095807" lon="-107.17251595">
<ele>1819.7</ele>
<time>2022-03-28T17:45:58Z</time>
<speed>0.8</speed>
</trkpt>
<trkpt lat="35.5009985" lon="-107.17252579">
<ele>1819.9</ele>
<time>2022-03-28T17:46:03Z</time>
<speed>0.9</speed>
</trkpt>
<trkpt lat="35.50103995" lon="-107.17250592">
<ele>1819.5</ele>
<time>2022-03-28T17:46:08Z</time>
<speed>1</speed>
</trkpt>
<trkpt lat="35.50107709" lon="-107.17248081">
<ele>1819.8</ele>
<time>2022-03-28T17:46:13Z</time>
<speed>0.6</speed>
</trkpt>
<trkpt lat="35.50111056" lon="-107.17246056">
<ele>1819.5</ele>
<time>2022-03-28T17:46:18Z</time>
<speed>0.3</speed>
</trkpt>
<trkpt lat="35.50111063" lon="-107.17251031">
<ele>1819.1</ele>
<time>2022-03-28T17:46:27Z</time>
<speed>0.9</speed>
</trkpt>
<trkpt lat="35.5011074" lon="-107.17255765">
<ele>1820.6</ele>
<time>2022-03-28T17:46:32Z</time>
<speed>1</speed>
</trkpt>
<trkpt lat="35.50109507" lon="-107.17259943">
<ele>1820.9</ele>
<time>2022-03-28T17:46:38Z</time>
<speed>0.8</speed>
</trkpt>
<trkpt lat="35.50110137" lon="-107.1726466">
<ele>1825.2</ele>
<time>2022-03-28T17:47:53Z</time>
<speed>0.8</speed>
</trkpt>
<trkpt lat="35.50108785" lon="-107.17269038">
<ele>1823.6</ele>
<time>2022-03-28T17:48:32Z</time>
<speed>0</speed>
</trkpt>
<trkpt lat="35.5010756" lon="-107.17273488">
<ele>1824.1</ele>
<time>2022-03-28T17:48:38Z</time>
<speed>0.5</speed>
</trkpt>
<trkpt lat="35.5010641" lon="-107.17277881">
<ele>1824.1</ele>
<time>2022-03-28T17:48:45Z</time>
<speed>1.4</speed>
</trkpt>
<trkpt lat="35.50105557" lon="-107.17282344">
<ele>1823.5</ele>
<time>2022-03-28T17:48:51Z</time>
<speed>0.7</speed>
</trkpt>
<trkpt lat="35.50104948" lon="-107.17287054">
<ele>1823.2</ele>
<time>2022-03-28T17:48:56Z</time>
<speed>0.6</speed>
</trkpt>
<trkpt lat="35.50103174" lon="-107.17290943">
<ele>1822.2</ele>
<time>2022-03-28T17:49:01Z</time>
<speed>0.8</speed>
</trkpt>
<trkpt lat="35.50103082" lon="-107.17285683">
<ele>1821.5</ele>
<time>2022-03-28T17:49:20Z</time>
<speed>0.8</speed>
</trkpt>
<trkpt lat="35.5010371" lon="-107.17280771">
<ele>1821.4</ele>
<time>2022-03-28T17:49:24Z</time>
<speed>1</speed>
</trkpt>
<trkpt lat="35.50102415" lon="-107.17276327">
<ele>1821.1</ele>
<time>2022-03-28T17:49:29Z</time>
<speed>0.6</speed>
</trkpt>
<trkpt lat="35.50099466" lon="-107.17273774">
<ele>1819.8</ele>
<time>2022-03-28T17:49:34Z</time>
<speed>0.9</speed>
</trkpt>
<trkpt lat="35.50096736" lon="-107.17277652">
<ele>1818.4</ele>
<time>2022-03-28T17:49:39Z</time>
<speed>1</speed>
</trkpt>
<trkpt lat="35.50093899" lon="-107.17282489">
<ele>1818.6</ele>
<time>2022-03-28T17:49:43Z</time>
<speed>1.5</speed>
</trkpt>
<trkpt lat="35.50091484" lon="-107.17286041">
<ele>1818.7</ele>
<time>2022-03-28T17:49:46Z</time>
<speed>1.1</speed>
</trkpt>
<trkpt lat="35.50089878" lon="-107.17290661">
<ele>1818.7</ele>
<time>2022-03-28T17:49:50Z</time>
<speed>1.1</speed>
</trkpt>
<trkpt lat="35.50089003" lon="-107.17295188">
<ele>1819.1</ele>
<time>2022-03-28T17:49:56Z</time>
<speed>1.1</speed>
</trkpt>
<trkpt lat="35.50088902" lon="-107.17300386">
<ele>1818.6</ele>
<time>2022-03-28T17:50:00Z</time>
<speed>1</speed>
</trkpt>
<trkpt lat="35.5008888" lon="-107.17305072">
<ele>1818.5</ele>
<time>2022-03-28T17:50:04Z</time>
<speed>1</speed>
</trkpt>
<trkpt lat="35.5008818" lon="-107.17309672">
<ele>1818.2</ele>
<time>2022-03-28T17:50:10Z</time>
<speed>0.5</speed>
</trkpt>
<trkpt lat="35.50088343" lon="-107.17314805">
<ele>1817.7</ele>
<time>2022-03-28T17:50:16Z</time>
<speed>1.1</speed>
</trkpt>
<trkpt lat="35.50089978" lon="-107.17319376">
<ele>1817.6</ele>
<time>2022-03-28T17:50:20Z</time>
<speed>1</speed>
</trkpt>
<trkpt lat="35.50086434" lon="-107.17320854">
<ele>1818.1</ele>
<time>2022-03-28T17:50:31Z</time>
<speed>1.2</speed>
</trkpt>
<trkpt lat="35.50084538" lon="-107.173247">
<ele>1817.6</ele>
<time>2022-03-28T17:50:38Z</time>
<speed>0.8</speed>
</trkpt>
<trkpt lat="35.50084264" lon="-107.17329432">
<ele>1818.1</ele>
<time>2022-03-28T17:50:42Z</time>
<speed>0.9</speed>
</trkpt>
<trkpt lat="35.50082558" lon="-107.17334113">
<ele>1819.9</ele>
<time>2022-03-28T17:50:48Z</time>
<speed>1</speed>
</trkpt>
<trkpt lat="35.50079757" lon="-107.17337055">
<ele>1819.1</ele>
<time>2022-03-28T17:50:52Z</time>
<speed>1</speed>
</trkpt>
<trkpt lat="35.50080023" lon="-107.17342473">
<ele>1819.4</ele>
<time>2022-03-28T17:50:56Z</time>
<speed>1.1</speed>
</trkpt>
<trkpt lat="35.50080776" lon="-107.17347529">
<ele>1818.3</ele>
<time>2022-03-28T17:51:00Z</time>
<speed>1.1</speed>
</trkpt>
<trkpt lat="35.50080124" lon="-107.17352243">
<ele>1817.9</ele>
<time>2022-03-28T17:51:04Z</time>
<speed>1</speed>
</trkpt>
<trkpt lat="35.50082011" lon="-107.17356322">
<ele>1818</ele>
<time>2022-03-28T17:51:08Z</time>
<speed>1</speed>
</trkpt>
<trkpt lat="35.50083471" lon="-107.17360422">
<ele>1817.6</ele>
<time>2022-03-28T17:51:13Z</time>
<speed>1.1</speed>
</trkpt>
<trkpt lat="35.5008448" lon="-107.17364754">
<ele>1817.3</ele>
<time>2022-03-28T17:51:17Z</time>
<speed>1</speed>
</trkpt>
<trkpt lat="35.50086325" lon="-107.17369217">
<ele>1817.4</ele>
<time>2022-03-28T17:51:21Z</time>
<speed>1.2</speed>
</trkpt>
<trkpt lat="35.50087544" lon="-107.17373475">
<ele>1818.2</ele>
<time>2022-03-28T17:51:24Z</time>
<speed>1.4</speed>
</trkpt>
<trkpt lat="35.50089915" lon="-107.1737728">
<ele>1817.7</ele>
<time>2022-03-28T17:51:27Z</time>
<speed>1.2</speed>
</trkpt>
<trkpt lat="35.50091818" lon="-107.17381895">
<ele>1819.3</ele>
<time>2022-03-28T17:51:31Z</time>
<speed>1.2</speed>
</trkpt>
<trkpt lat="35.50093745" lon="-107.17386469">
<ele>1819.1</ele>
<time>2022-03-28T17:51:35Z</time>
<speed>1.1</speed>
</trkpt>
<trkpt lat="35.500946" lon="-107.17390963">
<ele>1819</ele>
<time>2022-03-28T17:51:46Z</time>
<speed>0.8</speed>
</trkpt>
<trkpt lat="35.50094943" lon="-107.17395744">
<ele>1820.7</ele>
<time>2022-03-28T17:52:01Z</time>
<speed>0.7</speed>
</trkpt>
<trkpt lat="35.50094952" lon="-107.17401114">
<ele>1820.6</ele>
<time>2022-03-28T17:52:06Z</time>
<speed>1</speed>
</trkpt>
<trkpt lat="35.50096496" lon="-107.17405808">
<ele>1819.2</ele>
<time>2022-03-28T17:52:12Z</time>
<speed>1.1</speed>
</trkpt>
<trkpt lat="35.50094316" lon="-107.17409895">
<ele>1819.8</ele>
<time>2022-03-28T17:52:16Z</time>
<speed>1.2</speed>
</trkpt>
<trkpt lat="35.5009267" lon="-107.17414362">
<ele>1819</ele>
<time>2022-03-28T17:52:20Z</time>
<speed>1.1</speed>
</trkpt>
<trkpt lat="35.50090797" lon="-107.17419063">
<ele>1820</ele>
<time>2022-03-28T17:52:37Z</time>
<speed>0.9</speed>
</trkpt>
<trkpt lat="35.50087056" lon="-107.17422032">
<ele>1820.5</ele>
<time>2022-03-28T17:52:42Z</time>
<speed>1.2</speed>
</trkpt>
<trkpt lat="35.50083934" lon="-107.17425532">
<ele>1821.5</ele>
<time>2022-03-28T17:52:46Z</time>
<speed>1.2</speed>
</trkpt>
<trkpt lat="35.5008088" lon="-107.17428621">
<ele>1821.2</ele>
<time>2022-03-28T17:52:50Z</time>
<speed>1.1</speed>
</trkpt>
<trkpt lat="35.50077736" lon="-107.17432037">
<ele>1821.5</ele>
<time>2022-03-28T17:52:54Z</time>
<speed>1.2</speed>
</trkpt>
<trkpt lat="35.50075112" lon="-107.17436193">
<ele>1820.7</ele>
<time>2022-03-28T17:52:58Z</time>
<speed>1.2</speed>
</trkpt>
<trkpt lat="35.50072387" lon="-107.17439855">
<ele>1820.6</ele>
<time>2022-03-28T17:53:02Z</time>
<speed>1.2</speed>
</trkpt>
<trkpt lat="35.50069126" lon="-107.17443657">
<ele>1821.8</ele>
<time>2022-03-28T17:53:07Z</time>
<speed>1.1</speed>
</trkpt>
<trkpt lat="35.50065285" lon="-107.17446078">
<ele>1822.2</ele>
<time>2022-03-28T17:53:12Z</time>
<speed>0.9</speed>
</trkpt>
<trkpt lat="35.50063563" lon="-107.17450062">
<ele>1821.6</ele>
<time>2022-03-28T17:53:17Z</time>
<speed>0.7</speed>
</trkpt>
<trkpt lat="35.5006118" lon="-107.17453527">
<ele>1819.4</ele>
<time>2022-03-28T17:53:22Z</time>
<speed>0.9</speed>
</trkpt>
<trkpt lat="35.50058375" lon="-107.17457202">
<ele>1821.7</ele>
<time>2022-03-28T17:53:28Z</time>
<speed>0.6</speed>
</trkpt>
<trkpt lat="35.50054656" lon="-107.17457026">
<ele>1823.1</ele>
<time>2022-03-28T17:53:32Z</time>
<speed>0.8</speed>
</trkpt>
<trkpt lat="35.50050993" lon="-107.174565">
<ele>1823.8</ele>
<time>2022-03-28T17:53:38Z</time>
<speed>0.4</speed>
</trkpt>
<trkpt lat="35.50046648" lon="-107.17457706">
<ele>1822.9</ele>
<time>2022-03-28T17:53:48Z</time>
<speed>0.9</speed>
</trkpt>
<trkpt lat="35.50043038" lon="-107.17459232">
<ele>1824</ele>
<time>2022-03-28T17:53:51Z</time>
<speed>1.1</speed>
</trkpt>
<trkpt lat="35.50038317" lon="-107.17459789">
<ele>1823.7</ele>
<time>2022-03-28T17:53:55Z</time>
<speed>1.2</speed>
</trkpt>
<trkpt lat="35.50033937" lon="-107.17460854">
<ele>1823.1</ele>
<time>2022-03-28T17:53:59Z</time>
<speed>0.9</speed>
</trkpt>
<trkpt lat="35.50030262" lon="-107.17462937">
<ele>1824.8</ele>
<time>2022-03-28T17:54:02Z</time>
<speed>1</speed>
</trkpt>
<trkpt lat="35.50026297" lon="-107.17464938">
<ele>1823.4</ele>
<time>2022-03-28T17:54:15Z</time>
<speed>1.1</speed>
</trkpt>
<trkpt lat="35.50022648" lon="-107.17465024">
<ele>1821.3</ele>
<time>2022-03-28T17:54:19Z</time>
<speed>0.9</speed>
</trkpt>
<trkpt lat="35.50018377" lon="-107.17464759">
<ele>1819.9</ele>
<time>2022-03-28T17:54:24Z</time>
<speed>1</speed>
</trkpt>
<trkpt lat="35.50014379" lon="-107.17465375">
<ele>1819.5</ele>
<time>2022-03-28T17:54:28Z</time>
<speed>1.1</speed>
</trkpt>
<trkpt lat="35.50010109" lon="-107.17465584">
<ele>1818.4</ele>
<time>2022-03-28T17:54:32Z</time>
<speed>1.3</speed>
</trkpt>
<trkpt lat="35.50006399" lon="-107.17467408">
<ele>1818.3</ele>
<time>2022-03-28T17:54:36Z</time>
<speed>1.1</speed>
</trkpt>
<trkpt lat="35.50001956" lon="-107.17467979">
<ele>1814.3</ele>
<time>2022-03-28T17:54:41Z</time>
<speed>1</speed>
</trkpt>
<trkpt lat="35.49998387" lon="-107.17468796">
<ele>1814.1</ele>
<time>2022-03-28T17:54:45Z</time>
<speed>1</speed>
</trkpt>
<trkpt lat="35.49994761" lon="-107.17471269">
<ele>1814</ele>
<time>2022-03-28T17:54:49Z</time>
<speed>0.9</speed>
</trkpt>
<trkpt lat="35.4999168" lon="-107.17475074">
<ele>1816.1</ele>
<time>2022-03-28T17:54:53Z</time>
<speed>0.6</speed>
</trkpt>
<trkpt lat="35.4998899" lon="-107.17478522">
<ele>1816.7</ele>
<time>2022-03-28T17:54:57Z</time>
<speed>0.8</speed>
</trkpt>
<trkpt lat="35.49985787" lon="-107.17482218">
<ele>1817.1</ele>
<time>2022-03-28T17:55:01Z</time>
<speed>0.9</speed>
</trkpt>
<trkpt lat="35.49984255" lon="-107.17486772">
<ele>1819.7</ele>
<time>2022-03-28T17:55:17Z</time>
<speed>0.9</speed>
</trkpt>
<trkpt lat="35.49982753" lon="-107.17490789">
<ele>1823.5</ele>
<time>2022-03-28T17:55:20Z</time>
<speed>1.1</speed>
</trkpt>
<trkpt lat="35.49981836" lon="-107.17495762">
<ele>1824.5</ele>
<time>2022-03-28T17:55:23Z</time>
<speed>1</speed>
</trkpt>
<trkpt lat="35.49980852" lon="-107.1750089">
<ele>1823.5</ele>
<time>2022-03-28T17:55:27Z</time>
<speed>0.9</speed>
</trkpt>
<trkpt lat="35.49980287" lon="-107.1750547">
<ele>1824.4</ele>
<time>2022-03-28T17:55:31Z</time>
<speed>0.5</speed>
</trkpt>
<trkpt lat="35.4997898" lon="-107.17510245">
<ele>1822.5</ele>
<time>2022-03-28T17:55:38Z</time>
<speed>0.9</speed>
</trkpt>
<trkpt lat="35.49976676" lon="-107.17515138">
<ele>1820.9</ele>
<time>2022-03-28T17:55:43Z</time>
<speed>1.1</speed>
</trkpt>
<trkpt lat="35.4997399" lon="-107.17518952">
<ele>1821.2</ele>
<time>2022-03-28T17:55:47Z</time>
<speed>1.1</speed>
</trkpt>
<trkpt lat="35.49970494" lon="-107.1752131">
<ele>1821.1</ele>
<time>2022-03-28T17:55:51Z</time>
<speed>1</speed>
</trkpt>
<trkpt lat="35.49967882" lon="-107.17524872">
<ele>1819.8</ele>
<time>2022-03-28T17:55:55Z</time>
<speed>1</speed>
</trkpt>
<trkpt lat="35.49966174" lon="-107.17529421">
<ele>1821.1</ele>
<time>2022-03-28T17:55:59Z</time>
<speed>1</speed>
</trkpt>
<trkpt lat="35.49963974" lon="-107.17534351">
<ele>1822.3</ele>
<time>2022-03-28T17:56:03Z</time>
<speed>1.1</speed>
</trkpt>
<trkpt lat="35.49962378" lon="-107.1753871">
<ele>1822</ele>
<time>2022-03-28T17:56:08Z</time>
<speed>0.9</speed>
</trkpt>
<trkpt lat="35.49959846" lon="-107.17542087">
<ele>1819.6</ele>
<time>2022-03-28T17:56:14Z</time>
<speed>0.7</speed>
</trkpt>
<trkpt lat="35.49959699" lon="-107.17546749">
<ele>1819.7</ele>
<time>2022-03-28T17:56:40Z</time>
<speed>0.6</speed>
</trkpt>
<trkpt lat="35.49958689" lon="-107.17551566">
<ele>1818.9</ele>
<time>2022-03-28T17:56:44Z</time>
<speed>1</speed>
</trkpt>
<trkpt lat="35.49958798" lon="-107.17556278">
<ele>1817.6</ele>
<time>2022-03-28T17:56:48Z</time>
<speed>0.7</speed>
</trkpt>
<trkpt lat="35.49960384" lon="-107.17560984">
<ele>1816.1</ele>
<time>2022-03-28T17:56:52Z</time>
<speed>0.9</speed>
</trkpt>
<trkpt lat="35.49961458" lon="-107.17565749">
<ele>1814.1</ele>
<time>2022-03-28T17:56:56Z</time>
<speed>0.9</speed>
</trkpt>
<trkpt lat="35.49964602" lon="-107.1756957">
<ele>1813.6</ele>
<time>2022-03-28T17:57:00Z</time>
<speed>1</speed>
</trkpt>
<trkpt lat="35.49966698" lon="-107.1757328">
<ele>1812</ele>
<time>2022-03-28T17:57:04Z</time>
<speed>0.7</speed>
</trkpt>
<trkpt lat="35.49968365" lon="-107.17577301">
<ele>1811.4</ele>
<time>2022-03-28T17:57:08Z</time>
<speed>1.3</speed>
</trkpt>
<trkpt lat="35.49969978" lon="-107.17581647">
<ele>1810.9</ele>
<time>2022-03-28T17:57:11Z</time>
<speed>1</speed>
</trkpt>
<trkpt lat="35.49972853" lon="-107.17585584">
<ele>1810.7</ele>
<time>2022-03-28T17:57:15Z</time>
<speed>1.1</speed>
</trkpt>
<trkpt lat="35.49975883" lon="-107.17589743">
<ele>1811.2</ele>
<time>2022-03-28T17:57:19Z</time>
<speed>1.1</speed>
</trkpt>
<trkpt lat="35.49978088" lon="-107.17594669">
<ele>1811.7</ele>
<time>2022-03-28T17:57:23Z</time>
<speed>1.3</speed>
</trkpt>
<trkpt lat="35.49980869" lon="-107.17598547">
<ele>1812.9</ele>
<time>2022-03-28T17:57:27Z</time>
<speed>1</speed>
</trkpt>
<trkpt lat="35.49983787" lon="-107.17601937">
<ele>1813.3</ele>
<time>2022-03-28T17:57:31Z</time>
<speed>1</speed>
</trkpt>
<trkpt lat="35.4998649" lon="-107.17604958">
<ele>1813.4</ele>
<time>2022-03-28T17:57:35Z</time>
<speed>1.2</speed>
</trkpt>
<trkpt lat="35.49989079" lon="-107.17608414">
<ele>1814.7</ele>
<time>2022-03-28T17:57:39Z</time>
<speed>1.2</speed>
</trkpt>
<trkpt lat="35.49991809" lon="-107.1761183">
<ele>1815.9</ele>
<time>2022-03-28T17:57:43Z</time>
<speed>1.1</speed>
</trkpt>
<trkpt lat="35.49994428" lon="-107.17615474">
<ele>1816</ele>
<time>2022-03-28T17:57:47Z</time>
<speed>0.9</speed>
</trkpt>
<trkpt lat="35.49996923" lon="-107.17619565">
<ele>1816.7</ele>
<time>2022-03-28T17:57:51Z</time>
<speed>1</speed>
</trkpt>
<trkpt lat="35.5000053" lon="-107.1762131">
<ele>1816.5</ele>
<time>2022-03-28T17:57:55Z</time>
<speed>1.1</speed>
</trkpt>
<trkpt lat="35.50004443" lon="-107.17622952">
<ele>1817.4</ele>
<time>2022-03-28T17:57:59Z</time>
<speed>1.1</speed>
</trkpt>
<trkpt lat="35.50007703" lon="-107.17626195">
<ele>1819</ele>
<time>2022-03-28T17:58:03Z</time>
<speed>1.1</speed>
</trkpt>
<trkpt lat="35.50010602" lon="-107.17629471">
<ele>1818.8</ele>
<time>2022-03-28T17:58:07Z</time>
<speed>1</speed>
</trkpt>
<trkpt lat="35.50014561" lon="-107.17630145">
<ele>1818</ele>
<time>2022-03-28T17:58:12Z</time>
<speed>0.2</speed>
</trkpt>
<trkpt lat="35.50015612" lon="-107.17634803">
<ele>1821.2</ele>
<time>2022-03-28T17:58:53Z</time>
<speed>1.1</speed>
</trkpt>
<trkpt lat="35.50017872" lon="-107.17638907">
<ele>1821.6</ele>
<time>2022-03-28T17:58:57Z</time>
<speed>1.1</speed>
</trkpt>
<trkpt lat="35.50021005" lon="-107.17642085">
<ele>1822.8</ele>
<time>2022-03-28T17:59:01Z</time>
<speed>1.1</speed>
</trkpt>
<trkpt lat="35.50023968" lon="-107.17645432">
<ele>1822.7</ele>
<time>2022-03-28T17:59:05Z</time>
<speed>0.9</speed>
</trkpt>
<trkpt lat="35.50024716" lon="-107.17649802">
<ele>1822.9</ele>
<time>2022-03-28T17:59:22Z</time>
<speed>0.3</speed>
</trkpt>
<trkpt lat="35.50024565" lon="-107.17654561">
<ele>1824</ele>
<time>2022-03-28T17:59:32Z</time>
<speed>1</speed>
</trkpt>
<trkpt lat="35.50023462" lon="-107.17659014">
<ele>1824.5</ele>
<time>2022-03-28T17:59:36Z</time>
<speed>0.6</speed>
</trkpt>
<trkpt lat="35.500221" lon="-107.17663279">
<ele>1823.1</ele>
<time>2022-03-28T17:59:41Z</time>
<speed>0.4</speed>
</trkpt>
<trkpt lat="35.50020822" lon="-107.17668073">
<ele>1824.1</ele>
<time>2022-03-28T18:00:02Z</time>
<speed>0.9</speed>
</trkpt>
<trkpt lat="35.50017938" lon="-107.176722">
<ele>1824.9</ele>
<time>2022-03-28T18:00:07Z</time>
<speed>1.1</speed>
</trkpt>
<trkpt lat="35.50015993" lon="-107.17676968">
<ele>1824.6</ele>
<time>2022-03-28T18:00:11Z</time>
<speed>1.1</speed>
</trkpt>
<trkpt lat="35.50016208" lon="-107.17682146">
<ele>1825.3</ele>
<time>2022-03-28T18:00:15Z</time>
<speed>1.1</speed>
</trkpt>
<trkpt lat="35.50019955" lon="-107.17683929">
<ele>1825.2</ele>
<time>2022-03-28T18:00:21Z</time>
<speed>0.5</speed>
</trkpt>
<trkpt lat="35.50020653" lon="-107.1768948">
<ele>1825</ele>
<time>2022-03-28T18:00:39Z</time>
<speed>1.2</speed>
</trkpt>
<trkpt lat="35.50019042" lon="-107.17694611">
<ele>1825.5</ele>
<time>2022-03-28T18:00:44Z</time>
<speed>1.1</speed>
</trkpt>
<trkpt lat="35.50018207" lon="-107.17699663">
<ele>1824.7</ele>
<time>2022-03-28T18:00:48Z</time>
<speed>1.2</speed>
</trkpt>
<trkpt lat="35.50017128" lon="-107.17704826">
<ele>1824.9</ele>
<time>2022-03-28T18:00:52Z</time>
<speed>1.2</speed>
</trkpt>
<trkpt lat="35.50015574" lon="-107.17708969">
<ele>1825.4</ele>
<time>2022-03-28T18:00:56Z</time>
<speed>1</speed>
</trkpt>
<trkpt lat="35.50013777" lon="-107.17713275">
<ele>1825.4</ele>
<time>2022-03-28T18:01:01Z</time>
<speed>1.1</speed>
</trkpt>
<trkpt lat="35.50014351" lon="-107.17718125">
<ele>1825.6</ele>
<time>2022-03-28T18:01:05Z</time>
<speed>1</speed>
</trkpt>
<trkpt lat="35.50012731" lon="-107.17723108">
<ele>1824.2</ele>
<time>2022-03-28T18:01:10Z</time>
<speed>0.8</speed>
</trkpt>
<trkpt lat="35.5001153" lon="-107.17728535">
<ele>1824.4</ele>
<time>2022-03-28T18:01:18Z</time>
<speed>1.1</speed>
</trkpt>
<trkpt lat="35.50008073" lon="-107.17732425">
<ele>1824.9</ele>
<time>2022-03-28T18:01:23Z</time>
<speed>1.2</speed>
</trkpt>
<trkpt lat="35.50005912" lon="-107.17736766">
<ele>1824.5</ele>
<time>2022-03-28T18:01:27Z</time>
<speed>1.1</speed>
</trkpt>
<trkpt lat="35.50004959" lon="-107.17741172">
<ele>1824.1</ele>
<time>2022-03-28T18:01:31Z</time>
<speed>1</speed>
</trkpt>
<trkpt lat="35.50002215" lon="-107.17745107">
<ele>1824.9</ele>
<time>2022-03-28T18:01:36Z</time>
<speed>0.9</speed>
</trkpt>
<trkpt lat="35.49999785" lon="-107.17749336">
<ele>1824.5</ele>
<time>2022-03-28T18:01:40Z</time>
<speed>1.2</speed>
</trkpt>
<trkpt lat="35.49996823" lon="-107.17752537">
<ele>1825</ele>
<time>2022-03-28T18:01:44Z</time>
<speed>1.3</speed>
</trkpt>
<trkpt lat="35.49994381" lon="-107.17757025">
<ele>1824.3</ele>
<time>2022-03-28T18:01:49Z</time>
<speed>1.1</speed>
</trkpt>
<trkpt lat="35.49992253" lon="-107.1776172">
<ele>1824.6</ele>
<time>2022-03-28T18:01:53Z</time>
<speed>1.3</speed>
</trkpt>
<trkpt lat="35.49989943" lon="-107.17766715">
<ele>1824.6</ele>
<time>2022-03-28T18:01:57Z</time>
<speed>1.3</speed>
</trkpt>
<trkpt lat="35.49987026" lon="-107.1777075">
<ele>1824.5</ele>
<time>2022-03-28T18:02:01Z</time>
<speed>1.2</speed>
</trkpt>
<trkpt lat="35.499835" lon="-107.17774">
<ele>1824.1</ele>
<time>2022-03-28T18:02:06Z</time>
<speed>1</speed>
</trkpt>
<trkpt lat="35.49980988" lon="-107.17777357">
<ele>1824.1</ele>
<time>2022-03-28T18:02:10Z</time>
<speed>0.9</speed>
</trkpt>
<trkpt lat="35.49978325" lon="-107.17781519">
<ele>1824.5</ele>
<time>2022-03-28T18:02:15Z</time>
<speed>0.9</speed>
</trkpt>
<trkpt lat="35.49977254" lon="-107.17785875">
<ele>1824.8</ele>
<time>2022-03-28T18:02:23Z</time>
<speed>0.7</speed>
</trkpt>
<trkpt lat="35.49975895" lon="-107.17791067">
<ele>1825.1</ele>
<time>2022-03-28T18:02:28Z</time>
<speed>0.9</speed>
</trkpt>
<trkpt lat="35.49973682" lon="-107.17794744">
<ele>1825.4</ele>
<time>2022-03-28T18:02:39Z</time>
<speed>0.2</speed>
</trkpt>
<trkpt lat="35.49970626" lon="-107.17797384">
<ele>1825.1</ele>
<time>2022-03-28T18:02:45Z</time>
<speed>0.7</speed>
</trkpt>
<trkpt lat="35.49967106" lon="-107.17800007">
<ele>1825.3</ele>
<time>2022-03-28T18:02:51Z</time>
<speed>0.9</speed>
</trkpt>
<trkpt lat="35.49963272" lon="-107.17802214">
<ele>1826.6</ele>
<time>2022-03-28T18:02:57Z</time>
<speed>0.8</speed>
</trkpt>
<trkpt lat="35.49959238" lon="-107.17804279">
<ele>1827.2</ele>
<time>2022-03-28T18:03:03Z</time>
<speed>0.9</speed>
</trkpt>
<trkpt lat="35.49955667" lon="-107.17805906">
<ele>1827.7</ele>
<time>2022-03-28T18:03:08Z</time>
<speed>0.8</speed>
</trkpt>
<trkpt lat="35.49951712" lon="-107.17807033">
<ele>1827.2</ele>
<time>2022-03-28T18:03:14Z</time>
<speed>1.1</speed>
</trkpt>
<trkpt lat="35.49948725" lon="-107.17809985">
<ele>1826.5</ele>
<time>2022-03-28T18:03:30Z</time>
<speed>1.1</speed>
</trkpt>
<trkpt lat="35.49944638" lon="-107.17811319">
<ele>1827.2</ele>
<time>2022-03-28T18:03:35Z</time>
<speed>1</speed>
</trkpt>
<trkpt lat="35.49942103" lon="-107.17815065">
<ele>1828.7</ele>
<time>2022-03-28T18:03:41Z</time>
<speed>0.6</speed>
</trkpt>
<trkpt lat="35.49938432" lon="-107.17817395">
<ele>1828.7</ele>
<time>2022-03-28T18:03:46Z</time>
<speed>0.9</speed>
</trkpt>
<trkpt lat="35.49935251" lon="-107.17819589">
<ele>1829</ele>
<time>2022-03-28T18:03:50Z</time>
<speed>1</speed>
</trkpt>
<trkpt lat="35.49931707" lon="-107.17822726">
<ele>1829.5</ele>
<time>2022-03-28T18:03:55Z</time>
<speed>1</speed>
</trkpt>
<trkpt lat="35.49929112" lon="-107.17825817">
<ele>1829.9</ele>
<time>2022-03-28T18:04:06Z</time>
<speed>0.9</speed>
</trkpt>
<trkpt lat="35.49925893" lon="-107.1782785">
<ele>1830.1</ele>
<time>2022-03-28T18:04:11Z</time>
<speed>0.9</speed>
</trkpt>
<trkpt lat="35.49924179" lon="-107.17831904">
<ele>1831</ele>
<time>2022-03-28T18:04:16Z</time>
<speed>1</speed>
</trkpt>
<trkpt lat="35.49922735" lon="-107.17836705">
<ele>1831.4</ele>
<time>2022-03-28T18:04:21Z</time>
<speed>0.5</speed>
</trkpt>
<trkpt lat="35.49919594" lon="-107.17839521">
<ele>1831.2</ele>
<time>2022-03-28T18:04:49Z</time>
<speed>0.6</speed>
</trkpt>
<trkpt lat="35.49916225" lon="-107.17842322">
<ele>1831.5</ele>
<time>2022-03-28T18:04:57Z</time>
<speed>0.7</speed>
</trkpt>
<trkpt lat="35.49914851" lon="-107.17846914">
<ele>1831.4</ele>
<time>2022-03-28T18:05:02Z</time>
<speed>0.8</speed>
</trkpt>
<trkpt lat="35.49913904" lon="-107.178515">
<ele>1831.9</ele>
<time>2022-03-28T18:05:06Z</time>
<speed>0.9</speed>
</trkpt>
<trkpt lat="35.49910155" lon="-107.17852529">
<ele>1831.9</ele>
<time>2022-03-28T18:05:13Z</time>
<speed>1</speed>
</trkpt>
<trkpt lat="35.49906335" lon="-107.1785056">
<ele>1830.9</ele>
<time>2022-03-28T18:05:18Z</time>
<speed>1.1</speed>
</trkpt>
<trkpt lat="35.49902253" lon="-107.17851651">
<ele>1830</ele>
<time>2022-03-28T18:05:23Z</time>
<speed>1.2</speed>
</trkpt>
<trkpt lat="35.49898116" lon="-107.17853679">
<ele>1829.2</ele>
<time>2022-03-28T18:05:27Z</time>
<speed>1.2</speed>
</trkpt>
<trkpt lat="35.49893871" lon="-107.17855295">
<ele>1828.9</ele>
<time>2022-03-28T18:05:31Z</time>
<speed>1.2</speed>
</trkpt>
<trkpt lat="35.49890623" lon="-107.17857385">
<ele>1828.9</ele>
<time>2022-03-28T18:05:34Z</time>
<speed>1.3</speed>
</trkpt>
<trkpt lat="35.49888479" lon="-107.1786094">
<ele>1829.5</ele>
<time>2022-03-28T18:05:37Z</time>
<speed>1.2</speed>
</trkpt>
<trkpt lat="35.49886715" lon="-107.178658">
<ele>1830.3</ele>
<time>2022-03-28T18:05:41Z</time>
<speed>0.9</speed>
</trkpt>
<trkpt lat="35.49883709" lon="-107.17868411">
<ele>1830.5</ele>
<time>2022-03-28T18:05:57Z</time>
<speed>1.1</speed>
</trkpt>
<trkpt lat="35.49881104" lon="-107.17873243">
<ele>1829.7</ele>
<time>2022-03-28T18:06:01Z</time>
<speed>1.2</speed>
</trkpt>
<trkpt lat="35.49879066" lon="-107.17877868">
<ele>1830</ele>
<time>2022-03-28T18:06:05Z</time>
<speed>1</speed>
</trkpt>
<trkpt lat="35.49876822" lon="-107.17882109">
<ele>1829.1</ele>
<time>2022-03-28T18:06:17Z</time>
<speed>0.8</speed>
</trkpt>
<trkpt lat="35.49876043" lon="-107.17886559">
<ele>1828.9</ele>
<time>2022-03-28T18:06:21Z</time>
<speed>1</speed>
</trkpt>
<trkpt lat="35.4987608" lon="-107.17891102">
<ele>1828.6</ele>
<time>2022-03-28T18:06:25Z</time>
<speed>1.1</speed>
</trkpt>
<trkpt lat="35.49873677" lon="-107.17894698">
<ele>1827.7</ele>
<time>2022-03-28T18:06:29Z</time>
<speed>1.2</speed>
</trkpt>
<trkpt lat="35.49871189" lon="-107.1789991">
<ele>1828.3</ele>
<time>2022-03-28T18:06:33Z</time>
<speed>1.6</speed>
</trkpt>
<trkpt lat="35.49869571" lon="-107.1790414">
<ele>1828.7</ele>
<time>2022-03-28T18:06:36Z</time>
<speed>1.3</speed>
</trkpt>
<trkpt lat="35.49868634" lon="-107.17909367">
<ele>1828.6</ele>
<time>2022-03-28T18:06:40Z</time>
<speed>1.3</speed>
</trkpt>
<trkpt lat="35.49869429" lon="-107.17914139">
<ele>1829.2</ele>
<time>2022-03-28T18:06:44Z</time>
<speed>1.2</speed>
</trkpt>
<trkpt lat="35.49869793" lon="-107.17919245">
<ele>1829.8</ele>
<time>2022-03-28T18:06:48Z</time>
<speed>1.2</speed>
</trkpt>
<trkpt lat="35.49871245" lon="-107.17923831">
<ele>1829</ele>
<time>2022-03-28T18:06:51Z</time>
<speed>1.3</speed>
</trkpt>
<trkpt lat="35.49874088" lon="-107.17928302">
<ele>1829.7</ele>
<time>2022-03-28T18:06:55Z</time>
<speed>1.2</speed>
</trkpt>
<trkpt lat="35.49873678" lon="-107.1793375">
<ele>1829.9</ele>
<time>2022-03-28T18:06:59Z</time>
<speed>1.2</speed>
</trkpt>
<trkpt lat="35.49873311" lon="-107.17938735">
<ele>1829.6</ele>
<time>2022-03-28T18:07:03Z</time>
<speed>1.1</speed>
</trkpt>
<trkpt lat="35.49875232" lon="-107.17943167">
<ele>1828.9</ele>
<time>2022-03-28T18:07:08Z</time>
<speed>1</speed>
</trkpt>
<trkpt lat="35.49875255" lon="-107.17948522">
<ele>1830.3</ele>
<time>2022-03-28T18:07:12Z</time>
<speed>1.2</speed>
</trkpt>
<trkpt lat="35.49874966" lon="-107.17953478">
<ele>1829.4</ele>
<time>2022-03-28T18:07:16Z</time>
<speed>1.1</speed>
</trkpt>
<trkpt lat="35.49875267" lon="-107.17958885">
<ele>1829.1</ele>
<time>2022-03-28T18:07:21Z</time>
<speed>1.1</speed>
</trkpt>
<trkpt lat="35.49875536" lon="-107.17963291">
<ele>1829.1</ele>
<time>2022-03-28T18:07:25Z</time>
<speed>1</speed>
</trkpt>
<trkpt lat="35.49875511" lon="-107.1796777">
<ele>1829.2</ele>
<time>2022-03-28T18:07:30Z</time>
<speed>0</speed>
</trkpt>
<trkpt lat="35.49876667" lon="-107.17972166">
<ele>1830.8</ele>
<time>2022-03-28T18:07:54Z</time>
<speed>0.5</speed>
</trkpt>
<trkpt lat="35.49878593" lon="-107.17976324">
<ele>1830.8</ele>
<time>2022-03-28T18:08:20Z</time>
<speed>0.9</speed>
</trkpt>
<trkpt lat="35.49879012" lon="-107.1798093">
<ele>1830.9</ele>
<time>2022-03-28T18:08:25Z</time>
<speed>0.9</speed>
</trkpt>
<trkpt lat="35.49877483" lon="-107.17985055">
<ele>1830.6</ele>
<time>2022-03-28T18:08:30Z</time>
<speed>0.8</speed>
</trkpt>
<trkpt lat="35.49876862" lon="-107.17989441">
<ele>1829.9</ele>
<time>2022-03-28T18:08:42Z</time>
<speed>0.8</speed>
</trkpt>
<trkpt lat="35.49876485" lon="-107.17994614">
<ele>1829.9</ele>
<time>2022-03-28T18:08:47Z</time>
<speed>1</speed>
</trkpt>
<trkpt lat="35.49873677" lon="-107.17998659">
<ele>1829.8</ele>
<time>2022-03-28T18:08:52Z</time>
<speed>0.9</speed>
</trkpt>
<trkpt lat="35.49871136" lon="-107.1800243">
<ele>1829.5</ele>
<time>2022-03-28T18:08:56Z</time>
<speed>1.1</speed>
</trkpt>
<trkpt lat="35.49869" lon="-107.18006771">
<ele>1829.2</ele>
<time>2022-03-28T18:09:00Z</time>
<speed>1.1</speed>
</trkpt>
<trkpt lat="35.49868401" lon="-107.18011558">
<ele>1829.3</ele>
<time>2022-03-28T18:09:04Z</time>
<speed>1</speed>
</trkpt>
<trkpt lat="35.49867986" lon="-107.18016079">
<ele>1829.1</ele>
<time>2022-03-28T18:09:08Z</time>
<speed>1.1</speed>
</trkpt>
<trkpt lat="35.49865648" lon="-107.18020624">
<ele>1829.5</ele>
<time>2022-03-28T18:09:12Z</time>
<speed>1</speed>
</trkpt>
<trkpt lat="35.49864205" lon="-107.1802511">
<ele>1828.9</ele>
<time>2022-03-28T18:09:16Z</time>
<speed>1</speed>
</trkpt>
<trkpt lat="35.49860987" lon="-107.18029003">
<ele>1828</ele>
<time>2022-03-28T18:09:27Z</time>
<speed>1.3</speed>
</trkpt>
<trkpt lat="35.49857592" lon="-107.18032572">
<ele>1827.8</ele>
<time>2022-03-28T18:09:31Z</time>
<speed>1.3</speed>
</trkpt>
<trkpt lat="35.4985475" lon="-107.18036755">
<ele>1828.7</ele>
<time>2022-03-28T18:09:35Z</time>
<speed>1.2</speed>
</trkpt>
<trkpt lat="35.49852021" lon="-107.18040379">
<ele>1829.7</ele>
<time>2022-03-28T18:09:39Z</time>
<speed>1.2</speed>
</trkpt>
<trkpt lat="35.49848865" lon="-107.18044343">
<ele>1829.4</ele>
<time>2022-03-28T18:09:43Z</time>
<speed>1.1</speed>
</trkpt>
<trkpt lat="35.49846465" lon="-107.18048078">
<ele>1830</ele>
<time>2022-03-28T18:09:47Z</time>
<speed>1.2</speed>
</trkpt>
<trkpt lat="35.49844574" lon="-107.1805185">
<ele>1829.9</ele>
<time>2022-03-28T18:10:07Z</time>
<speed>0.2</speed>
</trkpt>
<trkpt lat="35.49841316" lon="-107.18055086">
<ele>1830.6</ele>
<time>2022-03-28T18:10:12Z</time>
<speed>1</speed>
</trkpt>
<trkpt lat="35.49838501" lon="-107.18058">
<ele>1830.8</ele>
<time>2022-03-28T18:10:17Z</time>
<speed>0.8</speed>
</trkpt>
<trkpt lat="35.49835594" lon="-107.18061735">
<ele>1831.1</ele>
<time>2022-03-28T18:10:29Z</time>
<speed>1</speed>
</trkpt>
<trkpt lat="35.49832809" lon="-107.18065045">
<ele>1831.7</ele>
<time>2022-03-28T18:10:34Z</time>
<speed>0.9</speed>
</trkpt>
<trkpt lat="35.49829671" lon="-107.18068098">
<ele>1831.8</ele>
<time>2022-03-28T18:10:38Z</time>
<speed>1.1</speed>
</trkpt>
<trkpt lat="35.49826682" lon="-107.18070737">
<ele>1831.8</ele>
<time>2022-03-28T18:10:43Z</time>
<speed>0</speed>
</trkpt>
<trkpt lat="35.49823163" lon="-107.1807318">
<ele>1831.2</ele>
<time>2022-03-28T18:10:53Z</time>
<speed>0.9</speed>
</trkpt>
<trkpt lat="35.49819409" lon="-107.18076084">
<ele>1831.8</ele>
<time>2022-03-28T18:10:58Z</time>
<speed>1.1</speed>
</trkpt>
<trkpt lat="35.49816565" lon="-107.18079619">
<ele>1831.4</ele>
<time>2022-03-28T18:11:02Z</time>
<speed>1</speed>
</trkpt>
<trkpt lat="35.498153" lon="-107.1808466">
<ele>1831.2</ele>
<time>2022-03-28T18:11:06Z</time>
<speed>1</speed>
</trkpt>
<trkpt lat="35.49813017" lon="-107.1808826">
<ele>1832</ele>
<time>2022-03-28T18:11:10Z</time>
<speed>1</speed>
</trkpt>
<trkpt lat="35.49810881" lon="-107.18093154">
<ele>1833</ele>
<time>2022-03-28T18:11:57Z</time>
<speed>0.9</speed>
</trkpt>
<trkpt lat="35.49808793" lon="-107.18097215">
<ele>1833.2</ele>
<time>2022-03-28T18:12:01Z</time>
<speed>1</speed>
</trkpt>
<trkpt lat="35.4980657" lon="-107.18101438">
<ele>1832.3</ele>
<time>2022-03-28T18:12:05Z</time>
<speed>1</speed>
</trkpt>
<trkpt lat="35.49804889" lon="-107.18105742">
<ele>1832.2</ele>
<time>2022-03-28T18:12:09Z</time>
<speed>1</speed>
</trkpt>
<trkpt lat="35.49802541" lon="-107.18109591">
<ele>1832.5</ele>
<time>2022-03-28T18:12:14Z</time>
<speed>0.3</speed>
</trkpt>
<trkpt lat="35.49799269" lon="-107.18113022">
<ele>1832.5</ele>
<time>2022-03-28T18:12:20Z</time>
<speed>1.2</speed>
</trkpt>
<trkpt lat="35.49796995" lon="-107.18116934">
<ele>1832.4</ele>
<time>2022-03-28T18:12:25Z</time>
<speed>0.7</speed>
</trkpt>
<trkpt lat="35.49793695" lon="-107.18119278">
<ele>1833</ele>
<time>2022-03-28T18:12:30Z</time>
<speed>1.1</speed>
</trkpt>
<trkpt lat="35.49791119" lon="-107.18123051">
<ele>1834</ele>
<time>2022-03-28T18:12:34Z</time>
<speed>1</speed>
</trkpt>
<trkpt lat="35.49788934" lon="-107.18126583">
<ele>1834.3</ele>
<time>2022-03-28T18:12:38Z</time>
<speed>0.9</speed>
</trkpt>
<trkpt lat="35.49786881" lon="-107.18130392">
<ele>1834.2</ele>
<time>2022-03-28T18:12:42Z</time>
<speed>1.2</speed>
</trkpt>
<trkpt lat="35.49786206" lon="-107.18134822">
<ele>1833.6</ele>
<time>2022-03-28T18:12:45Z</time>
<speed>1.1</speed>
</trkpt>
<trkpt lat="35.49783782" lon="-107.18138137">
<ele>1834</ele>
<time>2022-03-28T18:12:49Z</time>
<speed>1.1</speed>
</trkpt>
<trkpt lat="35.49782435" lon="-107.1814244">
<ele>1833.4</ele>
<time>2022-03-28T18:12:53Z</time>
<speed>0.9</speed>
</trkpt>
<trkpt lat="35.49779834" lon="-107.1814636">
<ele>1832.7</ele>
<time>2022-03-28T18:12:57Z</time>
<speed>1.1</speed>
</trkpt>
<trkpt lat="35.49776819" lon="-107.18149258">
<ele>1833.3</ele>
<time>2022-03-28T18:13:01Z</time>
<speed>0.9</speed>
</trkpt>
<trkpt lat="35.49776192" lon="-107.18154214">
<ele>1833.9</ele>
<time>2022-03-28T18:13:07Z</time>
<speed>0.9</speed>
</trkpt>
<trkpt lat="35.49772589" lon="-107.18157559">
<ele>1833.6</ele>
<time>2022-03-28T18:13:12Z</time>
<speed>1.2</speed>
</trkpt>
<trkpt lat="35.4976997" lon="-107.18161502">
<ele>1833.8</ele>
<time>2022-03-28T18:13:16Z</time>
<speed>1.3</speed>
</trkpt>
<trkpt lat="35.49766781" lon="-107.18165646">
<ele>1833.8</ele>
<time>2022-03-28T18:13:20Z</time>
<speed>1.1</speed>
</trkpt>
<trkpt lat="35.49766169" lon="-107.18170833">
<ele>1833.4</ele>
<time>2022-03-28T18:13:24Z</time>
<speed>1.5</speed>
</trkpt>
<trkpt lat="35.49767924" lon="-107.18175795">
<ele>1833.2</ele>
<time>2022-03-28T18:13:26Z</time>
<speed>2.1</speed>
</trkpt>
<trkpt lat="35.49767256" lon="-107.18180306">
<ele>1833.3</ele>
<time>2022-03-28T18:13:37Z</time>
<speed>1.2</speed>
</trkpt>
<trkpt lat="35.49765528" lon="-107.18185471">
<ele>1833</ele>
<time>2022-03-28T18:13:41Z</time>
<speed>1.1</speed>
</trkpt>
<trkpt lat="35.49763429" lon="-107.18189467">
<ele>1833.4</ele>
<time>2022-03-28T18:13:45Z</time>
<speed>1.2</speed>
</trkpt>
<trkpt lat="35.49760122" lon="-107.18192818">
<ele>1835.9</ele>
<time>2022-03-28T18:13:53Z</time>
<speed>1.1</speed>
</trkpt>
<trkpt lat="35.49757514" lon="-107.18196795">
<ele>1835.6</ele>
<time>2022-03-28T18:13:57Z</time>
<speed>1.2</speed>
</trkpt>
<trkpt lat="35.49754363" lon="-107.18200044">
<ele>1835.3</ele>
<time>2022-03-28T18:14:01Z</time>
<speed>1.2</speed>
</trkpt>
<trkpt lat="35.49750654" lon="-107.18202701">
<ele>1835.2</ele>
<time>2022-03-28T18:14:05Z</time>
<speed>1.1</speed>
</trkpt>
<trkpt lat="35.49746468" lon="-107.18204151">
<ele>1835.9</ele>
<time>2022-03-28T18:14:09Z</time>
<speed>1.2</speed>
</trkpt>
<trkpt lat="35.49743701" lon="-107.18207299">
<ele>1835.6</ele>
<time>2022-03-28T18:14:13Z</time>
<speed>1</speed>
</trkpt>
<trkpt lat="35.49741086" lon="-107.18210898">
<ele>1835.2</ele>
<time>2022-03-28T18:14:18Z</time>
<speed>0.9</speed>
</trkpt>
<trkpt lat="35.49737006" lon="-107.18211902">
<ele>1836.3</ele>
<time>2022-03-28T18:14:25Z</time>
<speed>0.6</speed>
</trkpt>
<trkpt lat="35.49734451" lon="-107.18215158">
<ele>1835.8</ele>
<time>2022-03-28T18:15:01Z</time>
<speed>0.8</speed>
</trkpt>
<trkpt lat="35.49734214" lon="-107.18219628">
<ele>1833.2</ele>
<time>2022-03-28T18:15:27Z</time>
<speed>0.3</speed>
</trkpt>
<trkpt lat="35.49737886" lon="-107.18219285">
<ele>1831.9</ele>
<time>2022-03-28T18:15:54Z</time>
<speed>0.5</speed>
</trkpt>
<trkpt lat="35.49733719" lon="-107.18219094">
<ele>1833.5</ele>
<time>2022-03-28T18:41:54Z</time>
<speed>0</speed>
</trkpt>
<trkpt lat="35.49737349" lon="-107.18218358">
<ele>1833.9</ele>
<time>2022-03-28T18:42:50Z</time>
<speed>0</speed>
</trkpt>
<trkpt lat="35.49741147" lon="-107.18216803">
<ele>1832</ele>
<time>2022-03-28T18:49:25Z</time>
<speed>0.4</speed>
</trkpt>
<trkpt lat="35.49743577" lon="-107.1821338">
<ele>1829.2</ele>
<time>2022-03-28T18:50:52Z</time>
<speed>0.5</speed>
</trkpt>
<trkpt lat="35.4974713" lon="-107.18211309">
<ele>1829.3</ele>
<time>2022-03-28T18:50:58Z</time>
<speed>0.6</speed>
</trkpt>
<trkpt lat="35.49749777" lon="-107.1820757">
<ele>1829.3</ele>
<time>2022-03-28T18:51:07Z</time>
<speed>0.8</speed>
</trkpt>
<trkpt lat="35.49746209" lon="-107.18206741">
<ele>1830.5</ele>
<time>2022-03-28T18:51:15Z</time>
<speed>0.7</speed>
</trkpt>
<trkpt lat="35.49742663" lon="-107.18208785">
<ele>1830.6</ele>
<time>2022-03-28T18:51:20Z</time>
<speed>0.8</speed>
</trkpt>
<trkpt lat="35.49739122" lon="-107.18211405">
<ele>1830.9</ele>
<time>2022-03-28T18:51:25Z</time>
<speed>0.8</speed>
</trkpt>
<trkpt lat="35.49734971" lon="-107.18212891">
<ele>1831.8</ele>
<time>2022-03-28T18:51:32Z</time>
<speed>0.8</speed>
</trkpt>
<trkpt lat="35.49731191" lon="-107.18211687">
<ele>1834.2</ele>
<time>2022-03-28T18:51:41Z</time>
<speed>0.5</speed>
</trkpt>
<trkpt lat="35.49729197" lon="-107.1820789">
<ele>1834.3</ele>
<time>2022-03-28T18:51:49Z</time>
<speed>1</speed>
</trkpt>
<trkpt lat="35.4972552" lon="-107.18205858">
<ele>1835.5</ele>
<time>2022-03-28T18:51:54Z</time>
<speed>0.9</speed>
</trkpt>
<trkpt lat="35.4972224" lon="-107.18203865">
<ele>1836.5</ele>
<time>2022-03-28T18:51:58Z</time>
<speed>1</speed>
</trkpt>
<trkpt lat="35.49718947" lon="-107.18200518">
<ele>1836.6</ele>
<time>2022-03-28T18:52:03Z</time>
<speed>0.9</speed>
</trkpt>
<trkpt lat="35.49716192" lon="-107.18196936">
<ele>1836.8</ele>
<time>2022-03-28T18:52:09Z</time>
<speed>0.6</speed>
</trkpt>
<trkpt lat="35.49713867" lon="-107.18193324">
<ele>1837.1</ele>
<time>2022-03-28T18:52:14Z</time>
<speed>0.9</speed>
</trkpt>
<trkpt lat="35.49710849" lon="-107.18190564">
<ele>1836.7</ele>
<time>2022-03-28T18:52:18Z</time>
<speed>0.9</speed>
</trkpt>
<trkpt lat="35.49707305" lon="-107.18188692">
<ele>1837.2</ele>
<time>2022-03-28T18:52:22Z</time>
<speed>1.1</speed>
</trkpt>
<trkpt lat="35.49703729" lon="-107.18185498">
<ele>1837.2</ele>
<time>2022-03-28T18:52:27Z</time>
<speed>1</speed>
</trkpt>
<trkpt lat="35.49700383" lon="-107.18183299">
<ele>1838.1</ele>
<time>2022-03-28T18:52:39Z</time>
<speed>0.9</speed>
</trkpt>
<trkpt lat="35.4969781" lon="-107.18179931">
<ele>1838</ele>
<time>2022-03-28T18:52:43Z</time>
<speed>1</speed>
</trkpt>
<trkpt lat="35.49694309" lon="-107.18178596">
<ele>1839.2</ele>
<time>2022-03-28T18:53:16Z</time>
<speed>0.5</speed>
</trkpt>
<trkpt lat="35.49693105" lon="-107.18182935">
<ele>1837.2</ele>
<time>2022-03-28T18:53:36Z</time>
<speed>0.8</speed>
</trkpt>
<trkpt lat="35.4969111" lon="-107.18187363">
<ele>1835.5</ele>
<time>2022-03-28T18:53:41Z</time>
<speed>0.9</speed>
</trkpt>
<trkpt lat="35.49690204" lon="-107.18191688">
<ele>1834.4</ele>
<time>2022-03-28T18:53:45Z</time>
<speed>0.9</speed>
</trkpt>
<trkpt lat="35.49689286" lon="-107.1819632">
<ele>1833</ele>
<time>2022-03-28T18:53:51Z</time>
<speed>0.8</speed>
</trkpt>
<trkpt lat="35.49688373" lon="-107.18201379">
<ele>1832.6</ele>
<time>2022-03-28T18:53:57Z</time>
<speed>0.8</speed>
</trkpt>
<trkpt lat="35.49688281" lon="-107.18205806">
<ele>1833.1</ele>
<time>2022-03-28T18:54:04Z</time>
<speed>0.6</speed>
</trkpt>
<trkpt lat="35.49686014" lon="-107.18209837">
<ele>1830.6</ele>
<time>2022-03-28T18:54:15Z</time>
<speed>1</speed>
</trkpt>
<trkpt lat="35.49682886" lon="-107.18212961">
<ele>1830.6</ele>
<time>2022-03-28T18:54:20Z</time>
<speed>1.1</speed>
</trkpt>
<trkpt lat="35.49680096" lon="-107.18216777">
<ele>1829.8</ele>
<time>2022-03-28T18:54:27Z</time>
<speed>0.7</speed>
</trkpt>
<trkpt lat="35.49677949" lon="-107.18220604">
<ele>1830.5</ele>
<time>2022-03-28T18:54:33Z</time>
<speed>0.8</speed>
</trkpt>
<trkpt lat="35.49673812" lon="-107.18220406">
<ele>1831.3</ele>
<time>2022-03-28T18:54:48Z</time>
<speed>1.1</speed>
</trkpt>
<trkpt lat="35.4966948" lon="-107.18219325">
<ele>1830.6</ele>
<time>2022-03-28T18:54:57Z</time>
<speed>0.9</speed>
</trkpt>
<trkpt lat="35.4966515" lon="-107.18219077">
<ele>1831.1</ele>
<time>2022-03-28T18:55:01Z</time>
<speed>0.8</speed>
</trkpt>
<trkpt lat="35.49661437" lon="-107.18218345">
<ele>1833.3</ele>
<time>2022-03-28T18:55:07Z</time>
<speed>0.9</speed>
</trkpt>
<trkpt lat="35.49657145" lon="-107.18217047">
<ele>1832.5</ele>
<time>2022-03-28T18:55:12Z</time>
<speed>1.3</speed>
</trkpt>
<trkpt lat="35.49653411" lon="-107.18218219">
<ele>1834.1</ele>
<time>2022-03-28T18:55:16Z</time>
<speed>0.9</speed>
</trkpt>
<trkpt lat="35.49650246" lon="-107.1821544">
<ele>1831.1</ele>
<time>2022-03-28T18:55:21Z</time>
<speed>1.2</speed>
</trkpt>
<trkpt lat="35.49646684" lon="-107.18212931">
<ele>1829.4</ele>
<time>2022-03-28T18:55:26Z</time>
<speed>1.1</speed>
</trkpt>
<trkpt lat="35.49643041" lon="-107.18211078">
<ele>1828.6</ele>
<time>2022-03-28T18:55:32Z</time>
<speed>0.6</speed>
</trkpt>
<trkpt lat="35.49640185" lon="-107.18208167">
<ele>1826.2</ele>
<time>2022-03-28T18:55:38Z</time>
<speed>0.7</speed>
</trkpt>
<trkpt lat="35.4963696" lon="-107.18211368">
<ele>1828.4</ele>
<time>2022-03-28T18:55:44Z</time>
<speed>0.8</speed>
</trkpt>
<trkpt lat="35.49632949" lon="-107.18213305">
<ele>1828.4</ele>
<time>2022-03-28T18:55:50Z</time>
<speed>1.3</speed>
</trkpt>
<trkpt lat="35.49629787" lon="-107.18216599">
<ele>1829</ele>
<time>2022-03-28T18:55:53Z</time>
<speed>1.1</speed>
</trkpt>
<trkpt lat="35.49627189" lon="-107.18220598">
<ele>1826.9</ele>
<time>2022-03-28T18:55:56Z</time>
<speed>0.8</speed>
</trkpt>
<trkpt lat="35.49623319" lon="-107.18223867">
<ele>1828.8</ele>
<time>2022-03-28T18:56:00Z</time>
<speed>1.1</speed>
</trkpt>
<trkpt lat="35.49619787" lon="-107.18225228">
<ele>1829.2</ele>
<time>2022-03-28T18:56:03Z</time>
<speed>1.2</speed>
</trkpt>
<trkpt lat="35.49616113" lon="-107.18227301">
<ele>1829.2</ele>
<time>2022-03-28T18:56:07Z</time>
<speed>1</speed>
</trkpt>
<trkpt lat="35.49612426" lon="-107.182297">
<ele>1829.7</ele>
<time>2022-03-28T18:56:11Z</time>
<speed>1.1</speed>
</trkpt>
<trkpt lat="35.49609224" lon="-107.18231855">
<ele>1830.6</ele>
<time>2022-03-28T18:56:15Z</time>
<speed>1.1</speed>
</trkpt>
<trkpt lat="35.49605458" lon="-107.18234323">
<ele>1829.6</ele>
<time>2022-03-28T18:56:20Z</time>
<speed>1.1</speed>
</trkpt>
<trkpt lat="35.49602207" lon="-107.18237639">
<ele>1828.6</ele>
<time>2022-03-28T18:56:25Z</time>
<speed>0.9</speed>
</trkpt>
<trkpt lat="35.49599456" lon="-107.18241301">
<ele>1828.8</ele>
<time>2022-03-28T18:56:30Z</time>
<speed>0.9</speed>
</trkpt>
<trkpt lat="35.49597375" lon="-107.1824491">
<ele>1829.1</ele>
<time>2022-03-28T18:56:36Z</time>
<speed>0</speed>
</trkpt>
<trkpt lat="35.49595792" lon="-107.1824996">
<ele>1829</ele>
<time>2022-03-28T18:56:57Z</time>
<speed>0.8</speed>
</trkpt>
<trkpt lat="35.49594797" lon="-107.18254876">
<ele>1829</ele>
<time>2022-03-28T18:57:01Z</time>
<speed>0.9</speed>
</trkpt>
<trkpt lat="35.49593032" lon="-107.18258821">
<ele>1828.8</ele>
<time>2022-03-28T18:57:05Z</time>
<speed>1</speed>
</trkpt>
<trkpt lat="35.49589631" lon="-107.18261946">
<ele>1827.5</ele>
<time>2022-03-28T18:57:11Z</time>
<speed>0.9</speed>
</trkpt>
<trkpt lat="35.49587914" lon="-107.18266227">
<ele>1828.4</ele>
<time>2022-03-28T18:57:15Z</time>
<speed>1.1</speed>
</trkpt>
<trkpt lat="35.49586319" lon="-107.1827045">
<ele>1829.2</ele>
<time>2022-03-28T18:57:19Z</time>
<speed>0.9</speed>
</trkpt>
<trkpt lat="35.4958566" lon="-107.18274923">
<ele>1829.7</ele>
<time>2022-03-28T18:57:23Z</time>
<speed>0.9</speed>
</trkpt>
<trkpt lat="35.49586042" lon="-107.18280593">
<ele>1830.4</ele>
<time>2022-03-28T18:57:27Z</time>
<speed>1</speed>
</trkpt>
<trkpt lat="35.49585632" lon="-107.18286263">
<ele>1830.2</ele>
<time>2022-03-28T18:57:31Z</time>
<speed>1.1</speed>
</trkpt>
<trkpt lat="35.49583904" lon="-107.18291247">
<ele>1829.7</ele>
<time>2022-03-28T18:57:35Z</time>
<speed>0.9</speed>
</trkpt>
<trkpt lat="35.4958262" lon="-107.18296706">
<ele>1829.6</ele>
<time>2022-03-28T18:57:39Z</time>
<speed>1</speed>
</trkpt>
<trkpt lat="35.49582383" lon="-107.1830179">
<ele>1829.4</ele>
<time>2022-03-28T18:57:44Z</time>
<speed>0.8</speed>
</trkpt>
<trkpt lat="35.49581421" lon="-107.1830612">
<ele>1829.8</ele>
<time>2022-03-28T18:57:49Z</time>
<speed>0.8</speed>
</trkpt>
<trkpt lat="35.49578233" lon="-107.1830966">
<ele>1830.9</ele>
<time>2022-03-28T18:57:54Z</time>
<speed>1</speed>
</trkpt>
<trkpt lat="35.49576113" lon="-107.18313929">
<ele>1830.5</ele>
<time>2022-03-28T18:57:58Z</time>
<speed>1</speed>
</trkpt>
<trkpt lat="35.49574812" lon="-107.18318684">
<ele>1831</ele>
<time>2022-03-28T18:58:03Z</time>
<speed>0.9</speed>
</trkpt>
<trkpt lat="35.49572055" lon="-107.1832298">
<ele>1831.1</ele>
<time>2022-03-28T18:58:09Z</time>
<speed>0.9</speed>
</trkpt>
<trkpt lat="35.49569063" lon="-107.18326747">
<ele>1830.9</ele>
<time>2022-03-28T18:58:15Z</time>
<speed>0.9</speed>
</trkpt>
<trkpt lat="35.49566705" lon="-107.18331282">
<ele>1830.4</ele>
<time>2022-03-28T18:58:20Z</time>
<speed>0.9</speed>
</trkpt>
<trkpt lat="35.49565133" lon="-107.18335468">
<ele>1829.9</ele>
<time>2022-03-28T18:58:24Z</time>
<speed>1</speed>
</trkpt>
<trkpt lat="35.49564175" lon="-107.18339747">
<ele>1829.4</ele>
<time>2022-03-28T18:58:28Z</time>
<speed>0.9</speed>
</trkpt>
<trkpt lat="35.49560727" lon="-107.1834284">
<ele>1829.2</ele>
<time>2022-03-28T18:58:33Z</time>
<speed>1</speed>
</trkpt>
<trkpt lat="35.49556973" lon="-107.18344137">
<ele>1830.9</ele>
<time>2022-03-28T18:58:39Z</time>
<speed>0.9</speed>
</trkpt>
<trkpt lat="35.49555626" lon="-107.18348801">
<ele>1831.7</ele>
<time>2022-03-28T18:58:47Z</time>
<speed>0.8</speed>
</trkpt>
<trkpt lat="35.49551804" lon="-107.18350658">
<ele>1834.3</ele>
<time>2022-03-28T18:58:53Z</time>
<speed>0.9</speed>
</trkpt>
<trkpt lat="35.49547958" lon="-107.18351112">
<ele>1835.1</ele>
<time>2022-03-28T18:59:00Z</time>
<speed>0.7</speed>
</trkpt>
<trkpt lat="35.49545385" lon="-107.1835434">
<ele>1835.4</ele>
<time>2022-03-28T18:59:04Z</time>
<speed>1</speed>
</trkpt>
<trkpt lat="35.49543429" lon="-107.18358898">
<ele>1837.1</ele>
<time>2022-03-28T18:59:09Z</time>
<speed>0.7</speed>
</trkpt>
<trkpt lat="35.49540901" lon="-107.18363379">
<ele>1838.4</ele>
<time>2022-03-28T18:59:15Z</time>
<speed>0.9</speed>
</trkpt>
<trkpt lat="35.4953837" lon="-107.18366693">
<ele>1839.4</ele>
<time>2022-03-28T19:00:16Z</time>
<speed>0.5</speed>
</trkpt>
<trkpt lat="35.49540077" lon="-107.18371324">
<ele>1838.2</ele>
<time>2022-03-28T19:00:21Z</time>
<speed>0.9</speed>
</trkpt>
<trkpt lat="35.49540995" lon="-107.18376565">
<ele>1838.8</ele>
<time>2022-03-28T19:00:25Z</time>
<speed>1.3</speed>
</trkpt>
<trkpt lat="35.49540686" lon="-107.18381362">
<ele>1838.6</ele>
<time>2022-03-28T19:00:30Z</time>
<speed>1</speed>
</trkpt>
<trkpt lat="35.49537153" lon="-107.18384567">
<ele>1839.8</ele>
<time>2022-03-28T19:00:35Z</time>
<speed>0.9</speed>
</trkpt>
<trkpt lat="35.49533353" lon="-107.18387174">
<ele>1840.5</ele>
<time>2022-03-28T19:00:40Z</time>
<speed>1</speed>
</trkpt>
<trkpt lat="35.49529846" lon="-107.18389176">
<ele>1841.4</ele>
<time>2022-03-28T19:00:44Z</time>
<speed>0.9</speed>
</trkpt>
<trkpt lat="35.49529563" lon="-107.18394071">
<ele>1840.3</ele>
<time>2022-03-28T19:00:48Z</time>
<speed>0.8</speed>
</trkpt>
<trkpt lat="35.49528976" lon="-107.18399233">
<ele>1839.3</ele>
<time>2022-03-28T19:00:52Z</time>
<speed>0.9</speed>
</trkpt>
<trkpt lat="35.4952961" lon="-107.18404356">
<ele>1839.1</ele>
<time>2022-03-28T19:00:56Z</time>
<speed>0.9</speed>
</trkpt>
<trkpt lat="35.49531365" lon="-107.18408223">
<ele>1837.4</ele>
<time>2022-03-28T19:01:00Z</time>
<speed>0.9</speed>
</trkpt>
<trkpt lat="35.49531837" lon="-107.18413287">
<ele>1836.1</ele>
<time>2022-03-28T19:01:05Z</time>
<speed>0.7</speed>
</trkpt>
<trkpt lat="35.49530474" lon="-107.18418244">
<ele>1835.4</ele>
<time>2022-03-28T19:01:10Z</time>
<speed>1.1</speed>
</trkpt>
<trkpt lat="35.4953108" lon="-107.18422787">
<ele>1836.6</ele>
<time>2022-03-28T19:01:18Z</time>
<speed>0.4</speed>
</trkpt>
<trkpt lat="35.49528924" lon="-107.18426447">
<ele>1836.7</ele>
<time>2022-03-28T19:01:24Z</time>
<speed>1.1</speed>
</trkpt>
<trkpt lat="35.4952475" lon="-107.18427602">
<ele>1837.5</ele>
<time>2022-03-28T19:01:30Z</time>
<speed>0.9</speed>
</trkpt>
<trkpt lat="35.49522464" lon="-107.18431578">
<ele>1838.6</ele>
<time>2022-03-28T19:01:35Z</time>
<speed>0.8</speed>
</trkpt>
<trkpt lat="35.495196" lon="-107.18434736">
<ele>1839.9</ele>
<time>2022-03-28T19:01:40Z</time>
<speed>0.9</speed>
</trkpt>
<trkpt lat="35.49518347" lon="-107.18438909">
<ele>1840.2</ele>
<time>2022-03-28T19:01:55Z</time>
<speed>0.4</speed>
</trkpt>
<trkpt lat="35.49515846" lon="-107.18442645">
<ele>1840.7</ele>
<time>2022-03-28T19:02:02Z</time>
<speed>0.4</speed>
</trkpt>
<trkpt lat="35.49514084" lon="-107.18446682">
<ele>1840.4</ele>
<time>2022-03-28T19:02:16Z</time>
<speed>0.6</speed>
</trkpt>
<trkpt lat="35.49517627" lon="-107.18448146">
<ele>1841</ele>
<time>2022-03-28T19:02:48Z</time>
<speed>0.4</speed>
</trkpt>
<trkpt lat="35.49520407" lon="-107.18444993">
<ele>1842.9</ele>
<time>2022-03-28T19:02:56Z</time>
<speed>0.4</speed>
</trkpt>
<trkpt lat="35.49523484" lon="-107.18442261">
<ele>1843.3</ele>
<time>2022-03-28T19:03:36Z</time>
<speed>0.3</speed>
</trkpt>
<trkpt lat="35.49521311" lon="-107.18437622">
<ele>1844.3</ele>
<time>2022-03-28T19:05:24Z</time>
<speed>1</speed>
</trkpt>
<trkpt lat="35.4952182" lon="-107.18433037">
<ele>1843.7</ele>
<time>2022-03-28T19:05:28Z</time>
<speed>1</speed>
</trkpt>
<trkpt lat="35.49521524" lon="-107.18428511">
<ele>1843.8</ele>
<time>2022-03-28T19:05:32Z</time>
<speed>0.8</speed>
</trkpt>
<trkpt lat="35.49519524" lon="-107.18424462">
<ele>1843.8</ele>
<time>2022-03-28T19:05:37Z</time>
<speed>0.5</speed>
</trkpt>
<trkpt lat="35.4952251" lon="-107.1842164">
<ele>1843.8</ele>
<time>2022-03-28T19:06:00Z</time>
<speed>0.3</speed>
</trkpt>
<trkpt lat="35.49526801" lon="-107.18420232">
<ele>1843.9</ele>
<time>2022-03-28T19:06:09Z</time>
<speed>1</speed>
</trkpt>
<trkpt lat="35.4953002" lon="-107.1841658">
<ele>1843.6</ele>
<time>2022-03-28T19:06:13Z</time>
<speed>0.9</speed>
</trkpt>
<trkpt lat="35.49533589" lon="-107.1841454">
<ele>1843.7</ele>
<time>2022-03-28T19:06:17Z</time>
<speed>1.1</speed>
</trkpt>
<trkpt lat="35.49536149" lon="-107.18410511">
<ele>1844.7</ele>
<time>2022-03-28T19:06:23Z</time>
<speed>0.7</speed>
</trkpt>
<trkpt lat="35.49539854" lon="-107.18409245">
<ele>1843.9</ele>
<time>2022-03-28T19:06:28Z</time>
<speed>0.6</speed>
</trkpt>
<trkpt lat="35.49542818" lon="-107.18406643">
<ele>1840.6</ele>
<time>2022-03-28T19:06:42Z</time>
<speed>1.2</speed>
</trkpt>
<trkpt lat="35.49544312" lon="-107.18402132">
<ele>1840.8</ele>
<time>2022-03-28T19:06:46Z</time>
<speed>1.1</speed>
</trkpt>
<trkpt lat="35.49544249" lon="-107.18397169">
<ele>1841.6</ele>
<time>2022-03-28T19:06:51Z</time>
<speed>1.2</speed>
</trkpt>
<trkpt lat="35.49545376" lon="-107.18392327">
<ele>1841.2</ele>
<time>2022-03-28T19:06:55Z</time>
<speed>1.2</speed>
</trkpt>
<trkpt lat="35.4954527" lon="-107.18386774">
<ele>1840.2</ele>
<time>2022-03-28T19:06:59Z</time>
<speed>1.1</speed>
</trkpt>
<trkpt lat="35.49545787" lon="-107.18381777">
<ele>1839.9</ele>
<time>2022-03-28T19:07:03Z</time>
<speed>1</speed>
</trkpt>
<trkpt lat="35.49544814" lon="-107.183766">
<ele>1840.8</ele>
<time>2022-03-28T19:07:08Z</time>
<speed>1</speed>
</trkpt>
<trkpt lat="35.49546744" lon="-107.18372769">
<ele>1841.1</ele>
<time>2022-03-28T19:07:12Z</time>
<speed>1.1</speed>
</trkpt>
<trkpt lat="35.49547441" lon="-107.18368183">
<ele>1840.9</ele>
<time>2022-03-28T19:07:16Z</time>
<speed>1</speed>
</trkpt>
<trkpt lat="35.49548243" lon="-107.18363264">
<ele>1840.6</ele>
<time>2022-03-28T19:07:21Z</time>
<speed>0.8</speed>
</trkpt>
<trkpt lat="35.49550008" lon="-107.18358766">
<ele>1842.8</ele>
<time>2022-03-28T19:07:26Z</time>
<speed>1</speed>
</trkpt>
<trkpt lat="35.49551011" lon="-107.18353122">
<ele>1842.9</ele>
<time>2022-03-28T19:07:30Z</time>
<speed>1.1</speed>
</trkpt>
<trkpt lat="35.49551554" lon="-107.18348119">
<ele>1842.6</ele>
<time>2022-03-28T19:07:34Z</time>
<speed>1.1</speed>
</trkpt>
<trkpt lat="35.49553356" lon="-107.18343672">
<ele>1842.3</ele>
<time>2022-03-28T19:07:38Z</time>
<speed>1</speed>
</trkpt>
<trkpt lat="35.49554484" lon="-107.1833929">
<ele>1840.9</ele>
<time>2022-03-28T19:07:42Z</time>
<speed>1</speed>
</trkpt>
<trkpt lat="35.49556986" lon="-107.18336056">
<ele>1840.3</ele>
<time>2022-03-28T19:07:47Z</time>
<speed>0.8</speed>
</trkpt>
<trkpt lat="35.49558701" lon="-107.1833104">
<ele>1841.1</ele>
<time>2022-03-28T19:07:52Z</time>
<speed>1</speed>
</trkpt>
<trkpt lat="35.49560634" lon="-107.18325739">
<ele>1840.3</ele>
<time>2022-03-28T19:07:56Z</time>
<speed>1.2</speed>
</trkpt>
<trkpt lat="35.49561456" lon="-107.18319981">
<ele>1839.7</ele>
<time>2022-03-28T19:08:00Z</time>
<speed>1.2</speed>
</trkpt>
<trkpt lat="35.49562511" lon="-107.18315623">
<ele>1840.2</ele>
<time>2022-03-28T19:08:03Z</time>
<speed>1.2</speed>
</trkpt>
<trkpt lat="35.49563637" lon="-107.18309786">
<ele>1840</ele>
<time>2022-03-28T19:08:07Z</time>
<speed>1.2</speed>
</trkpt>
<trkpt lat="35.49563528" lon="-107.18305314">
<ele>1839.2</ele>
<time>2022-03-28T19:08:10Z</time>
<speed>1.2</speed>
</trkpt>
<trkpt lat="35.49564003" lon="-107.18300691">
<ele>1838.7</ele>
<time>2022-03-28T19:08:13Z</time>
<speed>1.3</speed>
</trkpt>
<trkpt lat="35.49565285" lon="-107.18296236">
<ele>1838.3</ele>
<time>2022-03-28T19:08:16Z</time>
<speed>1.3</speed>
</trkpt>
<trkpt lat="35.49566362" lon="-107.18290467">
<ele>1837.4</ele>
<time>2022-03-28T19:08:20Z</time>
<speed>1.3</speed>
</trkpt>
<trkpt lat="35.4956526" lon="-107.18285991">
<ele>1838.1</ele>
<time>2022-03-28T19:08:23Z</time>
<speed>1.5</speed>
</trkpt>
<trkpt lat="35.49564623" lon="-107.18281597">
<ele>1837.6</ele>
<time>2022-03-28T19:08:27Z</time>
<speed>0.9</speed>
</trkpt>
<trkpt lat="35.49565148" lon="-107.18276187">
<ele>1837.8</ele>
<time>2022-03-28T19:08:36Z</time>
<speed>1.1</speed>
</trkpt>
<trkpt lat="35.49567061" lon="-107.18271891">
<ele>1837.5</ele>
<time>2022-03-28T19:08:40Z</time>
<speed>1.3</speed>
</trkpt>
<trkpt lat="35.49569506" lon="-107.18267453">
<ele>1837.3</ele>
<time>2022-03-28T19:08:44Z</time>
<speed>1.2</speed>
</trkpt>
<trkpt lat="35.49571774" lon="-107.18262714">
<ele>1837</ele>
<time>2022-03-28T19:08:48Z</time>
<speed>1.3</speed>
</trkpt>
<trkpt lat="35.49572362" lon="-107.1825833">
<ele>1837</ele>
<time>2022-03-28T19:08:51Z</time>
<speed>1</speed>
</trkpt>
<trkpt lat="35.4957292" lon="-107.18253921">
<ele>1837.8</ele>
<time>2022-03-28T19:08:55Z</time>
<speed>1</speed>
</trkpt>
<trkpt lat="35.49574903" lon="-107.18249379">
<ele>1838.4</ele>
<time>2022-03-28T19:08:59Z</time>
<speed>1.1</speed>
</trkpt>
<trkpt lat="35.49577384" lon="-107.18244724">
<ele>1838.2</ele>
<time>2022-03-28T19:09:03Z</time>
<speed>1.1</speed>
</trkpt>
<trkpt lat="35.49580252" lon="-107.18240969">
<ele>1839.7</ele>
<time>2022-03-28T19:09:08Z</time>
<speed>1</speed>
</trkpt>
<trkpt lat="35.4958404" lon="-107.18238885">
<ele>1839.5</ele>
<time>2022-03-28T19:09:13Z</time>
<speed>1.1</speed>
</trkpt>
<trkpt lat="35.49585945" lon="-107.18235007">
<ele>1839.1</ele>
<time>2022-03-28T19:09:17Z</time>
<speed>1.2</speed>
</trkpt>
<trkpt lat="35.49588901" lon="-107.18229974">
<ele>1837.5</ele>
<time>2022-03-28T19:09:21Z</time>
<speed>1.3</speed>
</trkpt>
<trkpt lat="35.49592204" lon="-107.18226353">
<ele>1838.4</ele>
<time>2022-03-28T19:09:25Z</time>
<speed>1.1</speed>
</trkpt>
<trkpt lat="35.49596078" lon="-107.18227791">
<ele>1834.3</ele>
<time>2022-03-28T19:09:34Z</time>
<speed>0.9</speed>
</trkpt>
<trkpt lat="35.49599328" lon="-107.18230196">
<ele>1834.7</ele>
<time>2022-03-28T19:09:40Z</time>
<speed>1</speed>
</trkpt>
<trkpt lat="35.49602856" lon="-107.18231309">
<ele>1834.2</ele>
<time>2022-03-28T19:09:45Z</time>
<speed>0.8</speed>
</trkpt>
<trkpt lat="35.49606689" lon="-107.1823345">
<ele>1832.8</ele>
<time>2022-03-28T19:09:52Z</time>
<speed>0.8</speed>
</trkpt>
<trkpt lat="35.49610229" lon="-107.18234471">
<ele>1832.5</ele>
<time>2022-03-28T19:09:57Z</time>
<speed>0.9</speed>
</trkpt>
<trkpt lat="35.49614321" lon="-107.18236468">
<ele>1833.5</ele>
<time>2022-03-28T19:10:02Z</time>
<speed>0.9</speed>
</trkpt>
<trkpt lat="35.49618183" lon="-107.18236882">
<ele>1833.6</ele>
<time>2022-03-28T19:10:06Z</time>
<speed>1</speed>
</trkpt>
<trkpt lat="35.49622313" lon="-107.1823662">
<ele>1833.3</ele>
<time>2022-03-28T19:10:10Z</time>
<speed>1.2</speed>
</trkpt>
<trkpt lat="35.49625813" lon="-107.18235129">
<ele>1833.7</ele>
<time>2022-03-28T19:10:14Z</time>
<speed>0.9</speed>
</trkpt>
<trkpt lat="35.49629584" lon="-107.1823524">
<ele>1834.4</ele>
<time>2022-03-28T19:10:18Z</time>
<speed>0.9</speed>
</trkpt>
<trkpt lat="35.49633378" lon="-107.1823698">
<ele>1836.6</ele>
<time>2022-03-28T19:10:24Z</time>
<speed>0.7</speed>
</trkpt>
<trkpt lat="35.49637457" lon="-107.18235835">
<ele>1836.4</ele>
<time>2022-03-28T19:10:28Z</time>
<speed>1</speed>
</trkpt>
<trkpt lat="35.49641614" lon="-107.18235844">
<ele>1837</ele>
<time>2022-03-28T19:10:32Z</time>
<speed>1</speed>
</trkpt>
<trkpt lat="35.49645377" lon="-107.18234588">
<ele>1836.3</ele>
<time>2022-03-28T19:10:37Z</time>
<speed>0.6</speed>
</trkpt>
<trkpt lat="35.49649407" lon="-107.18231961">
<ele>1836.3</ele>
<time>2022-03-28T19:10:42Z</time>
<speed>1</speed>
</trkpt>
<trkpt lat="35.49653176" lon="-107.18229683">
<ele>1835.4</ele>
<time>2022-03-28T19:10:46Z</time>
<speed>1.4</speed>
</trkpt>
<trkpt lat="35.49656369" lon="-107.18227106">
<ele>1834.6</ele>
<time>2022-03-28T19:10:51Z</time>
<speed>0.8</speed>
</trkpt>
<trkpt lat="35.49660107" lon="-107.18225644">
<ele>1835.1</ele>
<time>2022-03-28T19:10:56Z</time>
<speed>0.9</speed>
</trkpt>
<trkpt lat="35.49664121" lon="-107.1822592">
<ele>1835.9</ele>
<time>2022-03-28T19:11:01Z</time>
<speed>0.9</speed>
</trkpt>
<trkpt lat="35.49668602" lon="-107.18225845">
<ele>1836.1</ele>
<time>2022-03-28T19:11:06Z</time>
<speed>1.1</speed>
</trkpt>
<trkpt lat="35.49673006" lon="-107.18226201">
<ele>1837.5</ele>
<time>2022-03-28T19:11:11Z</time>
<speed>1</speed>
</trkpt>
<trkpt lat="35.49676906" lon="-107.18226665">
<ele>1836.2</ele>
<time>2022-03-28T19:11:15Z</time>
<speed>1.1</speed>
</trkpt>
<trkpt lat="35.49680684" lon="-107.18225943">
<ele>1838.5</ele>
<time>2022-03-28T19:11:20Z</time>
<speed>0.6</speed>
</trkpt>
<trkpt lat="35.49683509" lon="-107.18222887">
<ele>1838.2</ele>
<time>2022-03-28T19:11:24Z</time>
<speed>0.9</speed>
</trkpt>
<trkpt lat="35.49687338" lon="-107.18220021">
<ele>1839.3</ele>
<time>2022-03-28T19:11:30Z</time>
<speed>0.9</speed>
</trkpt>
<trkpt lat="35.49689135" lon="-107.18215852">
<ele>1840.2</ele>
<time>2022-03-28T19:11:35Z</time>
<speed>0.6</speed>
</trkpt>
<trkpt lat="35.49691732" lon="-107.18212032">
<ele>1841.5</ele>
<time>2022-03-28T19:11:41Z</time>
<speed>0.8</speed>
</trkpt>
<trkpt lat="35.49691768" lon="-107.18206568">
<ele>1841</ele>
<time>2022-03-28T19:11:45Z</time>
<speed>0.9</speed>
</trkpt>
<trkpt lat="35.49693094" lon="-107.18201887">
<ele>1841.2</ele>
<time>2022-03-28T19:11:49Z</time>
<speed>0.9</speed>
</trkpt>
<trkpt lat="35.49693811" lon="-107.18197013">
<ele>1841.7</ele>
<time>2022-03-28T19:11:53Z</time>
<speed>0.9</speed>
</trkpt>
<trkpt lat="35.4969344" lon="-107.1819181">
<ele>1842</ele>
<time>2022-03-28T19:11:57Z</time>
<speed>1.1</speed>
</trkpt>
<trkpt lat="35.4969335" lon="-107.18186521">
<ele>1841.7</ele>
<time>2022-03-28T19:12:01Z</time>
<speed>1.1</speed>
</trkpt>
<trkpt lat="35.4969366" lon="-107.18181536">
<ele>1842.6</ele>
<time>2022-03-28T19:12:06Z</time>
<speed>0.6</speed>
</trkpt>
<trkpt lat="35.49697671" lon="-107.18180179">
<ele>1841.5</ele>
<time>2022-03-28T19:12:25Z</time>
<speed>0.9</speed>
</trkpt>
<trkpt lat="35.49701091" lon="-107.18178088">
<ele>1839.3</ele>
<time>2022-03-28T19:12:44Z</time>
<speed>0.7</speed>
</trkpt>
<trkpt lat="35.49703328" lon="-107.18174614">
<ele>1841.3</ele>
<time>2022-03-28T19:13:09Z</time>
<speed>0</speed>
</trkpt>
<trkpt lat="35.49707363" lon="-107.18173882">
<ele>1840.9</ele>
<time>2022-03-28T19:13:19Z</time>
<speed>0.9</speed>
</trkpt>
<trkpt lat="35.49710495" lon="-107.18171697">
<ele>1840</ele>
<time>2022-03-28T19:13:24Z</time>
<speed>1</speed>
</trkpt>
<trkpt lat="35.49713047" lon="-107.18168047">
<ele>1840.1</ele>
<time>2022-03-28T19:13:28Z</time>
<speed>0.7</speed>
</trkpt>
<trkpt lat="35.49715967" lon="-107.18164536">
<ele>1841.3</ele>
<time>2022-03-28T19:13:44Z</time>
<speed>0.9</speed>
</trkpt>
<trkpt lat="35.49718356" lon="-107.18160549">
<ele>1840.7</ele>
<time>2022-03-28T19:13:49Z</time>
<speed>1</speed>
</trkpt>
<trkpt lat="35.49719768" lon="-107.18155555">
<ele>1838.6</ele>
<time>2022-03-28T19:13:54Z</time>
<speed>1</speed>
</trkpt>
<trkpt lat="35.49723966" lon="-107.18153927">
<ele>1838.1</ele>
<time>2022-03-28T19:13:59Z</time>
<speed>1</speed>
</trkpt>
<trkpt lat="35.49727658" lon="-107.18152851">
<ele>1837.5</ele>
<time>2022-03-28T19:14:03Z</time>
<speed>1</speed>
</trkpt>
<trkpt lat="35.4973113" lon="-107.18151104">
<ele>1836.8</ele>
<time>2022-03-28T19:14:07Z</time>
<speed>1.1</speed>
</trkpt>
<trkpt lat="35.49735837" lon="-107.18150828">
<ele>1835</ele>
<time>2022-03-28T19:14:12Z</time>
<speed>1.2</speed>
</trkpt>
<trkpt lat="35.49739612" lon="-107.18149988">
<ele>1834.9</ele>
<time>2022-03-28T19:14:15Z</time>
<speed>1.1</speed>
</trkpt>
<trkpt lat="35.49742729" lon="-107.18146158">
<ele>1835.1</ele>
<time>2022-03-28T19:14:19Z</time>
<speed>1.1</speed>
</trkpt>
<trkpt lat="35.49743848" lon="-107.18141484">
<ele>1834.6</ele>
<time>2022-03-28T19:14:23Z</time>
<speed>1</speed>
</trkpt>
<trkpt lat="35.4974437" lon="-107.18136279">
<ele>1834.2</ele>
<time>2022-03-28T19:14:27Z</time>
<speed>1.1</speed>
</trkpt>
<trkpt lat="35.49748187" lon="-107.18133443">
<ele>1835.2</ele>
<time>2022-03-28T19:14:31Z</time>
<speed>0.9</speed>
</trkpt>
<trkpt lat="35.49751632" lon="-107.18131167">
<ele>1835.1</ele>
<time>2022-03-28T19:14:36Z</time>
<speed>1.1</speed>
</trkpt>
<trkpt lat="35.4975525" lon="-107.18132308">
<ele>1834</ele>
<time>2022-03-28T19:14:42Z</time>
<speed>0.7</speed>
</trkpt>
<trkpt lat="35.49758749" lon="-107.18130841">
<ele>1833.4</ele>
<time>2022-03-28T19:14:46Z</time>
<speed>1</speed>
</trkpt>
<trkpt lat="35.49762447" lon="-107.18128253">
<ele>1832.6</ele>
<time>2022-03-28T19:14:50Z</time>
<speed>1.2</speed>
</trkpt>
<trkpt lat="35.49765457" lon="-107.18125826">
<ele>1831.6</ele>
<time>2022-03-28T19:14:53Z</time>
<speed>1.1</speed>
</trkpt>
<trkpt lat="35.49768797" lon="-107.18122042">
<ele>1831.5</ele>
<time>2022-03-28T19:14:57Z</time>
<speed>1.1</speed>
</trkpt>
<trkpt lat="35.49772297" lon="-107.18118249">
<ele>1830.6</ele>
<time>2022-03-28T19:15:01Z</time>
<speed>1.1</speed>
</trkpt>
<trkpt lat="35.49773284" lon="-107.18113803">
<ele>1830.7</ele>
<time>2022-03-28T19:15:04Z</time>
<speed>1.1</speed>
</trkpt>
<trkpt lat="35.49774707" lon="-107.18108858">
<ele>1830.1</ele>
<time>2022-03-28T19:15:08Z</time>
<speed>1</speed>
</trkpt>
<trkpt lat="35.49777527" lon="-107.18104851">
<ele>1829.4</ele>
<time>2022-03-28T19:15:12Z</time>
<speed>1.1</speed>
</trkpt>
<trkpt lat="35.49779985" lon="-107.18101507">
<ele>1830</ele>
<time>2022-03-28T19:15:16Z</time>
<speed>1.2</speed>
</trkpt>
<trkpt lat="35.49782842" lon="-107.18098682">
<ele>1829.3</ele>
<time>2022-03-28T19:15:20Z</time>
<speed>0.9</speed>
</trkpt>
<trkpt lat="35.49785957" lon="-107.1809518">
<ele>1828.8</ele>
<time>2022-03-28T19:15:25Z</time>
<speed>0.9</speed>
</trkpt>
<trkpt lat="35.49789402" lon="-107.18092798">
<ele>1829.8</ele>
<time>2022-03-28T19:15:29Z</time>
<speed>1.3</speed>
</trkpt>
<trkpt lat="35.49791997" lon="-107.18088562">
<ele>1829.8</ele>
<time>2022-03-28T19:15:33Z</time>
<speed>1.1</speed>
</trkpt>
<trkpt lat="35.49794387" lon="-107.18084676">
<ele>1829</ele>
<time>2022-03-28T19:15:37Z</time>
<speed>1</speed>
</trkpt>
<trkpt lat="35.49797263" lon="-107.18080997">
<ele>1829.2</ele>
<time>2022-03-28T19:15:41Z</time>
<speed>1.1</speed>
</trkpt>
<trkpt lat="35.49800032" lon="-107.18078051">
<ele>1828.4</ele>
<time>2022-03-28T19:15:45Z</time>
<speed>1.2</speed>
</trkpt>
<trkpt lat="35.49802626" lon="-107.18074753">
<ele>1828.5</ele>
<time>2022-03-28T19:15:49Z</time>
<speed>1.1</speed>
</trkpt>
<trkpt lat="35.49805219" lon="-107.18071314">
<ele>1828.7</ele>
<time>2022-03-28T19:15:53Z</time>
<speed>0.9</speed>
</trkpt>
<trkpt lat="35.49807998" lon="-107.18067391">
<ele>1828.4</ele>
<time>2022-03-28T19:15:58Z</time>
<speed>0.9</speed>
</trkpt>
<trkpt lat="35.49811973" lon="-107.18066693">
<ele>1829.5</ele>
<time>2022-03-28T19:16:04Z</time>
<speed>0.9</speed>
</trkpt>
<trkpt lat="35.4981633" lon="-107.18064753">
<ele>1829.1</ele>
<time>2022-03-28T19:16:09Z</time>
<speed>1.2</speed>
</trkpt>
<trkpt lat="35.49819315" lon="-107.18061235">
<ele>1829.4</ele>
<time>2022-03-28T19:16:13Z</time>
<speed>0.6</speed>
</trkpt>
<trkpt lat="35.49820823" lon="-107.18056429">
<ele>1828.6</ele>
<time>2022-03-28T19:16:19Z</time>
<speed>0.8</speed>
</trkpt>
<trkpt lat="35.49822562" lon="-107.18052455">
<ele>1829</ele>
<time>2022-03-28T19:16:24Z</time>
<speed>0.8</speed>
</trkpt>
<trkpt lat="35.49824199" lon="-107.18047868">
<ele>1829.3</ele>
<time>2022-03-28T19:16:29Z</time>
<speed>1</speed>
</trkpt>
<trkpt lat="35.49825942" lon="-107.18043815">
<ele>1829.1</ele>
<time>2022-03-28T19:16:33Z</time>
<speed>0.9</speed>
</trkpt>
<trkpt lat="35.49828339" lon="-107.18039748">
<ele>1829.3</ele>
<time>2022-03-28T19:16:38Z</time>
<speed>0.7</speed>
</trkpt>
<trkpt lat="35.49830108" lon="-107.18035688">
<ele>1828.3</ele>
<time>2022-03-28T19:16:44Z</time>
<speed>0.8</speed>
</trkpt>
<trkpt lat="35.49832169" lon="-107.1803174">
<ele>1826.6</ele>
<time>2022-03-28T19:16:48Z</time>
<speed>1</speed>
</trkpt>
<trkpt lat="35.49834401" lon="-107.18027786">
<ele>1826.4</ele>
<time>2022-03-28T19:16:51Z</time>
<speed>1.2</speed>
</trkpt>
<trkpt lat="35.49836419" lon="-107.18023356">
<ele>1826.6</ele>
<time>2022-03-28T19:16:55Z</time>
<speed>1.1</speed>
</trkpt>
<trkpt lat="35.49838832" lon="-107.18018629">
<ele>1826.9</ele>
<time>2022-03-28T19:16:59Z</time>
<speed>1.1</speed>
</trkpt>
<trkpt lat="35.49841301" lon="-107.18015304">
<ele>1827.7</ele>
<time>2022-03-28T19:17:02Z</time>
<speed>1.2</speed>
</trkpt>
<trkpt lat="35.49844416" lon="-107.18011079">
<ele>1827.2</ele>
<time>2022-03-28T19:17:06Z</time>
<speed>1.1</speed>
</trkpt>
<trkpt lat="35.49846436" lon="-107.18006763">
<ele>1827.1</ele>
<time>2022-03-28T19:17:10Z</time>
<speed>1</speed>
</trkpt>
<trkpt lat="35.49847667" lon="-107.1800219">
<ele>1826.7</ele>
<time>2022-03-28T19:17:14Z</time>
<speed>0.6</speed>
</trkpt>
<trkpt lat="35.49849789" lon="-107.17997348">
<ele>1825.8</ele>
<time>2022-03-28T19:17:19Z</time>
<speed>1</speed>
</trkpt>
<trkpt lat="35.49851036" lon="-107.17992636">
<ele>1824.9</ele>
<time>2022-03-28T19:17:24Z</time>
<speed>0.8</speed>
</trkpt>
<trkpt lat="35.49851506" lon="-107.17987871">
<ele>1825</ele>
<time>2022-03-28T19:17:30Z</time>
<speed>0.6</speed>
</trkpt>
<trkpt lat="35.49853997" lon="-107.17984153">
<ele>1825.2</ele>
<time>2022-03-28T19:17:37Z</time>
<speed>1.3</speed>
</trkpt>
<trkpt lat="35.4985418" lon="-107.17979629">
<ele>1825.9</ele>
<time>2022-03-28T19:17:47Z</time>
<speed>0.5</speed>
</trkpt>
<trkpt lat="35.49853787" lon="-107.17975147">
<ele>1827</ele>
<time>2022-03-28T19:17:59Z</time>
<speed>0.9</speed>
</trkpt>
<trkpt lat="35.49852375" lon="-107.17970919">
<ele>1828.8</ele>
<time>2022-03-28T19:18:05Z</time>
<speed>0.6</speed>
</trkpt>
<trkpt lat="35.49849402" lon="-107.17966655">
<ele>1830.6</ele>
<time>2022-03-28T19:18:13Z</time>
<speed>1</speed>
</trkpt>
<trkpt lat="35.4984659" lon="-107.17963547">
<ele>1831.8</ele>
<time>2022-03-28T19:18:18Z</time>
<speed>0.7</speed>
</trkpt>
<trkpt lat="35.49844045" lon="-107.17960338">
<ele>1832.4</ele>
<time>2022-03-28T19:18:22Z</time>
<speed>0.8</speed>
</trkpt>
<trkpt lat="35.49843195" lon="-107.1795605">
<ele>1831.8</ele>
<time>2022-03-28T19:19:30Z</time>
<speed>0.6</speed>
</trkpt>
<trkpt lat="35.4983986" lon="-107.17952283">
<ele>1832</ele>
<time>2022-03-28T19:21:07Z</time>
<speed>1</speed>
</trkpt>
<trkpt lat="35.49840521" lon="-107.17947889">
<ele>1831.3</ele>
<time>2022-03-28T19:21:11Z</time>
<speed>0.9</speed>
</trkpt>
<trkpt lat="35.49840974" lon="-107.17943122">
<ele>1829.5</ele>
<time>2022-03-28T19:22:31Z</time>
<speed>1.1</speed>
</trkpt>
<trkpt lat="35.49841983" lon="-107.17938338">
<ele>1828.8</ele>
<time>2022-03-28T19:22:35Z</time>
<speed>0.9</speed>
</trkpt>
<trkpt lat="35.4984375" lon="-107.17933118">
<ele>1827.9</ele>
<time>2022-03-28T19:22:40Z</time>
<speed>1.3</speed>
</trkpt>
<trkpt lat="35.49846132" lon="-107.17928724">
<ele>1828.1</ele>
<time>2022-03-28T19:22:45Z</time>
<speed>1.2</speed>
</trkpt>
<trkpt lat="35.4984844" lon="-107.17924481">
<ele>1827.6</ele>
<time>2022-03-28T19:22:49Z</time>
<speed>1.2</speed>
</trkpt>
<trkpt lat="35.49848283" lon="-107.17919203">
<ele>1827.1</ele>
<time>2022-03-28T19:22:53Z</time>
<speed>1.2</speed>
</trkpt>
<trkpt lat="35.49849961" lon="-107.17914892">
<ele>1825.9</ele>
<time>2022-03-28T19:22:57Z</time>
<speed>1.1</speed>
</trkpt>
<trkpt lat="35.49853289" lon="-107.17910972">
<ele>1825.8</ele>
<time>2022-03-28T19:23:01Z</time>
<speed>1.1</speed>
</trkpt>
<trkpt lat="35.49855902" lon="-107.17907726">
<ele>1825.7</ele>
<time>2022-03-28T19:23:04Z</time>
<speed>1.2</speed>
</trkpt>
<trkpt lat="35.49857362" lon="-107.17902336">
<ele>1825.9</ele>
<time>2022-03-28T19:23:08Z</time>
<speed>1.2</speed>
</trkpt>
<trkpt lat="35.49858177" lon="-107.17896874">
<ele>1825.9</ele>
<time>2022-03-28T19:23:12Z</time>
<speed>1.2</speed>
</trkpt>
<trkpt lat="35.49860174" lon="-107.17892985">
<ele>1826</ele>
<time>2022-03-28T19:23:16Z</time>
<speed>1</speed>
</trkpt>
<trkpt lat="35.49864023" lon="-107.17889749">
<ele>1825.5</ele>
<time>2022-03-28T19:23:20Z</time>
<speed>1.5</speed>
</trkpt>
<trkpt lat="35.49866281" lon="-107.17886133">
<ele>1825</ele>
<time>2022-03-28T19:23:23Z</time>
<speed>1.3</speed>
</trkpt>
<trkpt lat="35.49870608" lon="-107.17883918">
<ele>1824.6</ele>
<time>2022-03-28T19:23:27Z</time>
<speed>1.4</speed>
</trkpt>
<trkpt lat="35.49874768" lon="-107.17881885">
<ele>1825.2</ele>
<time>2022-03-28T19:23:31Z</time>
<speed>1.2</speed>
</trkpt>
<trkpt lat="35.49878178" lon="-107.17878288">
<ele>1825.7</ele>
<time>2022-03-28T19:23:35Z</time>
<speed>1.4</speed>
</trkpt>
<trkpt lat="35.49879434" lon="-107.17873568">
<ele>1826</ele>
<time>2022-03-28T19:23:39Z</time>
<speed>1</speed>
</trkpt>
<trkpt lat="35.49881921" lon="-107.17869926">
<ele>1826.1</ele>
<time>2022-03-28T19:23:43Z</time>
<speed>1.1</speed>
</trkpt>
<trkpt lat="35.4988424" lon="-107.17866036">
<ele>1827.4</ele>
<time>2022-03-28T19:23:47Z</time>
<speed>1</speed>
</trkpt>
<trkpt lat="35.49886883" lon="-107.17863005">
<ele>1829.4</ele>
<time>2022-03-28T19:23:50Z</time>
<speed>0.6</speed>
</trkpt>
<trkpt lat="35.49888214" lon="-107.17858203">
<ele>1830.1</ele>
<time>2022-03-28T19:24:17Z</time>
<speed>1.2</speed>
</trkpt>
<trkpt lat="35.49891159" lon="-107.17854096">
<ele>1829.9</ele>
<time>2022-03-28T19:24:21Z</time>
<speed>1.2</speed>
</trkpt>
<trkpt lat="35.4989446" lon="-107.17850614">
<ele>1828.6</ele>
<time>2022-03-28T19:24:26Z</time>
<speed>1.1</speed>
</trkpt>
<trkpt lat="35.49898111" lon="-107.17848636">
<ele>1828.6</ele>
<time>2022-03-28T19:24:32Z</time>
<speed>0.7</speed>
</trkpt>
<trkpt lat="35.4990133" lon="-107.17845818">
<ele>1828.4</ele>
<time>2022-03-28T19:24:37Z</time>
<speed>0.8</speed>
</trkpt>
<trkpt lat="35.49904448" lon="-107.17842044">
<ele>1828.4</ele>
<time>2022-03-28T19:24:44Z</time>
<speed>1.1</speed>
</trkpt>
<trkpt lat="35.49908219" lon="-107.17839053">
<ele>1827.6</ele>
<time>2022-03-28T19:24:48Z</time>
<speed>1.3</speed>
</trkpt>
<trkpt lat="35.49911114" lon="-107.17835401">
<ele>1827.1</ele>
<time>2022-03-28T19:24:52Z</time>
<speed>1.2</speed>
</trkpt>
<trkpt lat="35.49914381" lon="-107.17831924">
<ele>1826.5</ele>
<time>2022-03-28T19:24:56Z</time>
<speed>1</speed>
</trkpt>
<trkpt lat="35.49917229" lon="-107.17828158">
<ele>1825.9</ele>
<time>2022-03-28T19:25:00Z</time>
<speed>1.1</speed>
</trkpt>
<trkpt lat="35.49920018" lon="-107.17824146">
<ele>1825.7</ele>
<time>2022-03-28T19:25:05Z</time>
<speed>0.9</speed>
</trkpt>
<trkpt lat="35.49923056" lon="-107.17820175">
<ele>1825.9</ele>
<time>2022-03-28T19:25:10Z</time>
<speed>0.9</speed>
</trkpt>
<trkpt lat="35.49925844" lon="-107.17816772">
<ele>1825.9</ele>
<time>2022-03-28T19:25:15Z</time>
<speed>0.9</speed>
</trkpt>
<trkpt lat="35.49927882" lon="-107.17812194">
<ele>1824.8</ele>
<time>2022-03-28T19:25:20Z</time>
<speed>0.9</speed>
</trkpt>
<trkpt lat="35.49929749" lon="-107.17808401">
<ele>1824.5</ele>
<time>2022-03-28T19:25:24Z</time>
<speed>1</speed>
</trkpt>
<trkpt lat="35.49932279" lon="-107.17805197">
<ele>1824.5</ele>
<time>2022-03-28T19:25:28Z</time>
<speed>1</speed>
</trkpt>
<trkpt lat="35.49934548" lon="-107.17801617">
<ele>1824.2</ele>
<time>2022-03-28T19:25:33Z</time>
<speed>1</speed>
</trkpt>
<trkpt lat="35.49936825" lon="-107.17797988">
<ele>1824.1</ele>
<time>2022-03-28T19:25:37Z</time>
<speed>1</speed>
</trkpt>
<trkpt lat="35.49940378" lon="-107.17794799">
<ele>1824.5</ele>
<time>2022-03-28T19:25:42Z</time>
<speed>1</speed>
</trkpt>
<trkpt lat="35.49944352" lon="-107.17792143">
<ele>1824.9</ele>
<time>2022-03-28T19:25:47Z</time>
<speed>1.2</speed>
</trkpt>
<trkpt lat="35.4994767" lon="-107.17789257">
<ele>1823.9</ele>
<time>2022-03-28T19:25:51Z</time>
<speed>1.3</speed>
</trkpt>
<trkpt lat="35.49949762" lon="-107.17785068">
<ele>1824.1</ele>
<time>2022-03-28T19:25:55Z</time>
<speed>1.1</speed>
</trkpt>
<trkpt lat="35.49952806" lon="-107.17781706">
<ele>1824.1</ele>
<time>2022-03-28T19:26:00Z</time>
<speed>0.7</speed>
</trkpt>
<trkpt lat="35.49956245" lon="-107.17778577">
<ele>1824.7</ele>
<time>2022-03-28T19:26:22Z</time>
<speed>0.8</speed>
</trkpt>
<trkpt lat="35.49960312" lon="-107.1777568">
<ele>1824.1</ele>
<time>2022-03-28T19:26:54Z</time>
<speed>1.2</speed>
</trkpt>
<trkpt lat="35.49963542" lon="-107.17773582">
<ele>1824.6</ele>
<time>2022-03-28T19:26:57Z</time>
<speed>1.3</speed>
</trkpt>
<trkpt lat="35.49967103" lon="-107.17769867">
<ele>1824.1</ele>
<time>2022-03-28T19:27:01Z</time>
<speed>1.3</speed>
</trkpt>
<trkpt lat="35.49970762" lon="-107.17767113">
<ele>1824.3</ele>
<time>2022-03-28T19:27:05Z</time>
<speed>1</speed>
</trkpt>
<trkpt lat="35.49974209" lon="-107.17764887">
<ele>1824.6</ele>
<time>2022-03-28T19:27:09Z</time>
<speed>1.2</speed>
</trkpt>
<trkpt lat="35.49975644" lon="-107.17760508">
<ele>1824.9</ele>
<time>2022-03-28T19:27:13Z</time>
<speed>1</speed>
</trkpt>
<trkpt lat="35.49977632" lon="-107.17756759">
<ele>1825.3</ele>
<time>2022-03-28T19:27:17Z</time>
<speed>1</speed>
</trkpt>
<trkpt lat="35.49978706" lon="-107.17752482">
<ele>1827.9</ele>
<time>2022-03-28T19:27:23Z</time>
<speed>0.9</speed>
</trkpt>
<trkpt lat="35.49980343" lon="-107.17748384">
<ele>1828.6</ele>
<time>2022-03-28T19:27:31Z</time>
<speed>1.1</speed>
</trkpt>
<trkpt lat="35.49981142" lon="-107.17743219">
<ele>1827.5</ele>
<time>2022-03-28T19:27:36Z</time>
<speed>0.7</speed>
</trkpt>
<trkpt lat="35.49979843" lon="-107.17738731">
<ele>1828.9</ele>
<time>2022-03-28T19:27:40Z</time>
<speed>0.4</speed>
</trkpt>
<trkpt lat="35.49979073" lon="-107.1773376">
<ele>1828.7</ele>
<time>2022-03-28T19:27:48Z</time>
<speed>0.8</speed>
</trkpt>
<trkpt lat="35.49980558" lon="-107.1772949">
<ele>1828.5</ele>
<time>2022-03-28T19:27:51Z</time>
<speed>1.1</speed>
</trkpt>
<trkpt lat="35.49982506" lon="-107.17725597">
<ele>1829.2</ele>
<time>2022-03-28T19:27:54Z</time>
<speed>1.1</speed>
</trkpt>
<trkpt lat="35.49985532" lon="-107.17722672">
<ele>1828.9</ele>
<time>2022-03-28T19:27:58Z</time>
<speed>1</speed>
</trkpt>
<trkpt lat="35.49987943" lon="-107.17719267">
<ele>1828.7</ele>
<time>2022-03-28T19:28:03Z</time>
<speed>0.9</speed>
</trkpt>
<trkpt lat="35.49990631" lon="-107.17715245">
<ele>1827.8</ele>
<time>2022-03-28T19:28:09Z</time>
<speed>0.7</speed>
</trkpt>
<trkpt lat="35.49993761" lon="-107.17712621">
<ele>1827.3</ele>
<time>2022-03-28T19:28:14Z</time>
<speed>0.9</speed>
</trkpt>
<trkpt lat="35.49997218" lon="-107.1770998">
<ele>1827.2</ele>
<time>2022-03-28T19:28:19Z</time>
<speed>1</speed>
</trkpt>
<trkpt lat="35.50001344" lon="-107.17708464">
<ele>1825.4</ele>
<time>2022-03-28T19:28:24Z</time>
<speed>1</speed>
</trkpt>
<trkpt lat="35.50004475" lon="-107.17706267">
<ele>1824.8</ele>
<time>2022-03-28T19:28:28Z</time>
<speed>1.1</speed>
</trkpt>
<trkpt lat="35.50007705" lon="-107.17702946">
<ele>1824.5</ele>
<time>2022-03-28T19:28:33Z</time>
<speed>1</speed>
</trkpt>
<trkpt lat="35.50008686" lon="-107.17698535">
<ele>1820</ele>
<time>2022-03-28T19:28:40Z</time>
<speed>0.9</speed>
</trkpt>
<trkpt lat="35.50005221" lon="-107.17695426">
<ele>1820.6</ele>
<time>2022-03-28T19:28:44Z</time>
<speed>1</speed>
</trkpt>
<trkpt lat="35.50003991" lon="-107.17691076">
<ele>1821.9</ele>
<time>2022-03-28T19:28:51Z</time>
<speed>0.7</speed>
</trkpt>
<trkpt lat="35.50005965" lon="-107.17686804">
<ele>1822</ele>
<time>2022-03-28T19:28:56Z</time>
<speed>0.9</speed>
</trkpt>
<trkpt lat="35.50007434" lon="-107.17682593">
<ele>1822.6</ele>
<time>2022-03-28T19:29:01Z</time>
<speed>0.7</speed>
</trkpt>
<trkpt lat="35.50009377" lon="-107.17677622">
<ele>1823.9</ele>
<time>2022-03-28T19:29:07Z</time>
<speed>1</speed>
</trkpt>
<trkpt lat="35.50009097" lon="-107.17672068">
<ele>1822.8</ele>
<time>2022-03-28T19:29:11Z</time>
<speed>1.1</speed>
</trkpt>
<trkpt lat="35.50008437" lon="-107.17666588">
<ele>1822.9</ele>
<time>2022-03-28T19:29:15Z</time>
<speed>1</speed>
</trkpt>
<trkpt lat="35.50008104" lon="-107.17661497">
<ele>1823.3</ele>
<time>2022-03-28T19:29:19Z</time>
<speed>1</speed>
</trkpt>
<trkpt lat="35.50007728" lon="-107.17656749">
<ele>1823.4</ele>
<time>2022-03-28T19:29:23Z</time>
<speed>1.1</speed>
</trkpt>
<trkpt lat="35.50006443" lon="-107.17651982">
<ele>1823.1</ele>
<time>2022-03-28T19:29:28Z</time>
<speed>0.6</speed>
</trkpt>
<trkpt lat="35.50002621" lon="-107.17652756">
<ele>1823.9</ele>
<time>2022-03-28T19:29:49Z</time>
<speed>0.7</speed>
</trkpt>
<trkpt lat="35.49999794" lon="-107.17649241">
<ele>1825.4</ele>
<time>2022-03-28T19:30:05Z</time>
<speed>0.6</speed>
</trkpt>
<trkpt lat="35.49996243" lon="-107.17650208">
<ele>1826.4</ele>
<time>2022-03-28T19:30:21Z</time>
<speed>0.5</speed>
</trkpt>
<trkpt lat="35.49992421" lon="-107.17647951">
<ele>1829.9</ele>
<time>2022-03-28T19:30:31Z</time>
<speed>0.7</speed>
</trkpt>
<trkpt lat="35.49989175" lon="-107.17645776">
<ele>1831</ele>
<time>2022-03-28T19:30:35Z</time>
<speed>1.1</speed>
</trkpt>
<trkpt lat="35.4998631" lon="-107.1764875">
<ele>1830.7</ele>
<time>2022-03-28T19:30:49Z</time>
<speed>0.4</speed>
</trkpt>
<trkpt lat="35.49983545" lon="-107.17651733">
<ele>1829.3</ele>
<time>2022-03-28T19:34:40Z</time>
<speed>0</speed>
</trkpt>
<trkpt lat="35.4997974" lon="-107.17653915">
<ele>1828.2</ele>
<time>2022-03-28T19:36:32Z</time>
<speed>0.9</speed>
</trkpt>
<trkpt lat="35.49982698" lon="-107.17651329">
<ele>1831.2</ele>
<time>2022-03-28T19:37:02Z</time>
<speed>0.2</speed>
</trkpt>
<trkpt lat="35.49983731" lon="-107.17656017">
<ele>1833.6</ele>
<time>2022-03-28T19:40:35Z</time>
<speed>0.7</speed>
</trkpt>
<trkpt lat="35.49984472" lon="-107.17660858">
<ele>1833.6</ele>
<time>2022-03-28T19:40:41Z</time>
<speed>0.6</speed>
</trkpt>
<trkpt lat="35.49984283" lon="-107.17665742">
<ele>1834.3</ele>
<time>2022-03-28T19:40:46Z</time>
<speed>1</speed>
</trkpt>
<trkpt lat="35.49984138" lon="-107.17670421">
<ele>1834.9</ele>
<time>2022-03-28T19:40:52Z</time>
<speed>1</speed>
</trkpt>
<trkpt lat="35.49987847" lon="-107.17671865">
<ele>1837.6</ele>
<time>2022-03-28T19:41:01Z</time>
<speed>0.8</speed>
</trkpt>
<trkpt lat="35.49985557" lon="-107.17668118">
<ele>1837.9</ele>
<time>2022-03-28T19:42:08Z</time>
<speed>0.5</speed>
</trkpt>
<trkpt lat="35.49981965" lon="-107.17665833">
<ele>1838.5</ele>
<time>2022-03-28T19:42:14Z</time>
<speed>0.9</speed>
</trkpt>
<trkpt lat="35.49977918" lon="-107.17665974">
<ele>1840</ele>
<time>2022-03-28T19:42:30Z</time>
<speed>0.5</speed>
</trkpt>
<trkpt lat="35.49974302" lon="-107.17665809">
<ele>1842.6</ele>
<time>2022-03-28T19:43:06Z</time>
<speed>0.9</speed>
</trkpt>
<trkpt lat="35.49970382" lon="-107.17667256">
<ele>1842.2</ele>
<time>2022-03-28T19:43:29Z</time>
<speed>0</speed>
</trkpt>
<trkpt lat="35.4996836" lon="-107.17663002">
<ele>1848</ele>
<time>2022-03-28T19:44:04Z</time>
<speed>0.8</speed>
</trkpt>
<trkpt lat="35.49965028" lon="-107.17660871">
<ele>1849.3</ele>
<time>2022-03-28T19:44:11Z</time>
<speed>0.8</speed>
</trkpt>
<trkpt lat="35.49961245" lon="-107.1766042">
<ele>1850.6</ele>
<time>2022-03-28T19:44:50Z</time>
<speed>0.4</speed>
</trkpt>
<trkpt lat="35.49958198" lon="-107.17657806">
<ele>1850.6</ele>
<time>2022-03-28T19:44:58Z</time>
<speed>1</speed>
</trkpt>
<trkpt lat="35.49955301" lon="-107.17654902">
<ele>1852.2</ele>
<time>2022-03-28T19:45:06Z</time>
<speed>0.8</speed>
</trkpt>
<trkpt lat="35.49952434" lon="-107.17651415">
<ele>1851.2</ele>
<time>2022-03-28T19:45:10Z</time>
<speed>1</speed>
</trkpt>
<trkpt lat="35.49949117" lon="-107.17648291">
<ele>1850.6</ele>
<time>2022-03-28T19:45:15Z</time>
<speed>1</speed>
</trkpt>
<trkpt lat="35.49946083" lon="-107.17644816">
<ele>1850.3</ele>
<time>2022-03-28T19:45:19Z</time>
<speed>1.3</speed>
</trkpt>
<trkpt lat="35.4994347" lon="-107.17641205">
<ele>1849.9</ele>
<time>2022-03-28T19:45:23Z</time>
<speed>1.2</speed>
</trkpt>
<trkpt lat="35.49940772" lon="-107.17637502">
<ele>1849.7</ele>
<time>2022-03-28T19:45:27Z</time>
<speed>1.1</speed>
</trkpt>
<trkpt lat="35.49938328" lon="-107.17634134">
<ele>1849.7</ele>
<time>2022-03-28T19:45:32Z</time>
<speed>0.2</speed>
</trkpt>
<trkpt lat="35.49936025" lon="-107.17630394">
<ele>1849.4</ele>
<time>2022-03-28T19:45:46Z</time>
<speed>1</speed>
</trkpt>
<trkpt lat="35.49933744" lon="-107.17626268">
<ele>1849.3</ele>
<time>2022-03-28T19:45:50Z</time>
<speed>1.3</speed>
</trkpt>
<trkpt lat="35.49931321" lon="-107.17622886">
<ele>1849.5</ele>
<time>2022-03-28T19:45:54Z</time>
<speed>1.1</speed>
</trkpt>
<trkpt lat="35.49927765" lon="-107.17620917">
<ele>1849.1</ele>
<time>2022-03-28T19:45:58Z</time>
<speed>1</speed>
</trkpt>
<trkpt lat="35.49924671" lon="-107.17616527">
<ele>1849.1</ele>
<time>2022-03-28T19:46:02Z</time>
<speed>1.2</speed>
</trkpt>
<trkpt lat="35.49921463" lon="-107.17612787">
<ele>1848.7</ele>
<time>2022-03-28T19:46:06Z</time>
<speed>1.3</speed>
</trkpt>
<trkpt lat="35.49919456" lon="-107.17608153">
<ele>1849.6</ele>
<time>2022-03-28T19:46:10Z</time>
<speed>1</speed>
</trkpt>
<trkpt lat="35.49918006" lon="-107.17602919">
<ele>1850.5</ele>
<time>2022-03-28T19:46:14Z</time>
<speed>1.3</speed>
</trkpt>
<trkpt lat="35.49915496" lon="-107.17598791">
<ele>1851.2</ele>
<time>2022-03-28T19:46:18Z</time>
<speed>1.1</speed>
</trkpt>
<trkpt lat="35.49913988" lon="-107.1759393">
<ele>1851.2</ele>
<time>2022-03-28T19:46:22Z</time>
<speed>1.2</speed>
</trkpt>
<trkpt lat="35.4991222" lon="-107.17589494">
<ele>1851</ele>
<time>2022-03-28T19:46:26Z</time>
<speed>1</speed>
</trkpt>
<trkpt lat="35.49910062" lon="-107.17585181">
<ele>1851.2</ele>
<time>2022-03-28T19:46:31Z</time>
<speed>1.1</speed>
</trkpt>
<trkpt lat="35.49907854" lon="-107.17581154">
<ele>1851.4</ele>
<time>2022-03-28T19:46:36Z</time>
<speed>0.8</speed>
</trkpt>
<trkpt lat="35.49908407" lon="-107.17575875">
<ele>1852.3</ele>
<time>2022-03-28T19:46:41Z</time>
<speed>0.7</speed>
</trkpt>
<trkpt lat="35.49908902" lon="-107.17571011">
<ele>1853.5</ele>
<time>2022-03-28T19:46:47Z</time>
<speed>0.6</speed>
</trkpt>
<trkpt lat="35.49908619" lon="-107.17565546">
<ele>1854.2</ele>
<time>2022-03-28T19:46:55Z</time>
<speed>1</speed>
</trkpt>
<trkpt lat="35.49908886" lon="-107.1756028">
<ele>1854</ele>
<time>2022-03-28T19:46:59Z</time>
<speed>1</speed>
</trkpt>
<trkpt lat="35.49908449" lon="-107.17555297">
<ele>1854.3</ele>
<time>2022-03-28T19:47:03Z</time>
<speed>1.1</speed>
</trkpt>
<trkpt lat="35.49908773" lon="-107.17550219">
<ele>1855.3</ele>
<time>2022-03-28T19:47:07Z</time>
<speed>1</speed>
</trkpt>
<trkpt lat="35.49909289" lon="-107.17544773">
<ele>1855.5</ele>
<time>2022-03-28T19:47:11Z</time>
<speed>1.1</speed>
</trkpt>
<trkpt lat="35.49909803" lon="-107.17540023">
<ele>1855.8</ele>
<time>2022-03-28T19:47:15Z</time>
<speed>1</speed>
</trkpt>
<trkpt lat="35.49910785" lon="-107.17534837">
<ele>1855.8</ele>
<time>2022-03-28T19:47:20Z</time>
<speed>0.9</speed>
</trkpt>
<trkpt lat="35.49910367" lon="-107.17530388">
<ele>1855.9</ele>
<time>2022-03-28T19:47:24Z</time>
<speed>1.2</speed>
</trkpt>
<trkpt lat="35.49910142" lon="-107.17525418">
<ele>1856.3</ele>
<time>2022-03-28T19:47:28Z</time>
<speed>1.2</speed>
</trkpt>
<trkpt lat="35.49910227" lon="-107.17520391">
<ele>1856.8</ele>
<time>2022-03-28T19:47:32Z</time>
<speed>1.1</speed>
</trkpt>
<trkpt lat="35.49909701" lon="-107.17515563">
<ele>1857.6</ele>
<time>2022-03-28T19:47:36Z</time>
<speed>1</speed>
</trkpt>
<trkpt lat="35.49909943" lon="-107.17510895">
<ele>1857.2</ele>
<time>2022-03-28T19:47:40Z</time>
<speed>1.1</speed>
</trkpt>
<trkpt lat="35.49909856" lon="-107.17505768">
<ele>1856.8</ele>
<time>2022-03-28T19:47:45Z</time>
<speed>0.9</speed>
</trkpt>
<trkpt lat="35.49909122" lon="-107.17500755">
<ele>1857.2</ele>
<time>2022-03-28T19:47:50Z</time>
<speed>1.1</speed>
</trkpt>
<trkpt lat="35.49910145" lon="-107.17495668">
<ele>1857.2</ele>
<time>2022-03-28T19:47:54Z</time>
<speed>1.2</speed>
</trkpt>
<trkpt lat="35.49911658" lon="-107.1749102">
<ele>1858.1</ele>
<time>2022-03-28T19:47:58Z</time>
<speed>1.2</speed>
</trkpt>
<trkpt lat="35.49910575" lon="-107.17486663">
<ele>1860.1</ele>
<time>2022-03-28T19:48:14Z</time>
<speed>1.1</speed>
</trkpt>
<trkpt lat="35.49910285" lon="-107.1748179">
<ele>1859.5</ele>
<time>2022-03-28T19:48:18Z</time>
<speed>1.2</speed>
</trkpt>
<trkpt lat="35.49911841" lon="-107.17476519">
<ele>1859.8</ele>
<time>2022-03-28T19:48:22Z</time>
<speed>1.1</speed>
</trkpt>
<trkpt lat="35.49912459" lon="-107.17471174">
<ele>1859.1</ele>
<time>2022-03-28T19:48:26Z</time>
<speed>1.1</speed>
</trkpt>
<trkpt lat="35.49913835" lon="-107.17467023">
<ele>1857.8</ele>
<time>2022-03-28T19:48:30Z</time>
<speed>1</speed>
</trkpt>
<trkpt lat="35.49917374" lon="-107.17464273">
<ele>1857.7</ele>
<time>2022-03-28T19:48:35Z</time>
<speed>0.8</speed>
</trkpt>
<trkpt lat="35.49919713" lon="-107.17460832">
<ele>1856.8</ele>
<time>2022-03-28T19:48:48Z</time>
<speed>1.1</speed>
</trkpt>
<trkpt lat="35.49921373" lon="-107.17456709">
<ele>1857.3</ele>
<time>2022-03-28T19:48:53Z</time>
<speed>0.9</speed>
</trkpt>
<trkpt lat="35.49925346" lon="-107.17454432">
<ele>1856.8</ele>
<time>2022-03-28T19:48:59Z</time>
<speed>1.1</speed>
</trkpt>
<trkpt lat="35.4992772" lon="-107.17450693">
<ele>1855.6</ele>
<time>2022-03-28T19:49:03Z</time>
<speed>0.8</speed>
</trkpt>
<trkpt lat="35.49928931" lon="-107.17446044">
<ele>1856.8</ele>
<time>2022-03-28T19:49:09Z</time>
<speed>0.4</speed>
</trkpt>
<trkpt lat="35.499272" lon="-107.17442065">
<ele>1857.5</ele>
<time>2022-03-28T19:49:14Z</time>
<speed>0.5</speed>
</trkpt>
<trkpt lat="35.49923839" lon="-107.17439737">
<ele>1857.7</ele>
<time>2022-03-28T19:49:24Z</time>
<speed>1</speed>
</trkpt>
<trkpt lat="35.49920754" lon="-107.17436361">
<ele>1857.8</ele>
<time>2022-03-28T19:49:28Z</time>
<speed>1.1</speed>
</trkpt>
<trkpt lat="35.49918222" lon="-107.17432428">
<ele>1858.4</ele>
<time>2022-03-28T19:49:33Z</time>
<speed>0.7</speed>
</trkpt>
<trkpt lat="35.49918862" lon="-107.17427834">
<ele>1857.7</ele>
<time>2022-03-28T19:50:01Z</time>
<speed>0.9</speed>
</trkpt>
<trkpt lat="35.4991965" lon="-107.17422626">
<ele>1858</ele>
<time>2022-03-28T19:50:05Z</time>
<speed>1.5</speed>
</trkpt>
<trkpt lat="35.49920991" lon="-107.17417292">
<ele>1858.1</ele>
<time>2022-03-28T19:50:09Z</time>
<speed>1.2</speed>
</trkpt>
<trkpt lat="35.49924897" lon="-107.17415115">
<ele>1857</ele>
<time>2022-03-28T19:50:15Z</time>
<speed>0.9</speed>
</trkpt>
<trkpt lat="35.49928954" lon="-107.17414194">
<ele>1857.2</ele>
<time>2022-03-28T19:50:19Z</time>
<speed>1.1</speed>
</trkpt>
<trkpt lat="35.49932297" lon="-107.17412213">
<ele>1857.5</ele>
<time>2022-03-28T19:50:23Z</time>
<speed>0.6</speed>
</trkpt>
<trkpt lat="35.49936152" lon="-107.17413926">
<ele>1858.1</ele>
<time>2022-03-28T19:50:39Z</time>
<speed>0.9</speed>
</trkpt>
<trkpt lat="35.49939267" lon="-107.17411177">
<ele>1856.7</ele>
<time>2022-03-28T19:51:28Z</time>
<speed>1.1</speed>
</trkpt>
<trkpt lat="35.49943178" lon="-107.17409147">
<ele>1856.3</ele>
<time>2022-03-28T19:51:33Z</time>
<speed>0.8</speed>
</trkpt>
<trkpt lat="35.49946813" lon="-107.17407268">
<ele>1856.5</ele>
<time>2022-03-28T19:51:44Z</time>
<speed>0.8</speed>
</trkpt>
<trkpt lat="35.49950709" lon="-107.17406019">
<ele>1856.6</ele>
<time>2022-03-28T19:51:49Z</time>
<speed>1</speed>
</trkpt>
<trkpt lat="35.49954666" lon="-107.17407517">
<ele>1855.9</ele>
<time>2022-03-28T19:51:59Z</time>
<speed>1.2</speed>
</trkpt>
<trkpt lat="35.49957097" lon="-107.17404257">
<ele>1857.1</ele>
<time>2022-03-28T19:52:14Z</time>
<speed>0.3</speed>
</trkpt>
<trkpt lat="35.49953991" lon="-107.17401333">
<ele>1857.6</ele>
<time>2022-03-28T19:52:19Z</time>
<speed>1.2</speed>
</trkpt>
<trkpt lat="35.49951239" lon="-107.17397267">
<ele>1856.3</ele>
<time>2022-03-28T19:52:25Z</time>
<speed>0.9</speed>
</trkpt>
<trkpt lat="35.49948199" lon="-107.17393822">
<ele>1855.7</ele>
<time>2022-03-28T19:52:30Z</time>
<speed>1.2</speed>
</trkpt>
<trkpt lat="35.49946299" lon="-107.17389756">
<ele>1855.7</ele>
<time>2022-03-28T19:52:34Z</time>
<speed>0.9</speed>
</trkpt>
<trkpt lat="35.49943719" lon="-107.17386306">
<ele>1855.5</ele>
<time>2022-03-28T19:52:53Z</time>
<speed>1.1</speed>
</trkpt>
<trkpt lat="35.49940387" lon="-107.17382825">
<ele>1854.7</ele>
<time>2022-03-28T19:53:17Z</time>
<speed>1.3</speed>
</trkpt>
<trkpt lat="35.49937632" lon="-107.17379487">
<ele>1853.4</ele>
<time>2022-03-28T19:53:21Z</time>
<speed>1.4</speed>
</trkpt>
<trkpt lat="35.49933819" lon="-107.17377299">
<ele>1854.6</ele>
<time>2022-03-28T19:53:25Z</time>
<speed>0.9</speed>
</trkpt>
<trkpt lat="35.49930046" lon="-107.17376511">
<ele>1855.5</ele>
<time>2022-03-28T19:53:30Z</time>
<speed>0.9</speed>
</trkpt>
<trkpt lat="35.49926201" lon="-107.17375949">
<ele>1855.2</ele>
<time>2022-03-28T19:53:35Z</time>
<speed>0.7</speed>
</trkpt>
<trkpt lat="35.49927096" lon="-107.1737091">
<ele>1856.4</ele>
<time>2022-03-28T19:53:44Z</time>
<speed>0.9</speed>
</trkpt>
<trkpt lat="35.49927585" lon="-107.17366495">
<ele>1854.6</ele>
<time>2022-03-28T19:53:48Z</time>
<speed>1.1</speed>
</trkpt>
<trkpt lat="35.49928066" lon="-107.17361151">
<ele>1854.5</ele>
<time>2022-03-28T19:53:52Z</time>
<speed>1.2</speed>
</trkpt>
<trkpt lat="35.49927768" lon="-107.17355665">
<ele>1854.3</ele>
<time>2022-03-28T19:53:56Z</time>
<speed>1.3</speed>
</trkpt>
<trkpt lat="35.49927043" lon="-107.17350765">
<ele>1854.6</ele>
<time>2022-03-28T19:54:00Z</time>
<speed>1.2</speed>
</trkpt>
<trkpt lat="35.49927013" lon="-107.1734585">
<ele>1854.3</ele>
<time>2022-03-28T19:54:04Z</time>
<speed>1.1</speed>
</trkpt>
<trkpt lat="35.49926484" lon="-107.17340819">
<ele>1854.1</ele>
<time>2022-03-28T19:54:08Z</time>
<speed>1.1</speed>
</trkpt>
<trkpt lat="35.49926153" lon="-107.17336341">
<ele>1854</ele>
<time>2022-03-28T19:54:12Z</time>
<speed>1</speed>
</trkpt>
<trkpt lat="35.49925431" lon="-107.17331425">
<ele>1853.9</ele>
<time>2022-03-28T19:54:17Z</time>
<speed>0.9</speed>
</trkpt>
<trkpt lat="35.49924847" lon="-107.17326203">
<ele>1853.2</ele>
<time>2022-03-28T19:54:22Z</time>
<speed>1</speed>
</trkpt>
<trkpt lat="35.4992441" lon="-107.17321201">
<ele>1852.3</ele>
<time>2022-03-28T19:54:26Z</time>
<speed>1.1</speed>
</trkpt>
<trkpt lat="35.49923991" lon="-107.17316241">
<ele>1853</ele>
<time>2022-03-28T19:54:30Z</time>
<speed>1</speed>
</trkpt>
<trkpt lat="35.49924838" lon="-107.17311311">
<ele>1853.2</ele>
<time>2022-03-28T19:54:34Z</time>
<speed>1.4</speed>
</trkpt>
<trkpt lat="35.49924539" lon="-107.17306753">
<ele>1853.1</ele>
<time>2022-03-28T19:54:38Z</time>
<speed>0.9</speed>
</trkpt>
<trkpt lat="35.49924972" lon="-107.17301386">
<ele>1853.3</ele>
<time>2022-03-28T19:54:43Z</time>
<speed>0.9</speed>
</trkpt>
<trkpt lat="35.49927306" lon="-107.17297004">
<ele>1853.4</ele>
<time>2022-03-28T19:54:48Z</time>
<speed>0.9</speed>
</trkpt>
<trkpt lat="35.49929424" lon="-107.17292334">
<ele>1853.8</ele>
<time>2022-03-28T19:54:53Z</time>
<speed>1</speed>
</trkpt>
<trkpt lat="35.49932179" lon="-107.17287987">
<ele>1853.5</ele>
<time>2022-03-28T19:54:59Z</time>
<speed>1.2</speed>
</trkpt>
<trkpt lat="35.49934235" lon="-107.17282947">
<ele>1853.1</ele>
<time>2022-03-28T19:55:04Z</time>
<speed>1.1</speed>
</trkpt>
<trkpt lat="35.49937099" lon="-107.17279048">
<ele>1852.4</ele>
<time>2022-03-28T19:55:08Z</time>
<speed>1.2</speed>
</trkpt>
<trkpt lat="35.49940283" lon="-107.17275348">
<ele>1852.1</ele>
<time>2022-03-28T19:55:12Z</time>
<speed>0.9</speed>
</trkpt>
<trkpt lat="35.49942787" lon="-107.17272037">
<ele>1852.5</ele>
<time>2022-03-28T19:55:16Z</time>
<speed>1.1</speed>
</trkpt>
<trkpt lat="35.49943561" lon="-107.17267573">
<ele>1853</ele>
<time>2022-03-28T19:55:20Z</time>
<speed>0.8</speed>
</trkpt>
<trkpt lat="35.49945534" lon="-107.17263128">
<ele>1853.9</ele>
<time>2022-03-28T19:55:25Z</time>
<speed>1.1</speed>
</trkpt>
<trkpt lat="35.49946722" lon="-107.1725852">
<ele>1854.4</ele>
<time>2022-03-28T19:55:30Z</time>
<speed>0.9</speed>
</trkpt>
<trkpt lat="35.49946928" lon="-107.17253469">
<ele>1854.4</ele>
<time>2022-03-28T19:55:34Z</time>
<speed>1</speed>
</trkpt>
<trkpt lat="35.49946572" lon="-107.17248944">
<ele>1854</ele>
<time>2022-03-28T19:55:38Z</time>
<speed>0.9</speed>
</trkpt>
<trkpt lat="35.4994955" lon="-107.17245552">
<ele>1854.6</ele>
<time>2022-03-28T19:55:44Z</time>
<speed>0.8</speed>
</trkpt>
<trkpt lat="35.49952235" lon="-107.17242079">
<ele>1854.3</ele>
<time>2022-03-28T19:55:50Z</time>
<speed>0.5</speed>
</trkpt>
<trkpt lat="35.49952546" lon="-107.17237209">
<ele>1855</ele>
<time>2022-03-28T19:56:00Z</time>
<speed>1.1</speed>
</trkpt>
<trkpt lat="35.49952945" lon="-107.17232716">
<ele>1854.5</ele>
<time>2022-03-28T19:56:04Z</time>
<speed>0.8</speed>
</trkpt>
<trkpt lat="35.49953733" lon="-107.17227297">
<ele>1853.4</ele>
<time>2022-03-28T19:56:09Z</time>
<speed>1</speed>
</trkpt>
<trkpt lat="35.49953885" lon="-107.17222862">
<ele>1852.3</ele>
<time>2022-03-28T19:56:14Z</time>
<speed>0.7</speed>
</trkpt>
<trkpt lat="35.49954702" lon="-107.17218293">
<ele>1851</ele>
<time>2022-03-28T19:56:21Z</time>
<speed>0.9</speed>
</trkpt>
<trkpt lat="35.49955764" lon="-107.17213169">
<ele>1849.6</ele>
<time>2022-03-28T19:56:27Z</time>
<speed>1</speed>
</trkpt>
<trkpt lat="35.49956702" lon="-107.17208773">
<ele>1848.7</ele>
<time>2022-03-28T19:56:33Z</time>
<speed>0.7</speed>
</trkpt>
<trkpt lat="35.49958904" lon="-107.17205057">
<ele>1847.3</ele>
<time>2022-03-28T19:56:39Z</time>
<speed>0.9</speed>
</trkpt>
<trkpt lat="35.49960861" lon="-107.17200734">
<ele>1847.5</ele>
<time>2022-03-28T19:56:54Z</time>
<speed>0.7</speed>
</trkpt>
<trkpt lat="35.49964166" lon="-107.17198686">
<ele>1847.7</ele>
<time>2022-03-28T19:57:03Z</time>
<speed>0.3</speed>
</trkpt>
<trkpt lat="35.49963235" lon="-107.17194414">
<ele>1847.2</ele>
<time>2022-03-28T19:57:17Z</time>
<speed>0.3</speed>
</trkpt>
<trkpt lat="35.49963463" lon="-107.17189592">
<ele>1845.7</ele>
<time>2022-03-28T19:57:27Z</time>
<speed>0.5</speed>
</trkpt>
<trkpt lat="35.49966103" lon="-107.1718626">
<ele>1843.8</ele>
<time>2022-03-28T19:57:34Z</time>
<speed>0.6</speed>
</trkpt>
<trkpt lat="35.49970408" lon="-107.17184999">
<ele>1842.8</ele>
<time>2022-03-28T19:57:40Z</time>
<speed>0.8</speed>
</trkpt>
<trkpt lat="35.49974148" lon="-107.17183396">
<ele>1841.5</ele>
<time>2022-03-28T19:57:44Z</time>
<speed>1</speed>
</trkpt>
<trkpt lat="35.49977759" lon="-107.17183105">
<ele>1840.3</ele>
<time>2022-03-28T19:57:50Z</time>
<speed>0.8</speed>
</trkpt>
<trkpt lat="35.49980985" lon="-107.17180214">
<ele>1839.8</ele>
<time>2022-03-28T19:57:56Z</time>
<speed>0.8</speed>
</trkpt>
<trkpt lat="35.49985231" lon="-107.1718067">
<ele>1838.7</ele>
<time>2022-03-28T19:58:02Z</time>
<speed>1.2</speed>
</trkpt>
<trkpt lat="35.49989187" lon="-107.17179257">
<ele>1838.1</ele>
<time>2022-03-28T19:58:06Z</time>
<speed>1</speed>
</trkpt>
<trkpt lat="35.49992251" lon="-107.17176729">
<ele>1836.7</ele>
<time>2022-03-28T19:58:11Z</time>
<speed>0.8</speed>
</trkpt>
<trkpt lat="35.49995308" lon="-107.17173437">
<ele>1834.6</ele>
<time>2022-03-28T19:58:16Z</time>
<speed>0.8</speed>
</trkpt>
<trkpt lat="35.49996119" lon="-107.17168472">
<ele>1833.3</ele>
<time>2022-03-28T19:58:21Z</time>
<speed>1.1</speed>
</trkpt>
<trkpt lat="35.49997495" lon="-107.17162991">
<ele>1833.5</ele>
<time>2022-03-28T19:58:26Z</time>
<speed>1.5</speed>
</trkpt>
<trkpt lat="35.5000018" lon="-107.17158976">
<ele>1832.9</ele>
<time>2022-03-28T19:58:30Z</time>
<speed>1.1</speed>
</trkpt>
<trkpt lat="35.5000297" lon="-107.17156156">
<ele>1831.2</ele>
<time>2022-03-28T19:58:36Z</time>
<speed>1</speed>
</trkpt>
<trkpt lat="35.50006748" lon="-107.17153519">
<ele>1830.1</ele>
<time>2022-03-28T19:58:40Z</time>
<speed>1.1</speed>
</trkpt>
<trkpt lat="35.50010869" lon="-107.17151522">
<ele>1829.4</ele>
<time>2022-03-28T19:58:45Z</time>
<speed>1.1</speed>
</trkpt>
<trkpt lat="35.50014919" lon="-107.1714926">
<ele>1829</ele>
<time>2022-03-28T19:58:49Z</time>
<speed>1.3</speed>
</trkpt>
<trkpt lat="35.50018668" lon="-107.17147238">
<ele>1829.9</ele>
<time>2022-03-28T19:58:53Z</time>
<speed>1</speed>
</trkpt>
<trkpt lat="35.50022608" lon="-107.17145405">
<ele>1829.1</ele>
<time>2022-03-28T19:58:57Z</time>
<speed>1.2</speed>
</trkpt>
<trkpt lat="35.50026589" lon="-107.17143567">
<ele>1829</ele>
<time>2022-03-28T19:59:01Z</time>
<speed>1.1</speed>
</trkpt>
<trkpt lat="35.50030687" lon="-107.17142283">
<ele>1829.3</ele>
<time>2022-03-28T19:59:05Z</time>
<speed>1.1</speed>
</trkpt>
<trkpt lat="35.50034101" lon="-107.17138835">
<ele>1828.9</ele>
<time>2022-03-28T19:59:10Z</time>
<speed>1</speed>
</trkpt>
<trkpt lat="35.50037363" lon="-107.17135904">
<ele>1829</ele>
<time>2022-03-28T19:59:15Z</time>
<speed>1</speed>
</trkpt>
<trkpt lat="35.50041448" lon="-107.17135688">
<ele>1829.8</ele>
<time>2022-03-28T19:59:20Z</time>
<speed>0.8</speed>
</trkpt>
<trkpt lat="35.50046098" lon="-107.17135671">
<ele>1830.6</ele>
<time>2022-03-28T19:59:25Z</time>
<speed>1.1</speed>
</trkpt>
<trkpt lat="35.50049882" lon="-107.17136098">
<ele>1830.6</ele>
<time>2022-03-28T19:59:32Z</time>
<speed>0.9</speed>
</trkpt>
<trkpt lat="35.50053949" lon="-107.17136629">
<ele>1830.6</ele>
<time>2022-03-28T19:59:36Z</time>
<speed>1</speed>
</trkpt>
<trkpt lat="35.50058156" lon="-107.17136805">
<ele>1831.7</ele>
<time>2022-03-28T19:59:40Z</time>
<speed>1.1</speed>
</trkpt>
<trkpt lat="35.5006243" lon="-107.17135815">
<ele>1832</ele>
<time>2022-03-28T19:59:44Z</time>
<speed>1.2</speed>
</trkpt>
<trkpt lat="35.50065794" lon="-107.17133038">
<ele>1831.1</ele>
<time>2022-03-28T19:59:48Z</time>
<speed>1.1</speed>
</trkpt>
<trkpt lat="35.50069847" lon="-107.17130325">
<ele>1832.5</ele>
<time>2022-03-28T19:59:52Z</time>
<speed>1.3</speed>
</trkpt>
<trkpt lat="35.50072727" lon="-107.17126501">
<ele>1832.7</ele>
<time>2022-03-28T19:59:56Z</time>
<speed>1.1</speed>
</trkpt>
<trkpt lat="35.50074369" lon="-107.17121677">
<ele>1831.4</ele>
<time>2022-03-28T20:00:00Z</time>
<speed>1.3</speed>
</trkpt>
<trkpt lat="35.50076173" lon="-107.17116993">
<ele>1830.8</ele>
<time>2022-03-28T20:00:04Z</time>
<speed>1.1</speed>
</trkpt>
<trkpt lat="35.50076458" lon="-107.17112196">
<ele>1830.7</ele>
<time>2022-03-28T20:00:08Z</time>
<speed>1.1</speed>
</trkpt>
<trkpt lat="35.50076954" lon="-107.17107346">
<ele>1830.9</ele>
<time>2022-03-28T20:00:12Z</time>
<speed>1.1</speed>
</trkpt>
<trkpt lat="35.50077756" lon="-107.17102928">
<ele>1831.5</ele>
<time>2022-03-28T20:00:16Z</time>
<speed>1.2</speed>
</trkpt>
<trkpt lat="35.50079181" lon="-107.17098295">
<ele>1831.5</ele>
<time>2022-03-28T20:00:20Z</time>
<speed>1.1</speed>
</trkpt>
<trkpt lat="35.50082441" lon="-107.17095837">
<ele>1831.3</ele>
<time>2022-03-28T20:00:25Z</time>
<speed>0.4</speed>
</trkpt>
<trkpt lat="35.50086213" lon="-107.17093254">
<ele>1830.2</ele>
<time>2022-03-28T20:00:32Z</time>
<speed>0.8</speed>
</trkpt>
<trkpt lat="35.5008871" lon="-107.17089899">
<ele>1829.4</ele>
<time>2022-03-28T20:00:44Z</time>
<speed>0.2</speed>
</trkpt>
<trkpt lat="35.50090956" lon="-107.17086307">
<ele>1828.8</ele>
<time>2022-03-28T20:00:54Z</time>
<speed>0.5</speed>
</trkpt>
<trkpt lat="35.50094102" lon="-107.1708373">
<ele>1827.8</ele>
<time>2022-03-28T20:01:10Z</time>
<speed>0.8</speed>
</trkpt>
<trkpt lat="35.50097602" lon="-107.17082014">
<ele>1826.5</ele>
<time>2022-03-28T20:01:23Z</time>
<speed>0.4</speed>
</trkpt>
<trkpt lat="35.5010151" lon="-107.17080827">
<ele>1824.5</ele>
<time>2022-03-28T20:01:29Z</time>
<speed>0.8</speed>
</trkpt>
<trkpt lat="35.5010514" lon="-107.17082779">
<ele>1823.5</ele>
<time>2022-03-28T20:01:34Z</time>
<speed>0.8</speed>
</trkpt>
<trkpt lat="35.50108094" lon="-107.17086438">
<ele>1824</ele>
<time>2022-03-28T20:01:40Z</time>
<speed>0.6</speed>
</trkpt>
<trkpt lat="35.50109729" lon="-107.1709077">
<ele>1823.8</ele>
<time>2022-03-28T20:01:46Z</time>
<speed>0.8</speed>
</trkpt>
<trkpt lat="35.50111795" lon="-107.17094415">
<ele>1822.9</ele>
<time>2022-03-28T20:01:50Z</time>
<speed>1</speed>
</trkpt>
<trkpt lat="35.50115794" lon="-107.17092478">
<ele>1821.3</ele>
<time>2022-03-28T20:01:55Z</time>
<speed>0.9</speed>
</trkpt>
<trkpt lat="35.50120191" lon="-107.17092034">
<ele>1819.3</ele>
<time>2022-03-28T20:02:12Z</time>
<speed>0.8</speed>
</trkpt>
<trkpt lat="35.50124075" lon="-107.17092672">
<ele>1817.9</ele>
<time>2022-03-28T20:02:17Z</time>
<speed>0.4</speed>
</trkpt>
<trkpt lat="35.50127983" lon="-107.17094576">
<ele>1817.2</ele>
<time>2022-03-28T20:02:30Z</time>
<speed>0.9</speed>
</trkpt>
<trkpt lat="35.50131588" lon="-107.17094265">
<ele>1816</ele>
<time>2022-03-28T20:02:37Z</time>
<speed>0.2</speed>
</trkpt>
<trkpt lat="35.50135982" lon="-107.17094146">
<ele>1814.1</ele>
<time>2022-03-28T20:02:44Z</time>
<speed>0.8</speed>
</trkpt>
<trkpt lat="35.50139966" lon="-107.17095151">
<ele>1814</ele>
<time>2022-03-28T20:02:48Z</time>
<speed>1.1</speed>
</trkpt>
<trkpt lat="35.50144346" lon="-107.17094786">
<ele>1813.5</ele>
<time>2022-03-28T20:02:52Z</time>
<speed>0.9</speed>
</trkpt>
<trkpt lat="35.50148347" lon="-107.17093251">
<ele>1813.5</ele>
<time>2022-03-28T20:02:57Z</time>
<speed>0.9</speed>
</trkpt>
<trkpt lat="35.50152085" lon="-107.1709371">
<ele>1813.6</ele>
<time>2022-03-28T20:03:01Z</time>
<speed>1.1</speed>
</trkpt>
<trkpt lat="35.50155957" lon="-107.17092446">
<ele>1812.4</ele>
<time>2022-03-28T20:03:12Z</time>
<speed>0.8</speed>
</trkpt>
<trkpt lat="35.50159299" lon="-107.1709057">
<ele>1811.3</ele>
<time>2022-03-28T20:03:17Z</time>
<speed>0.6</speed>
</trkpt>
<trkpt lat="35.50162854" lon="-107.17091407">
<ele>1812.2</ele>
<time>2022-03-28T20:03:21Z</time>
<speed>0.8</speed>
</trkpt>
<trkpt lat="35.50167122" lon="-107.17090938">
<ele>1812.1</ele>
<time>2022-03-28T20:03:26Z</time>
<speed>0.9</speed>
</trkpt>
<trkpt lat="35.5017108" lon="-107.1709275">
<ele>1813.4</ele>
<time>2022-03-28T20:03:31Z</time>
<speed>0.7</speed>
</trkpt>
<trkpt lat="35.50174652" lon="-107.17094071">
<ele>1813.5</ele>
<time>2022-03-28T20:03:36Z</time>
<speed>0.6</speed>
</trkpt>
<trkpt lat="35.50178684" lon="-107.17092501">
<ele>1813.9</ele>
<time>2022-03-28T20:03:42Z</time>
<speed>0.9</speed>
</trkpt>
<trkpt lat="35.5018231" lon="-107.1709143">
<ele>1813.2</ele>
<time>2022-03-28T20:03:46Z</time>
<speed>0.9</speed>
</trkpt>
<trkpt lat="35.50186584" lon="-107.17091488">
<ele>1813.6</ele>
<time>2022-03-28T20:03:51Z</time>
<speed>0.9</speed>
</trkpt>
<trkpt lat="35.50190598" lon="-107.17092543">
<ele>1813</ele>
<time>2022-03-28T20:03:56Z</time>
<speed>1.1</speed>
</trkpt>
<trkpt lat="35.50194279" lon="-107.17092359">
<ele>1813</ele>
<time>2022-03-28T20:04:00Z</time>
<speed>0.9</speed>
</trkpt>
<trkpt lat="35.50197612" lon="-107.17090291">
<ele>1813.8</ele>
<time>2022-03-28T20:04:12Z</time>
<speed>0.7</speed>
</trkpt>
<trkpt lat="35.50201673" lon="-107.1709">
<ele>1813.6</ele>
<time>2022-03-28T20:04:17Z</time>
<speed>1</speed>
</trkpt>
<trkpt lat="35.50205767" lon="-107.1709144">
<ele>1814.5</ele>
<time>2022-03-28T20:04:22Z</time>
<speed>1</speed>
</trkpt>
<trkpt lat="35.50210139" lon="-107.17092499">
<ele>1814.9</ele>
<time>2022-03-28T20:04:26Z</time>
<speed>1.2</speed>
</trkpt>
<trkpt lat="35.50214399" lon="-107.17093578">
<ele>1814</ele>
<time>2022-03-28T20:04:31Z</time>
<speed>0.9</speed>
</trkpt>
<trkpt lat="35.50218006" lon="-107.17093427">
<ele>1814.1</ele>
<time>2022-03-28T20:04:37Z</time>
<speed>0.2</speed>
</trkpt>
<trkpt lat="35.50215901" lon="-107.17088677">
<ele>1816.2</ele>
<time>2022-03-28T20:05:47Z</time>
<speed>1.9</speed>
</trkpt>
<trkpt lat="35.50217901" lon="-107.17092564">
<ele>1816.7</ele>
<time>2022-03-28T20:06:45Z</time>
<speed>0.8</speed>
</trkpt>
<trkpt lat="35.50220875" lon="-107.17096064">
<ele>1816</ele>
<time>2022-03-28T20:07:12Z</time>
<speed>0.9</speed>
</trkpt>
<trkpt lat="35.50224005" lon="-107.17100009">
<ele>1816.4</ele>
<time>2022-03-28T20:07:16Z</time>
<speed>1.2</speed>
</trkpt>
<trkpt lat="35.50227196" lon="-107.17103748">
<ele>1816.6</ele>
<time>2022-03-28T20:07:20Z</time>
<speed>1.3</speed>
</trkpt>
<trkpt lat="35.50230307" lon="-107.17106364">
<ele>1816.8</ele>
<time>2022-03-28T20:07:24Z</time>
<speed>1.1</speed>
</trkpt>
<trkpt lat="35.50233805" lon="-107.17108844">
<ele>1816</ele>
<time>2022-03-28T20:07:28Z</time>
<speed>1.3</speed>
</trkpt>
<trkpt lat="35.50237486" lon="-107.17111693">
<ele>1815.7</ele>
<time>2022-03-28T20:07:32Z</time>
<speed>1.2</speed>
</trkpt>
<trkpt lat="35.50239658" lon="-107.17115242">
<ele>1815.6</ele>
<time>2022-03-28T20:07:36Z</time>
<speed>1.1</speed>
</trkpt>
<trkpt lat="35.50242461" lon="-107.1711869">
<ele>1816.5</ele>
<time>2022-03-28T20:07:49Z</time>
<speed>1.3</speed>
</trkpt>
<trkpt lat="35.50245991" lon="-107.17122041">
<ele>1816</ele>
<time>2022-03-28T20:07:53Z</time>
<speed>1.1</speed>
</trkpt>
<trkpt lat="35.50249547" lon="-107.17125347">
<ele>1816.3</ele>
<time>2022-03-28T20:07:57Z</time>
<speed>1.2</speed>
</trkpt>
<trkpt lat="35.50252694" lon="-107.17128871">
<ele>1813.2</ele>
<time>2022-03-28T20:08:01Z</time>
<speed>1.3</speed>
</trkpt>
<trkpt lat="35.50255046" lon="-107.17132444">
<ele>1811.3</ele>
<time>2022-03-28T20:08:04Z</time>
<speed>1.4</speed>
</trkpt>
<trkpt lat="35.50258611" lon="-107.17136125">
<ele>1811.3</ele>
<time>2022-03-28T20:08:08Z</time>
<speed>1.3</speed>
</trkpt>
<trkpt lat="35.50261902" lon="-107.17139404">
<ele>1811.5</ele>
<time>2022-03-28T20:08:12Z</time>
<speed>1.3</speed>
</trkpt>
<trkpt lat="35.50263996" lon="-107.17143284">
<ele>1811.4</ele>
<time>2022-03-28T20:08:15Z</time>
<speed>1.7</speed>
</trkpt>
<trkpt lat="35.50266313" lon="-107.17148485">
<ele>1810.8</ele>
<time>2022-03-28T20:08:19Z</time>
<speed>1.5</speed>
</trkpt>
<trkpt lat="35.50269297" lon="-107.17152319">
<ele>1810.9</ele>
<time>2022-03-28T20:08:23Z</time>
<speed>0.9</speed>
</trkpt>
<trkpt lat="35.50272861" lon="-107.17154439">
<ele>1812.1</ele>
<time>2022-03-28T20:08:27Z</time>
<speed>1.3</speed>
</trkpt>
<trkpt lat="35.50276499" lon="-107.17157808">
<ele>1810.9</ele>
<time>2022-03-28T20:08:31Z</time>
<speed>1.2</speed>
</trkpt>
<trkpt lat="35.50279958" lon="-107.17160497">
<ele>1808.3</ele>
<time>2022-03-28T20:08:35Z</time>
<speed>0.8</speed>
</trkpt>
<trkpt lat="35.50284061" lon="-107.17161049">
<ele>1808.6</ele>
<time>2022-03-28T20:08:41Z</time>
<speed>0.7</speed>
</trkpt>
<trkpt lat="35.50287836" lon="-107.17162373">
<ele>1810.3</ele>
<time>2022-03-28T20:08:47Z</time>
<speed>0.8</speed>
</trkpt>
<trkpt lat="35.50291922" lon="-107.17163468">
<ele>1810.1</ele>
<time>2022-03-28T20:08:52Z</time>
<speed>0.8</speed>
</trkpt>
<trkpt lat="35.50295544" lon="-107.17165195">
<ele>1808.9</ele>
<time>2022-03-28T20:08:56Z</time>
<speed>1.2</speed>
</trkpt>
<trkpt lat="35.50298637" lon="-107.17168046">
<ele>1809</ele>
<time>2022-03-28T20:09:00Z</time>
<speed>0.9</speed>
</trkpt>
<trkpt lat="35.50301835" lon="-107.17170792">
<ele>1807.7</ele>
<time>2022-03-28T20:09:04Z</time>
<speed>0.4</speed>
</trkpt>
<trkpt lat="35.50305512" lon="-107.1717143">
<ele>1805.5</ele>
<time>2022-03-28T20:09:10Z</time>
<speed>0.7</speed>
</trkpt>
<trkpt lat="35.50309625" lon="-107.17171905">
<ele>1806.8</ele>
<time>2022-03-28T20:09:14Z</time>
<speed>1.5</speed>
</trkpt>
<trkpt lat="35.50313534" lon="-107.1717124">
<ele>1807.4</ele>
<time>2022-03-28T20:09:21Z</time>
<speed>0.4</speed>
</trkpt>
<trkpt lat="35.50317094" lon="-107.17170294">
<ele>1808.6</ele>
<time>2022-03-28T20:09:25Z</time>
<speed>0.8</speed>
</trkpt>
<trkpt lat="35.50320668" lon="-107.17168907">
<ele>1809.4</ele>
<time>2022-03-28T20:09:40Z</time>
<speed>0.6</speed>
</trkpt>
<trkpt lat="35.50324462" lon="-107.17169732">
<ele>1808.3</ele>
<time>2022-03-28T20:09:46Z</time>
<speed>0.8</speed>
</trkpt>
<trkpt lat="35.50328132" lon="-107.17169451">
<ele>1806.8</ele>
<time>2022-03-28T20:10:29Z</time>
<speed>0.6</speed>
</trkpt>
<trkpt lat="35.50332146" lon="-107.1716763">
<ele>1805.7</ele>
<time>2022-03-28T20:10:34Z</time>
<speed>1</speed>
</trkpt>
<trkpt lat="35.5033677" lon="-107.17167295">
<ele>1804.7</ele>
<time>2022-03-28T20:10:39Z</time>
<speed>1</speed>
</trkpt>
<trkpt lat="35.50340727" lon="-107.17166879">
<ele>1802.5</ele>
<time>2022-03-28T20:10:43Z</time>
<speed>0.9</speed>
</trkpt>
<trkpt lat="35.50344293" lon="-107.17165932">
<ele>1801.3</ele>
<time>2022-03-28T20:10:47Z</time>
<speed>0.9</speed>
</trkpt>
<trkpt lat="35.50347076" lon="-107.17162726">
<ele>1802.4</ele>
<time>2022-03-28T20:10:51Z</time>
<speed>1</speed>
</trkpt>
<trkpt lat="35.50349728" lon="-107.17159267">
<ele>1804.2</ele>
<time>2022-03-28T20:10:55Z</time>
<speed>0.5</speed>
</trkpt>
<trkpt lat="35.50352604" lon="-107.17156112">
<ele>1803.7</ele>
<time>2022-03-28T20:11:00Z</time>
<speed>0.6</speed>
</trkpt>
<trkpt lat="35.50354496" lon="-107.17151894">
<ele>1805.8</ele>
<time>2022-03-28T20:11:04Z</time>
<speed>0.9</speed>
</trkpt>
<trkpt lat="35.50357713" lon="-107.1714911">
<ele>1805</ele>
<time>2022-03-28T20:11:09Z</time>
<speed>0.5</speed>
</trkpt>
<trkpt lat="35.50357193" lon="-107.17144635">
<ele>1806</ele>
<time>2022-03-28T20:11:15Z</time>
<speed>1</speed>
</trkpt>
<trkpt lat="35.50359436" lon="-107.17139936">
<ele>1806.7</ele>
<time>2022-03-28T20:11:19Z</time>
<speed>1.1</speed>
</trkpt>
<trkpt lat="35.50362747" lon="-107.17138007">
<ele>1806.2</ele>
<time>2022-03-28T20:11:22Z</time>
<speed>0.8</speed>
</trkpt>
<trkpt lat="35.50361354" lon="-107.17133281">
<ele>1807.4</ele>
<time>2022-03-28T20:11:25Z</time>
<speed>1.3</speed>
</trkpt>
<trkpt lat="35.50360467" lon="-107.17127968">
<ele>1808.2</ele>
<time>2022-03-28T20:11:30Z</time>
<speed>0.9</speed>
</trkpt>
<trkpt lat="35.50360617" lon="-107.17122957">
<ele>1807.8</ele>
<time>2022-03-28T20:11:34Z</time>
<speed>0.7</speed>
</trkpt>
<trkpt lat="35.50361286" lon="-107.1711855">
<ele>1812.1</ele>
<time>2022-03-28T20:11:53Z</time>
<speed>1</speed>
</trkpt>
<trkpt lat="35.50363078" lon="-107.17113638">
<ele>1811.7</ele>
<time>2022-03-28T20:11:58Z</time>
<speed>0.9</speed>
</trkpt>
<trkpt lat="35.50366449" lon="-107.17110096">
<ele>1810.2</ele>
<time>2022-03-28T20:12:03Z</time>
<speed>1.2</speed>
</trkpt>
<trkpt lat="35.50368444" lon="-107.1710525">
<ele>1810.6</ele>
<time>2022-03-28T20:12:07Z</time>
<speed>1.1</speed>
</trkpt>
<trkpt lat="35.50371228" lon="-107.17101264">
<ele>1811.6</ele>
<time>2022-03-28T20:12:11Z</time>
<speed>1.1</speed>
</trkpt>
<trkpt lat="35.50374409" lon="-107.17098329">
<ele>1811.9</ele>
<time>2022-03-28T20:12:15Z</time>
<speed>1.1</speed>
</trkpt>
<trkpt lat="35.50378163" lon="-107.17095291">
<ele>1811.2</ele>
<time>2022-03-28T20:12:20Z</time>
<speed>1.1</speed>
</trkpt>
<trkpt lat="35.50381725" lon="-107.1709265">
<ele>1809.8</ele>
<time>2022-03-28T20:12:24Z</time>
<speed>1.1</speed>
</trkpt>
<trkpt lat="35.50385135" lon="-107.1709008">
<ele>1811.6</ele>
<time>2022-03-28T20:12:29Z</time>
<speed>0.9</speed>
</trkpt>
<trkpt lat="35.50388946" lon="-107.17088129">
<ele>1811.2</ele>
<time>2022-03-28T20:12:33Z</time>
<speed>1.2</speed>
</trkpt>
<trkpt lat="35.50392103" lon="-107.17084869">
<ele>1810.5</ele>
<time>2022-03-28T20:12:37Z</time>
<speed>1.1</speed>
</trkpt>
<trkpt lat="35.50394433" lon="-107.17080202">
<ele>1810.2</ele>
<time>2022-03-28T20:12:42Z</time>
<speed>1.4</speed>
</trkpt>
<trkpt lat="35.50395791" lon="-107.17076113">
<ele>1808.3</ele>
<time>2022-03-28T20:12:46Z</time>
<speed>1</speed>
</trkpt>
<trkpt lat="35.50397081" lon="-107.17071532">
<ele>1808.7</ele>
<time>2022-03-28T20:12:50Z</time>
<speed>1.1</speed>
</trkpt>
<trkpt lat="35.50400291" lon="-107.17069224">
<ele>1809.5</ele>
<time>2022-03-28T20:12:56Z</time>
<speed>0.6</speed>
</trkpt>
<trkpt lat="35.50401572" lon="-107.17064744">
<ele>1810.5</ele>
<time>2022-03-28T20:13:09Z</time>
<speed>1</speed>
</trkpt>
<trkpt lat="35.50404656" lon="-107.17062064">
<ele>1810.9</ele>
<time>2022-03-28T20:13:12Z</time>
<speed>1</speed>
</trkpt>
<trkpt lat="35.50407352" lon="-107.17059079">
<ele>1811.3</ele>
<time>2022-03-28T20:13:15Z</time>
<speed>1.1</speed>
</trkpt>
<trkpt lat="35.50409669" lon="-107.17055002">
<ele>1811.6</ele>
<time>2022-03-28T20:13:19Z</time>
<speed>1</speed>
</trkpt>
<trkpt lat="35.50411803" lon="-107.1705112">
<ele>1810.1</ele>
<time>2022-03-28T20:13:23Z</time>
<speed>1</speed>
</trkpt>
<trkpt lat="35.5041424" lon="-107.17047067">
<ele>1809.4</ele>
<time>2022-03-28T20:13:39Z</time>
<speed>1</speed>
</trkpt>
<trkpt lat="35.50415647" lon="-107.17042928">
<ele>1807.6</ele>
<time>2022-03-28T20:13:42Z</time>
<speed>1.1</speed>
</trkpt>
<trkpt lat="35.50416394" lon="-107.17037803">
<ele>1807.9</ele>
<time>2022-03-28T20:13:46Z</time>
<speed>1.2</speed>
</trkpt>
<trkpt lat="35.50418347" lon="-107.17033138">
<ele>1808</ele>
<time>2022-03-28T20:13:50Z</time>
<speed>1.1</speed>
</trkpt>
<trkpt lat="35.50419682" lon="-107.17028034">
<ele>1808</ele>
<time>2022-03-28T20:13:54Z</time>
<speed>1.2</speed>
</trkpt>
<trkpt lat="35.50420909" lon="-107.17022688">
<ele>1808.3</ele>
<time>2022-03-28T20:13:58Z</time>
<speed>1</speed>
</trkpt>
<trkpt lat="35.50420974" lon="-107.17017195">
<ele>1807.7</ele>
<time>2022-03-28T20:14:02Z</time>
<speed>1.2</speed>
</trkpt>
<trkpt lat="35.50421598" lon="-107.17012107">
<ele>1807.7</ele>
<time>2022-03-28T20:14:06Z</time>
<speed>1</speed>
</trkpt>
<trkpt lat="35.50423143" lon="-107.17007221">
<ele>1806.4</ele>
<time>2022-03-28T20:14:10Z</time>
<speed>1.2</speed>
</trkpt>
<trkpt lat="35.50425106" lon="-107.17002558">
<ele>1807.3</ele>
<time>2022-03-28T20:14:14Z</time>
<speed>1.1</speed>
</trkpt>
<trkpt lat="35.50426626" lon="-107.16997616">
<ele>1807.5</ele>
<time>2022-03-28T20:14:18Z</time>
<speed>1.1</speed>
</trkpt>
<trkpt lat="35.50428731" lon="-107.16993254">
<ele>1807.8</ele>
<time>2022-03-28T20:14:22Z</time>
<speed>1.2</speed>
</trkpt>
<trkpt lat="35.50431235" lon="-107.16988246">
<ele>1806.5</ele>
<time>2022-03-28T20:14:26Z</time>
<speed>1.4</speed>
</trkpt>
<trkpt lat="35.50433286" lon="-107.16983401">
<ele>1806.8</ele>
<time>2022-03-28T20:14:30Z</time>
<speed>1.1</speed>
</trkpt>
<trkpt lat="35.50435303" lon="-107.16978957">
<ele>1807.2</ele>
<time>2022-03-28T20:14:34Z</time>
<speed>1.1</speed>
</trkpt>
<trkpt lat="35.50438103" lon="-107.16974296">
<ele>1806.3</ele>
<time>2022-03-28T20:14:38Z</time>
<speed>1.2</speed>
</trkpt>
<trkpt lat="35.50439603" lon="-107.16969038">
<ele>1806.5</ele>
<time>2022-03-28T20:14:42Z</time>
<speed>1.2</speed>
</trkpt>
<trkpt lat="35.50440672" lon="-107.16963691">
<ele>1806</ele>
<time>2022-03-28T20:14:46Z</time>
<speed>0.9</speed>
</trkpt>
<trkpt lat="35.50441878" lon="-107.16959287">
<ele>1805.6</ele>
<time>2022-03-28T20:14:50Z</time>
<speed>0.9</speed>
</trkpt>
<trkpt lat="35.50441535" lon="-107.16954662">
<ele>1804.6</ele>
<time>2022-03-28T20:14:54Z</time>
<speed>0.9</speed>
</trkpt>
<trkpt lat="35.50442739" lon="-107.16949176">
<ele>1802.4</ele>
<time>2022-03-28T20:14:58Z</time>
<speed>1.2</speed>
</trkpt>
<trkpt lat="35.50444422" lon="-107.16944248">
<ele>1803</ele>
<time>2022-03-28T20:15:02Z</time>
<speed>1</speed>
</trkpt>
<trkpt lat="35.5044538" lon="-107.16938778">
<ele>1802.5</ele>
<time>2022-03-28T20:15:06Z</time>
<speed>1.3</speed>
</trkpt>
<trkpt lat="35.50445598" lon="-107.16932775">
<ele>1801.7</ele>
<time>2022-03-28T20:15:10Z</time>
<speed>1.3</speed>
</trkpt>
<trkpt lat="35.50445146" lon="-107.16927924">
<ele>1802.6</ele>
<time>2022-03-28T20:15:14Z</time>
<speed>1</speed>
</trkpt>
<trkpt lat="35.50445201" lon="-107.16923116">
<ele>1803.2</ele>
<time>2022-03-28T20:15:18Z</time>
<speed>1</speed>
</trkpt>
<trkpt lat="35.5044361" lon="-107.1691876">
<ele>1803.7</ele>
<time>2022-03-28T20:15:22Z</time>
<speed>1.1</speed>
</trkpt>
<trkpt lat="35.5044352" lon="-107.16913461">
<ele>1803.6</ele>
<time>2022-03-28T20:15:26Z</time>
<speed>1.1</speed>
</trkpt>
<trkpt lat="35.50443378" lon="-107.16908097">
<ele>1803.9</ele>
<time>2022-03-28T20:15:30Z</time>
<speed>1.1</speed>
</trkpt>
<trkpt lat="35.50442527" lon="-107.1690355">
<ele>1804.2</ele>
<time>2022-03-28T20:15:34Z</time>
<speed>1.1</speed>
</trkpt>
<trkpt lat="35.50442072" lon="-107.16899027">
<ele>1803.6</ele>
<time>2022-03-28T20:15:38Z</time>
<speed>0.9</speed>
</trkpt>
<trkpt lat="35.50441766" lon="-107.16894343">
<ele>1804.5</ele>
<time>2022-03-28T20:15:42Z</time>
<speed>1</speed>
</trkpt>
<trkpt lat="35.50442472" lon="-107.16888836">
<ele>1803.3</ele>
<time>2022-03-28T20:15:46Z</time>
<speed>1.1</speed>
</trkpt>
<trkpt lat="35.5044201" lon="-107.16883506">
<ele>1802.9</ele>
<time>2022-03-28T20:15:50Z</time>
<speed>1.2</speed>
</trkpt>
<trkpt lat="35.50442391" lon="-107.16878406">
<ele>1804.3</ele>
<time>2022-03-28T20:15:54Z</time>
<speed>1</speed>
</trkpt>
<trkpt lat="35.50442537" lon="-107.1687393">
<ele>1804.7</ele>
<time>2022-03-28T20:15:58Z</time>
<speed>0.8</speed>
</trkpt>
<trkpt lat="35.50441439" lon="-107.16869562">
<ele>1804.8</ele>
<time>2022-03-28T20:16:02Z</time>
<speed>1.1</speed>
</trkpt>
<trkpt lat="35.50441936" lon="-107.16864347">
<ele>1805.2</ele>
<time>2022-03-28T20:16:07Z</time>
<speed>1</speed>
</trkpt>
<trkpt lat="35.50441522" lon="-107.1685881">
<ele>1804.8</ele>
<time>2022-03-28T20:16:12Z</time>
<speed>1.4</speed>
</trkpt>
<trkpt lat="35.50441967" lon="-107.16854367">
<ele>1804.6</ele>
<time>2022-03-28T20:16:15Z</time>
<speed>1.2</speed>
</trkpt>
<trkpt lat="35.50441117" lon="-107.16849728">
<ele>1804.9</ele>
<time>2022-03-28T20:16:18Z</time>
<speed>1.3</speed>
</trkpt>
<trkpt lat="35.50439339" lon="-107.16844855">
<ele>1804.7</ele>
<time>2022-03-28T20:16:22Z</time>
<speed>0.9</speed>
</trkpt>
<trkpt lat="35.50440182" lon="-107.1684046">
<ele>1805.6</ele>
<time>2022-03-28T20:16:26Z</time>
<speed>1</speed>
</trkpt>
<trkpt lat="35.50441373" lon="-107.16836153">
<ele>1807.2</ele>
<time>2022-03-28T20:16:31Z</time>
<speed>0.9</speed>
</trkpt>
<trkpt lat="35.50441402" lon="-107.16831352">
<ele>1807</ele>
<time>2022-03-28T20:16:35Z</time>
<speed>1.2</speed>
</trkpt>
<trkpt lat="35.50439751" lon="-107.16826128">
<ele>1807.2</ele>
<time>2022-03-28T20:16:39Z</time>
<speed>1.2</speed>
</trkpt>
<trkpt lat="35.50438441" lon="-107.16821996">
<ele>1807.2</ele>
<time>2022-03-28T20:16:42Z</time>
<speed>1.2</speed>
</trkpt>
<trkpt lat="35.5043737" lon="-107.16817371">
<ele>1807</ele>
<time>2022-03-28T20:16:45Z</time>
<speed>1.2</speed>
</trkpt>
<trkpt lat="35.5043649" lon="-107.16812523">
<ele>1807.2</ele>
<time>2022-03-28T20:16:49Z</time>
<speed>1.1</speed>
</trkpt>
<trkpt lat="35.50435574" lon="-107.16808237">
<ele>1806.6</ele>
<time>2022-03-28T20:16:53Z</time>
<speed>1.1</speed>
</trkpt>
<trkpt lat="35.50435371" lon="-107.16803176">
<ele>1805.9</ele>
<time>2022-03-28T20:16:57Z</time>
<speed>1.3</speed>
</trkpt>
<trkpt lat="35.50436993" lon="-107.16799022">
<ele>1805.9</ele>
<time>2022-03-28T20:17:01Z</time>
<speed>0.9</speed>
</trkpt>
<trkpt lat="35.5043713" lon="-107.16794584">
<ele>1807.2</ele>
<time>2022-03-28T20:17:05Z</time>
<speed>1.1</speed>
</trkpt>
<trkpt lat="35.50435893" lon="-107.16790172">
<ele>1807.9</ele>
<time>2022-03-28T20:17:09Z</time>
<speed>1.1</speed>
</trkpt>
<trkpt lat="35.50435104" lon="-107.1678556">
<ele>1808.4</ele>
<time>2022-03-28T20:17:13Z</time>
<speed>0.9</speed>
</trkpt>
<trkpt lat="35.50433625" lon="-107.16781192">
<ele>1809.3</ele>
<time>2022-03-28T20:17:16Z</time>
<speed>1.3</speed>
</trkpt>
<trkpt lat="35.50432829" lon="-107.16775426">
<ele>1810.2</ele>
<time>2022-03-28T20:17:20Z</time>
<speed>1.4</speed>
</trkpt>
<trkpt lat="35.50431428" lon="-107.16770374">
<ele>1810.1</ele>
<time>2022-03-28T20:17:24Z</time>
<speed>1.1</speed>
</trkpt>
<trkpt lat="35.50431524" lon="-107.16765086">
<ele>1810.1</ele>
<time>2022-03-28T20:17:28Z</time>
<speed>1.1</speed>
</trkpt>
<trkpt lat="35.50432677" lon="-107.16760893">
<ele>1810</ele>
<time>2022-03-28T20:17:31Z</time>
<speed>1.1</speed>
</trkpt>
<trkpt lat="35.50433583" lon="-107.167559">
<ele>1809.9</ele>
<time>2022-03-28T20:17:35Z</time>
<speed>1.1</speed>
</trkpt>
<trkpt lat="35.50435146" lon="-107.16750729">
<ele>1808.7</ele>
<time>2022-03-28T20:17:39Z</time>
<speed>1.1</speed>
</trkpt>
<trkpt lat="35.50436924" lon="-107.16746599">
<ele>1809.3</ele>
<time>2022-03-28T20:17:43Z</time>
<speed>1</speed>
</trkpt>
<trkpt lat="35.50439337" lon="-107.16742468">
<ele>1808.7</ele>
<time>2022-03-28T20:17:47Z</time>
<speed>1.2</speed>
</trkpt>
<trkpt lat="35.50440205" lon="-107.16738155">
<ele>1807.7</ele>
<time>2022-03-28T20:17:50Z</time>
<speed>1.3</speed>
</trkpt>
<trkpt lat="35.50441568" lon="-107.16732466">
<ele>1806.5</ele>
<time>2022-03-28T20:17:54Z</time>
<speed>1.2</speed>
</trkpt>
<trkpt lat="35.50443537" lon="-107.1672792">
<ele>1805.5</ele>
<time>2022-03-28T20:17:58Z</time>
<speed>1.1</speed>
</trkpt>
<trkpt lat="35.50446005" lon="-107.16723748">
<ele>1805.5</ele>
<time>2022-03-28T20:18:02Z</time>
<speed>1.1</speed>
</trkpt>
<trkpt lat="35.50448477" lon="-107.16718927">
<ele>1805.7</ele>
<time>2022-03-28T20:18:06Z</time>
<speed>1.2</speed>
</trkpt>
<trkpt lat="35.50450571" lon="-107.16714268">
<ele>1805.6</ele>
<time>2022-03-28T20:18:10Z</time>
<speed>1.1</speed>
</trkpt>
<trkpt lat="35.50451856" lon="-107.16708696">
<ele>1805.2</ele>
<time>2022-03-28T20:18:14Z</time>
<speed>1.2</speed>
</trkpt>
<trkpt lat="35.50452352" lon="-107.16704158">
<ele>1804.7</ele>
<time>2022-03-28T20:18:17Z</time>
<speed>1.1</speed>
</trkpt>
<trkpt lat="35.50453065" lon="-107.16698961">
<ele>1805</ele>
<time>2022-03-28T20:18:21Z</time>
<speed>1.2</speed>
</trkpt>
<trkpt lat="35.50453699" lon="-107.16694068">
<ele>1804.6</ele>
<time>2022-03-28T20:18:25Z</time>
<speed>1.1</speed>
</trkpt>
<trkpt lat="35.50454361" lon="-107.16689321">
<ele>1804.2</ele>
<time>2022-03-28T20:18:29Z</time>
<speed>1.2</speed>
</trkpt>
<trkpt lat="35.50455109" lon="-107.16684528">
<ele>1804</ele>
<time>2022-03-28T20:18:36Z</time>
<speed>1</speed>
</trkpt>
<trkpt lat="35.50457457" lon="-107.16680279">
<ele>1802.9</ele>
<time>2022-03-28T20:18:40Z</time>
<speed>1.2</speed>
</trkpt>
<trkpt lat="35.5045911" lon="-107.16675694">
<ele>1803.4</ele>
<time>2022-03-28T20:18:44Z</time>
<speed>1.1</speed>
</trkpt>
<trkpt lat="35.50460636" lon="-107.1667079">
<ele>1804.8</ele>
<time>2022-03-28T20:18:49Z</time>
<speed>1</speed>
</trkpt>
<trkpt lat="35.50462292" lon="-107.1666594">
<ele>1804.2</ele>
<time>2022-03-28T20:18:53Z</time>
<speed>1.1</speed>
</trkpt>
<trkpt lat="35.50462414" lon="-107.16660392">
<ele>1804</ele>
<time>2022-03-28T20:18:57Z</time>
<speed>1.1</speed>
</trkpt>
<trkpt lat="35.50463058" lon="-107.16654954">
<ele>1804.3</ele>
<time>2022-03-28T20:19:01Z</time>
<speed>1.1</speed>
</trkpt>
<trkpt lat="35.50463372" lon="-107.16650003">
<ele>1804.6</ele>
<time>2022-03-28T20:19:05Z</time>
<speed>1.1</speed>
</trkpt>
<trkpt lat="35.50464508" lon="-107.16644802">
<ele>1804.2</ele>
<time>2022-03-28T20:19:09Z</time>
<speed>1.1</speed>
</trkpt>
<trkpt lat="35.50465059" lon="-107.16639937">
<ele>1803.8</ele>
<time>2022-03-28T20:19:13Z</time>
<speed>1</speed>
</trkpt>
<trkpt lat="35.50464705" lon="-107.16635381">
<ele>1803.2</ele>
<time>2022-03-28T20:19:19Z</time>
<speed>1.2</speed>
</trkpt>
<trkpt lat="35.50463686" lon="-107.16630995">
<ele>1802.5</ele>
<time>2022-03-28T20:19:24Z</time>
<speed>0.3</speed>
</trkpt>
<trkpt lat="35.50461048" lon="-107.1662715">
<ele>1802.8</ele>
<time>2022-03-28T20:19:31Z</time>
<speed>0.6</speed>
</trkpt>
<trkpt lat="35.50457902" lon="-107.16624467">
<ele>1803.2</ele>
<time>2022-03-28T20:19:35Z</time>
<speed>1.3</speed>
</trkpt>
<trkpt lat="35.5045525" lon="-107.16620933">
<ele>1803.1</ele>
<time>2022-03-28T20:19:39Z</time>
<speed>1</speed>
</trkpt>
<trkpt lat="35.5045353" lon="-107.16615827">
<ele>1803.5</ele>
<time>2022-03-28T20:19:43Z</time>
<speed>0.9</speed>
</trkpt>
<trkpt lat="35.50451086" lon="-107.16610747">
<ele>1804.6</ele>
<time>2022-03-28T20:19:47Z</time>
<speed>1.4</speed>
</trkpt>
<trkpt lat="35.50448634" lon="-107.16605985">
<ele>1805.2</ele>
<time>2022-03-28T20:19:51Z</time>
<speed>1.1</speed>
</trkpt>
<trkpt lat="35.50446097" lon="-107.16601029">
<ele>1804.2</ele>
<time>2022-03-28T20:19:55Z</time>
<speed>1.2</speed>
</trkpt>
<trkpt lat="35.50443787" lon="-107.16596847">
<ele>1804.1</ele>
<time>2022-03-28T20:19:59Z</time>
<speed>1.1</speed>
</trkpt>
<trkpt lat="35.50442084" lon="-107.1659235">
<ele>1804.8</ele>
<time>2022-03-28T20:20:03Z</time>
<speed>1</speed>
</trkpt>
<trkpt lat="35.50440097" lon="-107.16588203">
<ele>1804.4</ele>
<time>2022-03-28T20:20:06Z</time>
<speed>1.3</speed>
</trkpt>
<trkpt lat="35.50437805" lon="-107.1658339">
<ele>1803.8</ele>
<time>2022-03-28T20:20:10Z</time>
<speed>1.2</speed>
</trkpt>
<trkpt lat="35.50435814" lon="-107.16579501">
<ele>1802.9</ele>
<time>2022-03-28T20:20:14Z</time>
<speed>0.7</speed>
</trkpt>
<trkpt lat="35.50434491" lon="-107.16575321">
<ele>1802.5</ele>
<time>2022-03-28T20:20:21Z</time>
<speed>1.2</speed>
</trkpt>
<trkpt lat="35.50435189" lon="-107.16570991">
<ele>1801.6</ele>
<time>2022-03-28T20:20:24Z</time>
<speed>1</speed>
</trkpt>
<trkpt lat="35.50435485" lon="-107.16566504">
<ele>1801.8</ele>
<time>2022-03-28T20:21:07Z</time>
<speed>1</speed>
</trkpt>
<trkpt lat="35.50433571" lon="-107.16561919">
<ele>1800.2</ele>
<time>2022-03-28T20:21:12Z</time>
<speed>0.9</speed>
</trkpt>
<trkpt lat="35.50429865" lon="-107.16559463">
<ele>1799.5</ele>
<time>2022-03-28T20:21:17Z</time>
<speed>1</speed>
</trkpt>
<trkpt lat="35.50426161" lon="-107.16557246">
<ele>1799.2</ele>
<time>2022-03-28T20:21:23Z</time>
<speed>0.9</speed>
</trkpt>
<trkpt lat="35.50422488" lon="-107.16554264">
<ele>1797.5</ele>
<time>2022-03-28T20:21:27Z</time>
<speed>1.1</speed>
</trkpt>
<trkpt lat="35.50419154" lon="-107.16551572">
<ele>1796</ele>
<time>2022-03-28T20:21:40Z</time>
<speed>1</speed>
</trkpt>
<trkpt lat="35.50415215" lon="-107.16548885">
<ele>1797.4</ele>
<time>2022-03-28T20:21:45Z</time>
<speed>1.1</speed>
</trkpt>
<trkpt lat="35.5041148" lon="-107.16546816">
<ele>1798.2</ele>
<time>2022-03-28T20:21:49Z</time>
<speed>1.1</speed>
</trkpt>
<trkpt lat="35.50407282" lon="-107.16545476">
<ele>1800.3</ele>
<time>2022-03-28T20:21:53Z</time>
<speed>1</speed>
</trkpt>
<trkpt lat="35.50403015" lon="-107.16544137">
<ele>1801.8</ele>
<time>2022-03-28T20:21:58Z</time>
<speed>0.7</speed>
</trkpt>
<trkpt lat="35.5039887" lon="-107.16543207">
<ele>1803.5</ele>
<time>2022-03-28T20:22:02Z</time>
<speed>1</speed>
</trkpt>
<trkpt lat="35.50394431" lon="-107.16541844">
<ele>1804.4</ele>
<time>2022-03-28T20:22:06Z</time>
<speed>1</speed>
</trkpt>
<trkpt lat="35.50390277" lon="-107.16540786">
<ele>1804.9</ele>
<time>2022-03-28T20:22:10Z</time>
<speed>1.2</speed>
</trkpt>
<trkpt lat="35.50386412" lon="-107.16540298">
<ele>1805.4</ele>
<time>2022-03-28T20:22:14Z</time>
<speed>1</speed>
</trkpt>
<trkpt lat="35.50383964" lon="-107.165364">
<ele>1803.2</ele>
<time>2022-03-28T20:22:20Z</time>
<speed>1</speed>
</trkpt>
<trkpt lat="35.50381111" lon="-107.16532805">
<ele>1804.1</ele>
<time>2022-03-28T20:22:26Z</time>
<speed>1.1</speed>
</trkpt>
<trkpt lat="35.50377523" lon="-107.16530056">
<ele>1804.5</ele>
<time>2022-03-28T20:22:30Z</time>
<speed>1</speed>
</trkpt>
<trkpt lat="35.50373727" lon="-107.16530732">
<ele>1804</ele>
<time>2022-03-28T20:22:34Z</time>
<speed>1</speed>
</trkpt>
<trkpt lat="35.50369535" lon="-107.1653057">
<ele>1804.6</ele>
<time>2022-03-28T20:22:38Z</time>
<speed>1.2</speed>
</trkpt>
<trkpt lat="35.50365582" lon="-107.16529363">
<ele>1805</ele>
<time>2022-03-28T20:22:43Z</time>
<speed>0.9</speed>
</trkpt>
<trkpt lat="35.50362077" lon="-107.16528074">
<ele>1804.1</ele>
<time>2022-03-28T20:22:48Z</time>
<speed>0.8</speed>
</trkpt>
<trkpt lat="35.50357906" lon="-107.16527277">
<ele>1802.1</ele>
<time>2022-03-28T20:22:54Z</time>
<speed>1</speed>
</trkpt>
<trkpt lat="35.50354854" lon="-107.16524144">
<ele>1801.1</ele>
<time>2022-03-28T20:22:59Z</time>
<speed>0.7</speed>
</trkpt>
<trkpt lat="35.50352971" lon="-107.16520159">
<ele>1799.8</ele>
<time>2022-03-28T20:23:04Z</time>
<speed>0.8</speed>
</trkpt>
<trkpt lat="35.50351079" lon="-107.16516317">
<ele>1800.5</ele>
<time>2022-03-28T20:23:08Z</time>
<speed>1</speed>
</trkpt>
<trkpt lat="35.50351062" lon="-107.16510452">
<ele>1800.3</ele>
<time>2022-03-28T20:23:13Z</time>
<speed>1.5</speed>
</trkpt>
<trkpt lat="35.50349459" lon="-107.16506401">
<ele>1800.4</ele>
<time>2022-03-28T20:23:17Z</time>
<speed>1.2</speed>
</trkpt>
<trkpt lat="35.50349565" lon="-107.16501131">
<ele>1801</ele>
<time>2022-03-28T20:23:23Z</time>
<speed>0.6</speed>
</trkpt>
<trkpt lat="35.50348568" lon="-107.1649564">
<ele>1799.7</ele>
<time>2022-03-28T20:23:28Z</time>
<speed>1.2</speed>
</trkpt>
<trkpt lat="35.50347591" lon="-107.16491224">
<ele>1799.5</ele>
<time>2022-03-28T20:23:32Z</time>
<speed>1.1</speed>
</trkpt>
<trkpt lat="35.50348165" lon="-107.1648677">
<ele>1798.3</ele>
<time>2022-03-28T20:23:36Z</time>
<speed>1</speed>
</trkpt>
<trkpt lat="35.50348223" lon="-107.16482079">
<ele>1797.7</ele>
<time>2022-03-28T20:23:40Z</time>
<speed>1</speed>
</trkpt>
<trkpt lat="35.50348026" lon="-107.16477174">
<ele>1798.2</ele>
<time>2022-03-28T20:23:44Z</time>
<speed>1</speed>
</trkpt>
<trkpt lat="35.50346872" lon="-107.16472562">
<ele>1798.4</ele>
<time>2022-03-28T20:23:48Z</time>
<speed>1</speed>
</trkpt>
<trkpt lat="35.50346821" lon="-107.16468051">
<ele>1797.4</ele>
<time>2022-03-28T20:23:51Z</time>
<speed>1.4</speed>
</trkpt>
<trkpt lat="35.50347299" lon="-107.16462568">
<ele>1796.8</ele>
<time>2022-03-28T20:23:55Z</time>
<speed>1.2</speed>
</trkpt>
<trkpt lat="35.50346877" lon="-107.16457665">
<ele>1797.2</ele>
<time>2022-03-28T20:23:59Z</time>
<speed>1.4</speed>
</trkpt>
<trkpt lat="35.50346904" lon="-107.16453171">
<ele>1797.3</ele>
<time>2022-03-28T20:24:02Z</time>
<speed>1.5</speed>
</trkpt>
<trkpt lat="35.50346933" lon="-107.16447931">
<ele>1798.1</ele>
<time>2022-03-28T20:24:06Z</time>
<speed>1.5</speed>
</trkpt>
<trkpt lat="35.50344818" lon="-107.16443117">
<ele>1798</ele>
<time>2022-03-28T20:24:10Z</time>
<speed>1.1</speed>
</trkpt>
<trkpt lat="35.50343748" lon="-107.16437959">
<ele>1798.7</ele>
<time>2022-03-28T20:24:14Z</time>
<speed>1.2</speed>
</trkpt>
<trkpt lat="35.50342525" lon="-107.16432667">
<ele>1798.2</ele>
<time>2022-03-28T20:24:18Z</time>
<speed>1.2</speed>
</trkpt>
<trkpt lat="35.50340344" lon="-107.16428912">
<ele>1799</ele>
<time>2022-03-28T20:24:21Z</time>
<speed>1.4</speed>
</trkpt>
<trkpt lat="35.50338348" lon="-107.16425222">
<ele>1798.2</ele>
<time>2022-03-28T20:24:24Z</time>
<speed>1.2</speed>
</trkpt>
<trkpt lat="35.50334993" lon="-107.16421312">
<ele>1797.7</ele>
<time>2022-03-28T20:24:28Z</time>
<speed>1.3</speed>
</trkpt>
<trkpt lat="35.50332432" lon="-107.1641787">
<ele>1797.7</ele>
<time>2022-03-28T20:24:31Z</time>
<speed>1.1</speed>
</trkpt>
<trkpt lat="35.50330943" lon="-107.16413785">
<ele>1797.2</ele>
<time>2022-03-28T20:24:34Z</time>
<speed>1.1</speed>
</trkpt>
<trkpt lat="35.50328679" lon="-107.16409445">
<ele>1797.2</ele>
<time>2022-03-28T20:24:38Z</time>
<speed>1.3</speed>
</trkpt>
<trkpt lat="35.50327047" lon="-107.16404782">
<ele>1797.2</ele>
<time>2022-03-28T20:24:42Z</time>
<speed>1.1</speed>
</trkpt>
<trkpt lat="35.50324811" lon="-107.16400106">
<ele>1797.1</ele>
<time>2022-03-28T20:24:47Z</time>
<speed>1.1</speed>
</trkpt>
<trkpt lat="35.50323118" lon="-107.16395483">
<ele>1797.7</ele>
<time>2022-03-28T20:24:51Z</time>
<speed>1.4</speed>
</trkpt>
<trkpt lat="35.50321042" lon="-107.16391267">
<ele>1798.6</ele>
<time>2022-03-28T20:24:56Z</time>
<speed>0.9</speed>
</trkpt>
<trkpt lat="35.50318776" lon="-107.16387163">
<ele>1798.6</ele>
<time>2022-03-28T20:25:00Z</time>
<speed>1.1</speed>
</trkpt>
<trkpt lat="35.50317037" lon="-107.16382687">
<ele>1799</ele>
<time>2022-03-28T20:25:04Z</time>
<speed>1.1</speed>
</trkpt>
<trkpt lat="35.50314892" lon="-107.16378281">
<ele>1798.5</ele>
<time>2022-03-28T20:25:08Z</time>
<speed>1.2</speed>
</trkpt>
<trkpt lat="35.50312878" lon="-107.16374014">
<ele>1796.7</ele>
<time>2022-03-28T20:25:11Z</time>
<speed>1</speed>
</trkpt>
<trkpt lat="35.50311456" lon="-107.16369686">
<ele>1796</ele>
<time>2022-03-28T20:25:14Z</time>
<speed>1.2</speed>
</trkpt>
<trkpt lat="35.50310621" lon="-107.16364743">
<ele>1796</ele>
<time>2022-03-28T20:25:18Z</time>
<speed>1.1</speed>
</trkpt>
<trkpt lat="35.50309645" lon="-107.16360105">
<ele>1797.1</ele>
<time>2022-03-28T20:25:22Z</time>
<speed>1.1</speed>
</trkpt>
<trkpt lat="35.50307728" lon="-107.16355207">
<ele>1796.4</ele>
<time>2022-03-28T20:25:26Z</time>
<speed>1.1</speed>
</trkpt>
<trkpt lat="35.50305815" lon="-107.16350466">
<ele>1795.7</ele>
<time>2022-03-28T20:25:30Z</time>
<speed>1.1</speed>
</trkpt>
<trkpt lat="35.50304088" lon="-107.16345651">
<ele>1796.3</ele>
<time>2022-03-28T20:25:34Z</time>
<speed>1.1</speed>
</trkpt>
<trkpt lat="35.50303604" lon="-107.16340757">
<ele>1795.7</ele>
<time>2022-03-28T20:25:37Z</time>
<speed>1.4</speed>
</trkpt>
<trkpt lat="35.50303721" lon="-107.16335392">
<ele>1795.6</ele>
<time>2022-03-28T20:25:41Z</time>
<speed>1.1</speed>
</trkpt>
<trkpt lat="35.50302811" lon="-107.16330163">
<ele>1795.6</ele>
<time>2022-03-28T20:25:45Z</time>
<speed>1.2</speed>
</trkpt>
<trkpt lat="35.50303196" lon="-107.16325693">
<ele>1794.9</ele>
<time>2022-03-28T20:25:48Z</time>
<speed>1.4</speed>
</trkpt>
<trkpt lat="35.50303633" lon="-107.16319732">
<ele>1794.2</ele>
<time>2022-03-28T20:25:52Z</time>
<speed>1.4</speed>
</trkpt>
<trkpt lat="35.50303018" lon="-107.16314342">
<ele>1792.2</ele>
<time>2022-03-28T20:25:56Z</time>
<speed>1.1</speed>
</trkpt>
<trkpt lat="35.50301719" lon="-107.16308788">
<ele>1791.8</ele>
<time>2022-03-28T20:26:00Z</time>
<speed>1.2</speed>
</trkpt>
<trkpt lat="35.50302567" lon="-107.16303687">
<ele>1792.6</ele>
<time>2022-03-28T20:26:04Z</time>
<speed>1.3</speed>
</trkpt>
<trkpt lat="35.50305425" lon="-107.16299783">
<ele>1794</ele>
<time>2022-03-28T20:26:08Z</time>
<speed>1.2</speed>
</trkpt>
<trkpt lat="35.50306273" lon="-107.16295332">
<ele>1793.9</ele>
<time>2022-03-28T20:26:12Z</time>
<speed>1.1</speed>
</trkpt>
<trkpt lat="35.50306367" lon="-107.16290151">
<ele>1793.6</ele>
<time>2022-03-28T20:26:16Z</time>
<speed>1.2</speed>
</trkpt>
<trkpt lat="35.50304877" lon="-107.16285249">
<ele>1793.2</ele>
<time>2022-03-28T20:26:20Z</time>
<speed>1.2</speed>
</trkpt>
<trkpt lat="35.50306326" lon="-107.16280439">
<ele>1793</ele>
<time>2022-03-28T20:26:24Z</time>
<speed>0.9</speed>
</trkpt>
<trkpt lat="35.5030733" lon="-107.16276093">
<ele>1793.5</ele>
<time>2022-03-28T20:26:30Z</time>
<speed>1.1</speed>
</trkpt>
<trkpt lat="35.50307502" lon="-107.16270601">
<ele>1793.6</ele>
<time>2022-03-28T20:26:35Z</time>
<speed>1.1</speed>
</trkpt>
<trkpt lat="35.50308581" lon="-107.16266191">
<ele>1794.1</ele>
<time>2022-03-28T20:26:39Z</time>
<speed>1.1</speed>
</trkpt>
<trkpt lat="35.50307334" lon="-107.16260986">
<ele>1792.6</ele>
<time>2022-03-28T20:26:44Z</time>
<speed>0.9</speed>
</trkpt>
<trkpt lat="35.50308607" lon="-107.16256477">
<ele>1793.1</ele>
<time>2022-03-28T20:26:48Z</time>
<speed>0.6</speed>
</trkpt>
<trkpt lat="35.50309587" lon="-107.16251591">
<ele>1793.9</ele>
<time>2022-03-28T20:26:56Z</time>
<speed>0.9</speed>
</trkpt>
<trkpt lat="35.50311131" lon="-107.16247542">
<ele>1792.3</ele>
<time>2022-03-28T20:26:59Z</time>
<speed>1.1</speed>
</trkpt>
<trkpt lat="35.5031304" lon="-107.1624354">
<ele>1792.1</ele>
<time>2022-03-28T20:27:02Z</time>
<speed>1.1</speed>
</trkpt>
<trkpt lat="35.50314355" lon="-107.16239317">
<ele>1792.5</ele>
<time>2022-03-28T20:27:06Z</time>
<speed>1</speed>
</trkpt>
<trkpt lat="35.50313562" lon="-107.16234639">
<ele>1792.5</ele>
<time>2022-03-28T20:27:11Z</time>
<speed>0.7</speed>
</trkpt>
<trkpt lat="35.50312745" lon="-107.16229294">
<ele>1790.5</ele>
<time>2022-03-28T20:27:15Z</time>
<speed>1.1</speed>
</trkpt>
<trkpt lat="35.50313312" lon="-107.16224535">
<ele>1790.5</ele>
<time>2022-03-28T20:27:19Z</time>
<speed>0.8</speed>
</trkpt>
<trkpt lat="35.503147" lon="-107.16219318">
<ele>1791.2</ele>
<time>2022-03-28T20:27:23Z</time>
<speed>1.3</speed>
</trkpt>
<trkpt lat="35.50315554" lon="-107.16214654">
<ele>1791.3</ele>
<time>2022-03-28T20:27:26Z</time>
<speed>1.2</speed>
</trkpt>
<trkpt lat="35.50315953" lon="-107.16209527">
<ele>1792.5</ele>
<time>2022-03-28T20:27:30Z</time>
<speed>1.2</speed>
</trkpt>
<trkpt lat="35.50316389" lon="-107.16203708">
<ele>1791.9</ele>
<time>2022-03-28T20:27:34Z</time>
<speed>1.2</speed>
</trkpt>
<trkpt lat="35.50317616" lon="-107.16199323">
<ele>1792.1</ele>
<time>2022-03-28T20:27:37Z</time>
<speed>1.2</speed>
</trkpt>
<trkpt lat="35.50318378" lon="-107.16194284">
<ele>1792.7</ele>
<time>2022-03-28T20:27:41Z</time>
<speed>1.1</speed>
</trkpt>
<trkpt lat="35.5031896" lon="-107.16189377">
<ele>1792.5</ele>
<time>2022-03-28T20:27:45Z</time>
<speed>1</speed>
</trkpt>
<trkpt lat="35.50318197" lon="-107.16184128">
<ele>1791.3</ele>
<time>2022-03-28T20:27:50Z</time>
<speed>0.9</speed>
</trkpt>
<trkpt lat="35.50318476" lon="-107.16178847">
<ele>1792.6</ele>
<time>2022-03-28T20:28:02Z</time>
<speed>0.8</speed>
</trkpt>
<trkpt lat="35.50318557" lon="-107.16174343">
<ele>1794</ele>
<time>2022-03-28T20:28:06Z</time>
<speed>0.8</speed>
</trkpt>
<trkpt lat="35.50318461" lon="-107.16169008">
<ele>1794.3</ele>
<time>2022-03-28T20:28:10Z</time>
<speed>1.2</speed>
</trkpt>
<trkpt lat="35.50318538" lon="-107.16164471">
<ele>1794</ele>
<time>2022-03-28T20:28:13Z</time>
<speed>1.2</speed>
</trkpt>
<trkpt lat="35.50318235" lon="-107.16159611">
<ele>1793.8</ele>
<time>2022-03-28T20:28:16Z</time>
<speed>1.2</speed>
</trkpt>
<trkpt lat="35.50318315" lon="-107.16154323">
<ele>1794.1</ele>
<time>2022-03-28T20:28:20Z</time>
<speed>1.2</speed>
</trkpt>
<trkpt lat="35.50319204" lon="-107.16148878">
<ele>1794.2</ele>
<time>2022-03-28T20:28:24Z</time>
<speed>1.2</speed>
</trkpt>
<trkpt lat="35.50319979" lon="-107.16143562">
<ele>1794.6</ele>
<time>2022-03-28T20:28:28Z</time>
<speed>1.2</speed>
</trkpt>
<trkpt lat="35.50319906" lon="-107.16139107">
<ele>1795</ele>
<time>2022-03-28T20:28:32Z</time>
<speed>0.8</speed>
</trkpt>
<trkpt lat="35.50320767" lon="-107.16133532">
<ele>1796.1</ele>
<time>2022-03-28T20:29:24Z</time>
<speed>1</speed>
</trkpt>
<trkpt lat="35.50321011" lon="-107.16128759">
<ele>1796.2</ele>
<time>2022-03-28T20:29:28Z</time>
<speed>1</speed>
</trkpt>
<trkpt lat="35.50322708" lon="-107.16124132">
<ele>1796.4</ele>
<time>2022-03-28T20:29:32Z</time>
<speed>1</speed>
</trkpt>
<trkpt lat="35.50322922" lon="-107.16118702">
<ele>1797.3</ele>
<time>2022-03-28T20:29:37Z</time>
<speed>1.2</speed>
</trkpt>
<trkpt lat="35.50323334" lon="-107.16113682">
<ele>1798</ele>
<time>2022-03-28T20:29:41Z</time>
<speed>1.1</speed>
</trkpt>
<trkpt lat="35.50322974" lon="-107.16108209">
<ele>1797.5</ele>
<time>2022-03-28T20:29:45Z</time>
<speed>1.1</speed>
</trkpt>
<trkpt lat="35.50320546" lon="-107.16103989">
<ele>1798</ele>
<time>2022-03-28T20:29:50Z</time>
<speed>1.1</speed>
</trkpt>
<trkpt lat="35.50322394" lon="-107.16099019">
<ele>1798.2</ele>
<time>2022-03-28T20:29:54Z</time>
<speed>1.2</speed>
</trkpt>
<trkpt lat="35.50323188" lon="-107.16094531">
<ele>1798.3</ele>
<time>2022-03-28T20:29:58Z</time>
<speed>1.2</speed>
</trkpt>
<trkpt lat="35.50322716" lon="-107.16089461">
<ele>1798.3</ele>
<time>2022-03-28T20:30:02Z</time>
<speed>1.2</speed>
</trkpt>
<trkpt lat="35.50323101" lon="-107.16084349">
<ele>1798.3</ele>
<time>2022-03-28T20:30:06Z</time>
<speed>1.1</speed>
</trkpt>
<trkpt lat="35.50322004" lon="-107.16079531">
<ele>1798.5</ele>
<time>2022-03-28T20:30:10Z</time>
<speed>0.8</speed>
</trkpt>
<trkpt lat="35.50321721" lon="-107.16074849">
<ele>1797.4</ele>
<time>2022-03-28T20:30:13Z</time>
<speed>1.2</speed>
</trkpt>
<trkpt lat="35.50321577" lon="-107.16070315">
<ele>1796.8</ele>
<time>2022-03-28T20:30:16Z</time>
<speed>1.3</speed>
</trkpt>
<trkpt lat="35.50321728" lon="-107.1606533">
<ele>1796.3</ele>
<time>2022-03-28T20:30:19Z</time>
<speed>1.3</speed>
</trkpt>
<trkpt lat="35.5032227" lon="-107.16060896">
<ele>1797.1</ele>
<time>2022-03-28T20:30:22Z</time>
<speed>1.2</speed>
</trkpt>
<trkpt lat="35.50322195" lon="-107.16055524">
<ele>1796.5</ele>
<time>2022-03-28T20:30:26Z</time>
<speed>1.2</speed>
</trkpt>
<trkpt lat="35.50322845" lon="-107.16049733">
<ele>1795.4</ele>
<time>2022-03-28T20:30:30Z</time>
<speed>1.3</speed>
</trkpt>
<trkpt lat="35.50322655" lon="-107.16044055">
<ele>1795.6</ele>
<time>2022-03-28T20:30:34Z</time>
<speed>1.4</speed>
</trkpt>
<trkpt lat="35.50322283" lon="-107.16038847">
<ele>1797.1</ele>
<time>2022-03-28T20:30:38Z</time>
<speed>0.9</speed>
</trkpt>
<trkpt lat="35.50320655" lon="-107.16034658">
<ele>1796.7</ele>
<time>2022-03-28T20:30:41Z</time>
<speed>1.2</speed>
</trkpt>
<trkpt lat="35.50321362" lon="-107.16029249">
<ele>1795.5</ele>
<time>2022-03-28T20:30:45Z</time>
<speed>1</speed>
</trkpt>
<trkpt lat="35.50321091" lon="-107.16024227">
<ele>1797</ele>
<time>2022-03-28T20:30:49Z</time>
<speed>1</speed>
</trkpt>
<trkpt lat="35.50321312" lon="-107.16019776">
<ele>1796.5</ele>
<time>2022-03-28T20:30:53Z</time>
<speed>0.8</speed>
</trkpt>
<trkpt lat="35.50322673" lon="-107.16015553">
<ele>1796.5</ele>
<time>2022-03-28T20:30:57Z</time>
<speed>0.9</speed>
</trkpt>
<trkpt lat="35.5032452" lon="-107.16011251">
<ele>1794.1</ele>
<time>2022-03-28T20:31:01Z</time>
<speed>1.1</speed>
</trkpt>
<trkpt lat="35.50327226" lon="-107.16006983">
<ele>1793.6</ele>
<time>2022-03-28T20:31:05Z</time>
<speed>1.2</speed>
</trkpt>
<trkpt lat="35.50329678" lon="-107.16002651">
<ele>1793.8</ele>
<time>2022-03-28T20:31:09Z</time>
<speed>1.2</speed>
</trkpt>
<trkpt lat="35.5033189" lon="-107.15998586">
<ele>1794</ele>
<time>2022-03-28T20:31:13Z</time>
<speed>1.2</speed>
</trkpt>
<trkpt lat="35.50334072" lon="-107.15993317">
<ele>1793.7</ele>
<time>2022-03-28T20:31:17Z</time>
<speed>1.3</speed>
</trkpt>
<trkpt lat="35.50336463" lon="-107.15988932">
<ele>1794.2</ele>
<time>2022-03-28T20:31:21Z</time>
<speed>1.1</speed>
</trkpt>
<trkpt lat="35.50339066" lon="-107.15984518">
<ele>1794.2</ele>
<time>2022-03-28T20:31:25Z</time>
<speed>1.2</speed>
</trkpt>
<trkpt lat="35.50340592" lon="-107.1597998">
<ele>1794.3</ele>
<time>2022-03-28T20:31:29Z</time>
<speed>1.3</speed>
</trkpt>
<trkpt lat="35.50342697" lon="-107.15975152">
<ele>1793.9</ele>
<time>2022-03-28T20:31:33Z</time>
<speed>1.2</speed>
</trkpt>
<trkpt lat="35.50345196" lon="-107.15970824">
<ele>1793.9</ele>
<time>2022-03-28T20:31:42Z</time>
<speed>0.9</speed>
</trkpt>
<trkpt lat="35.50346826" lon="-107.1596652">
<ele>1793</ele>
<time>2022-03-28T20:31:45Z</time>
<speed>1.2</speed>
</trkpt>
<trkpt lat="35.50349407" lon="-107.15963182">
<ele>1793.2</ele>
<time>2022-03-28T20:31:48Z</time>
<speed>1.2</speed>
</trkpt>
<trkpt lat="35.50351465" lon="-107.15958806">
<ele>1793.3</ele>
<time>2022-03-28T20:31:52Z</time>
<speed>1.2</speed>
</trkpt>
<trkpt lat="35.50353714" lon="-107.15954495">
<ele>1793.3</ele>
<time>2022-03-28T20:31:56Z</time>
<speed>1.3</speed>
</trkpt>
<trkpt lat="35.50355184" lon="-107.15949297">
<ele>1793.1</ele>
<time>2022-03-28T20:32:00Z</time>
<speed>1.2</speed>
</trkpt>
<trkpt lat="35.50357487" lon="-107.15944676">
<ele>1794</ele>
<time>2022-03-28T20:32:04Z</time>
<speed>1.2</speed>
</trkpt>
<trkpt lat="35.50359025" lon="-107.15939258">
<ele>1793.8</ele>
<time>2022-03-28T20:32:08Z</time>
<speed>1.3</speed>
</trkpt>
<trkpt lat="35.50361497" lon="-107.15934275">
<ele>1794.7</ele>
<time>2022-03-28T20:32:12Z</time>
<speed>1.3</speed>
</trkpt>
<trkpt lat="35.50364806" lon="-107.15930469">
<ele>1794.3</ele>
<time>2022-03-28T20:32:16Z</time>
<speed>1</speed>
</trkpt>
<trkpt lat="35.50366607" lon="-107.15926143">
<ele>1795.5</ele>
<time>2022-03-28T20:32:22Z</time>
<speed>0.9</speed>
</trkpt>
<trkpt lat="35.50369447" lon="-107.15922074">
<ele>1796.8</ele>
<time>2022-03-28T20:32:27Z</time>
<speed>1.1</speed>
</trkpt>
<trkpt lat="35.50371483" lon="-107.15917126">
<ele>1795.4</ele>
<time>2022-03-28T20:32:32Z</time>
<speed>1.2</speed>
</trkpt>
<trkpt lat="35.50372008" lon="-107.15912392">
<ele>1794.4</ele>
<time>2022-03-28T20:32:36Z</time>
<speed>0.8</speed>
</trkpt>
<trkpt lat="35.50372691" lon="-107.15907811">
<ele>1794.8</ele>
<time>2022-03-28T20:32:42Z</time>
<speed>0.6</speed>
</trkpt>
<trkpt lat="35.5037679" lon="-107.15907471">
<ele>1795.1</ele>
<time>2022-03-28T20:32:46Z</time>
<speed>1.2</speed>
</trkpt>
<trkpt lat="35.50380017" lon="-107.15904336">
<ele>1795.2</ele>
<time>2022-03-28T20:32:50Z</time>
<speed>0.9</speed>
</trkpt>
<trkpt lat="35.5038215" lon="-107.1589965">
<ele>1795.3</ele>
<time>2022-03-28T20:32:54Z</time>
<speed>1.2</speed>
</trkpt>
<trkpt lat="35.50384064" lon="-107.15895485">
<ele>1795</ele>
<time>2022-03-28T20:32:58Z</time>
<speed>1.4</speed>
</trkpt>
<trkpt lat="35.50385783" lon="-107.15891538">
<ele>1794.7</ele>
<time>2022-03-28T20:33:02Z</time>
<speed>1.3</speed>
</trkpt>
<trkpt lat="35.50386927" lon="-107.15886508">
<ele>1795.3</ele>
<time>2022-03-28T20:33:07Z</time>
<speed>1</speed>
</trkpt>
<trkpt lat="35.5038899" lon="-107.15881765">
<ele>1794.7</ele>
<time>2022-03-28T20:33:11Z</time>
<speed>1.3</speed>
</trkpt>
<trkpt lat="35.50392391" lon="-107.15878124">
<ele>1794.2</ele>
<time>2022-03-28T20:33:15Z</time>
<speed>1.2</speed>
</trkpt>
<trkpt lat="35.50394877" lon="-107.15873416">
<ele>1794.4</ele>
<time>2022-03-28T20:33:19Z</time>
<speed>1.2</speed>
</trkpt>
<trkpt lat="35.50397924" lon="-107.15869702">
<ele>1794.6</ele>
<time>2022-03-28T20:33:23Z</time>
<speed>1.2</speed>
</trkpt>
<trkpt lat="35.50401634" lon="-107.158665">
<ele>1794.9</ele>
<time>2022-03-28T20:33:27Z</time>
<speed>1.2</speed>
</trkpt>
<trkpt lat="35.50404861" lon="-107.15862338">
<ele>1795</ele>
<time>2022-03-28T20:33:31Z</time>
<speed>1.2</speed>
</trkpt>
<trkpt lat="35.50406632" lon="-107.15858405">
<ele>1794.8</ele>
<time>2022-03-28T20:33:35Z</time>
<speed>0.8</speed>
</trkpt>
<trkpt lat="35.50406042" lon="-107.1585305">
<ele>1795.6</ele>
<time>2022-03-28T20:33:40Z</time>
<speed>0.9</speed>
</trkpt>
<trkpt lat="35.50410364" lon="-107.15852478">
<ele>1795.1</ele>
<time>2022-03-28T20:33:46Z</time>
<speed>1</speed>
</trkpt>
<trkpt lat="35.50414125" lon="-107.15850345">
<ele>1795.6</ele>
<time>2022-03-28T20:33:51Z</time>
<speed>0.9</speed>
</trkpt>
<trkpt lat="35.50417025" lon="-107.15846922">
<ele>1795.8</ele>
<time>2022-03-28T20:34:00Z</time>
<speed>1.1</speed>
</trkpt>
<trkpt lat="35.50415211" lon="-107.15842301">
<ele>1795.4</ele>
<time>2022-03-28T20:34:04Z</time>
<speed>1</speed>
</trkpt>
<trkpt lat="35.50412202" lon="-107.15837764">
<ele>1795.5</ele>
<time>2022-03-28T20:34:08Z</time>
<speed>1.2</speed>
</trkpt>
<trkpt lat="35.50409042" lon="-107.15834675">
<ele>1795.4</ele>
<time>2022-03-28T20:34:11Z</time>
<speed>1.2</speed>
</trkpt>
<trkpt lat="35.50405193" lon="-107.1583198">
<ele>1795.4</ele>
<time>2022-03-28T20:34:15Z</time>
<speed>1.1</speed>
</trkpt>
<trkpt lat="35.50401593" lon="-107.15830565">
<ele>1796.8</ele>
<time>2022-03-28T20:34:20Z</time>
<speed>0.5</speed>
</trkpt>
<trkpt lat="35.50398723" lon="-107.15826847">
<ele>1795.4</ele>
<time>2022-03-28T20:34:26Z</time>
<speed>1</speed>
</trkpt>
<trkpt lat="35.503961" lon="-107.15823361">
<ele>1791.9</ele>
<time>2022-03-28T20:34:32Z</time>
<speed>0.7</speed>
</trkpt>
<trkpt lat="35.50397068" lon="-107.15818796">
<ele>1792.8</ele>
<time>2022-03-28T20:34:36Z</time>
<speed>0.9</speed>
</trkpt>
<trkpt lat="35.50397723" lon="-107.15814232">
<ele>1794.6</ele>
<time>2022-03-28T20:34:42Z</time>
<speed>0.6</speed>
</trkpt>
<trkpt lat="35.50398945" lon="-107.15809397">
<ele>1793.3</ele>
<time>2022-03-28T20:34:47Z</time>
<speed>0.5</speed>
</trkpt>
<trkpt lat="35.50399482" lon="-107.15804924">
<ele>1793.5</ele>
<time>2022-03-28T20:34:51Z</time>
<speed>0.9</speed>
</trkpt>
<trkpt lat="35.50401788" lon="-107.15800095">
<ele>1792.2</ele>
<time>2022-03-28T20:34:55Z</time>
<speed>1.2</speed>
</trkpt>
<trkpt lat="35.50402036" lon="-107.15795139">
<ele>1792.3</ele>
<time>2022-03-28T20:34:59Z</time>
<speed>0.9</speed>
</trkpt>
<trkpt lat="35.50402754" lon="-107.15789885">
<ele>1792.1</ele>
<time>2022-03-28T20:35:04Z</time>
<speed>1.1</speed>
</trkpt>
<trkpt lat="35.50404537" lon="-107.1578571">
<ele>1792.3</ele>
<time>2022-03-28T20:35:08Z</time>
<speed>0.9</speed>
</trkpt>
<trkpt lat="35.50406329" lon="-107.1578044">
<ele>1793.2</ele>
<time>2022-03-28T20:35:12Z</time>
<speed>1.2</speed>
</trkpt>
<trkpt lat="35.50407941" lon="-107.15776233">
<ele>1794.1</ele>
<time>2022-03-28T20:35:16Z</time>
<speed>1.1</speed>
</trkpt>
<trkpt lat="35.50409737" lon="-107.15771724">
<ele>1793.9</ele>
<time>2022-03-28T20:35:21Z</time>
<speed>1.1</speed>
</trkpt>
<trkpt lat="35.50410504" lon="-107.15767211">
<ele>1793.5</ele>
<time>2022-03-28T20:35:25Z</time>
<speed>0.9</speed>
</trkpt>
<trkpt lat="35.50411756" lon="-107.15762507">
<ele>1793.3</ele>
<time>2022-03-28T20:35:29Z</time>
<speed>1.1</speed>
</trkpt>
<trkpt lat="35.50414685" lon="-107.15758206">
<ele>1792.9</ele>
<time>2022-03-28T20:35:33Z</time>
<speed>1.1</speed>
</trkpt>
<trkpt lat="35.50415748" lon="-107.1575325">
<ele>1793</ele>
<time>2022-03-28T20:35:37Z</time>
<speed>1.2</speed>
</trkpt>
<trkpt lat="35.50416846" lon="-107.15748167">
<ele>1793</ele>
<time>2022-03-28T20:35:41Z</time>
<speed>1.2</speed>
</trkpt>
<trkpt lat="35.50417815" lon="-107.15743388">
<ele>1793.7</ele>
<time>2022-03-28T20:35:45Z</time>
<speed>1.1</speed>
</trkpt>
<trkpt lat="35.50418996" lon="-107.15739171">
<ele>1793.5</ele>
<time>2022-03-28T20:35:49Z</time>
<speed>1.1</speed>
</trkpt>
<trkpt lat="35.50420444" lon="-107.15734571">
<ele>1793.8</ele>
<time>2022-03-28T20:35:53Z</time>
<speed>1</speed>
</trkpt>
<trkpt lat="35.50422795" lon="-107.15730336">
<ele>1794</ele>
<time>2022-03-28T20:35:57Z</time>
<speed>1.1</speed>
</trkpt>
<trkpt lat="35.50424745" lon="-107.15726525">
<ele>1794.3</ele>
<time>2022-03-28T20:36:01Z</time>
<speed>1.1</speed>
</trkpt>
<trkpt lat="35.50428883" lon="-107.15723706">
<ele>1794.9</ele>
<time>2022-03-28T20:36:06Z</time>
<speed>1.4</speed>
</trkpt>
<trkpt lat="35.50432221" lon="-107.15721711">
<ele>1794.4</ele>
<time>2022-03-28T20:36:09Z</time>
<speed>1.3</speed>
</trkpt>
<trkpt lat="35.50436019" lon="-107.15719549">
<ele>1794.4</ele>
<time>2022-03-28T20:36:13Z</time>
<speed>1.2</speed>
</trkpt>
<trkpt lat="35.50439666" lon="-107.15716592">
<ele>1794.9</ele>
<time>2022-03-28T20:36:17Z</time>
<speed>1.2</speed>
</trkpt>
<trkpt lat="35.5044335" lon="-107.15713389">
<ele>1794.1</ele>
<time>2022-03-28T20:36:22Z</time>
<speed>1.1</speed>
</trkpt>
<trkpt lat="35.50446625" lon="-107.15710393">
<ele>1795.1</ele>
<time>2022-03-28T20:36:26Z</time>
<speed>1.1</speed>
</trkpt>
<trkpt lat="35.50449825" lon="-107.15708092">
<ele>1795</ele>
<time>2022-03-28T20:36:31Z</time>
<speed>1.1</speed>
</trkpt>
<trkpt lat="35.50453199" lon="-107.15704161">
<ele>1793.9</ele>
<time>2022-03-28T20:36:35Z</time>
<speed>1.2</speed>
</trkpt>
<trkpt lat="35.50456312" lon="-107.1569996">
<ele>1794</ele>
<time>2022-03-28T20:36:39Z</time>
<speed>1.4</speed>
</trkpt>
<trkpt lat="35.5045936" lon="-107.15695747">
<ele>1794.5</ele>
<time>2022-03-28T20:36:43Z</time>
<speed>1.3</speed>
</trkpt>
<trkpt lat="35.50461583" lon="-107.15691261">
<ele>1794.4</ele>
<time>2022-03-28T20:36:47Z</time>
<speed>1.1</speed>
</trkpt>
<trkpt lat="35.50464141" lon="-107.15687627">
<ele>1793.9</ele>
<time>2022-03-28T20:36:53Z</time>
<speed>0.8</speed>
</trkpt>
<trkpt lat="35.50466921" lon="-107.15684185">
<ele>1794.9</ele>
<time>2022-03-28T20:37:19Z</time>
<speed>1</speed>
</trkpt>
<trkpt lat="35.50469902" lon="-107.15680493">
<ele>1794.2</ele>
<time>2022-03-28T20:37:23Z</time>
<speed>1.1</speed>
</trkpt>
<trkpt lat="35.50473442" lon="-107.15679341">
<ele>1793.5</ele>
<time>2022-03-28T20:37:27Z</time>
<speed>1</speed>
</trkpt>
<trkpt lat="35.50476076" lon="-107.15675693">
<ele>1792.9</ele>
<time>2022-03-28T20:37:31Z</time>
<speed>1</speed>
</trkpt>
<trkpt lat="35.50476275" lon="-107.15670439">
<ele>1792.7</ele>
<time>2022-03-28T20:37:35Z</time>
<speed>1.2</speed>
</trkpt>
<trkpt lat="35.50477102" lon="-107.15665341">
<ele>1791.3</ele>
<time>2022-03-28T20:37:39Z</time>
<speed>0.9</speed>
</trkpt>
<trkpt lat="35.50480489" lon="-107.15661409">
<ele>1791.1</ele>
<time>2022-03-28T20:37:43Z</time>
<speed>1.2</speed>
</trkpt>
<trkpt lat="35.5048283" lon="-107.15656857">
<ele>1790.7</ele>
<time>2022-03-28T20:37:47Z</time>
<speed>1.5</speed>
</trkpt>
<trkpt lat="35.50485561" lon="-107.15652975">
<ele>1790.4</ele>
<time>2022-03-28T20:37:51Z</time>
<speed>1.3</speed>
</trkpt>
<trkpt lat="35.50487128" lon="-107.15647352">
<ele>1790</ele>
<time>2022-03-28T20:37:55Z</time>
<speed>1.5</speed>
</trkpt>
<trkpt lat="35.50490651" lon="-107.15643847">
<ele>1789.8</ele>
<time>2022-03-28T20:37:59Z</time>
<speed>1.1</speed>
</trkpt>
<trkpt lat="35.50493336" lon="-107.15639917">
<ele>1791</ele>
<time>2022-03-28T20:38:03Z</time>
<speed>1.1</speed>
</trkpt>
<trkpt lat="35.5049587" lon="-107.15635516">
<ele>1791.2</ele>
<time>2022-03-28T20:38:07Z</time>
<speed>1.2</speed>
</trkpt>
<trkpt lat="35.50498039" lon="-107.15631952">
<ele>1790.6</ele>
<time>2022-03-28T20:38:10Z</time>
<speed>1.2</speed>
</trkpt>
<trkpt lat="35.50500426" lon="-107.15628406">
<ele>1791.5</ele>
<time>2022-03-28T20:38:14Z</time>
<speed>1.2</speed>
</trkpt>
<trkpt lat="35.50503363" lon="-107.15624411">
<ele>1790.9</ele>
<time>2022-03-28T20:38:18Z</time>
<speed>1.2</speed>
</trkpt>
<trkpt lat="35.50505991" lon="-107.15619921">
<ele>1791.8</ele>
<time>2022-03-28T20:38:22Z</time>
<speed>1.2</speed>
</trkpt>
<trkpt lat="35.50508493" lon="-107.15615148">
<ele>1791.1</ele>
<time>2022-03-28T20:38:26Z</time>
<speed>1.2</speed>
</trkpt>
<trkpt lat="35.50510625" lon="-107.1561047">
<ele>1790.1</ele>
<time>2022-03-28T20:38:30Z</time>
<speed>1.1</speed>
</trkpt>
<trkpt lat="35.50513148" lon="-107.15605669">
<ele>1789.5</ele>
<time>2022-03-28T20:38:34Z</time>
<speed>1.2</speed>
</trkpt>
<trkpt lat="35.50513219" lon="-107.15600782">
<ele>1789.9</ele>
<time>2022-03-28T20:38:37Z</time>
<speed>0.8</speed>
</trkpt>
<trkpt lat="35.5051487" lon="-107.15596553">
<ele>1788.8</ele>
<time>2022-03-28T20:38:40Z</time>
<speed>1.2</speed>
</trkpt>
<trkpt lat="35.50515642" lon="-107.15590941">
<ele>1787.6</ele>
<time>2022-03-28T20:38:44Z</time>
<speed>1.2</speed>
</trkpt>
<trkpt lat="35.50516474" lon="-107.15585637">
<ele>1788.4</ele>
<time>2022-03-28T20:38:48Z</time>
<speed>1.4</speed>
</trkpt>
<trkpt lat="35.50517748" lon="-107.15580954">
<ele>1789</ele>
<time>2022-03-28T20:38:52Z</time>
<speed>1.2</speed>
</trkpt>
<trkpt lat="35.50518009" lon="-107.15575645">
<ele>1789.1</ele>
<time>2022-03-28T20:38:56Z</time>
<speed>1.1</speed>
</trkpt>
<trkpt lat="35.505188" lon="-107.15571056">
<ele>1790.2</ele>
<time>2022-03-28T20:39:00Z</time>
<speed>1.1</speed>
</trkpt>
<trkpt lat="35.50520366" lon="-107.15566603">
<ele>1790.5</ele>
<time>2022-03-28T20:39:04Z</time>
<speed>1.2</speed>
</trkpt>
<trkpt lat="35.50521778" lon="-107.15562034">
<ele>1791</ele>
<time>2022-03-28T20:39:08Z</time>
<speed>1.3</speed>
</trkpt>
<trkpt lat="35.50523082" lon="-107.15557624">
<ele>1791.8</ele>
<time>2022-03-28T20:39:12Z</time>
<speed>1.1</speed>
</trkpt>
<trkpt lat="35.50524073" lon="-107.15552711">
<ele>1792.3</ele>
<time>2022-03-28T20:39:16Z</time>
<speed>1</speed>
</trkpt>
<trkpt lat="35.50525832" lon="-107.15547176">
<ele>1791.2</ele>
<time>2022-03-28T20:39:20Z</time>
<speed>1.2</speed>
</trkpt>
<trkpt lat="35.50528014" lon="-107.155432">
<ele>1791</ele>
<time>2022-03-28T20:39:23Z</time>
<speed>1.1</speed>
</trkpt>
<trkpt lat="35.50530598" lon="-107.15538488">
<ele>1791.5</ele>
<time>2022-03-28T20:39:27Z</time>
<speed>1.3</speed>
</trkpt>
<trkpt lat="35.50532326" lon="-107.15533655">
<ele>1792.4</ele>
<time>2022-03-28T20:39:31Z</time>
<speed>1.2</speed>
</trkpt>
<trkpt lat="35.50532746" lon="-107.15527977">
<ele>1792.6</ele>
<time>2022-03-28T20:39:35Z</time>
<speed>1.2</speed>
</trkpt>
<trkpt lat="35.50534088" lon="-107.1552388">
<ele>1792.8</ele>
<time>2022-03-28T20:39:38Z</time>
<speed>1.2</speed>
</trkpt>
<trkpt lat="35.50535366" lon="-107.15518929">
<ele>1792.6</ele>
<time>2022-03-28T20:39:42Z</time>
<speed>1.2</speed>
</trkpt>
<trkpt lat="35.50536828" lon="-107.15514294">
<ele>1793.5</ele>
<time>2022-03-28T20:39:46Z</time>
<speed>1.1</speed>
</trkpt>
<trkpt lat="35.50537576" lon="-107.15509358">
<ele>1792.6</ele>
<time>2022-03-28T20:39:50Z</time>
<speed>1.1</speed>
</trkpt>
<trkpt lat="35.50539529" lon="-107.15504666">
<ele>1792.2</ele>
<time>2022-03-28T20:39:54Z</time>
<speed>1.3</speed>
</trkpt>
<trkpt lat="35.50539076" lon="-107.15498898">
<ele>1791.6</ele>
<time>2022-03-28T20:39:58Z</time>
<speed>1.2</speed>
</trkpt>
<trkpt lat="35.50538137" lon="-107.15494373">
<ele>1791.3</ele>
<time>2022-03-28T20:40:01Z</time>
<speed>1.2</speed>
</trkpt>
<trkpt lat="35.50537978" lon="-107.15488946">
<ele>1791.3</ele>
<time>2022-03-28T20:40:05Z</time>
<speed>1.2</speed>
</trkpt>
<trkpt lat="35.50537403" lon="-107.15484493">
<ele>1790.9</ele>
<time>2022-03-28T20:40:08Z</time>
<speed>1.2</speed>
</trkpt>
<trkpt lat="35.5053789" lon="-107.1548007">
<ele>1791</ele>
<time>2022-03-28T20:40:11Z</time>
<speed>1.2</speed>
</trkpt>
<trkpt lat="35.505374" lon="-107.15474886">
<ele>1790.8</ele>
<time>2022-03-28T20:40:15Z</time>
<speed>1.2</speed>
</trkpt>
<trkpt lat="35.50537189" lon="-107.15470175">
<ele>1792.3</ele>
<time>2022-03-28T20:40:19Z</time>
<speed>1.1</speed>
</trkpt>
<trkpt lat="35.50537303" lon="-107.15465585">
<ele>1793.3</ele>
<time>2022-03-28T20:40:23Z</time>
<speed>1</speed>
</trkpt>
<trkpt lat="35.50537348" lon="-107.1545991">
<ele>1792.5</ele>
<time>2022-03-28T20:40:27Z</time>
<speed>1.2</speed>
</trkpt>
<trkpt lat="35.50535511" lon="-107.15455417">
<ele>1791.8</ele>
<time>2022-03-28T20:40:30Z</time>
<speed>1.3</speed>
</trkpt>
<trkpt lat="35.50535256" lon="-107.15450838">
<ele>1791.5</ele>
<time>2022-03-28T20:40:33Z</time>
<speed>1.2</speed>
</trkpt>
<trkpt lat="35.50534606" lon="-107.15446294">
<ele>1792.2</ele>
<time>2022-03-28T20:40:37Z</time>
<speed>1.2</speed>
</trkpt>
<trkpt lat="35.50533543" lon="-107.15441631">
<ele>1792.5</ele>
<time>2022-03-28T20:40:41Z</time>
<speed>1.3</speed>
</trkpt>
<trkpt lat="35.50531652" lon="-107.15436921">
<ele>1792.2</ele>
<time>2022-03-28T20:40:45Z</time>
<speed>1.1</speed>
</trkpt>
<trkpt lat="35.50530031" lon="-107.15432361">
<ele>1792</ele>
<time>2022-03-28T20:40:49Z</time>
<speed>1</speed>
</trkpt>
<trkpt lat="35.50527523" lon="-107.15428136">
<ele>1792</ele>
<time>2022-03-28T20:40:53Z</time>
<speed>1.1</speed>
</trkpt>
<trkpt lat="35.50526693" lon="-107.15422661">
<ele>1790.9</ele>
<time>2022-03-28T20:40:57Z</time>
<speed>1.2</speed>
</trkpt>
<trkpt lat="35.50524218" lon="-107.15418378">
<ele>1791.6</ele>
<time>2022-03-28T20:41:01Z</time>
<speed>1.3</speed>
</trkpt>
<trkpt lat="35.5052121" lon="-107.15414843">
<ele>1789.8</ele>
<time>2022-03-28T20:41:05Z</time>
<speed>1.1</speed>
</trkpt>
<trkpt lat="35.50518366" lon="-107.15410315">
<ele>1788.4</ele>
<time>2022-03-28T20:41:09Z</time>
<speed>1.1</speed>
</trkpt>
<trkpt lat="35.50516245" lon="-107.15405254">
<ele>1786.6</ele>
<time>2022-03-28T20:41:13Z</time>
<speed>1.1</speed>
</trkpt>
<trkpt lat="35.50514558" lon="-107.15400254">
<ele>1786.1</ele>
<time>2022-03-28T20:41:17Z</time>
<speed>1</speed>
</trkpt>
<trkpt lat="35.50512705" lon="-107.15395018">
<ele>1787</ele>
<time>2022-03-28T20:41:21Z</time>
<speed>1.1</speed>
</trkpt>
<trkpt lat="35.50511403" lon="-107.15390716">
<ele>1786.1</ele>
<time>2022-03-28T20:41:24Z</time>
<speed>1.2</speed>
</trkpt>
<trkpt lat="35.50510274" lon="-107.15386093">
<ele>1785.2</ele>
<time>2022-03-28T20:41:27Z</time>
<speed>1.3</speed>
</trkpt>
<trkpt lat="35.50507786" lon="-107.15381618">
<ele>1785.5</ele>
<time>2022-03-28T20:41:31Z</time>
<speed>1.2</speed>
</trkpt>
<trkpt lat="35.50505882" lon="-107.15376397">
<ele>1786.4</ele>
<time>2022-03-28T20:41:35Z</time>
<speed>1.2</speed>
</trkpt>
<trkpt lat="35.50503925" lon="-107.15372439">
<ele>1785.1</ele>
<time>2022-03-28T20:41:38Z</time>
<speed>1.1</speed>
</trkpt>
<trkpt lat="35.50502936" lon="-107.1536791">
<ele>1783.9</ele>
<time>2022-03-28T20:41:41Z</time>
<speed>1.3</speed>
</trkpt>
<trkpt lat="35.50502364" lon="-107.15362736">
<ele>1784</ele>
<time>2022-03-28T20:41:45Z</time>
<speed>1.2</speed>
</trkpt>
<trkpt lat="35.50501958" lon="-107.15358281">
<ele>1785.2</ele>
<time>2022-03-28T20:41:49Z</time>
<speed>1.5</speed>
</trkpt>
<trkpt lat="35.50503191" lon="-107.15352879">
<ele>1786.8</ele>
<time>2022-03-28T20:41:53Z</time>
<speed>1</speed>
</trkpt>
<trkpt lat="35.50504175" lon="-107.15347381">
<ele>1787.7</ele>
<time>2022-03-28T20:41:57Z</time>
<speed>1.2</speed>
</trkpt>
<trkpt lat="35.50505452" lon="-107.15342664">
<ele>1788.9</ele>
<time>2022-03-28T20:42:01Z</time>
<speed>1.1</speed>
</trkpt>
<trkpt lat="35.50506021" lon="-107.15337283">
<ele>1787.9</ele>
<time>2022-03-28T20:42:05Z</time>
<speed>1.1</speed>
</trkpt>
<trkpt lat="35.50506967" lon="-107.15332193">
<ele>1787.4</ele>
<time>2022-03-28T20:42:09Z</time>
<speed>1.2</speed>
</trkpt>
<trkpt lat="35.50506724" lon="-107.15326628">
<ele>1785.3</ele>
<time>2022-03-28T20:42:13Z</time>
<speed>1.2</speed>
</trkpt>
<trkpt lat="35.50507574" lon="-107.15322147">
<ele>1784.6</ele>
<time>2022-03-28T20:42:16Z</time>
<speed>1.1</speed>
</trkpt>
<trkpt lat="35.50509329" lon="-107.15316949">
<ele>1785.5</ele>
<time>2022-03-28T20:42:20Z</time>
<speed>1.2</speed>
</trkpt>
<trkpt lat="35.50510059" lon="-107.15312522">
<ele>1786.6</ele>
<time>2022-03-28T20:42:23Z</time>
<speed>1.2</speed>
</trkpt>
<trkpt lat="35.50510234" lon="-107.15307356">
<ele>1786.2</ele>
<time>2022-03-28T20:42:27Z</time>
<speed>1.1</speed>
</trkpt>
<trkpt lat="35.50509744" lon="-107.15302221">
<ele>1787.7</ele>
<time>2022-03-28T20:42:31Z</time>
<speed>1.2</speed>
</trkpt>
<trkpt lat="35.50511185" lon="-107.15297757">
<ele>1788.6</ele>
<time>2022-03-28T20:42:35Z</time>
<speed>1.2</speed>
</trkpt>
<trkpt lat="35.50511716" lon="-107.15292673">
<ele>1789.4</ele>
<time>2022-03-28T20:42:39Z</time>
<speed>1.4</speed>
</trkpt>
<trkpt lat="35.50514021" lon="-107.15287869">
<ele>1789.4</ele>
<time>2022-03-28T20:42:43Z</time>
<speed>1.3</speed>
</trkpt>
<trkpt lat="35.50515432" lon="-107.15283293">
<ele>1790.5</ele>
<time>2022-03-28T20:42:47Z</time>
<speed>1.1</speed>
</trkpt>
<trkpt lat="35.50516488" lon="-107.15278882">
<ele>1790.5</ele>
<time>2022-03-28T20:42:50Z</time>
<speed>1.3</speed>
</trkpt>
<trkpt lat="35.50517593" lon="-107.15274372">
<ele>1789.9</ele>
<time>2022-03-28T20:42:53Z</time>
<speed>1.3</speed>
</trkpt>
<trkpt lat="35.50518758" lon="-107.15269326">
<ele>1788.8</ele>
<time>2022-03-28T20:42:56Z</time>
<speed>1.5</speed>
</trkpt>
<trkpt lat="35.50518985" lon="-107.15263763">
<ele>1790.1</ele>
<time>2022-03-28T20:43:00Z</time>
<speed>1.3</speed>
</trkpt>
<trkpt lat="35.50519468" lon="-107.15258816">
<ele>1789.7</ele>
<time>2022-03-28T20:43:04Z</time>
<speed>1.3</speed>
</trkpt>
<trkpt lat="35.50520285" lon="-107.15253383">
<ele>1790.2</ele>
<time>2022-03-28T20:43:08Z</time>
<speed>1.3</speed>
</trkpt>
<trkpt lat="35.50520095" lon="-107.15247781">
<ele>1789.6</ele>
<time>2022-03-28T20:43:12Z</time>
<speed>1.3</speed>
</trkpt>
<trkpt lat="35.50519943" lon="-107.15242112">
<ele>1789.6</ele>
<time>2022-03-28T20:43:16Z</time>
<speed>1.3</speed>
</trkpt>
<trkpt lat="35.50522221" lon="-107.15237676">
<ele>1789.9</ele>
<time>2022-03-28T20:43:20Z</time>
<speed>1.3</speed>
</trkpt>
<trkpt lat="35.50524482" lon="-107.1523374">
<ele>1789.5</ele>
<time>2022-03-28T20:43:23Z</time>
<speed>1.3</speed>
</trkpt>
<trkpt lat="35.50526446" lon="-107.15229317">
<ele>1789.1</ele>
<time>2022-03-28T20:43:26Z</time>
<speed>1.3</speed>
</trkpt>
<trkpt lat="35.5052901" lon="-107.1522553">
<ele>1788.3</ele>
<time>2022-03-28T20:43:29Z</time>
<speed>1.4</speed>
</trkpt>
<trkpt lat="35.50531467" lon="-107.15221831">
<ele>1788.2</ele>
<time>2022-03-28T20:43:32Z</time>
<speed>1.4</speed>
</trkpt>
<trkpt lat="35.50533955" lon="-107.15218357">
<ele>1787.8</ele>
<time>2022-03-28T20:43:35Z</time>
<speed>1.3</speed>
</trkpt>
<trkpt lat="35.50536919" lon="-107.15215764">
<ele>1786.8</ele>
<time>2022-03-28T20:43:38Z</time>
<speed>1.4</speed>
</trkpt>
<trkpt lat="35.50540468" lon="-107.15212574">
<ele>1787.3</ele>
<time>2022-03-28T20:43:42Z</time>
<speed>1.3</speed>
</trkpt>
<trkpt lat="35.50542649" lon="-107.15208462">
<ele>1786.2</ele>
<time>2022-03-28T20:43:45Z</time>
<speed>1.3</speed>
</trkpt>
<trkpt lat="35.50545736" lon="-107.15204072">
<ele>1786.7</ele>
<time>2022-03-28T20:43:49Z</time>
<speed>1.3</speed>
</trkpt>
<trkpt lat="35.50548602" lon="-107.15201208">
<ele>1786.9</ele>
<time>2022-03-28T20:43:52Z</time>
<speed>1.2</speed>
</trkpt>
<trkpt lat="35.50551621" lon="-107.15196674">
<ele>1786</ele>
<time>2022-03-28T20:43:56Z</time>
<speed>1.4</speed>
</trkpt>
<trkpt lat="35.50553919" lon="-107.15192374">
<ele>1786.9</ele>
<time>2022-03-28T20:44:00Z</time>
<speed>1.3</speed>
</trkpt>
<trkpt lat="35.50556684" lon="-107.15188636">
<ele>1787.1</ele>
<time>2022-03-28T20:44:04Z</time>
<speed>1.3</speed>
</trkpt>
<trkpt lat="35.50559724" lon="-107.15184393">
<ele>1786.5</ele>
<time>2022-03-28T20:44:08Z</time>
<speed>1.5</speed>
</trkpt>
<trkpt lat="35.50562242" lon="-107.15180204">
<ele>1786.3</ele>
<time>2022-03-28T20:44:12Z</time>
<speed>1.2</speed>
</trkpt>
<trkpt lat="35.5056483" lon="-107.151765">
<ele>1785.8</ele>
<time>2022-03-28T20:44:15Z</time>
<speed>1.3</speed>
</trkpt>
<trkpt lat="35.50567351" lon="-107.15171674">
<ele>1785.6</ele>
<time>2022-03-28T20:44:19Z</time>
<speed>1.2</speed>
</trkpt>
<trkpt lat="35.50570287" lon="-107.15167496">
<ele>1784.9</ele>
<time>2022-03-28T20:44:23Z</time>
<speed>1</speed>
</trkpt>
<trkpt lat="35.50569987" lon="-107.15162653">
<ele>1783.1</ele>
<time>2022-03-28T20:44:27Z</time>
<speed>0.9</speed>
</trkpt>
<trkpt lat="35.50569394" lon="-107.15157822">
<ele>1783.5</ele>
<time>2022-03-28T20:44:32Z</time>
<speed>0.6</speed>
</trkpt>
<trkpt lat="35.5056705" lon="-107.15154046">
<ele>1782</ele>
<time>2022-03-28T20:44:36Z</time>
<speed>1.1</speed>
</trkpt>
<trkpt lat="35.50566507" lon="-107.15148652">
<ele>1781.1</ele>
<time>2022-03-28T20:44:40Z</time>
<speed>1.2</speed>
</trkpt>
<trkpt lat="35.50565261" lon="-107.15144138">
<ele>1782.4</ele>
<time>2022-03-28T20:44:44Z</time>
<speed>1.1</speed>
</trkpt>
<trkpt lat="35.50566672" lon="-107.15139643">
<ele>1782.6</ele>
<time>2022-03-28T20:44:47Z</time>
<speed>1.1</speed>
</trkpt>
<trkpt lat="35.50569119" lon="-107.15135513">
<ele>1784.5</ele>
<time>2022-03-28T20:44:51Z</time>
<speed>1.1</speed>
</trkpt>
<trkpt lat="35.50569889" lon="-107.15130928">
<ele>1785.3</ele>
<time>2022-03-28T20:44:56Z</time>
<speed>0.5</speed>
</trkpt>
<trkpt lat="35.50568793" lon="-107.15125655">
<ele>1786.2</ele>
<time>2022-03-28T20:45:02Z</time>
<speed>1</speed>
</trkpt>
<trkpt lat="35.5056842" lon="-107.15120718">
<ele>1785.9</ele>
<time>2022-03-28T20:45:07Z</time>
<speed>1.3</speed>
</trkpt>
<trkpt lat="35.50569196" lon="-107.15116078">
<ele>1786.2</ele>
<time>2022-03-28T20:45:11Z</time>
<speed>1.1</speed>
</trkpt>
<trkpt lat="35.50570494" lon="-107.15111135">
<ele>1785.1</ele>
<time>2022-03-28T20:45:15Z</time>
<speed>1.1</speed>
</trkpt>
<trkpt lat="35.50572374" lon="-107.15105957">
<ele>1784.3</ele>
<time>2022-03-28T20:45:19Z</time>
<speed>1</speed>
</trkpt>
<trkpt lat="35.50571602" lon="-107.15100771">
<ele>1784.1</ele>
<time>2022-03-28T20:45:23Z</time>
<speed>1.3</speed>
</trkpt>
<trkpt lat="35.50571835" lon="-107.15095765">
<ele>1782.9</ele>
<time>2022-03-28T20:45:27Z</time>
<speed>0.8</speed>
</trkpt>
<trkpt lat="35.50571257" lon="-107.15091266">
<ele>1782.7</ele>
<time>2022-03-28T20:45:31Z</time>
<speed>1.1</speed>
</trkpt>
<trkpt lat="35.50570281" lon="-107.1508655">
<ele>1781.7</ele>
<time>2022-03-28T20:45:35Z</time>
<speed>1.4</speed>
</trkpt>
<trkpt lat="35.50570828" lon="-107.1508138">
<ele>1782.4</ele>
<time>2022-03-28T20:45:39Z</time>
<speed>1.2</speed>
</trkpt>
<trkpt lat="35.5057054" lon="-107.15076815">
<ele>1782.7</ele>
<time>2022-03-28T20:45:43Z</time>
<speed>1.2</speed>
</trkpt>
<trkpt lat="35.50568611" lon="-107.15072942">
<ele>1782.4</ele>
<time>2022-03-28T20:45:48Z</time>
<speed>0.4</speed>
</trkpt>
<trkpt lat="35.50568468" lon="-107.15067597">
<ele>1785.2</ele>
<time>2022-03-28T20:46:03Z</time>
<speed>1.1</speed>
</trkpt>
<trkpt lat="35.50567924" lon="-107.15062689">
<ele>1784.3</ele>
<time>2022-03-28T20:46:07Z</time>
<speed>1.1</speed>
</trkpt>
<trkpt lat="35.50567199" lon="-107.15057543">
<ele>1783.7</ele>
<time>2022-03-28T20:46:11Z</time>
<speed>1.2</speed>
</trkpt>
<trkpt lat="35.50566551" lon="-107.15051939">
<ele>1783.7</ele>
<time>2022-03-28T20:46:15Z</time>
<speed>1.1</speed>
</trkpt>
<trkpt lat="35.50566629" lon="-107.15046717">
<ele>1784.2</ele>
<time>2022-03-28T20:46:19Z</time>
<speed>1.2</speed>
</trkpt>
<trkpt lat="35.50566274" lon="-107.15042016">
<ele>1783.6</ele>
<time>2022-03-28T20:46:23Z</time>
<speed>1.1</speed>
</trkpt>
<trkpt lat="35.50566159" lon="-107.15036907">
<ele>1783.3</ele>
<time>2022-03-28T20:46:27Z</time>
<speed>1.1</speed>
</trkpt>
<trkpt lat="35.50565551" lon="-107.15032418">
<ele>1782.9</ele>
<time>2022-03-28T20:46:31Z</time>
<speed>1.1</speed>
</trkpt>
<trkpt lat="35.50566085" lon="-107.15026978">
<ele>1783.1</ele>
<time>2022-03-28T20:46:35Z</time>
<speed>1.2</speed>
</trkpt>
<trkpt lat="35.50565459" lon="-107.15021737">
<ele>1782.5</ele>
<time>2022-03-28T20:46:39Z</time>
<speed>1.2</speed>
</trkpt>
<trkpt lat="35.50566104" lon="-107.15016963">
<ele>1782.6</ele>
<time>2022-03-28T20:46:43Z</time>
<speed>1.2</speed>
</trkpt>
<trkpt lat="35.5056725" lon="-107.15011214">
<ele>1781.7</ele>
<time>2022-03-28T20:46:48Z</time>
<speed>1.3</speed>
</trkpt>
<trkpt lat="35.50568911" lon="-107.15006933">
<ele>1783.3</ele>
<time>2022-03-28T20:46:51Z</time>
<speed>1.1</speed>
</trkpt>
<trkpt lat="35.50569487" lon="-107.15001178">
<ele>1782.6</ele>
<time>2022-03-28T20:46:55Z</time>
<speed>1.2</speed>
</trkpt>
<trkpt lat="35.50568834" lon="-107.14996661">
<ele>1780.8</ele>
<time>2022-03-28T20:46:58Z</time>
<speed>1.3</speed>
</trkpt>
<trkpt lat="35.5056823" lon="-107.1499104">
<ele>1780.7</ele>
<time>2022-03-28T20:47:02Z</time>
<speed>1.2</speed>
</trkpt>
<trkpt lat="35.50567183" lon="-107.14986775">
<ele>1779.7</ele>
<time>2022-03-28T20:47:05Z</time>
<speed>1.3</speed>
</trkpt>
<trkpt lat="35.5056872" lon="-107.14982744">
<ele>1779.8</ele>
<time>2022-03-28T20:47:08Z</time>
<speed>1.5</speed>
</trkpt>
<trkpt lat="35.50569489" lon="-107.14977454">
<ele>1779.2</ele>
<time>2022-03-28T20:47:12Z</time>
<speed>1.1</speed>
</trkpt>
<trkpt lat="35.50570109" lon="-107.14972273">
<ele>1779</ele>
<time>2022-03-28T20:47:16Z</time>
<speed>1.2</speed>
</trkpt>
<trkpt lat="35.50570663" lon="-107.14967642">
<ele>1779.3</ele>
<time>2022-03-28T20:47:19Z</time>
<speed>1.2</speed>
</trkpt>
<trkpt lat="35.5057207" lon="-107.14963194">
<ele>1780.4</ele>
<time>2022-03-28T20:47:22Z</time>
<speed>1.3</speed>
</trkpt>
<trkpt lat="35.50571227" lon="-107.14958287">
<ele>1781.5</ele>
<time>2022-03-28T20:47:26Z</time>
<speed>1.2</speed>
</trkpt>
<trkpt lat="35.50569422" lon="-107.14953602">
<ele>1782.8</ele>
<time>2022-03-28T20:47:30Z</time>
<speed>1.1</speed>
</trkpt>
<trkpt lat="35.50569306" lon="-107.14948699">
<ele>1783.1</ele>
<time>2022-03-28T20:47:34Z</time>
<speed>1.1</speed>
</trkpt>
<trkpt lat="35.50569124" lon="-107.14943519">
<ele>1783.1</ele>
<time>2022-03-28T20:47:38Z</time>
<speed>1.3</speed>
</trkpt>
<trkpt lat="35.50568031" lon="-107.14938395">
<ele>1783.8</ele>
<time>2022-03-28T20:47:42Z</time>
<speed>1.2</speed>
</trkpt>
<trkpt lat="35.50565996" lon="-107.14933993">
<ele>1783.8</ele>
<time>2022-03-28T20:47:46Z</time>
<speed>1.2</speed>
</trkpt>
<trkpt lat="35.50565863" lon="-107.14928341">
<ele>1784</ele>
<time>2022-03-28T20:47:51Z</time>
<speed>1.3</speed>
</trkpt>
<trkpt lat="35.50564007" lon="-107.14924106">
<ele>1782.6</ele>
<time>2022-03-28T20:47:56Z</time>
<speed>0.7</speed>
</trkpt>
<trkpt lat="35.50560953" lon="-107.14920094">
<ele>1783.1</ele>
<time>2022-03-28T20:48:00Z</time>
<speed>1.2</speed>
</trkpt>
<trkpt lat="35.50558193" lon="-107.14916834">
<ele>1781.6</ele>
<time>2022-03-28T20:48:04Z</time>
<speed>0.7</speed>
</trkpt>
<trkpt lat="35.50558365" lon="-107.14912012">
<ele>1781.5</ele>
<time>2022-03-28T20:48:08Z</time>
<speed>0.9</speed>
</trkpt>
<trkpt lat="35.5056091" lon="-107.14908319">
<ele>1782.1</ele>
<time>2022-03-28T20:48:15Z</time>
<speed>0.8</speed>
</trkpt>
<trkpt lat="35.50564073" lon="-107.14911608">
<ele>1781</ele>
<time>2022-03-28T20:48:23Z</time>
<speed>1.1</speed>
</trkpt>
<trkpt lat="35.50567877" lon="-107.14911229">
<ele>1781.5</ele>
<time>2022-03-28T20:48:36Z</time>
<speed>0.8</speed>
</trkpt>
<trkpt lat="35.50567494" lon="-107.14906382">
<ele>1780.8</ele>
<time>2022-03-28T20:48:41Z</time>
<speed>1</speed>
</trkpt>
<trkpt lat="35.50566038" lon="-107.14901592">
<ele>1781.5</ele>
<time>2022-03-28T20:48:46Z</time>
<speed>0.9</speed>
</trkpt>
<trkpt lat="35.50564988" lon="-107.14897034">
<ele>1782.5</ele>
<time>2022-03-28T20:48:50Z</time>
<speed>0.8</speed>
</trkpt>
<trkpt lat="35.50564337" lon="-107.14892659">
<ele>1782.9</ele>
<time>2022-03-28T20:48:54Z</time>
<speed>1.1</speed>
</trkpt>
<trkpt lat="35.505633" lon="-107.14888219">
<ele>1784</ele>
<time>2022-03-28T20:48:58Z</time>
<speed>1.1</speed>
</trkpt>
<trkpt lat="35.50562735" lon="-107.14883693">
<ele>1784</ele>
<time>2022-03-28T20:49:04Z</time>
<speed>0.3</speed>
</trkpt>
<trkpt lat="35.50566317" lon="-107.14882037">
<ele>1785.8</ele>
<time>2022-03-28T20:49:09Z</time>
<speed>0.6</speed>
</trkpt>
<trkpt lat="35.50570267" lon="-107.14883625">
<ele>1787.1</ele>
<time>2022-03-28T20:49:16Z</time>
<speed>0.9</speed>
</trkpt>
<trkpt lat="35.50573316" lon="-107.14886751">
<ele>1787</ele>
<time>2022-03-28T20:49:21Z</time>
<speed>1</speed>
</trkpt>
<trkpt lat="35.50577426" lon="-107.14888084">
<ele>1787</ele>
<time>2022-03-28T20:49:27Z</time>
<speed>1</speed>
</trkpt>
<trkpt lat="35.50581045" lon="-107.14886826">
<ele>1786.3</ele>
<time>2022-03-28T20:49:31Z</time>
<speed>0.9</speed>
</trkpt>
<trkpt lat="35.50585176" lon="-107.14886978">
<ele>1787.6</ele>
<time>2022-03-28T20:49:37Z</time>
<speed>0.7</speed>
</trkpt>
<trkpt lat="35.50589194" lon="-107.14888197">
<ele>1788.5</ele>
<time>2022-03-28T20:49:43Z</time>
<speed>1</speed>
</trkpt>
<trkpt lat="35.50592695" lon="-107.14889269">
<ele>1789</ele>
<time>2022-03-28T20:49:47Z</time>
<speed>0.8</speed>
</trkpt>
<trkpt lat="35.50596563" lon="-107.14891614">
<ele>1790.7</ele>
<time>2022-03-28T20:50:07Z</time>
<speed>0.8</speed>
</trkpt>
<trkpt lat="35.50600702" lon="-107.14893339">
<ele>1790.9</ele>
<time>2022-03-28T20:50:11Z</time>
<speed>1</speed>
</trkpt>
<trkpt lat="35.5060444" lon="-107.1489284">
<ele>1790.4</ele>
<time>2022-03-28T20:50:15Z</time>
<speed>0.8</speed>
</trkpt>
<trkpt lat="35.50607439" lon="-107.14895628">
<ele>1789.9</ele>
<time>2022-03-28T20:50:19Z</time>
<speed>0.8</speed>
</trkpt>
<trkpt lat="35.50609865" lon="-107.14899984">
<ele>1791.2</ele>
<time>2022-03-28T20:50:23Z</time>
<speed>1.1</speed>
</trkpt>
<trkpt lat="35.50613202" lon="-107.14903056">
<ele>1791.6</ele>
<time>2022-03-28T20:50:27Z</time>
<speed>1</speed>
</trkpt>
<trkpt lat="35.50616217" lon="-107.14905826">
<ele>1793.3</ele>
<time>2022-03-28T20:50:30Z</time>
<speed>1.5</speed>
</trkpt>
<trkpt lat="35.50618831" lon="-107.14908883">
<ele>1793.8</ele>
<time>2022-03-28T20:50:33Z</time>
<speed>1.4</speed>
</trkpt>
<trkpt lat="35.50619541" lon="-107.14914447">
<ele>1794.8</ele>
<time>2022-03-28T20:50:37Z</time>
<speed>1.4</speed>
</trkpt>
<trkpt lat="35.50618378" lon="-107.1491876">
<ele>1795.2</ele>
<time>2022-03-28T20:50:41Z</time>
<speed>1.4</speed>
</trkpt>
<trkpt lat="35.50616836" lon="-107.14923375">
<ele>1795.8</ele>
<time>2022-03-28T20:50:45Z</time>
<speed>1.3</speed>
</trkpt>
<trkpt lat="35.50614888" lon="-107.14928128">
<ele>1795</ele>
<time>2022-03-28T20:50:50Z</time>
<speed>1.2</speed>
</trkpt>
<trkpt lat="35.50613361" lon="-107.14933176">
<ele>1794.2</ele>
<time>2022-03-28T20:50:54Z</time>
<speed>1.1</speed>
</trkpt>
<trkpt lat="35.50612615" lon="-107.14937694">
<ele>1794.3</ele>
<time>2022-03-28T20:50:58Z</time>
<speed>1.1</speed>
</trkpt>
<trkpt lat="35.50612535" lon="-107.14942644">
<ele>1793.6</ele>
<time>2022-03-28T20:51:02Z</time>
<speed>1.1</speed>
</trkpt>
<trkpt lat="35.50612387" lon="-107.14948278">
<ele>1793.9</ele>
<time>2022-03-28T20:51:06Z</time>
<speed>1.2</speed>
</trkpt>
<trkpt lat="35.50612592" lon="-107.14953021">
<ele>1793.7</ele>
<time>2022-03-28T20:51:10Z</time>
<speed>1.1</speed>
</trkpt>
<trkpt lat="35.50612926" lon="-107.14957899">
<ele>1794.3</ele>
<time>2022-03-28T20:51:14Z</time>
<speed>1.1</speed>
</trkpt>
<trkpt lat="35.50614418" lon="-107.14962241">
<ele>1792.6</ele>
<time>2022-03-28T20:51:18Z</time>
<speed>1.5</speed>
</trkpt>
<trkpt lat="35.50615131" lon="-107.14967133">
<ele>1793.7</ele>
<time>2022-03-28T20:51:22Z</time>
<speed>1.2</speed>
</trkpt>
<trkpt lat="35.50615413" lon="-107.14972401">
<ele>1793.9</ele>
<time>2022-03-28T20:51:26Z</time>
<speed>1.1</speed>
</trkpt>
<trkpt lat="35.50615363" lon="-107.14976817">
<ele>1793.6</ele>
<time>2022-03-28T20:51:30Z</time>
<speed>1.1</speed>
</trkpt>
<trkpt lat="35.50616579" lon="-107.14982536">
<ele>1794.5</ele>
<time>2022-03-28T20:51:34Z</time>
<speed>1.4</speed>
</trkpt>
<trkpt lat="35.50618096" lon="-107.1498669">
<ele>1795.6</ele>
<time>2022-03-28T20:51:38Z</time>
<speed>1.1</speed>
</trkpt>
<trkpt lat="35.50619806" lon="-107.14988121">
<ele>1792.9</ele>
<time>2022-03-28T20:52:39Z</time>
<speed>0</speed>
</trkpt>
	</trkseg>
	<trkseg>
			<trkpt lat="35.50619319" lon="-107.14994997">
				<ele>1792.9</ele>
				<time>2022-03-28T16:43:03Z</time>
			</trkpt>
			<trkpt lat="35.50619622" lon="-107.14990484">
				<ele>1795.6</ele>
				<time>2022-03-28T16:43:20Z</time>
			</trkpt>
			<trkpt lat="35.50616163" lon="-107.14989026">
				<ele>1794.9</ele>
				<time>2022-03-28T16:43:37Z</time>
			</trkpt>
			<trkpt lat="35.50612055" lon="-107.14989555">
				<ele>1793.9</ele>
				<time>2022-03-28T16:43:42Z</time>
			</trkpt>
			<trkpt lat="35.50608621" lon="-107.14991611">
				<ele>1793.2</ele>
				<time>2022-03-28T16:43:46Z</time>
			</trkpt>
			<trkpt lat="35.50605632" lon="-107.14994702">
				<ele>1794.2</ele>
				<time>2022-03-28T16:44:06Z</time>
			</trkpt>
			<trkpt lat="35.5060505" lon="-107.14990283">
				<ele>1793.1</ele>
				<time>2022-03-28T16:44:24Z</time>
			</trkpt>
			<trkpt lat="35.50604254" lon="-107.14984928">
				<ele>1791.5</ele>
				<time>2022-03-28T16:44:29Z</time>
			</trkpt>
			<trkpt lat="35.50603104" lon="-107.14980559">
				<ele>1789.8</ele>
				<time>2022-03-28T16:44:33Z</time>
			</trkpt>
			<trkpt lat="35.50602353" lon="-107.14975809">
				<ele>1788.7</ele>
				<time>2022-03-28T16:44:37Z</time>
			</trkpt>
			<trkpt lat="35.50601636" lon="-107.14970677">
				<ele>1788.7</ele>
				<time>2022-03-28T16:44:41Z</time>
			</trkpt>
			<trkpt lat="35.50600872" lon="-107.14965401">
				<ele>1788.4</ele>
				<time>2022-03-28T16:44:45Z</time>
			</trkpt>
			<trkpt lat="35.50599685" lon="-107.14960784">
				<ele>1789.2</ele>
				<time>2022-03-28T16:44:49Z</time>
			</trkpt>
			<trkpt lat="35.505994" lon="-107.14955949">
				<ele>1789.5</ele>
				<time>2022-03-28T16:44:53Z</time>
			</trkpt>
			<trkpt lat="35.50599151" lon="-107.14951139">
				<ele>1788.4</ele>
				<time>2022-03-28T16:44:57Z</time>
			</trkpt>
			<trkpt lat="35.50598132" lon="-107.14946754">
				<ele>1788.9</ele>
				<time>2022-03-28T16:45:01Z</time>
			</trkpt>
			<trkpt lat="35.50597622" lon="-107.14941744">
				<ele>1789.5</ele>
				<time>2022-03-28T16:45:05Z</time>
			</trkpt>
			<trkpt lat="35.50596446" lon="-107.14937546">
				<ele>1789.9</ele>
				<time>2022-03-28T16:45:08Z</time>
			</trkpt>
			<trkpt lat="35.50595298" lon="-107.14933262">
				<ele>1789.9</ele>
				<time>2022-03-28T16:45:11Z</time>
			</trkpt>
			<trkpt lat="35.5059266" lon="-107.14929583">
				<ele>1789.6</ele>
				<time>2022-03-28T16:45:14Z</time>
			</trkpt>
			<trkpt lat="35.50590266" lon="-107.14924949">
				<ele>1789.8</ele>
				<time>2022-03-28T16:45:19Z</time>
			</trkpt>
			<trkpt lat="35.50589745" lon="-107.14919969">
				<ele>1790.4</ele>
				<time>2022-03-28T16:45:23Z</time>
			</trkpt>
			<trkpt lat="35.50589168" lon="-107.14914613">
				<ele>1790.2</ele>
				<time>2022-03-28T16:45:27Z</time>
			</trkpt>
			<trkpt lat="35.50587704" lon="-107.14909969">
				<ele>1789.7</ele>
				<time>2022-03-28T16:45:31Z</time>
			</trkpt>
			<trkpt lat="35.50588789" lon="-107.14905506">
				<ele>1789</ele>
				<time>2022-03-28T16:45:35Z</time>
			</trkpt>
			<trkpt lat="35.50590896" lon="-107.14901778">
				<ele>1790</ele>
				<time>2022-03-28T16:45:38Z</time>
			</trkpt>
			<trkpt lat="35.50589832" lon="-107.14897468">
				<ele>1790.9</ele>
				<time>2022-03-28T16:45:43Z</time>
			</trkpt>
			<trkpt lat="35.50591984" lon="-107.14893085">
				<ele>1790.5</ele>
				<time>2022-03-28T16:45:48Z</time>
			</trkpt>
			<trkpt lat="35.50590499" lon="-107.14889037">
				<ele>1788.5</ele>
				<time>2022-03-28T16:45:54Z</time>
			</trkpt>
			<trkpt lat="35.50586068" lon="-107.14887813">
				<ele>1787.9</ele>
				<time>2022-03-28T16:45:58Z</time>
			</trkpt>
			<trkpt lat="35.50582467" lon="-107.14886738">
				<ele>1787.6</ele>
				<time>2022-03-28T16:46:02Z</time>
			</trkpt>
			<trkpt lat="35.50577769" lon="-107.14885764">
				<ele>1787</ele>
				<time>2022-03-28T16:46:06Z</time>
			</trkpt>
			<trkpt lat="35.5057443" lon="-107.14887584">
				<ele>1786.1</ele>
				<time>2022-03-28T16:46:09Z</time>
			</trkpt>
			<trkpt lat="35.50571365" lon="-107.14891393">
				<ele>1786.2</ele>
				<time>2022-03-28T16:46:14Z</time>
			</trkpt>
			<trkpt lat="35.50569714" lon="-107.148872">
				<ele>1785.7</ele>
				<time>2022-03-28T16:46:33Z</time>
			</trkpt>
			<trkpt lat="35.50568229" lon="-107.14882786">
				<ele>1784.4</ele>
				<time>2022-03-28T16:46:38Z</time>
			</trkpt>
			<trkpt lat="35.5056405" lon="-107.14883268">
				<ele>1783.2</ele>
				<time>2022-03-28T16:46:44Z</time>
			</trkpt>
			<trkpt lat="35.50561245" lon="-107.14886176">
				<ele>1785.3</ele>
				<time>2022-03-28T16:47:07Z</time>
			</trkpt>
			<trkpt lat="35.50561685" lon="-107.14891472">
				<ele>1785.2</ele>
				<time>2022-03-28T16:47:22Z</time>
			</trkpt>
			<trkpt lat="35.50562868" lon="-107.14895826">
				<ele>1785</ele>
				<time>2022-03-28T16:47:26Z</time>
			</trkpt>
			<trkpt lat="35.50564222" lon="-107.14900125">
				<ele>1786.1</ele>
				<time>2022-03-28T16:47:30Z</time>
			</trkpt>
			<trkpt lat="35.50565729" lon="-107.14904289">
				<ele>1786.5</ele>
				<time>2022-03-28T16:47:34Z</time>
			</trkpt>
			<trkpt lat="35.50566326" lon="-107.14908641">
				<ele>1786.1</ele>
				<time>2022-03-28T16:47:38Z</time>
			</trkpt>
			<trkpt lat="35.5056719" lon="-107.14913451">
				<ele>1784.5</ele>
				<time>2022-03-28T16:47:42Z</time>
			</trkpt>
			<trkpt lat="35.50568151" lon="-107.14918651">
				<ele>1784.9</ele>
				<time>2022-03-28T16:47:47Z</time>
			</trkpt>
			<trkpt lat="35.50568471" lon="-107.14924218">
				<ele>1784.8</ele>
				<time>2022-03-28T16:47:52Z</time>
			</trkpt>
			<trkpt lat="35.505699" lon="-107.14928269">
				<ele>1785.2</ele>
				<time>2022-03-28T16:47:56Z</time>
			</trkpt>
			<trkpt lat="35.50571731" lon="-107.14932504">
				<ele>1784</ele>
				<time>2022-03-28T16:48:00Z</time>
			</trkpt>
			<trkpt lat="35.50573725" lon="-107.14936678">
				<ele>1784.8</ele>
				<time>2022-03-28T16:48:04Z</time>
			</trkpt>
			<trkpt lat="35.5057502" lon="-107.14941468">
				<ele>1785</ele>
				<time>2022-03-28T16:48:08Z</time>
			</trkpt>
			<trkpt lat="35.50576479" lon="-107.14946867">
				<ele>1783.8</ele>
				<time>2022-03-28T16:48:12Z</time>
			</trkpt>
			<trkpt lat="35.50577758" lon="-107.14951599">
				<ele>1783</ele>
				<time>2022-03-28T16:48:16Z</time>
			</trkpt>
			<trkpt lat="35.50580052" lon="-107.14955857">
				<ele>1782.4</ele>
				<time>2022-03-28T16:48:20Z</time>
			</trkpt>
			<trkpt lat="35.5058171" lon="-107.14960491">
				<ele>1782.3</ele>
				<time>2022-03-28T16:48:24Z</time>
			</trkpt>
			<trkpt lat="35.50583485" lon="-107.14964597">
				<ele>1781.6</ele>
				<time>2022-03-28T16:48:28Z</time>
			</trkpt>
			<trkpt lat="35.50584272" lon="-107.14969888">
				<ele>1780.4</ele>
				<time>2022-03-28T16:48:32Z</time>
			</trkpt>
			<trkpt lat="35.50585232" lon="-107.14974764">
				<ele>1780.7</ele>
				<time>2022-03-28T16:48:36Z</time>
			</trkpt>
			<trkpt lat="35.50586212" lon="-107.14979385">
				<ele>1781.8</ele>
				<time>2022-03-28T16:48:40Z</time>
			</trkpt>
			<trkpt lat="35.50586636" lon="-107.14983857">
				<ele>1783</ele>
				<time>2022-03-28T16:48:44Z</time>
			</trkpt>
			<trkpt lat="35.50587515" lon="-107.14988892">
				<ele>1784.5</ele>
				<time>2022-03-28T16:48:49Z</time>
			</trkpt>
			<trkpt lat="35.5058763" lon="-107.14993687">
				<ele>1785.1</ele>
				<time>2022-03-28T16:48:53Z</time>
			</trkpt>
			<trkpt lat="35.50588093" lon="-107.14998491">
				<ele>1786</ele>
				<time>2022-03-28T16:48:57Z</time>
			</trkpt>
			<trkpt lat="35.50588519" lon="-107.15003468">
				<ele>1786.4</ele>
				<time>2022-03-28T16:49:01Z</time>
			</trkpt>
			<trkpt lat="35.50589569" lon="-107.15008324">
				<ele>1786.8</ele>
				<time>2022-03-28T16:49:26Z</time>
			</trkpt>
			<trkpt lat="35.50589738" lon="-107.15013877">
				<ele>1786.4</ele>
				<time>2022-03-28T16:49:31Z</time>
			</trkpt>
			<trkpt lat="35.5058995" lon="-107.15018644">
				<ele>1785.7</ele>
				<time>2022-03-28T16:49:35Z</time>
			</trkpt>
			<trkpt lat="35.50590317" lon="-107.15023219">
				<ele>1785.5</ele>
				<time>2022-03-28T16:49:39Z</time>
			</trkpt>
			<trkpt lat="35.50590829" lon="-107.15027653">
				<ele>1785.6</ele>
				<time>2022-03-28T16:49:43Z</time>
			</trkpt>
			<trkpt lat="35.50590566" lon="-107.15032479">
				<ele>1786.6</ele>
				<time>2022-03-28T16:49:48Z</time>
			</trkpt>
			<trkpt lat="35.50590545" lon="-107.15037698">
				<ele>1786.1</ele>
				<time>2022-03-28T16:49:53Z</time>
			</trkpt>
			<trkpt lat="35.50590005" lon="-107.15042073">
				<ele>1786.3</ele>
				<time>2022-03-28T16:49:57Z</time>
			</trkpt>
			<trkpt lat="35.50589709" lon="-107.15046605">
				<ele>1787.1</ele>
				<time>2022-03-28T16:50:02Z</time>
			</trkpt>
			<trkpt lat="35.50588818" lon="-107.15051089">
				<ele>1787.8</ele>
				<time>2022-03-28T16:50:06Z</time>
			</trkpt>
			<trkpt lat="35.50589312" lon="-107.15056339">
				<ele>1788.1</ele>
				<time>2022-03-28T16:50:10Z</time>
			</trkpt>
			<trkpt lat="35.50589601" lon="-107.15061327">
				<ele>1788.9</ele>
				<time>2022-03-28T16:50:14Z</time>
			</trkpt>
			<trkpt lat="35.50589115" lon="-107.15066041">
				<ele>1788.9</ele>
				<time>2022-03-28T16:50:18Z</time>
			</trkpt>
			<trkpt lat="35.50587401" lon="-107.15070184">
				<ele>1789.4</ele>
				<time>2022-03-28T16:50:22Z</time>
			</trkpt>
			<trkpt lat="35.50587072" lon="-107.15075252">
				<ele>1789.2</ele>
				<time>2022-03-28T16:50:26Z</time>
			</trkpt>
			<trkpt lat="35.50585862" lon="-107.15079506">
				<ele>1789.3</ele>
				<time>2022-03-28T16:50:30Z</time>
			</trkpt>
			<trkpt lat="35.50585121" lon="-107.15083932">
				<ele>1788.9</ele>
				<time>2022-03-28T16:50:34Z</time>
			</trkpt>
			<trkpt lat="35.50584428" lon="-107.15088452">
				<ele>1790.1</ele>
				<time>2022-03-28T16:50:38Z</time>
			</trkpt>
			<trkpt lat="35.50583653" lon="-107.1509351">
				<ele>1790.2</ele>
				<time>2022-03-28T16:50:42Z</time>
			</trkpt>
			<trkpt lat="35.5058461" lon="-107.15098618">
				<ele>1790.5</ele>
				<time>2022-03-28T16:50:46Z</time>
			</trkpt>
			<trkpt lat="35.50585834" lon="-107.15103815">
				<ele>1791</ele>
				<time>2022-03-28T16:50:50Z</time>
			</trkpt>
			<trkpt lat="35.50586488" lon="-107.15108521">
				<ele>1791.3</ele>
				<time>2022-03-28T16:50:54Z</time>
			</trkpt>
			<trkpt lat="35.50585496" lon="-107.15113099">
				<ele>1791.4</ele>
				<time>2022-03-28T16:50:58Z</time>
			</trkpt>
			<trkpt lat="35.505857" lon="-107.15117917">
				<ele>1791.5</ele>
				<time>2022-03-28T16:51:02Z</time>
			</trkpt>
			<trkpt lat="35.50584435" lon="-107.15122888">
				<ele>1791.7</ele>
				<time>2022-03-28T16:51:07Z</time>
			</trkpt>
			<trkpt lat="35.50582939" lon="-107.15127481">
				<ele>1791.8</ele>
				<time>2022-03-28T16:51:11Z</time>
			</trkpt>
			<trkpt lat="35.50581321" lon="-107.15131498">
				<ele>1792.5</ele>
				<time>2022-03-28T16:51:16Z</time>
			</trkpt>
			<trkpt lat="35.50579246" lon="-107.1513575">
				<ele>1790.9</ele>
				<time>2022-03-28T16:51:22Z</time>
			</trkpt>
			<trkpt lat="35.50578764" lon="-107.15140128">
				<ele>1790.8</ele>
				<time>2022-03-28T16:51:39Z</time>
			</trkpt>
			<trkpt lat="35.50576016" lon="-107.15143714">
				<ele>1790.4</ele>
				<time>2022-03-28T16:51:45Z</time>
			</trkpt>
			<trkpt lat="35.50574649" lon="-107.15148111">
				<ele>1790.5</ele>
				<time>2022-03-28T16:51:49Z</time>
			</trkpt>
			<trkpt lat="35.50571972" lon="-107.15151755">
				<ele>1791.2</ele>
				<time>2022-03-28T16:51:53Z</time>
			</trkpt>
			<trkpt lat="35.50569494" lon="-107.15155631">
				<ele>1791.4</ele>
				<time>2022-03-28T16:51:57Z</time>
			</trkpt>
			<trkpt lat="35.5056696" lon="-107.15158971">
				<ele>1791.9</ele>
				<time>2022-03-28T16:52:01Z</time>
			</trkpt>
			<trkpt lat="35.50564257" lon="-107.15162728">
				<ele>1792</ele>
				<time>2022-03-28T16:52:05Z</time>
			</trkpt>
			<trkpt lat="35.5056168" lon="-107.15166743">
				<ele>1792.1</ele>
				<time>2022-03-28T16:52:09Z</time>
			</trkpt>
			<trkpt lat="35.50562153" lon="-107.1517169">
				<ele>1792.5</ele>
				<time>2022-03-28T16:52:13Z</time>
			</trkpt>
			<trkpt lat="35.50559786" lon="-107.15175732">
				<ele>1791.7</ele>
				<time>2022-03-28T16:52:17Z</time>
			</trkpt>
			<trkpt lat="35.50556947" lon="-107.15180044">
				<ele>1791.2</ele>
				<time>2022-03-28T16:52:21Z</time>
			</trkpt>
			<trkpt lat="35.50554356" lon="-107.15183241">
				<ele>1791.3</ele>
				<time>2022-03-28T16:52:25Z</time>
			</trkpt>
			<trkpt lat="35.50551974" lon="-107.15187786">
				<ele>1791.5</ele>
				<time>2022-03-28T16:52:30Z</time>
			</trkpt>
			<trkpt lat="35.50549113" lon="-107.1519128">
				<ele>1794.5</ele>
				<time>2022-03-28T16:52:34Z</time>
			</trkpt>
			<trkpt lat="35.50548015" lon="-107.1519577">
				<ele>1792.3</ele>
				<time>2022-03-28T16:52:47Z</time>
			</trkpt>
			<trkpt lat="35.50545582" lon="-107.15200035">
				<ele>1791.6</ele>
				<time>2022-03-28T16:52:51Z</time>
			</trkpt>
			<trkpt lat="35.50542816" lon="-107.15203574">
				<ele>1790.2</ele>
				<time>2022-03-28T16:52:55Z</time>
			</trkpt>
			<trkpt lat="35.50540757" lon="-107.15207661">
				<ele>1788.4</ele>
				<time>2022-03-28T16:52:59Z</time>
			</trkpt>
			<trkpt lat="35.50538173" lon="-107.1521218">
				<ele>1788.3</ele>
				<time>2022-03-28T16:53:03Z</time>
			</trkpt>
			<trkpt lat="35.50538085" lon="-107.15217621">
				<ele>1787.2</ele>
				<time>2022-03-28T16:53:22Z</time>
			</trkpt>
			<trkpt lat="35.50534745" lon="-107.15219766">
				<ele>1788.4</ele>
				<time>2022-03-28T16:53:25Z</time>
			</trkpt>
			<trkpt lat="35.50531341" lon="-107.15223522">
				<ele>1789.5</ele>
				<time>2022-03-28T16:53:29Z</time>
			</trkpt>
			<trkpt lat="35.50527919" lon="-107.15227036">
				<ele>1790.5</ele>
				<time>2022-03-28T16:53:33Z</time>
			</trkpt>
			<trkpt lat="35.50524943" lon="-107.15230781">
				<ele>1791.4</ele>
				<time>2022-03-28T16:53:37Z</time>
			</trkpt>
			<trkpt lat="35.50523378" lon="-107.15234902">
				<ele>1792</ele>
				<time>2022-03-28T16:53:41Z</time>
			</trkpt>
			<trkpt lat="35.50521226" lon="-107.15238751">
				<ele>1791.1</ele>
				<time>2022-03-28T16:53:49Z</time>
			</trkpt>
			<trkpt lat="35.50519717" lon="-107.15243145">
				<ele>1791.2</ele>
				<time>2022-03-28T16:53:53Z</time>
			</trkpt>
			<trkpt lat="35.50518936" lon="-107.15247898">
				<ele>1790.6</ele>
				<time>2022-03-28T16:53:57Z</time>
			</trkpt>
			<trkpt lat="35.50518887" lon="-107.15252446">
				<ele>1790.2</ele>
				<time>2022-03-28T16:54:01Z</time>
			</trkpt>
			<trkpt lat="35.50517752" lon="-107.15257422">
				<ele>1790.8</ele>
				<time>2022-03-28T16:54:05Z</time>
			</trkpt>
			<trkpt lat="35.50516154" lon="-107.15261852">
				<ele>1791.8</ele>
				<time>2022-03-28T16:54:09Z</time>
			</trkpt>
			<trkpt lat="35.50515284" lon="-107.15266986">
				<ele>1792</ele>
				<time>2022-03-28T16:54:13Z</time>
			</trkpt>
			<trkpt lat="35.50514251" lon="-107.15272361">
				<ele>1790.9</ele>
				<time>2022-03-28T16:54:17Z</time>
			</trkpt>
			<trkpt lat="35.50513238" lon="-107.15277827">
				<ele>1789.3</ele>
				<time>2022-03-28T16:54:21Z</time>
			</trkpt>
			<trkpt lat="35.505121" lon="-107.15283147">
				<ele>1789.6</ele>
				<time>2022-03-28T16:54:25Z</time>
			</trkpt>
			<trkpt lat="35.50511022" lon="-107.15288346">
				<ele>1790.3</ele>
				<time>2022-03-28T16:54:29Z</time>
			</trkpt>
			<trkpt lat="35.50509307" lon="-107.15292942">
				<ele>1790.2</ele>
				<time>2022-03-28T16:54:33Z</time>
			</trkpt>
			<trkpt lat="35.50509039" lon="-107.1529833">
				<ele>1789.2</ele>
				<time>2022-03-28T16:54:37Z</time>
			</trkpt>
			<trkpt lat="35.50507232" lon="-107.15303219">
				<ele>1787.6</ele>
				<time>2022-03-28T16:54:41Z</time>
			</trkpt>
			<trkpt lat="35.50505998" lon="-107.15308105">
				<ele>1788.6</ele>
				<time>2022-03-28T16:54:45Z</time>
			</trkpt>
			<trkpt lat="35.50505972" lon="-107.15313509">
				<ele>1788.9</ele>
				<time>2022-03-28T16:54:49Z</time>
			</trkpt>
			<trkpt lat="35.50504786" lon="-107.15317975">
				<ele>1788.9</ele>
				<time>2022-03-28T16:54:53Z</time>
			</trkpt>
			<trkpt lat="35.50504252" lon="-107.15323018">
				<ele>1789</ele>
				<time>2022-03-28T16:54:58Z</time>
			</trkpt>
			<trkpt lat="35.50502676" lon="-107.15327336">
				<ele>1788.7</ele>
				<time>2022-03-28T16:55:02Z</time>
			</trkpt>
			<trkpt lat="35.50501442" lon="-107.15332416">
				<ele>1788</ele>
				<time>2022-03-28T16:55:06Z</time>
			</trkpt>
			<trkpt lat="35.50500592" lon="-107.15337835">
				<ele>1787.4</ele>
				<time>2022-03-28T16:55:10Z</time>
			</trkpt>
			<trkpt lat="35.50500437" lon="-107.15343097">
				<ele>1787.2</ele>
				<time>2022-03-28T16:55:14Z</time>
			</trkpt>
			<trkpt lat="35.50500418" lon="-107.15348371">
				<ele>1788.4</ele>
				<time>2022-03-28T16:55:18Z</time>
			</trkpt>
			<trkpt lat="35.50499334" lon="-107.15353104">
				<ele>1789</ele>
				<time>2022-03-28T16:55:22Z</time>
			</trkpt>
			<trkpt lat="35.50500048" lon="-107.15358686">
				<ele>1789.2</ele>
				<time>2022-03-28T16:55:45Z</time>
			</trkpt>
			<trkpt lat="35.50500377" lon="-107.15363701">
				<ele>1789.4</ele>
				<time>2022-03-28T16:55:49Z</time>
			</trkpt>
			<trkpt lat="35.50499867" lon="-107.15368213">
				<ele>1789.1</ele>
				<time>2022-03-28T16:55:53Z</time>
			</trkpt>
			<trkpt lat="35.50499625" lon="-107.15373553">
				<ele>1788.3</ele>
				<time>2022-03-28T16:55:57Z</time>
			</trkpt>
			<trkpt lat="35.50498691" lon="-107.15378143">
				<ele>1789.5</ele>
				<time>2022-03-28T16:56:01Z</time>
			</trkpt>
			<trkpt lat="35.50498087" lon="-107.15383364">
				<ele>1789.4</ele>
				<time>2022-03-28T16:56:05Z</time>
			</trkpt>
			<trkpt lat="35.50497914" lon="-107.15388642">
				<ele>1789.4</ele>
				<time>2022-03-28T16:56:09Z</time>
			</trkpt>
			<trkpt lat="35.50497856" lon="-107.153942">
				<ele>1789.3</ele>
				<time>2022-03-28T16:56:13Z</time>
			</trkpt>
			<trkpt lat="35.50497425" lon="-107.15399346">
				<ele>1788.2</ele>
				<time>2022-03-28T16:56:17Z</time>
			</trkpt>
			<trkpt lat="35.50496847" lon="-107.15404625">
				<ele>1787.3</ele>
				<time>2022-03-28T16:56:21Z</time>
			</trkpt>
			<trkpt lat="35.50496806" lon="-107.15409859">
				<ele>1787.8</ele>
				<time>2022-03-28T16:56:25Z</time>
			</trkpt>
			<trkpt lat="35.50497271" lon="-107.15415061">
				<ele>1788.2</ele>
				<time>2022-03-28T16:56:29Z</time>
			</trkpt>
			<trkpt lat="35.50496561" lon="-107.15419698">
				<ele>1788.6</ele>
				<time>2022-03-28T16:56:33Z</time>
			</trkpt>
			<trkpt lat="35.50495393" lon="-107.15424479">
				<ele>1789</ele>
				<time>2022-03-28T16:56:37Z</time>
			</trkpt>
			<trkpt lat="35.5049346" lon="-107.15428684">
				<ele>1791.4</ele>
				<time>2022-03-28T16:56:43Z</time>
			</trkpt>
			<trkpt lat="35.50493014" lon="-107.15433575">
				<ele>1791</ele>
				<time>2022-03-28T16:56:47Z</time>
			</trkpt>
			<trkpt lat="35.50492445" lon="-107.15438357">
				<ele>1790.2</ele>
				<time>2022-03-28T16:56:51Z</time>
			</trkpt>
			<trkpt lat="35.50491792" lon="-107.15443807">
				<ele>1790.7</ele>
				<time>2022-03-28T16:56:55Z</time>
			</trkpt>
			<trkpt lat="35.50490868" lon="-107.15448208">
				<ele>1791.1</ele>
				<time>2022-03-28T16:56:58Z</time>
			</trkpt>
			<trkpt lat="35.50491259" lon="-107.15452845">
				<ele>1791.3</ele>
				<time>2022-03-28T16:57:05Z</time>
			</trkpt>
			<trkpt lat="35.50491793" lon="-107.15457478">
				<ele>1792.4</ele>
				<time>2022-03-28T16:57:09Z</time>
			</trkpt>
			<trkpt lat="35.50491493" lon="-107.15462065">
				<ele>1793.4</ele>
				<time>2022-03-28T16:57:14Z</time>
			</trkpt>
			<trkpt lat="35.50491988" lon="-107.15466776">
				<ele>1793.1</ele>
				<time>2022-03-28T16:57:23Z</time>
			</trkpt>
			<trkpt lat="35.50490321" lon="-107.15471948">
				<ele>1793.4</ele>
				<time>2022-03-28T16:57:28Z</time>
			</trkpt>
			<trkpt lat="35.50490252" lon="-107.15476519">
				<ele>1793.9</ele>
				<time>2022-03-28T16:57:32Z</time>
			</trkpt>
			<trkpt lat="35.50489249" lon="-107.15481421">
				<ele>1793.8</ele>
				<time>2022-03-28T16:57:36Z</time>
			</trkpt>
			<trkpt lat="35.50489166" lon="-107.15486603">
				<ele>1793.6</ele>
				<time>2022-03-28T16:57:40Z</time>
			</trkpt>
			<trkpt lat="35.50487964" lon="-107.15491513">
				<ele>1794.4</ele>
				<time>2022-03-28T16:57:44Z</time>
			</trkpt>
			<trkpt lat="35.50486494" lon="-107.15496386">
				<ele>1794.5</ele>
				<time>2022-03-28T16:57:48Z</time>
			</trkpt>
			<trkpt lat="35.50485475" lon="-107.15501041">
				<ele>1794.5</ele>
				<time>2022-03-28T16:57:52Z</time>
			</trkpt>
			<trkpt lat="35.50485668" lon="-107.15506049">
				<ele>1795.6</ele>
				<time>2022-03-28T16:57:56Z</time>
			</trkpt>
			<trkpt lat="35.50485863" lon="-107.15510871">
				<ele>1796</ele>
				<time>2022-03-28T16:58:00Z</time>
			</trkpt>
			<trkpt lat="35.50484973" lon="-107.15515797">
				<ele>1796</ele>
				<time>2022-03-28T16:58:04Z</time>
			</trkpt>
			<trkpt lat="35.50483899" lon="-107.15520375">
				<ele>1797.1</ele>
				<time>2022-03-28T16:58:15Z</time>
			</trkpt>
			<trkpt lat="35.5048275" lon="-107.1552529">
				<ele>1796.3</ele>
				<time>2022-03-28T16:58:19Z</time>
			</trkpt>
			<trkpt lat="35.50482329" lon="-107.15530464">
				<ele>1796.3</ele>
				<time>2022-03-28T16:58:23Z</time>
			</trkpt>
			<trkpt lat="35.5048201" lon="-107.15535884">
				<ele>1796.3</ele>
				<time>2022-03-28T16:58:27Z</time>
			</trkpt>
			<trkpt lat="35.5048145" lon="-107.15540951">
				<ele>1796.6</ele>
				<time>2022-03-28T16:58:31Z</time>
			</trkpt>
			<trkpt lat="35.50479789" lon="-107.15545827">
				<ele>1796.3</ele>
				<time>2022-03-28T16:58:35Z</time>
			</trkpt>
			<trkpt lat="35.50477699" lon="-107.15550481">
				<ele>1796.1</ele>
				<time>2022-03-28T16:58:39Z</time>
			</trkpt>
			<trkpt lat="35.50476731" lon="-107.1555541">
				<ele>1797.1</ele>
				<time>2022-03-28T16:58:43Z</time>
			</trkpt>
			<trkpt lat="35.50475951" lon="-107.15560896">
				<ele>1796.2</ele>
				<time>2022-03-28T16:58:47Z</time>
			</trkpt>
			<trkpt lat="35.50474938" lon="-107.15566236">
				<ele>1795</ele>
				<time>2022-03-28T16:58:51Z</time>
			</trkpt>
			<trkpt lat="35.50473688" lon="-107.15571681">
				<ele>1794.1</ele>
				<time>2022-03-28T16:58:55Z</time>
			</trkpt>
			<trkpt lat="35.50473346" lon="-107.15576931">
				<ele>1794.7</ele>
				<time>2022-03-28T16:59:05Z</time>
			</trkpt>
			<trkpt lat="35.50472153" lon="-107.15582219">
				<ele>1795.2</ele>
				<time>2022-03-28T16:59:10Z</time>
			</trkpt>
			<trkpt lat="35.50471507" lon="-107.15586642">
				<ele>1795.4</ele>
				<time>2022-03-28T16:59:14Z</time>
			</trkpt>
			<trkpt lat="35.50470461" lon="-107.15592025">
				<ele>1794.6</ele>
				<time>2022-03-28T16:59:18Z</time>
			</trkpt>
			<trkpt lat="35.50469681" lon="-107.15596877">
				<ele>1795.1</ele>
				<time>2022-03-28T16:59:22Z</time>
			</trkpt>
			<trkpt lat="35.50468915" lon="-107.15602465">
				<ele>1794.8</ele>
				<time>2022-03-28T16:59:26Z</time>
			</trkpt>
			<trkpt lat="35.50467781" lon="-107.15607386">
				<ele>1794.8</ele>
				<time>2022-03-28T16:59:30Z</time>
			</trkpt>
			<trkpt lat="35.5046512" lon="-107.15611658">
				<ele>1795.3</ele>
				<time>2022-03-28T16:59:34Z</time>
			</trkpt>
			<trkpt lat="35.50462574" lon="-107.15615948">
				<ele>1795.6</ele>
				<time>2022-03-28T16:59:38Z</time>
			</trkpt>
			<trkpt lat="35.50459269" lon="-107.15619038">
				<ele>1797.4</ele>
				<time>2022-03-28T16:59:42Z</time>
			</trkpt>
			<trkpt lat="35.50456068" lon="-107.15623189">
				<ele>1797.4</ele>
				<time>2022-03-28T16:59:47Z</time>
			</trkpt>
			<trkpt lat="35.50453205" lon="-107.15626776">
				<ele>1797.2</ele>
				<time>2022-03-28T16:59:51Z</time>
			</trkpt>
			<trkpt lat="35.5045069" lon="-107.15630297">
				<ele>1798.2</ele>
				<time>2022-03-28T16:59:55Z</time>
			</trkpt>
			<trkpt lat="35.50447488" lon="-107.15633822">
				<ele>1797.7</ele>
				<time>2022-03-28T17:00:00Z</time>
			</trkpt>
			<trkpt lat="35.50445078" lon="-107.15637294">
				<ele>1798</ele>
				<time>2022-03-28T17:00:05Z</time>
			</trkpt>
			<trkpt lat="35.50443522" lon="-107.15641893">
				<ele>1797.8</ele>
				<time>2022-03-28T17:00:29Z</time>
			</trkpt>
			<trkpt lat="35.50441797" lon="-107.15645932">
				<ele>1798.2</ele>
				<time>2022-03-28T17:00:33Z</time>
			</trkpt>
			<trkpt lat="35.50439732" lon="-107.1565043">
				<ele>1798.3</ele>
				<time>2022-03-28T17:00:44Z</time>
			</trkpt>
			<trkpt lat="35.50436763" lon="-107.15654075">
				<ele>1798.4</ele>
				<time>2022-03-28T17:00:48Z</time>
			</trkpt>
			<trkpt lat="35.50435122" lon="-107.15658601">
				<ele>1797.7</ele>
				<time>2022-03-28T17:00:52Z</time>
			</trkpt>
			<trkpt lat="35.50433715" lon="-107.15662696">
				<ele>1797.4</ele>
				<time>2022-03-28T17:00:55Z</time>
			</trkpt>
			<trkpt lat="35.50431147" lon="-107.15667319">
				<ele>1796.8</ele>
				<time>2022-03-28T17:00:59Z</time>
			</trkpt>
			<trkpt lat="35.50427861" lon="-107.15671053">
				<ele>1796.8</ele>
				<time>2022-03-28T17:01:03Z</time>
			</trkpt>
			<trkpt lat="35.50426369" lon="-107.15676399">
				<ele>1795.1</ele>
				<time>2022-03-28T17:01:07Z</time>
			</trkpt>
			<trkpt lat="35.50423613" lon="-107.15680514">
				<ele>1796.2</ele>
				<time>2022-03-28T17:01:11Z</time>
			</trkpt>
			<trkpt lat="35.50420493" lon="-107.15683398">
				<ele>1797.4</ele>
				<time>2022-03-28T17:01:15Z</time>
			</trkpt>
			<trkpt lat="35.50419008" lon="-107.15687981">
				<ele>1798.6</ele>
				<time>2022-03-28T17:01:19Z</time>
			</trkpt>
			<trkpt lat="35.50419036" lon="-107.15692957">
				<ele>1797.9</ele>
				<time>2022-03-28T17:01:22Z</time>
			</trkpt>
			<trkpt lat="35.50419108" lon="-107.15698389">
				<ele>1798</ele>
				<time>2022-03-28T17:01:26Z</time>
			</trkpt>
			<trkpt lat="35.5041741" lon="-107.15703516">
				<ele>1797.4</ele>
				<time>2022-03-28T17:01:30Z</time>
			</trkpt>
			<trkpt lat="35.50415388" lon="-107.1570809">
				<ele>1796.2</ele>
				<time>2022-03-28T17:01:34Z</time>
			</trkpt>
			<trkpt lat="35.50414069" lon="-107.15712938">
				<ele>1796.3</ele>
				<time>2022-03-28T17:01:38Z</time>
			</trkpt>
			<trkpt lat="35.50410331" lon="-107.15715695">
				<ele>1796.8</ele>
				<time>2022-03-28T17:01:42Z</time>
			</trkpt>
			<trkpt lat="35.5040796" lon="-107.15719554">
				<ele>1796.7</ele>
				<time>2022-03-28T17:01:46Z</time>
			</trkpt>
			<trkpt lat="35.504052" lon="-107.15723028">
				<ele>1797.9</ele>
				<time>2022-03-28T17:01:50Z</time>
			</trkpt>
			<trkpt lat="35.50402539" lon="-107.15727099">
				<ele>1797.6</ele>
				<time>2022-03-28T17:01:54Z</time>
			</trkpt>
			<trkpt lat="35.504006" lon="-107.15731495">
				<ele>1798.2</ele>
				<time>2022-03-28T17:01:58Z</time>
			</trkpt>
			<trkpt lat="35.50399739" lon="-107.1573587">
				<ele>1797.3</ele>
				<time>2022-03-28T17:02:01Z</time>
			</trkpt>
			<trkpt lat="35.50400397" lon="-107.15740344">
				<ele>1797.6</ele>
				<time>2022-03-28T17:02:04Z</time>
			</trkpt>
			<trkpt lat="35.50399706" lon="-107.15745668">
				<ele>1796.7</ele>
				<time>2022-03-28T17:02:08Z</time>
			</trkpt>
			<trkpt lat="35.50398319" lon="-107.15749942">
				<ele>1796.6</ele>
				<time>2022-03-28T17:02:12Z</time>
			</trkpt>
			<trkpt lat="35.50395028" lon="-107.15752352">
				<ele>1797.1</ele>
				<time>2022-03-28T17:02:16Z</time>
			</trkpt>
			<trkpt lat="35.5039379" lon="-107.15757223">
				<ele>1797.7</ele>
				<time>2022-03-28T17:02:20Z</time>
			</trkpt>
			<trkpt lat="35.50392767" lon="-107.15762585">
				<ele>1797.2</ele>
				<time>2022-03-28T17:02:24Z</time>
			</trkpt>
			<trkpt lat="35.50391434" lon="-107.15767572">
				<ele>1797.5</ele>
				<time>2022-03-28T17:02:28Z</time>
			</trkpt>
			<trkpt lat="35.50390519" lon="-107.15771915">
				<ele>1795.9</ele>
				<time>2022-03-28T17:02:31Z</time>
			</trkpt>
			<trkpt lat="35.50389285" lon="-107.15776646">
				<ele>1796.6</ele>
				<time>2022-03-28T17:02:35Z</time>
			</trkpt>
			<trkpt lat="35.50387118" lon="-107.15781062">
				<ele>1796.8</ele>
				<time>2022-03-28T17:02:39Z</time>
			</trkpt>
			<trkpt lat="35.5038531" lon="-107.15785606">
				<ele>1796.9</ele>
				<time>2022-03-28T17:02:43Z</time>
			</trkpt>
			<trkpt lat="35.50384254" lon="-107.1579086">
				<ele>1796.3</ele>
				<time>2022-03-28T17:02:50Z</time>
			</trkpt>
			<trkpt lat="35.50383756" lon="-107.15796356">
				<ele>1796.2</ele>
				<time>2022-03-28T17:02:55Z</time>
			</trkpt>
			<trkpt lat="35.50383842" lon="-107.15802154">
				<ele>1794.6</ele>
				<time>2022-03-28T17:02:59Z</time>
			</trkpt>
			<trkpt lat="35.50385025" lon="-107.15807588">
				<ele>1794.8</ele>
				<time>2022-03-28T17:03:03Z</time>
			</trkpt>
			<trkpt lat="35.50386006" lon="-107.1581216">
				<ele>1795.1</ele>
				<time>2022-03-28T17:03:07Z</time>
			</trkpt>
			<trkpt lat="35.50383749" lon="-107.15816992">
				<ele>1794.1</ele>
				<time>2022-03-28T17:03:12Z</time>
			</trkpt>
			<trkpt lat="35.50381726" lon="-107.15820729">
				<ele>1793.6</ele>
				<time>2022-03-28T17:03:16Z</time>
			</trkpt>
			<trkpt lat="35.5037852" lon="-107.1582478">
				<ele>1793.9</ele>
				<time>2022-03-28T17:03:20Z</time>
			</trkpt>
			<trkpt lat="35.50374958" lon="-107.15828005">
				<ele>1794.3</ele>
				<time>2022-03-28T17:03:24Z</time>
			</trkpt>
			<trkpt lat="35.50372316" lon="-107.15832106">
				<ele>1794.4</ele>
				<time>2022-03-28T17:03:28Z</time>
			</trkpt>
			<trkpt lat="35.50370742" lon="-107.15837063">
				<ele>1794.1</ele>
				<time>2022-03-28T17:03:33Z</time>
			</trkpt>
			<trkpt lat="35.50370841" lon="-107.15842529">
				<ele>1794.4</ele>
				<time>2022-03-28T17:03:49Z</time>
			</trkpt>
			<trkpt lat="35.50369528" lon="-107.15847144">
				<ele>1794.8</ele>
				<time>2022-03-28T17:03:53Z</time>
			</trkpt>
			<trkpt lat="35.50367093" lon="-107.15851262">
				<ele>1794.7</ele>
				<time>2022-03-28T17:03:57Z</time>
			</trkpt>
			<trkpt lat="35.50365262" lon="-107.15855579">
				<ele>1794.5</ele>
				<time>2022-03-28T17:04:01Z</time>
			</trkpt>
			<trkpt lat="35.50363822" lon="-107.15859914">
				<ele>1795.3</ele>
				<time>2022-03-28T17:04:05Z</time>
			</trkpt>
			<trkpt lat="35.50362422" lon="-107.15864748">
				<ele>1795.3</ele>
				<time>2022-03-28T17:04:09Z</time>
			</trkpt>
			<trkpt lat="35.50361083" lon="-107.15869448">
				<ele>1793.8</ele>
				<time>2022-03-28T17:04:13Z</time>
			</trkpt>
			<trkpt lat="35.50358991" lon="-107.15873322">
				<ele>1793.7</ele>
				<time>2022-03-28T17:04:27Z</time>
			</trkpt>
			<trkpt lat="35.50356311" lon="-107.15876537">
				<ele>1794.3</ele>
				<time>2022-03-28T17:04:31Z</time>
			</trkpt>
			<trkpt lat="35.50354038" lon="-107.15880665">
				<ele>1794.9</ele>
				<time>2022-03-28T17:04:35Z</time>
			</trkpt>
			<trkpt lat="35.50352877" lon="-107.15885488">
				<ele>1794.4</ele>
				<time>2022-03-28T17:04:39Z</time>
			</trkpt>
			<trkpt lat="35.5035202" lon="-107.15890033">
				<ele>1795.6</ele>
				<time>2022-03-28T17:04:43Z</time>
			</trkpt>
			<trkpt lat="35.50350987" lon="-107.15894338">
				<ele>1795.3</ele>
				<time>2022-03-28T17:04:47Z</time>
			</trkpt>
			<trkpt lat="35.50349973" lon="-107.15899418">
				<ele>1794</ele>
				<time>2022-03-28T17:04:51Z</time>
			</trkpt>
			<trkpt lat="35.503495" lon="-107.15904389">
				<ele>1794.5</ele>
				<time>2022-03-28T17:04:55Z</time>
			</trkpt>
			<trkpt lat="35.50348365" lon="-107.15909081">
				<ele>1795.9</ele>
				<time>2022-03-28T17:05:44Z</time>
			</trkpt>
			<trkpt lat="35.50348537" lon="-107.159136">
				<ele>1796.2</ele>
				<time>2022-03-28T17:05:49Z</time>
			</trkpt>
			<trkpt lat="35.50349263" lon="-107.15917981">
				<ele>1795.7</ele>
				<time>2022-03-28T17:05:53Z</time>
			</trkpt>
			<trkpt lat="35.50350282" lon="-107.15922525">
				<ele>1796.9</ele>
				<time>2022-03-28T17:07:11Z</time>
			</trkpt>
			<trkpt lat="35.5034962" lon="-107.1592733">
				<ele>1796.1</ele>
				<time>2022-03-28T17:07:17Z</time>
			</trkpt>
			<trkpt lat="35.5034807" lon="-107.15931977">
				<ele>1797.5</ele>
				<time>2022-03-28T17:07:23Z</time>
			</trkpt>
			<trkpt lat="35.50346192" lon="-107.15935978">
				<ele>1798.1</ele>
				<time>2022-03-28T17:07:28Z</time>
			</trkpt>
			<trkpt lat="35.5034408" lon="-107.15939855">
				<ele>1798.1</ele>
				<time>2022-03-28T17:07:33Z</time>
			</trkpt>
			<trkpt lat="35.50342883" lon="-107.15944143">
				<ele>1797.4</ele>
				<time>2022-03-28T17:07:37Z</time>
			</trkpt>
			<trkpt lat="35.50341648" lon="-107.15948428">
				<ele>1797.4</ele>
				<time>2022-03-28T17:07:42Z</time>
			</trkpt>
			<trkpt lat="35.50341138" lon="-107.15953015">
				<ele>1797.5</ele>
				<time>2022-03-28T17:07:47Z</time>
			</trkpt>
			<trkpt lat="35.50340705" lon="-107.15957674">
				<ele>1796.2</ele>
				<time>2022-03-28T17:07:51Z</time>
			</trkpt>
			<trkpt lat="35.50340809" lon="-107.15962363">
				<ele>1796.7</ele>
				<time>2022-03-28T17:07:55Z</time>
			</trkpt>
			<trkpt lat="35.50340447" lon="-107.15967684">
				<ele>1797</ele>
				<time>2022-03-28T17:08:00Z</time>
			</trkpt>
			<trkpt lat="35.50339014" lon="-107.15972679">
				<ele>1795.2</ele>
				<time>2022-03-28T17:08:05Z</time>
			</trkpt>
			<trkpt lat="35.50337148" lon="-107.15976516">
				<ele>1794</ele>
				<time>2022-03-28T17:08:09Z</time>
			</trkpt>
			<trkpt lat="35.5033579" lon="-107.159814">
				<ele>1794.2</ele>
				<time>2022-03-28T17:08:14Z</time>
			</trkpt>
			<trkpt lat="35.50333763" lon="-107.15985771">
				<ele>1794.1</ele>
				<time>2022-03-28T17:08:19Z</time>
			</trkpt>
			<trkpt lat="35.50331346" lon="-107.15989133">
				<ele>1794.2</ele>
				<time>2022-03-28T17:08:23Z</time>
			</trkpt>
			<trkpt lat="35.50329431" lon="-107.159929">
				<ele>1792.5</ele>
				<time>2022-03-28T17:08:27Z</time>
			</trkpt>
			<trkpt lat="35.50326935" lon="-107.1599698">
				<ele>1791.9</ele>
				<time>2022-03-28T17:08:32Z</time>
			</trkpt>
			<trkpt lat="35.50324865" lon="-107.16000963">
				<ele>1790.8</ele>
				<time>2022-03-28T17:08:36Z</time>
			</trkpt>
			<trkpt lat="35.50323191" lon="-107.16005064">
				<ele>1789.8</ele>
				<time>2022-03-28T17:08:40Z</time>
			</trkpt>
			<trkpt lat="35.5031945" lon="-107.16007412">
				<ele>1792.4</ele>
				<time>2022-03-28T17:08:45Z</time>
			</trkpt>
			<trkpt lat="35.50317195" lon="-107.16011034">
				<ele>1793.7</ele>
				<time>2022-03-28T17:08:51Z</time>
			</trkpt>
			<trkpt lat="35.50315334" lon="-107.16015439">
				<ele>1792.9</ele>
				<time>2022-03-28T17:08:56Z</time>
			</trkpt>
			<trkpt lat="35.50314366" lon="-107.16019999">
				<ele>1793</ele>
				<time>2022-03-28T17:09:00Z</time>
			</trkpt>
			<trkpt lat="35.50314664" lon="-107.16025557">
				<ele>1793.9</ele>
				<time>2022-03-28T17:09:04Z</time>
			</trkpt>
			<trkpt lat="35.50314931" lon="-107.16031001">
				<ele>1794</ele>
				<time>2022-03-28T17:09:08Z</time>
			</trkpt>
			<trkpt lat="35.50315476" lon="-107.16035742">
				<ele>1795.2</ele>
				<time>2022-03-28T17:09:12Z</time>
			</trkpt>
			<trkpt lat="35.50316393" lon="-107.16040849">
				<ele>1795.4</ele>
				<time>2022-03-28T17:09:16Z</time>
			</trkpt>
			<trkpt lat="35.50316721" lon="-107.16045279">
				<ele>1796.5</ele>
				<time>2022-03-28T17:09:20Z</time>
			</trkpt>
			<trkpt lat="35.50316716" lon="-107.16049864">
				<ele>1797</ele>
				<time>2022-03-28T17:09:24Z</time>
			</trkpt>
			<trkpt lat="35.50316714" lon="-107.16054535">
				<ele>1798.1</ele>
				<time>2022-03-28T17:09:36Z</time>
			</trkpt>
			<trkpt lat="35.50316346" lon="-107.1605969">
				<ele>1797.7</ele>
				<time>2022-03-28T17:09:40Z</time>
			</trkpt>
			<trkpt lat="35.50315865" lon="-107.16064711">
				<ele>1797.9</ele>
				<time>2022-03-28T17:09:44Z</time>
			</trkpt>
			<trkpt lat="35.50316174" lon="-107.16070014">
				<ele>1797.1</ele>
				<time>2022-03-28T17:09:48Z</time>
			</trkpt>
			<trkpt lat="35.50317191" lon="-107.16074714">
				<ele>1797.5</ele>
				<time>2022-03-28T17:09:52Z</time>
			</trkpt>
			<trkpt lat="35.50317864" lon="-107.16079453">
				<ele>1797.3</ele>
				<time>2022-03-28T17:09:56Z</time>
			</trkpt>
			<trkpt lat="35.50318366" lon="-107.16084296">
				<ele>1797.9</ele>
				<time>2022-03-28T17:10:00Z</time>
			</trkpt>
			<trkpt lat="35.50318553" lon="-107.16089189">
				<ele>1797.8</ele>
				<time>2022-03-28T17:10:04Z</time>
			</trkpt>
			<trkpt lat="35.50318305" lon="-107.16094288">
				<ele>1798.4</ele>
				<time>2022-03-28T17:10:08Z</time>
			</trkpt>
			<trkpt lat="35.50317138" lon="-107.16099741">
				<ele>1797.3</ele>
				<time>2022-03-28T17:10:12Z</time>
			</trkpt>
			<trkpt lat="35.50316923" lon="-107.16104151">
				<ele>1797.1</ele>
				<time>2022-03-28T17:10:15Z</time>
			</trkpt>
			<trkpt lat="35.50318164" lon="-107.16108968">
				<ele>1797</ele>
				<time>2022-03-28T17:10:21Z</time>
			</trkpt>
			<trkpt lat="35.50317866" lon="-107.16113448">
				<ele>1797.9</ele>
				<time>2022-03-28T17:10:25Z</time>
			</trkpt>
			<trkpt lat="35.50318373" lon="-107.16118604">
				<ele>1797.9</ele>
				<time>2022-03-28T17:10:30Z</time>
			</trkpt>
			<trkpt lat="35.50318145" lon="-107.16123072">
				<ele>1798.9</ele>
				<time>2022-03-28T17:10:36Z</time>
			</trkpt>
			<trkpt lat="35.50316543" lon="-107.16127458">
				<ele>1799.7</ele>
				<time>2022-03-28T17:10:40Z</time>
			</trkpt>
			<trkpt lat="35.50314688" lon="-107.16131873">
				<ele>1801.3</ele>
				<time>2022-03-28T17:10:44Z</time>
			</trkpt>
			<trkpt lat="35.50314349" lon="-107.16136577">
				<ele>1802</ele>
				<time>2022-03-28T17:10:48Z</time>
			</trkpt>
			<trkpt lat="35.50314621" lon="-107.16141796">
				<ele>1801.7</ele>
				<time>2022-03-28T17:10:52Z</time>
			</trkpt>
			<trkpt lat="35.50314895" lon="-107.16146769">
				<ele>1801.7</ele>
				<time>2022-03-28T17:10:57Z</time>
			</trkpt>
			<trkpt lat="35.503141" lon="-107.16151849">
				<ele>1801.7</ele>
				<time>2022-03-28T17:11:01Z</time>
			</trkpt>
			<trkpt lat="35.50313836" lon="-107.16156973">
				<ele>1802</ele>
				<time>2022-03-28T17:11:05Z</time>
			</trkpt>
			<trkpt lat="35.50314825" lon="-107.16162744">
				<ele>1801.1</ele>
				<time>2022-03-28T17:11:09Z</time>
			</trkpt>
			<trkpt lat="35.50314691" lon="-107.16168286">
				<ele>1801.6</ele>
				<time>2022-03-28T17:11:13Z</time>
			</trkpt>
			<trkpt lat="35.50314547" lon="-107.16173237">
				<ele>1801.5</ele>
				<time>2022-03-28T17:11:17Z</time>
			</trkpt>
			<trkpt lat="35.50312735" lon="-107.16177077">
				<ele>1801.9</ele>
				<time>2022-03-28T17:11:22Z</time>
			</trkpt>
			<trkpt lat="35.50310445" lon="-107.16181196">
				<ele>1803</ele>
				<time>2022-03-28T17:11:27Z</time>
			</trkpt>
			<trkpt lat="35.50308022" lon="-107.16184635">
				<ele>1803.7</ele>
				<time>2022-03-28T17:11:31Z</time>
			</trkpt>
			<trkpt lat="35.50306171" lon="-107.1618948">
				<ele>1803.8</ele>
				<time>2022-03-28T17:11:36Z</time>
			</trkpt>
			<trkpt lat="35.50305237" lon="-107.16194376">
				<ele>1803.9</ele>
				<time>2022-03-28T17:11:40Z</time>
			</trkpt>
			<trkpt lat="35.503059" lon="-107.16199379">
				<ele>1803.5</ele>
				<time>2022-03-28T17:11:44Z</time>
			</trkpt>
			<trkpt lat="35.50307247" lon="-107.16203477">
				<ele>1803</ele>
				<time>2022-03-28T17:11:48Z</time>
			</trkpt>
			<trkpt lat="35.50306075" lon="-107.16208084">
				<ele>1801.8</ele>
				<time>2022-03-28T17:11:52Z</time>
			</trkpt>
			<trkpt lat="35.50305021" lon="-107.16212611">
				<ele>1802.4</ele>
				<time>2022-03-28T17:11:56Z</time>
			</trkpt>
			<trkpt lat="35.50304667" lon="-107.1621709">
				<ele>1802</ele>
				<time>2022-03-28T17:12:00Z</time>
			</trkpt>
			<trkpt lat="35.50304181" lon="-107.16221676">
				<ele>1802.4</ele>
				<time>2022-03-28T17:12:04Z</time>
			</trkpt>
			<trkpt lat="35.50303501" lon="-107.16226527">
				<ele>1802</ele>
				<time>2022-03-28T17:12:08Z</time>
			</trkpt>
			<trkpt lat="35.50302268" lon="-107.16230689">
				<ele>1802.8</ele>
				<time>2022-03-28T17:12:12Z</time>
			</trkpt>
			<trkpt lat="35.50302683" lon="-107.16235881">
				<ele>1802.5</ele>
				<time>2022-03-28T17:12:16Z</time>
			</trkpt>
			<trkpt lat="35.50301692" lon="-107.16240621">
				<ele>1801.8</ele>
				<time>2022-03-28T17:12:20Z</time>
			</trkpt>
			<trkpt lat="35.50300964" lon="-107.16245459">
				<ele>1801.9</ele>
				<time>2022-03-28T17:12:24Z</time>
			</trkpt>
			<trkpt lat="35.50299967" lon="-107.16250157">
				<ele>1801.9</ele>
				<time>2022-03-28T17:12:28Z</time>
			</trkpt>
			<trkpt lat="35.50298478" lon="-107.16254588">
				<ele>1801.5</ele>
				<time>2022-03-28T17:12:32Z</time>
			</trkpt>
			<trkpt lat="35.50297803" lon="-107.16259843">
				<ele>1801.1</ele>
				<time>2022-03-28T17:12:36Z</time>
			</trkpt>
			<trkpt lat="35.50296976" lon="-107.16264973">
				<ele>1801.3</ele>
				<time>2022-03-28T17:12:40Z</time>
			</trkpt>
			<trkpt lat="35.50296211" lon="-107.16270146">
				<ele>1802.1</ele>
				<time>2022-03-28T17:12:44Z</time>
			</trkpt>
			<trkpt lat="35.50294352" lon="-107.16274373">
				<ele>1802.9</ele>
				<time>2022-03-28T17:12:48Z</time>
			</trkpt>
			<trkpt lat="35.50293024" lon="-107.16279453">
				<ele>1803.1</ele>
				<time>2022-03-28T17:12:52Z</time>
			</trkpt>
			<trkpt lat="35.50291505" lon="-107.16283811">
				<ele>1802.8</ele>
				<time>2022-03-28T17:12:56Z</time>
			</trkpt>
			<trkpt lat="35.50289792" lon="-107.16287808">
				<ele>1802.7</ele>
				<time>2022-03-28T17:13:00Z</time>
			</trkpt>
			<trkpt lat="35.5028866" lon="-107.16292362">
				<ele>1801.5</ele>
				<time>2022-03-28T17:13:04Z</time>
			</trkpt>
			<trkpt lat="35.50288199" lon="-107.16297245">
				<ele>1801</ele>
				<time>2022-03-28T17:13:08Z</time>
			</trkpt>
			<trkpt lat="35.50289897" lon="-107.16302032">
				<ele>1800.3</ele>
				<time>2022-03-28T17:13:12Z</time>
			</trkpt>
			<trkpt lat="35.50290912" lon="-107.16307144">
				<ele>1799.9</ele>
				<time>2022-03-28T17:13:16Z</time>
			</trkpt>
			<trkpt lat="35.50293123" lon="-107.16311182">
				<ele>1798.8</ele>
				<time>2022-03-28T17:13:27Z</time>
			</trkpt>
			<trkpt lat="35.50295132" lon="-107.16314904">
				<ele>1798.1</ele>
				<time>2022-03-28T17:13:31Z</time>
			</trkpt>
			<trkpt lat="35.50296643" lon="-107.16319508">
				<ele>1797.5</ele>
				<time>2022-03-28T17:13:35Z</time>
			</trkpt>
			<trkpt lat="35.50297807" lon="-107.16324401">
				<ele>1797.4</ele>
				<time>2022-03-28T17:13:40Z</time>
			</trkpt>
			<trkpt lat="35.50297789" lon="-107.16329004">
				<ele>1798.1</ele>
				<time>2022-03-28T17:13:46Z</time>
			</trkpt>
			<trkpt lat="35.50298949" lon="-107.16334112">
				<ele>1797.9</ele>
				<time>2022-03-28T17:13:52Z</time>
			</trkpt>
			<trkpt lat="35.50300791" lon="-107.16338361">
				<ele>1798.7</ele>
				<time>2022-03-28T17:13:57Z</time>
			</trkpt>
			<trkpt lat="35.50302976" lon="-107.16342886">
				<ele>1798.4</ele>
				<time>2022-03-28T17:14:12Z</time>
			</trkpt>
			<trkpt lat="35.50304259" lon="-107.16348279">
				<ele>1797.6</ele>
				<time>2022-03-28T17:14:16Z</time>
			</trkpt>
			<trkpt lat="35.50306052" lon="-107.1635287">
				<ele>1799</ele>
				<time>2022-03-28T17:14:20Z</time>
			</trkpt>
			<trkpt lat="35.50307396" lon="-107.16357122">
				<ele>1800</ele>
				<time>2022-03-28T17:14:24Z</time>
			</trkpt>
			<trkpt lat="35.50308486" lon="-107.16362255">
				<ele>1800.1</ele>
				<time>2022-03-28T17:14:28Z</time>
			</trkpt>
			<trkpt lat="35.50309755" lon="-107.16367348">
				<ele>1800.5</ele>
				<time>2022-03-28T17:14:32Z</time>
			</trkpt>
			<trkpt lat="35.50310675" lon="-107.16372579">
				<ele>1800.3</ele>
				<time>2022-03-28T17:14:36Z</time>
			</trkpt>
			<trkpt lat="35.50311821" lon="-107.16377641">
				<ele>1799.8</ele>
				<time>2022-03-28T17:14:40Z</time>
			</trkpt>
			<trkpt lat="35.50313449" lon="-107.16382173">
				<ele>1801.5</ele>
				<time>2022-03-28T17:14:44Z</time>
			</trkpt>
			<trkpt lat="35.50315488" lon="-107.16386906">
				<ele>1801.7</ele>
				<time>2022-03-28T17:14:48Z</time>
			</trkpt>
			<trkpt lat="35.50318207" lon="-107.16391239">
				<ele>1801.7</ele>
				<time>2022-03-28T17:14:52Z</time>
			</trkpt>
			<trkpt lat="35.50320183" lon="-107.16395168">
				<ele>1800.6</ele>
				<time>2022-03-28T17:14:55Z</time>
			</trkpt>
			<trkpt lat="35.50323157" lon="-107.1639942">
				<ele>1801</ele>
				<time>2022-03-28T17:14:59Z</time>
			</trkpt>
			<trkpt lat="35.5032505" lon="-107.16404165">
				<ele>1799.5</ele>
				<time>2022-03-28T17:15:03Z</time>
			</trkpt>
			<trkpt lat="35.5032697" lon="-107.16408781">
				<ele>1798.6</ele>
				<time>2022-03-28T17:15:07Z</time>
			</trkpt>
			<trkpt lat="35.50328068" lon="-107.16413365">
				<ele>1798.4</ele>
				<time>2022-03-28T17:15:11Z</time>
			</trkpt>
			<trkpt lat="35.50329661" lon="-107.16418063">
				<ele>1798.4</ele>
				<time>2022-03-28T17:15:15Z</time>
			</trkpt>
			<trkpt lat="35.50331813" lon="-107.16422504">
				<ele>1798.5</ele>
				<time>2022-03-28T17:15:19Z</time>
			</trkpt>
			<trkpt lat="35.50333523" lon="-107.16427043">
				<ele>1798.8</ele>
				<time>2022-03-28T17:15:23Z</time>
			</trkpt>
			<trkpt lat="35.50336446" lon="-107.16431523">
				<ele>1799.9</ele>
				<time>2022-03-28T17:15:27Z</time>
			</trkpt>
			<trkpt lat="35.5033938" lon="-107.16434634">
				<ele>1800</ele>
				<time>2022-03-28T17:15:31Z</time>
			</trkpt>
			<trkpt lat="35.5034116" lon="-107.16439537">
				<ele>1798.9</ele>
				<time>2022-03-28T17:15:35Z</time>
			</trkpt>
			<trkpt lat="35.50342798" lon="-107.16444733">
				<ele>1798.1</ele>
				<time>2022-03-28T17:15:39Z</time>
			</trkpt>
			<trkpt lat="35.50345527" lon="-107.16449038">
				<ele>1798.1</ele>
				<time>2022-03-28T17:15:43Z</time>
			</trkpt>
			<trkpt lat="35.50347486" lon="-107.16453184">
				<ele>1798.4</ele>
				<time>2022-03-28T17:15:47Z</time>
			</trkpt>
			<trkpt lat="35.50349299" lon="-107.16458027">
				<ele>1798.3</ele>
				<time>2022-03-28T17:15:51Z</time>
			</trkpt>
			<trkpt lat="35.50351983" lon="-107.16461441">
				<ele>1797.8</ele>
				<time>2022-03-28T17:15:55Z</time>
			</trkpt>
			<trkpt lat="35.5035368" lon="-107.16465454">
				<ele>1797.9</ele>
				<time>2022-03-28T17:15:59Z</time>
			</trkpt>
			<trkpt lat="35.50354471" lon="-107.16470332">
				<ele>1797.8</ele>
				<time>2022-03-28T17:16:03Z</time>
			</trkpt>
			<trkpt lat="35.50356496" lon="-107.16474873">
				<ele>1796.7</ele>
				<time>2022-03-28T17:16:07Z</time>
			</trkpt>
			<trkpt lat="35.50359199" lon="-107.16478709">
				<ele>1797.2</ele>
				<time>2022-03-28T17:16:11Z</time>
			</trkpt>
			<trkpt lat="35.50362648" lon="-107.16481283">
				<ele>1797.4</ele>
				<time>2022-03-28T17:16:15Z</time>
			</trkpt>
			<trkpt lat="35.50366539" lon="-107.16483968">
				<ele>1796.9</ele>
				<time>2022-03-28T17:16:19Z</time>
			</trkpt>
			<trkpt lat="35.50369408" lon="-107.16488159">
				<ele>1797</ele>
				<time>2022-03-28T17:16:23Z</time>
			</trkpt>
			<trkpt lat="35.50372938" lon="-107.16490742">
				<ele>1796.2</ele>
				<time>2022-03-28T17:16:27Z</time>
			</trkpt>
			<trkpt lat="35.50376087" lon="-107.16494568">
				<ele>1795.6</ele>
				<time>2022-03-28T17:16:31Z</time>
			</trkpt>
			<trkpt lat="35.50379381" lon="-107.16497696">
				<ele>1795.5</ele>
				<time>2022-03-28T17:16:35Z</time>
			</trkpt>
			<trkpt lat="35.503827" lon="-107.16501203">
				<ele>1795.2</ele>
				<time>2022-03-28T17:16:39Z</time>
			</trkpt>
			<trkpt lat="35.50384086" lon="-107.16505634">
				<ele>1795.1</ele>
				<time>2022-03-28T17:16:42Z</time>
			</trkpt>
			<trkpt lat="35.50386575" lon="-107.16510564">
				<ele>1795.6</ele>
				<time>2022-03-28T17:16:46Z</time>
			</trkpt>
			<trkpt lat="35.5038964" lon="-107.16514754">
				<ele>1796</ele>
				<time>2022-03-28T17:16:50Z</time>
			</trkpt>
			<trkpt lat="35.50392366" lon="-107.16518507">
				<ele>1796.6</ele>
				<time>2022-03-28T17:16:54Z</time>
			</trkpt>
			<trkpt lat="35.50395422" lon="-107.16521761">
				<ele>1797.1</ele>
				<time>2022-03-28T17:16:58Z</time>
			</trkpt>
			<trkpt lat="35.50397544" lon="-107.16526241">
				<ele>1796.5</ele>
				<time>2022-03-28T17:17:03Z</time>
			</trkpt>
			<trkpt lat="35.50399169" lon="-107.1653055">
				<ele>1795.7</ele>
				<time>2022-03-28T17:17:10Z</time>
			</trkpt>
			<trkpt lat="35.50401314" lon="-107.16534381">
				<ele>1795.9</ele>
				<time>2022-03-28T17:17:18Z</time>
			</trkpt>
			<trkpt lat="35.50404518" lon="-107.16537495">
				<ele>1795.8</ele>
				<time>2022-03-28T17:17:23Z</time>
			</trkpt>
			<trkpt lat="35.50407412" lon="-107.1654094">
				<ele>1797</ele>
				<time>2022-03-28T17:17:28Z</time>
			</trkpt>
			<trkpt lat="35.50408707" lon="-107.16545558">
				<ele>1797.7</ele>
				<time>2022-03-28T17:17:33Z</time>
			</trkpt>
			<trkpt lat="35.50410477" lon="-107.16550303">
				<ele>1798</ele>
				<time>2022-03-28T17:17:39Z</time>
			</trkpt>
			<trkpt lat="35.50410212" lon="-107.16554863">
				<ele>1798.3</ele>
				<time>2022-03-28T17:17:55Z</time>
			</trkpt>
			<trkpt lat="35.50411141" lon="-107.1655934">
				<ele>1798.9</ele>
				<time>2022-03-28T17:17:59Z</time>
			</trkpt>
			<trkpt lat="35.50414236" lon="-107.16562624">
				<ele>1798.8</ele>
				<time>2022-03-28T17:18:03Z</time>
			</trkpt>
			<trkpt lat="35.50416273" lon="-107.16567044">
				<ele>1800.5</ele>
				<time>2022-03-28T17:18:08Z</time>
			</trkpt>
			<trkpt lat="35.50417481" lon="-107.16571725">
				<ele>1799.8</ele>
				<time>2022-03-28T17:18:12Z</time>
			</trkpt>
			<trkpt lat="35.50417333" lon="-107.16576708">
				<ele>1800.3</ele>
				<time>2022-03-28T17:18:17Z</time>
			</trkpt>
			<trkpt lat="35.50416999" lon="-107.16582236">
				<ele>1802.1</ele>
				<time>2022-03-28T17:18:22Z</time>
			</trkpt>
			<trkpt lat="35.50416407" lon="-107.165867">
				<ele>1803.1</ele>
				<time>2022-03-28T17:18:26Z</time>
			</trkpt>
			<trkpt lat="35.50417105" lon="-107.16591462">
				<ele>1803.9</ele>
				<time>2022-03-28T17:18:30Z</time>
			</trkpt>
			<trkpt lat="35.50417569" lon="-107.16595927">
				<ele>1804.6</ele>
				<time>2022-03-28T17:18:34Z</time>
			</trkpt>
			<trkpt lat="35.50417233" lon="-107.16600702">
				<ele>1805.9</ele>
				<time>2022-03-28T17:18:38Z</time>
			</trkpt>
			<trkpt lat="35.50417595" lon="-107.16605865">
				<ele>1805.2</ele>
				<time>2022-03-28T17:18:42Z</time>
			</trkpt>
			<trkpt lat="35.50418441" lon="-107.16611166">
				<ele>1804.6</ele>
				<time>2022-03-28T17:18:46Z</time>
			</trkpt>
			<trkpt lat="35.50420224" lon="-107.16616425">
				<ele>1804.2</ele>
				<time>2022-03-28T17:18:50Z</time>
			</trkpt>
			<trkpt lat="35.50420936" lon="-107.16621524">
				<ele>1804.5</ele>
				<time>2022-03-28T17:18:54Z</time>
			</trkpt>
			<trkpt lat="35.50421687" lon="-107.16626992">
				<ele>1804.4</ele>
				<time>2022-03-28T17:18:58Z</time>
			</trkpt>
			<trkpt lat="35.50421931" lon="-107.16632514">
				<ele>1804.3</ele>
				<time>2022-03-28T17:19:02Z</time>
			</trkpt>
			<trkpt lat="35.50422172" lon="-107.16638033">
				<ele>1804.5</ele>
				<time>2022-03-28T17:19:06Z</time>
			</trkpt>
			<trkpt lat="35.50423251" lon="-107.16643308">
				<ele>1804.9</ele>
				<time>2022-03-28T17:19:10Z</time>
			</trkpt>
			<trkpt lat="35.50424643" lon="-107.16648275">
				<ele>1805.1</ele>
				<time>2022-03-28T17:19:14Z</time>
			</trkpt>
			<trkpt lat="35.50425961" lon="-107.16652882">
				<ele>1806.4</ele>
				<time>2022-03-28T17:19:18Z</time>
			</trkpt>
			<trkpt lat="35.50426789" lon="-107.16657839">
				<ele>1806.8</ele>
				<time>2022-03-28T17:19:22Z</time>
			</trkpt>
			<trkpt lat="35.50426979" lon="-107.16663211">
				<ele>1806</ele>
				<time>2022-03-28T17:20:31Z</time>
			</trkpt>
			<trkpt lat="35.50426903" lon="-107.16668168">
				<ele>1804.8</ele>
				<time>2022-03-28T17:21:26Z</time>
			</trkpt>
			<trkpt lat="35.50428558" lon="-107.16672223">
				<ele>1803.9</ele>
				<time>2022-03-28T17:21:30Z</time>
			</trkpt>
			<trkpt lat="35.50431212" lon="-107.16675263">
				<ele>1804.6</ele>
				<time>2022-03-28T17:21:33Z</time>
			</trkpt>
			<trkpt lat="35.50434499" lon="-107.16678138">
				<ele>1805</ele>
				<time>2022-03-28T17:21:37Z</time>
			</trkpt>
			<trkpt lat="35.50434121" lon="-107.16683769">
				<ele>1804.1</ele>
				<time>2022-03-28T17:21:42Z</time>
			</trkpt>
			<trkpt lat="35.50432842" lon="-107.16688885">
				<ele>1803.1</ele>
				<time>2022-03-28T17:21:46Z</time>
			</trkpt>
			<trkpt lat="35.50432223" lon="-107.1669328">
				<ele>1804.7</ele>
				<time>2022-03-28T17:22:03Z</time>
			</trkpt>
			<trkpt lat="35.50432081" lon="-107.16698415">
				<ele>1805</ele>
				<time>2022-03-28T17:22:10Z</time>
			</trkpt>
			<trkpt lat="35.50431006" lon="-107.16703218">
				<ele>1804.8</ele>
				<time>2022-03-28T17:22:14Z</time>
			</trkpt>
			<trkpt lat="35.50430461" lon="-107.16708699">
				<ele>1805</ele>
				<time>2022-03-28T17:22:18Z</time>
			</trkpt>
			<trkpt lat="35.50430242" lon="-107.16713792">
				<ele>1804.7</ele>
				<time>2022-03-28T17:22:22Z</time>
			</trkpt>
			<trkpt lat="35.50429919" lon="-107.16719432">
				<ele>1804.5</ele>
				<time>2022-03-28T17:22:26Z</time>
			</trkpt>
			<trkpt lat="35.50431253" lon="-107.16723705">
				<ele>1804.4</ele>
				<time>2022-03-28T17:22:30Z</time>
			</trkpt>
			<trkpt lat="35.50432678" lon="-107.16727995">
				<ele>1804.9</ele>
				<time>2022-03-28T17:22:34Z</time>
			</trkpt>
			<trkpt lat="35.5043195" lon="-107.16732373">
				<ele>1806.6</ele>
				<time>2022-03-28T17:22:38Z</time>
			</trkpt>
			<trkpt lat="35.50430946" lon="-107.16736825">
				<ele>1807.1</ele>
				<time>2022-03-28T17:22:42Z</time>
			</trkpt>
			<trkpt lat="35.50430431" lon="-107.16741486">
				<ele>1807</ele>
				<time>2022-03-28T17:22:46Z</time>
			</trkpt>
			<trkpt lat="35.50431236" lon="-107.16746461">
				<ele>1807.3</ele>
				<time>2022-03-28T17:22:51Z</time>
			</trkpt>
			<trkpt lat="35.50430519" lon="-107.16751501">
				<ele>1807</ele>
				<time>2022-03-28T17:22:55Z</time>
			</trkpt>
			<trkpt lat="35.50430096" lon="-107.16756681">
				<ele>1807</ele>
				<time>2022-03-28T17:22:59Z</time>
			</trkpt>
			<trkpt lat="35.50430624" lon="-107.16761267">
				<ele>1807.1</ele>
				<time>2022-03-28T17:23:03Z</time>
			</trkpt>
			<trkpt lat="35.50431021" lon="-107.16766064">
				<ele>1806.7</ele>
				<time>2022-03-28T17:23:07Z</time>
			</trkpt>
			<trkpt lat="35.50432249" lon="-107.16770739">
				<ele>1806.8</ele>
				<time>2022-03-28T17:23:12Z</time>
			</trkpt>
			<trkpt lat="35.50433159" lon="-107.16775769">
				<ele>1806.3</ele>
				<time>2022-03-28T17:23:16Z</time>
			</trkpt>
			<trkpt lat="35.50431465" lon="-107.16780534">
				<ele>1805.5</ele>
				<time>2022-03-28T17:23:20Z</time>
			</trkpt>
			<trkpt lat="35.50429841" lon="-107.16786076">
				<ele>1803.9</ele>
				<time>2022-03-28T17:23:31Z</time>
			</trkpt>
			<trkpt lat="35.50430026" lon="-107.16791315">
				<ele>1803.9</ele>
				<time>2022-03-28T17:23:34Z</time>
			</trkpt>
			<trkpt lat="35.50430283" lon="-107.16795761">
				<ele>1804.3</ele>
				<time>2022-03-28T17:23:37Z</time>
			</trkpt>
			<trkpt lat="35.50429842" lon="-107.16800545">
				<ele>1806.9</ele>
				<time>2022-03-28T17:23:40Z</time>
			</trkpt>
			<trkpt lat="35.50429952" lon="-107.16805276">
				<ele>1807.3</ele>
				<time>2022-03-28T17:23:43Z</time>
			</trkpt>
			<trkpt lat="35.50430231" lon="-107.16809763">
				<ele>1807.2</ele>
				<time>2022-03-28T17:23:46Z</time>
			</trkpt>
			<trkpt lat="35.50430581" lon="-107.16814282">
				<ele>1807.3</ele>
				<time>2022-03-28T17:23:50Z</time>
			</trkpt>
			<trkpt lat="35.50432485" lon="-107.16818631">
				<ele>1809.8</ele>
				<time>2022-03-28T17:25:09Z</time>
			</trkpt>
			<trkpt lat="35.50433333" lon="-107.16823242">
				<ele>1810</ele>
				<time>2022-03-28T17:25:13Z</time>
			</trkpt>
			<trkpt lat="35.50434756" lon="-107.16827655">
				<ele>1809.4</ele>
				<time>2022-03-28T17:26:03Z</time>
			</trkpt>
			<trkpt lat="35.50435775" lon="-107.16832939">
				<ele>1809.7</ele>
				<time>2022-03-28T17:26:08Z</time>
			</trkpt>
			<trkpt lat="35.50435881" lon="-107.16837694">
				<ele>1810</ele>
				<time>2022-03-28T17:26:12Z</time>
			</trkpt>
			<trkpt lat="35.5043558" lon="-107.16842626">
				<ele>1808.4</ele>
				<time>2022-03-28T17:26:16Z</time>
			</trkpt>
			<trkpt lat="35.50435238" lon="-107.16847732">
				<ele>1807.2</ele>
				<time>2022-03-28T17:26:20Z</time>
			</trkpt>
			<trkpt lat="35.50436618" lon="-107.16851881">
				<ele>1805.9</ele>
				<time>2022-03-28T17:26:23Z</time>
			</trkpt>
			<trkpt lat="35.50437534" lon="-107.16856585">
				<ele>1805.2</ele>
				<time>2022-03-28T17:26:26Z</time>
			</trkpt>
			<trkpt lat="35.50437283" lon="-107.16861822">
				<ele>1805.5</ele>
				<time>2022-03-28T17:26:30Z</time>
			</trkpt>
			<trkpt lat="35.50437385" lon="-107.16866978">
				<ele>1807.3</ele>
				<time>2022-03-28T17:26:35Z</time>
			</trkpt>
			<trkpt lat="35.50437698" lon="-107.16871848">
				<ele>1807.1</ele>
				<time>2022-03-28T17:26:39Z</time>
			</trkpt>
			<trkpt lat="35.50439172" lon="-107.16876568">
				<ele>1807.1</ele>
				<time>2022-03-28T17:26:43Z</time>
			</trkpt>
			<trkpt lat="35.50439511" lon="-107.16882058">
				<ele>1807.8</ele>
				<time>2022-03-28T17:26:47Z</time>
			</trkpt>
			<trkpt lat="35.50439568" lon="-107.16887336">
				<ele>1808.6</ele>
				<time>2022-03-28T17:26:51Z</time>
			</trkpt>
			<trkpt lat="35.50440074" lon="-107.16892419">
				<ele>1808.6</ele>
				<time>2022-03-28T17:26:55Z</time>
			</trkpt>
			<trkpt lat="35.50440531" lon="-107.16897544">
				<ele>1808.9</ele>
				<time>2022-03-28T17:26:59Z</time>
			</trkpt>
			<trkpt lat="35.50441774" lon="-107.16903244">
				<ele>1807.8</ele>
				<time>2022-03-28T17:27:03Z</time>
			</trkpt>
			<trkpt lat="35.50442638" lon="-107.16908363">
				<ele>1806.7</ele>
				<time>2022-03-28T17:27:07Z</time>
			</trkpt>
			<trkpt lat="35.50443325" lon="-107.16913191">
				<ele>1807.3</ele>
				<time>2022-03-28T17:27:11Z</time>
			</trkpt>
			<trkpt lat="35.50443218" lon="-107.1691805">
				<ele>1807.1</ele>
				<time>2022-03-28T17:27:15Z</time>
			</trkpt>
			<trkpt lat="35.50444077" lon="-107.16923318">
				<ele>1807.2</ele>
				<time>2022-03-28T17:27:19Z</time>
			</trkpt>
			<trkpt lat="35.5044453" lon="-107.16927982">
				<ele>1808.1</ele>
				<time>2022-03-28T17:27:23Z</time>
			</trkpt>
			<trkpt lat="35.50444617" lon="-107.16932407">
				<ele>1808.6</ele>
				<time>2022-03-28T17:27:27Z</time>
			</trkpt>
			<trkpt lat="35.50444738" lon="-107.16937604">
				<ele>1808.6</ele>
				<time>2022-03-28T17:27:39Z</time>
			</trkpt>
			<trkpt lat="35.50444231" lon="-107.1694265">
				<ele>1808.9</ele>
				<time>2022-03-28T17:27:43Z</time>
			</trkpt>
			<trkpt lat="35.5044279" lon="-107.16947981">
				<ele>1809.3</ele>
				<time>2022-03-28T17:27:47Z</time>
			</trkpt>
			<trkpt lat="35.50441255" lon="-107.16953006">
				<ele>1809.3</ele>
				<time>2022-03-28T17:27:51Z</time>
			</trkpt>
			<trkpt lat="35.50440474" lon="-107.16957965">
				<ele>1809.8</ele>
				<time>2022-03-28T17:27:55Z</time>
			</trkpt>
			<trkpt lat="35.5044" lon="-107.16962889">
				<ele>1810.7</ele>
				<time>2022-03-28T17:27:59Z</time>
			</trkpt>
			<trkpt lat="35.50438482" lon="-107.16966894">
				<ele>1810.7</ele>
				<time>2022-03-28T17:28:03Z</time>
			</trkpt>
			<trkpt lat="35.50437682" lon="-107.16971549">
				<ele>1810.7</ele>
				<time>2022-03-28T17:28:07Z</time>
			</trkpt>
			<trkpt lat="35.50436716" lon="-107.16976506">
				<ele>1810.8</ele>
				<time>2022-03-28T17:28:11Z</time>
			</trkpt>
			<trkpt lat="35.50434828" lon="-107.16981232">
				<ele>1810.4</ele>
				<time>2022-03-28T17:28:15Z</time>
			</trkpt>
			<trkpt lat="35.50433545" lon="-107.16986422">
				<ele>1811.3</ele>
				<time>2022-03-28T17:28:19Z</time>
			</trkpt>
			<trkpt lat="35.50431628" lon="-107.16991535">
				<ele>1810.4</ele>
				<time>2022-03-28T17:28:23Z</time>
			</trkpt>
			<trkpt lat="35.50429697" lon="-107.16996423">
				<ele>1810.9</ele>
				<time>2022-03-28T17:28:27Z</time>
			</trkpt>
			<trkpt lat="35.50427716" lon="-107.17001729">
				<ele>1810.7</ele>
				<time>2022-03-28T17:28:31Z</time>
			</trkpt>
			<trkpt lat="35.50425968" lon="-107.17006966">
				<ele>1810.4</ele>
				<time>2022-03-28T17:28:35Z</time>
			</trkpt>
			<trkpt lat="35.50424031" lon="-107.17011257">
				<ele>1811</ele>
				<time>2022-03-28T17:28:39Z</time>
			</trkpt>
			<trkpt lat="35.50422851" lon="-107.17016467">
				<ele>1810.3</ele>
				<time>2022-03-28T17:28:43Z</time>
			</trkpt>
			<trkpt lat="35.50422013" lon="-107.17021471">
				<ele>1810.1</ele>
				<time>2022-03-28T17:28:47Z</time>
			</trkpt>
			<trkpt lat="35.50421221" lon="-107.17026249">
				<ele>1810.3</ele>
				<time>2022-03-28T17:28:51Z</time>
			</trkpt>
			<trkpt lat="35.50420284" lon="-107.17031321">
				<ele>1810.4</ele>
				<time>2022-03-28T17:28:55Z</time>
			</trkpt>
			<trkpt lat="35.50418025" lon="-107.17035602">
				<ele>1810.1</ele>
				<time>2022-03-28T17:28:59Z</time>
			</trkpt>
			<trkpt lat="35.50416494" lon="-107.17039997">
				<ele>1810.8</ele>
				<time>2022-03-28T17:29:03Z</time>
			</trkpt>
			<trkpt lat="35.50414583" lon="-107.1704469">
				<ele>1811.8</ele>
				<time>2022-03-28T17:29:07Z</time>
			</trkpt>
			<trkpt lat="35.50411807" lon="-107.17048606">
				<ele>1812</ele>
				<time>2022-03-28T17:29:11Z</time>
			</trkpt>
			<trkpt lat="35.5040898" lon="-107.17052812">
				<ele>1811.3</ele>
				<time>2022-03-28T17:29:15Z</time>
			</trkpt>
			<trkpt lat="35.50406639" lon="-107.17057183">
				<ele>1810.8</ele>
				<time>2022-03-28T17:29:19Z</time>
			</trkpt>
			<trkpt lat="35.50403998" lon="-107.17061625">
				<ele>1810.8</ele>
				<time>2022-03-28T17:29:23Z</time>
			</trkpt>
			<trkpt lat="35.50401306" lon="-107.1706575">
				<ele>1810.4</ele>
				<time>2022-03-28T17:29:27Z</time>
			</trkpt>
			<trkpt lat="35.50398307" lon="-107.17069823">
				<ele>1810.2</ele>
				<time>2022-03-28T17:29:31Z</time>
			</trkpt>
			<trkpt lat="35.50393926" lon="-107.17070917">
				<ele>1810.5</ele>
				<time>2022-03-28T17:29:35Z</time>
			</trkpt>
			<trkpt lat="35.50390793" lon="-107.17073564">
				<ele>1811.7</ele>
				<time>2022-03-28T17:29:39Z</time>
			</trkpt>
			<trkpt lat="35.50386464" lon="-107.170749">
				<ele>1812.2</ele>
				<time>2022-03-28T17:29:44Z</time>
			</trkpt>
			<trkpt lat="35.50382456" lon="-107.17077312">
				<ele>1813.3</ele>
				<time>2022-03-28T17:29:51Z</time>
			</trkpt>
			<trkpt lat="35.50382091" lon="-107.17082169">
				<ele>1810.7</ele>
				<time>2022-03-28T17:32:27Z</time>
			</trkpt>
			<trkpt lat="35.50381339" lon="-107.17086832">
				<ele>1810.4</ele>
				<time>2022-03-28T17:32:32Z</time>
			</trkpt>
			<trkpt lat="35.50377895" lon="-107.17088403">
				<ele>1809.4</ele>
				<time>2022-03-28T17:32:35Z</time>
			</trkpt>
			<trkpt lat="35.50374556" lon="-107.17090372">
				<ele>1808.4</ele>
				<time>2022-03-28T17:32:43Z</time>
			</trkpt>
			<trkpt lat="35.5037173" lon="-107.17093207">
				<ele>1808.7</ele>
				<time>2022-03-28T17:32:46Z</time>
			</trkpt>
			<trkpt lat="35.50368225" lon="-107.17095542">
				<ele>1808.7</ele>
				<time>2022-03-28T17:32:50Z</time>
			</trkpt>
			<trkpt lat="35.50364598" lon="-107.17096363">
				<ele>1809</ele>
				<time>2022-03-28T17:32:54Z</time>
			</trkpt>
			<trkpt lat="35.50360845" lon="-107.17098328">
				<ele>1809</ele>
				<time>2022-03-28T17:32:59Z</time>
			</trkpt>
			<trkpt lat="35.50358549" lon="-107.17102427">
				<ele>1807.6</ele>
				<time>2022-03-28T17:33:04Z</time>
			</trkpt>
			<trkpt lat="35.50355088" lon="-107.17104938">
				<ele>1807.8</ele>
				<time>2022-03-28T17:33:08Z</time>
			</trkpt>
			<trkpt lat="35.50352069" lon="-107.17108929">
				<ele>1808.2</ele>
				<time>2022-03-28T17:33:12Z</time>
			</trkpt>
			<trkpt lat="35.50349642" lon="-107.17113132">
				<ele>1808</ele>
				<time>2022-03-28T17:33:17Z</time>
			</trkpt>
			<trkpt lat="35.50346879" lon="-107.1711599">
				<ele>1808.8</ele>
				<time>2022-03-28T17:33:21Z</time>
			</trkpt>
			<trkpt lat="35.50344584" lon="-107.17119912">
				<ele>1810.4</ele>
				<time>2022-03-28T17:33:25Z</time>
			</trkpt>
			<trkpt lat="35.50341303" lon="-107.17123492">
				<ele>1811.1</ele>
				<time>2022-03-28T17:33:43Z</time>
			</trkpt>
			<trkpt lat="35.50338391" lon="-107.17126197">
				<ele>1811.4</ele>
				<time>2022-03-28T17:33:47Z</time>
			</trkpt>
			<trkpt lat="35.50336636" lon="-107.17131183">
				<ele>1811.7</ele>
				<time>2022-03-28T17:33:57Z</time>
			</trkpt>
			<trkpt lat="35.50333715" lon="-107.17134451">
				<ele>1811.9</ele>
				<time>2022-03-28T17:34:01Z</time>
			</trkpt>
			<trkpt lat="35.5033033" lon="-107.17137448">
				<ele>1812.2</ele>
				<time>2022-03-28T17:34:05Z</time>
			</trkpt>
			<trkpt lat="35.50326148" lon="-107.17138999">
				<ele>1812.5</ele>
				<time>2022-03-28T17:34:09Z</time>
			</trkpt>
			<trkpt lat="35.50322266" lon="-107.17141072">
				<ele>1811.7</ele>
				<time>2022-03-28T17:34:12Z</time>
			</trkpt>
			<trkpt lat="35.50317747" lon="-107.17140807">
				<ele>1811.7</ele>
				<time>2022-03-28T17:34:17Z</time>
			</trkpt>
			<trkpt lat="35.5031398" lon="-107.17139386">
				<ele>1812.2</ele>
				<time>2022-03-28T17:34:21Z</time>
			</trkpt>
			<trkpt lat="35.50309811" lon="-107.17138446">
				<ele>1812.6</ele>
				<time>2022-03-28T17:34:25Z</time>
			</trkpt>
			<trkpt lat="35.50305796" lon="-107.17137209">
				<ele>1812.7</ele>
				<time>2022-03-28T17:34:29Z</time>
			</trkpt>
			<trkpt lat="35.50302127" lon="-107.17135309">
				<ele>1811.9</ele>
				<time>2022-03-28T17:34:33Z</time>
			</trkpt>
			<trkpt lat="35.50298698" lon="-107.17133533">
				<ele>1811.7</ele>
				<time>2022-03-28T17:34:36Z</time>
			</trkpt>
			<trkpt lat="35.50294625" lon="-107.17131333">
				<ele>1810.5</ele>
				<time>2022-03-28T17:34:40Z</time>
			</trkpt>
			<trkpt lat="35.50290353" lon="-107.17130496">
				<ele>1809</ele>
				<time>2022-03-28T17:34:44Z</time>
			</trkpt>
			<trkpt lat="35.50285916" lon="-107.17130465">
				<ele>1809</ele>
				<time>2022-03-28T17:34:49Z</time>
			</trkpt>
			<trkpt lat="35.50282327" lon="-107.1712892">
				<ele>1807.8</ele>
				<time>2022-03-28T17:34:53Z</time>
			</trkpt>
			<trkpt lat="35.50278446" lon="-107.17126094">
				<ele>1807.6</ele>
				<time>2022-03-28T17:34:58Z</time>
			</trkpt>
			<trkpt lat="35.50275018" lon="-107.17122768">
				<ele>1807.4</ele>
				<time>2022-03-28T17:35:02Z</time>
			</trkpt>
			<trkpt lat="35.50271955" lon="-107.17118695">
				<ele>1806.5</ele>
				<time>2022-03-28T17:35:07Z</time>
			</trkpt>
			<trkpt lat="35.50269996" lon="-107.1711493">
				<ele>1807.1</ele>
				<time>2022-03-28T17:35:11Z</time>
			</trkpt>
			<trkpt lat="35.50266333" lon="-107.17112896">
				<ele>1809.3</ele>
				<time>2022-03-28T17:35:16Z</time>
			</trkpt>
			<trkpt lat="35.50263291" lon="-107.17109483">
				<ele>1808.9</ele>
				<time>2022-03-28T17:35:21Z</time>
			</trkpt>
			<trkpt lat="35.50260369" lon="-107.17105887">
				<ele>1809.2</ele>
				<time>2022-03-28T17:35:26Z</time>
			</trkpt>
			<trkpt lat="35.5025758" lon="-107.17102114">
				<ele>1810.1</ele>
				<time>2022-03-28T17:35:34Z</time>
			</trkpt>
			<trkpt lat="35.50254789" lon="-107.17099314">
				<ele>1810.5</ele>
				<time>2022-03-28T17:35:40Z</time>
			</trkpt>
			<trkpt lat="35.50252241" lon="-107.17096086">
				<ele>1810</ele>
				<time>2022-03-28T17:35:54Z</time>
			</trkpt>
			<trkpt lat="35.50248822" lon="-107.17093282">
				<ele>1808.8</ele>
				<time>2022-03-28T17:36:54Z</time>
			</trkpt>
			<trkpt lat="35.50245847" lon="-107.17090437">
				<ele>1808</ele>
				<time>2022-03-28T17:37:06Z</time>
			</trkpt>
			<trkpt lat="35.50242655" lon="-107.17093007">
				<ele>1807.9</ele>
				<time>2022-03-28T17:37:34Z</time>
			</trkpt>
			<trkpt lat="35.50238876" lon="-107.17091189">
				<ele>1807.9</ele>
				<time>2022-03-28T17:37:39Z</time>
			</trkpt>
			<trkpt lat="35.50235335" lon="-107.17089564">
				<ele>1807.9</ele>
				<time>2022-03-28T17:37:43Z</time>
			</trkpt>
			<trkpt lat="35.50232656" lon="-107.17085706">
				<ele>1807</ele>
				<time>2022-03-28T17:37:49Z</time>
			</trkpt>
			<trkpt lat="35.50229724" lon="-107.17081922">
				<ele>1807.1</ele>
				<time>2022-03-28T17:38:09Z</time>
			</trkpt>
			<trkpt lat="35.50227136" lon="-107.17078371">
				<ele>1807.1</ele>
				<time>2022-03-28T17:38:30Z</time>
			</trkpt>
			<trkpt lat="35.5022417" lon="-107.17075416">
				<ele>1807.4</ele>
				<time>2022-03-28T17:38:40Z</time>
			</trkpt>
			<trkpt lat="35.50219769" lon="-107.17076057">
				<ele>1807.9</ele>
				<time>2022-03-28T17:38:45Z</time>
			</trkpt>
			<trkpt lat="35.50215541" lon="-107.17076045">
				<ele>1808.3</ele>
				<time>2022-03-28T17:38:49Z</time>
			</trkpt>
			<trkpt lat="35.50211781" lon="-107.17078631">
				<ele>1808.5</ele>
				<time>2022-03-28T17:38:53Z</time>
			</trkpt>
			<trkpt lat="35.50207759" lon="-107.17080092">
				<ele>1810.2</ele>
				<time>2022-03-28T17:38:57Z</time>
			</trkpt>
			<trkpt lat="35.50204502" lon="-107.17082761">
				<ele>1810.4</ele>
				<time>2022-03-28T17:39:02Z</time>
			</trkpt>
			<trkpt lat="35.50200712" lon="-107.17085232">
				<ele>1811.4</ele>
				<time>2022-03-28T17:39:06Z</time>
			</trkpt>
			<trkpt lat="35.50197037" lon="-107.17085858">
				<ele>1811</ele>
				<time>2022-03-28T17:39:10Z</time>
			</trkpt>
			<trkpt lat="35.5019299" lon="-107.17086879">
				<ele>1810.5</ele>
				<time>2022-03-28T17:39:15Z</time>
			</trkpt>
			<trkpt lat="35.50189799" lon="-107.17089789">
				<ele>1812</ele>
				<time>2022-03-28T17:39:49Z</time>
			</trkpt>
			<trkpt lat="35.50185489" lon="-107.17088858">
				<ele>1812.2</ele>
				<time>2022-03-28T17:39:53Z</time>
			</trkpt>
			<trkpt lat="35.50181839" lon="-107.17090497">
				<ele>1812.4</ele>
				<time>2022-03-28T17:40:08Z</time>
			</trkpt>
			<trkpt lat="35.50178268" lon="-107.17091634">
				<ele>1812.8</ele>
				<time>2022-03-28T17:40:12Z</time>
			</trkpt>
			<trkpt lat="35.50174474" lon="-107.17091646">
				<ele>1811.8</ele>
				<time>2022-03-28T17:40:16Z</time>
			</trkpt>
			<trkpt lat="35.50170673" lon="-107.17091043">
				<ele>1811.2</ele>
				<time>2022-03-28T17:40:21Z</time>
			</trkpt>
			<trkpt lat="35.5016654" lon="-107.17089905">
				<ele>1811.5</ele>
				<time>2022-03-28T17:40:26Z</time>
			</trkpt>
			<trkpt lat="35.50162689" lon="-107.17090023">
				<ele>1812.8</ele>
				<time>2022-03-28T17:40:30Z</time>
			</trkpt>
			<trkpt lat="35.50158509" lon="-107.17090537">
				<ele>1814.4</ele>
				<time>2022-03-28T17:40:35Z</time>
			</trkpt>
			<trkpt lat="35.50154028" lon="-107.17090996">
				<ele>1814.2</ele>
				<time>2022-03-28T17:40:40Z</time>
			</trkpt>
			<trkpt lat="35.50150361" lon="-107.17090115">
				<ele>1813.8</ele>
				<time>2022-03-28T17:40:44Z</time>
			</trkpt>
			<trkpt lat="35.50147606" lon="-107.17093992">
				<ele>1814.3</ele>
				<time>2022-03-28T17:40:50Z</time>
			</trkpt>
			<trkpt lat="35.50144446" lon="-107.17096865">
				<ele>1814.4</ele>
				<time>2022-03-28T17:40:54Z</time>
			</trkpt>
			<trkpt lat="35.50141101" lon="-107.17100516">
				<ele>1814.3</ele>
				<time>2022-03-28T17:40:58Z</time>
			</trkpt>
			<trkpt lat="35.50138334" lon="-107.17103849">
				<ele>1814.6</ele>
				<time>2022-03-28T17:41:03Z</time>
			</trkpt>
			<trkpt lat="35.50136783" lon="-107.17108883">
				<ele>1814.7</ele>
				<time>2022-03-28T17:41:08Z</time>
			</trkpt>
			<trkpt lat="35.50132708" lon="-107.1710858">
				<ele>1815.8</ele>
				<time>2022-03-28T17:41:14Z</time>
			</trkpt>
			<trkpt lat="35.50130507" lon="-107.17112564">
				<ele>1815.9</ele>
				<time>2022-03-28T17:41:18Z</time>
			</trkpt>
			<trkpt lat="35.501283" lon="-107.17116417">
				<ele>1816.3</ele>
				<time>2022-03-28T17:41:23Z</time>
			</trkpt>
			<trkpt lat="35.50126296" lon="-107.17120552">
				<ele>1815.1</ele>
				<time>2022-03-28T17:41:28Z</time>
			</trkpt>
			<trkpt lat="35.50123703" lon="-107.17123993">
				<ele>1815.7</ele>
				<time>2022-03-28T17:41:33Z</time>
			</trkpt>
			<trkpt lat="35.50121635" lon="-107.17128049">
				<ele>1815.2</ele>
				<time>2022-03-28T17:41:39Z</time>
			</trkpt>
			<trkpt lat="35.50119513" lon="-107.17131954">
				<ele>1814.4</ele>
				<time>2022-03-28T17:41:46Z</time>
			</trkpt>
			<trkpt lat="35.50117792" lon="-107.1713631">
				<ele>1814.3</ele>
				<time>2022-03-28T17:41:52Z</time>
			</trkpt>
			<trkpt lat="35.50117416" lon="-107.17140853">
				<ele>1812.7</ele>
				<time>2022-03-28T17:41:58Z</time>
			</trkpt>
			<trkpt lat="35.5011448" lon="-107.17144874">
				<ele>1812.7</ele>
				<time>2022-03-28T17:42:05Z</time>
			</trkpt>
			<trkpt lat="35.50111846" lon="-107.17148619">
				<ele>1812.9</ele>
				<time>2022-03-28T17:42:10Z</time>
			</trkpt>
			<trkpt lat="35.50109886" lon="-107.17152691">
				<ele>1812.7</ele>
				<time>2022-03-28T17:42:15Z</time>
			</trkpt>
			<trkpt lat="35.50107532" lon="-107.17156774">
				<ele>1812.4</ele>
				<time>2022-03-28T17:42:20Z</time>
			</trkpt>
			<trkpt lat="35.50104703" lon="-107.17160212">
				<ele>1813.5</ele>
				<time>2022-03-28T17:42:25Z</time>
			</trkpt>
			<trkpt lat="35.50101875" lon="-107.17163913">
				<ele>1812.9</ele>
				<time>2022-03-28T17:42:50Z</time>
			</trkpt>
			<trkpt lat="35.50099268" lon="-107.17167724">
				<ele>1814.6</ele>
				<time>2022-03-28T17:42:56Z</time>
			</trkpt>
			<trkpt lat="35.50097543" lon="-107.17172553">
				<ele>1814.9</ele>
				<time>2022-03-28T17:43:02Z</time>
			</trkpt>
			<trkpt lat="35.5009532" lon="-107.17176399">
				<ele>1814.9</ele>
				<time>2022-03-28T17:43:09Z</time>
			</trkpt>
			<trkpt lat="35.50093083" lon="-107.17179969">
				<ele>1814.4</ele>
				<time>2022-03-28T17:43:14Z</time>
			</trkpt>
			<trkpt lat="35.5009187" lon="-107.17184913">
				<ele>1814.2</ele>
				<time>2022-03-28T17:43:19Z</time>
			</trkpt>
			<trkpt lat="35.50087907" lon="-107.17186885">
				<ele>1813.1</ele>
				<time>2022-03-28T17:43:23Z</time>
			</trkpt>
			<trkpt lat="35.50084864" lon="-107.17190022">
				<ele>1813.1</ele>
				<time>2022-03-28T17:43:35Z</time>
			</trkpt>
			<trkpt lat="35.50083201" lon="-107.17194165">
				<ele>1814.5</ele>
				<time>2022-03-28T17:43:40Z</time>
			</trkpt>
			<trkpt lat="35.50080469" lon="-107.17197701">
				<ele>1813.9</ele>
				<time>2022-03-28T17:43:44Z</time>
			</trkpt>
			<trkpt lat="35.50078808" lon="-107.17201829">
				<ele>1813</ele>
				<time>2022-03-28T17:44:00Z</time>
			</trkpt>
			<trkpt lat="35.50076732" lon="-107.17205846">
				<ele>1812.6</ele>
				<time>2022-03-28T17:44:05Z</time>
			</trkpt>
			<trkpt lat="35.50075639" lon="-107.1721007">
				<ele>1812.5</ele>
				<time>2022-03-28T17:44:10Z</time>
			</trkpt>
			<trkpt lat="35.50073453" lon="-107.17213644">
				<ele>1814.1</ele>
				<time>2022-03-28T17:44:40Z</time>
			</trkpt>
			<trkpt lat="35.5007319" lon="-107.17218101">
				<ele>1813.8</ele>
				<time>2022-03-28T17:44:45Z</time>
			</trkpt>
			<trkpt lat="35.5007568" lon="-107.17221555">
				<ele>1815</ele>
				<time>2022-03-28T17:44:49Z</time>
			</trkpt>
			<trkpt lat="35.50078581" lon="-107.17224867">
				<ele>1816.7</ele>
				<time>2022-03-28T17:44:54Z</time>
			</trkpt>
			<trkpt lat="35.50080734" lon="-107.17228466">
				<ele>1816.4</ele>
				<time>2022-03-28T17:45:06Z</time>
			</trkpt>
			<trkpt lat="35.50081414" lon="-107.17233074">
				<ele>1817.4</ele>
				<time>2022-03-28T17:45:11Z</time>
			</trkpt>
			<trkpt lat="35.50080586" lon="-107.17237541">
				<ele>1818.1</ele>
				<time>2022-03-28T17:45:19Z</time>
			</trkpt>
			<trkpt lat="35.50078278" lon="-107.17241397">
				<ele>1819.1</ele>
				<time>2022-03-28T17:45:28Z</time>
			</trkpt>
			<trkpt lat="35.50080913" lon="-107.17245578">
				<ele>1820</ele>
				<time>2022-03-28T17:45:34Z</time>
			</trkpt>
			<trkpt lat="35.50084397" lon="-107.17248297">
				<ele>1820.2</ele>
				<time>2022-03-28T17:45:38Z</time>
			</trkpt>
			<trkpt lat="35.50087907" lon="-107.17250861">
				<ele>1820.8</ele>
				<time>2022-03-28T17:45:42Z</time>
			</trkpt>
			<trkpt lat="35.5009155" lon="-107.17251772">
				<ele>1820.5</ele>
				<time>2022-03-28T17:45:53Z</time>
			</trkpt>
			<trkpt lat="35.50095807" lon="-107.17251595">
				<ele>1819.7</ele>
				<time>2022-03-28T17:45:58Z</time>
			</trkpt>
			<trkpt lat="35.5009985" lon="-107.17252579">
				<ele>1819.9</ele>
				<time>2022-03-28T17:46:03Z</time>
			</trkpt>
			<trkpt lat="35.50103995" lon="-107.17250592">
				<ele>1819.5</ele>
				<time>2022-03-28T17:46:08Z</time>
			</trkpt>
			<trkpt lat="35.50107709" lon="-107.17248081">
				<ele>1819.8</ele>
				<time>2022-03-28T17:46:13Z</time>
			</trkpt>
			<trkpt lat="35.50111056" lon="-107.17246056">
				<ele>1819.5</ele>
				<time>2022-03-28T17:46:18Z</time>
			</trkpt>
			<trkpt lat="35.50111063" lon="-107.17251031">
				<ele>1819.1</ele>
				<time>2022-03-28T17:46:27Z</time>
			</trkpt>
			<trkpt lat="35.5011074" lon="-107.17255765">
				<ele>1820.6</ele>
				<time>2022-03-28T17:46:32Z</time>
			</trkpt>
			<trkpt lat="35.50109507" lon="-107.17259943">
				<ele>1820.9</ele>
				<time>2022-03-28T17:46:38Z</time>
			</trkpt>
			<trkpt lat="35.50110137" lon="-107.1726466">
				<ele>1825.2</ele>
				<time>2022-03-28T17:47:53Z</time>
			</trkpt>
			<trkpt lat="35.50108785" lon="-107.17269038">
				<ele>1823.6</ele>
				<time>2022-03-28T17:48:32Z</time>
			</trkpt>
			<trkpt lat="35.5010756" lon="-107.17273488">
				<ele>1824.1</ele>
				<time>2022-03-28T17:48:38Z</time>
			</trkpt>
			<trkpt lat="35.5010641" lon="-107.17277881">
				<ele>1824.1</ele>
				<time>2022-03-28T17:48:45Z</time>
			</trkpt>
			<trkpt lat="35.50105557" lon="-107.17282344">
				<ele>1823.5</ele>
				<time>2022-03-28T17:48:51Z</time>
			</trkpt>
			<trkpt lat="35.50104948" lon="-107.17287054">
				<ele>1823.2</ele>
				<time>2022-03-28T17:48:56Z</time>
			</trkpt>
			<trkpt lat="35.50103174" lon="-107.17290943">
				<ele>1822.2</ele>
				<time>2022-03-28T17:49:01Z</time>
			</trkpt>
			<trkpt lat="35.50103082" lon="-107.17285683">
				<ele>1821.5</ele>
				<time>2022-03-28T17:49:20Z</time>
			</trkpt>
			<trkpt lat="35.5010371" lon="-107.17280771">
				<ele>1821.4</ele>
				<time>2022-03-28T17:49:24Z</time>
			</trkpt>
			<trkpt lat="35.50102415" lon="-107.17276327">
				<ele>1821.1</ele>
				<time>2022-03-28T17:49:29Z</time>
			</trkpt>
			<trkpt lat="35.50099466" lon="-107.17273774">
				<ele>1819.8</ele>
				<time>2022-03-28T17:49:34Z</time>
			</trkpt>
			<trkpt lat="35.50096736" lon="-107.17277652">
				<ele>1818.4</ele>
				<time>2022-03-28T17:49:39Z</time>
			</trkpt>
			<trkpt lat="35.50093899" lon="-107.17282489">
				<ele>1818.6</ele>
				<time>2022-03-28T17:49:43Z</time>
			</trkpt>
			<trkpt lat="35.50091484" lon="-107.17286041">
				<ele>1818.7</ele>
				<time>2022-03-28T17:49:46Z</time>
			</trkpt>
			<trkpt lat="35.50089878" lon="-107.17290661">
				<ele>1818.7</ele>
				<time>2022-03-28T17:49:50Z</time>
			</trkpt>
			<trkpt lat="35.50089003" lon="-107.17295188">
				<ele>1819.1</ele>
				<time>2022-03-28T17:49:56Z</time>
			</trkpt>
			<trkpt lat="35.50088902" lon="-107.17300386">
				<ele>1818.6</ele>
				<time>2022-03-28T17:50:00Z</time>
			</trkpt>
			<trkpt lat="35.5008888" lon="-107.17305072">
				<ele>1818.5</ele>
				<time>2022-03-28T17:50:04Z</time>
			</trkpt>
			<trkpt lat="35.5008818" lon="-107.17309672">
				<ele>1818.2</ele>
				<time>2022-03-28T17:50:10Z</time>
			</trkpt>
			<trkpt lat="35.50088343" lon="-107.17314805">
				<ele>1817.7</ele>
				<time>2022-03-28T17:50:16Z</time>
			</trkpt>
			<trkpt lat="35.50089978" lon="-107.17319376">
				<ele>1817.6</ele>
				<time>2022-03-28T17:50:20Z</time>
			</trkpt>
			<trkpt lat="35.50086434" lon="-107.17320854">
				<ele>1818.1</ele>
				<time>2022-03-28T17:50:31Z</time>
			</trkpt>
			<trkpt lat="35.50084538" lon="-107.173247">
				<ele>1817.6</ele>
				<time>2022-03-28T17:50:38Z</time>
			</trkpt>
			<trkpt lat="35.50084264" lon="-107.17329432">
				<ele>1818.1</ele>
				<time>2022-03-28T17:50:42Z</time>
			</trkpt>
			<trkpt lat="35.50082558" lon="-107.17334113">
				<ele>1819.9</ele>
				<time>2022-03-28T17:50:48Z</time>
			</trkpt>
			<trkpt lat="35.50079757" lon="-107.17337055">
				<ele>1819.1</ele>
				<time>2022-03-28T17:50:52Z</time>
			</trkpt>
			<trkpt lat="35.50080023" lon="-107.17342473">
				<ele>1819.4</ele>
				<time>2022-03-28T17:50:56Z</time>
			</trkpt>
			<trkpt lat="35.50080776" lon="-107.17347529">
				<ele>1818.3</ele>
				<time>2022-03-28T17:51:00Z</time>
			</trkpt>
			<trkpt lat="35.50080124" lon="-107.17352243">
				<ele>1817.9</ele>
				<time>2022-03-28T17:51:04Z</time>
			</trkpt>
			<trkpt lat="35.50082011" lon="-107.17356322">
				<ele>1818</ele>
				<time>2022-03-28T17:51:08Z</time>
			</trkpt>
			<trkpt lat="35.50083471" lon="-107.17360422">
				<ele>1817.6</ele>
				<time>2022-03-28T17:51:13Z</time>
			</trkpt>
			<trkpt lat="35.5008448" lon="-107.17364754">
				<ele>1817.3</ele>
				<time>2022-03-28T17:51:17Z</time>
			</trkpt>
			<trkpt lat="35.50086325" lon="-107.17369217">
				<ele>1817.4</ele>
				<time>2022-03-28T17:51:21Z</time>
			</trkpt>
			<trkpt lat="35.50087544" lon="-107.17373475">
				<ele>1818.2</ele>
				<time>2022-03-28T17:51:24Z</time>
			</trkpt>
			<trkpt lat="35.50089915" lon="-107.1737728">
				<ele>1817.7</ele>
				<time>2022-03-28T17:51:27Z</time>
			</trkpt>
			<trkpt lat="35.50091818" lon="-107.17381895">
				<ele>1819.3</ele>
				<time>2022-03-28T17:51:31Z</time>
			</trkpt>
			<trkpt lat="35.50093745" lon="-107.17386469">
				<ele>1819.1</ele>
				<time>2022-03-28T17:51:35Z</time>
			</trkpt>
			<trkpt lat="35.500946" lon="-107.17390963">
				<ele>1819</ele>
				<time>2022-03-28T17:51:46Z</time>
			</trkpt>
			<trkpt lat="35.50094943" lon="-107.17395744">
				<ele>1820.7</ele>
				<time>2022-03-28T17:52:01Z</time>
			</trkpt>
			<trkpt lat="35.50094952" lon="-107.17401114">
				<ele>1820.6</ele>
				<time>2022-03-28T17:52:06Z</time>
			</trkpt>
			<trkpt lat="35.50096496" lon="-107.17405808">
				<ele>1819.2</ele>
				<time>2022-03-28T17:52:12Z</time>
			</trkpt>
			<trkpt lat="35.50094316" lon="-107.17409895">
				<ele>1819.8</ele>
				<time>2022-03-28T17:52:16Z</time>
			</trkpt>
			<trkpt lat="35.5009267" lon="-107.17414362">
				<ele>1819</ele>
				<time>2022-03-28T17:52:20Z</time>
			</trkpt>
			<trkpt lat="35.50090797" lon="-107.17419063">
				<ele>1820</ele>
				<time>2022-03-28T17:52:37Z</time>
			</trkpt>
			<trkpt lat="35.50087056" lon="-107.17422032">
				<ele>1820.5</ele>
				<time>2022-03-28T17:52:42Z</time>
			</trkpt>
			<trkpt lat="35.50083934" lon="-107.17425532">
				<ele>1821.5</ele>
				<time>2022-03-28T17:52:46Z</time>
			</trkpt>
			<trkpt lat="35.5008088" lon="-107.17428621">
				<ele>1821.2</ele>
				<time>2022-03-28T17:52:50Z</time>
			</trkpt>
			<trkpt lat="35.50077736" lon="-107.17432037">
				<ele>1821.5</ele>
				<time>2022-03-28T17:52:54Z</time>
			</trkpt>
			<trkpt lat="35.50075112" lon="-107.17436193">
				<ele>1820.7</ele>
				<time>2022-03-28T17:52:58Z</time>
			</trkpt>
			<trkpt lat="35.50072387" lon="-107.17439855">
				<ele>1820.6</ele>
				<time>2022-03-28T17:53:02Z</time>
			</trkpt>
			<trkpt lat="35.50069126" lon="-107.17443657">
				<ele>1821.8</ele>
				<time>2022-03-28T17:53:07Z</time>
			</trkpt>
			<trkpt lat="35.50065285" lon="-107.17446078">
				<ele>1822.2</ele>
				<time>2022-03-28T17:53:12Z</time>
			</trkpt>
			<trkpt lat="35.50063563" lon="-107.17450062">
				<ele>1821.6</ele>
				<time>2022-03-28T17:53:17Z</time>
			</trkpt>
			<trkpt lat="35.5006118" lon="-107.17453527">
				<ele>1819.4</ele>
				<time>2022-03-28T17:53:22Z</time>
			</trkpt>
			<trkpt lat="35.50058375" lon="-107.17457202">
				<ele>1821.7</ele>
				<time>2022-03-28T17:53:28Z</time>
			</trkpt>
			<trkpt lat="35.50054656" lon="-107.17457026">
				<ele>1823.1</ele>
				<time>2022-03-28T17:53:32Z</time>
			</trkpt>
			<trkpt lat="35.50050993" lon="-107.174565">
				<ele>1823.8</ele>
				<time>2022-03-28T17:53:38Z</time>
			</trkpt>
			<trkpt lat="35.50046648" lon="-107.17457706">
				<ele>1822.9</ele>
				<time>2022-03-28T17:53:48Z</time>
			</trkpt>
			<trkpt lat="35.50043038" lon="-107.17459232">
				<ele>1824</ele>
				<time>2022-03-28T17:53:51Z</time>
			</trkpt>
			<trkpt lat="35.50038317" lon="-107.17459789">
				<ele>1823.7</ele>
				<time>2022-03-28T17:53:55Z</time>
			</trkpt>
			<trkpt lat="35.50033937" lon="-107.17460854">
				<ele>1823.1</ele>
				<time>2022-03-28T17:53:59Z</time>
			</trkpt>
			<trkpt lat="35.50030262" lon="-107.17462937">
				<ele>1824.8</ele>
				<time>2022-03-28T17:54:02Z</time>
			</trkpt>
			<trkpt lat="35.50026297" lon="-107.17464938">
				<ele>1823.4</ele>
				<time>2022-03-28T17:54:15Z</time>
			</trkpt>
			<trkpt lat="35.50022648" lon="-107.17465024">
				<ele>1821.3</ele>
				<time>2022-03-28T17:54:19Z</time>
			</trkpt>
			<trkpt lat="35.50018377" lon="-107.17464759">
				<ele>1819.9</ele>
				<time>2022-03-28T17:54:24Z</time>
			</trkpt>
			<trkpt lat="35.50014379" lon="-107.17465375">
				<ele>1819.5</ele>
				<time>2022-03-28T17:54:28Z</time>
			</trkpt>
			<trkpt lat="35.50010109" lon="-107.17465584">
				<ele>1818.4</ele>
				<time>2022-03-28T17:54:32Z</time>
			</trkpt>
			<trkpt lat="35.50006399" lon="-107.17467408">
				<ele>1818.3</ele>
				<time>2022-03-28T17:54:36Z</time>
			</trkpt>
			<trkpt lat="35.50001956" lon="-107.17467979">
				<ele>1814.3</ele>
				<time>2022-03-28T17:54:41Z</time>
			</trkpt>
			<trkpt lat="35.49998387" lon="-107.17468796">
				<ele>1814.1</ele>
				<time>2022-03-28T17:54:45Z</time>
			</trkpt>
			<trkpt lat="35.49994761" lon="-107.17471269">
				<ele>1814</ele>
				<time>2022-03-28T17:54:49Z</time>
			</trkpt>
			<trkpt lat="35.4999168" lon="-107.17475074">
				<ele>1816.1</ele>
				<time>2022-03-28T17:54:53Z</time>
			</trkpt>
			<trkpt lat="35.4998899" lon="-107.17478522">
				<ele>1816.7</ele>
				<time>2022-03-28T17:54:57Z</time>
			</trkpt>
			<trkpt lat="35.49985787" lon="-107.17482218">
				<ele>1817.1</ele>
				<time>2022-03-28T17:55:01Z</time>
			</trkpt>
			<trkpt lat="35.49984255" lon="-107.17486772">
				<ele>1819.7</ele>
				<time>2022-03-28T17:55:17Z</time>
			</trkpt>
			<trkpt lat="35.49982753" lon="-107.17490789">
				<ele>1823.5</ele>
				<time>2022-03-28T17:55:20Z</time>
			</trkpt>
			<trkpt lat="35.49981836" lon="-107.17495762">
				<ele>1824.5</ele>
				<time>2022-03-28T17:55:23Z</time>
			</trkpt>
			<trkpt lat="35.49980852" lon="-107.1750089">
				<ele>1823.5</ele>
				<time>2022-03-28T17:55:27Z</time>
			</trkpt>
			<trkpt lat="35.49980287" lon="-107.1750547">
				<ele>1824.4</ele>
				<time>2022-03-28T17:55:31Z</time>
			</trkpt>
			<trkpt lat="35.4997898" lon="-107.17510245">
				<ele>1822.5</ele>
				<time>2022-03-28T17:55:38Z</time>
			</trkpt>
			<trkpt lat="35.49976676" lon="-107.17515138">
				<ele>1820.9</ele>
				<time>2022-03-28T17:55:43Z</time>
			</trkpt>
			<trkpt lat="35.4997399" lon="-107.17518952">
				<ele>1821.2</ele>
				<time>2022-03-28T17:55:47Z</time>
			</trkpt>
			<trkpt lat="35.49970494" lon="-107.1752131">
				<ele>1821.1</ele>
				<time>2022-03-28T17:55:51Z</time>
			</trkpt>
			<trkpt lat="35.49967882" lon="-107.17524872">
				<ele>1819.8</ele>
				<time>2022-03-28T17:55:55Z</time>
			</trkpt>
			<trkpt lat="35.49966174" lon="-107.17529421">
				<ele>1821.1</ele>
				<time>2022-03-28T17:55:59Z</time>
			</trkpt>
			<trkpt lat="35.49963974" lon="-107.17534351">
				<ele>1822.3</ele>
				<time>2022-03-28T17:56:03Z</time>
			</trkpt>
			<trkpt lat="35.49962378" lon="-107.1753871">
				<ele>1822</ele>
				<time>2022-03-28T17:56:08Z</time>
			</trkpt>
			<trkpt lat="35.49959846" lon="-107.17542087">
				<ele>1819.6</ele>
				<time>2022-03-28T17:56:14Z</time>
			</trkpt>
			<trkpt lat="35.49959699" lon="-107.17546749">
				<ele>1819.7</ele>
				<time>2022-03-28T17:56:40Z</time>
			</trkpt>
			<trkpt lat="35.49958689" lon="-107.17551566">
				<ele>1818.9</ele>
				<time>2022-03-28T17:56:44Z</time>
			</trkpt>
			<trkpt lat="35.49958798" lon="-107.17556278">
				<ele>1817.6</ele>
				<time>2022-03-28T17:56:48Z</time>
			</trkpt>
			<trkpt lat="35.49960384" lon="-107.17560984">
				<ele>1816.1</ele>
				<time>2022-03-28T17:56:52Z</time>
			</trkpt>
			<trkpt lat="35.49961458" lon="-107.17565749">
				<ele>1814.1</ele>
				<time>2022-03-28T17:56:56Z</time>
			</trkpt>
			<trkpt lat="35.49964602" lon="-107.1756957">
				<ele>1813.6</ele>
				<time>2022-03-28T17:57:00Z</time>
			</trkpt>
			<trkpt lat="35.49966698" lon="-107.1757328">
				<ele>1812</ele>
				<time>2022-03-28T17:57:04Z</time>
			</trkpt>
			<trkpt lat="35.49968365" lon="-107.17577301">
				<ele>1811.4</ele>
				<time>2022-03-28T17:57:08Z</time>
			</trkpt>
			<trkpt lat="35.49969978" lon="-107.17581647">
				<ele>1810.9</ele>
				<time>2022-03-28T17:57:11Z</time>
			</trkpt>
			<trkpt lat="35.49972853" lon="-107.17585584">
				<ele>1810.7</ele>
				<time>2022-03-28T17:57:15Z</time>
			</trkpt>
			<trkpt lat="35.49975883" lon="-107.17589743">
				<ele>1811.2</ele>
				<time>2022-03-28T17:57:19Z</time>
			</trkpt>
			<trkpt lat="35.49978088" lon="-107.17594669">
				<ele>1811.7</ele>
				<time>2022-03-28T17:57:23Z</time>
			</trkpt>
			<trkpt lat="35.49980869" lon="-107.17598547">
				<ele>1812.9</ele>
				<time>2022-03-28T17:57:27Z</time>
			</trkpt>
			<trkpt lat="35.49983787" lon="-107.17601937">
				<ele>1813.3</ele>
				<time>2022-03-28T17:57:31Z</time>
			</trkpt>
			<trkpt lat="35.4998649" lon="-107.17604958">
				<ele>1813.4</ele>
				<time>2022-03-28T17:57:35Z</time>
			</trkpt>
			<trkpt lat="35.49989079" lon="-107.17608414">
				<ele>1814.7</ele>
				<time>2022-03-28T17:57:39Z</time>
			</trkpt>
			<trkpt lat="35.49991809" lon="-107.1761183">
				<ele>1815.9</ele>
				<time>2022-03-28T17:57:43Z</time>
			</trkpt>
			<trkpt lat="35.49994428" lon="-107.17615474">
				<ele>1816</ele>
				<time>2022-03-28T17:57:47Z</time>
			</trkpt>
			<trkpt lat="35.49996923" lon="-107.17619565">
				<ele>1816.7</ele>
				<time>2022-03-28T17:57:51Z</time>
			</trkpt>
			<trkpt lat="35.5000053" lon="-107.1762131">
				<ele>1816.5</ele>
				<time>2022-03-28T17:57:55Z</time>
			</trkpt>
			<trkpt lat="35.50004443" lon="-107.17622952">
				<ele>1817.4</ele>
				<time>2022-03-28T17:57:59Z</time>
			</trkpt>
			<trkpt lat="35.50007703" lon="-107.17626195">
				<ele>1819</ele>
				<time>2022-03-28T17:58:03Z</time>
			</trkpt>
			<trkpt lat="35.50010602" lon="-107.17629471">
				<ele>1818.8</ele>
				<time>2022-03-28T17:58:07Z</time>
			</trkpt>
			<trkpt lat="35.50014561" lon="-107.17630145">
				<ele>1818</ele>
				<time>2022-03-28T17:58:12Z</time>
			</trkpt>
			<trkpt lat="35.50015612" lon="-107.17634803">
				<ele>1821.2</ele>
				<time>2022-03-28T17:58:53Z</time>
			</trkpt>
			<trkpt lat="35.50017872" lon="-107.17638907">
				<ele>1821.6</ele>
				<time>2022-03-28T17:58:57Z</time>
			</trkpt>
			<trkpt lat="35.50021005" lon="-107.17642085">
				<ele>1822.8</ele>
				<time>2022-03-28T17:59:01Z</time>
			</trkpt>
			<trkpt lat="35.50023968" lon="-107.17645432">
				<ele>1822.7</ele>
				<time>2022-03-28T17:59:05Z</time>
			</trkpt>
			<trkpt lat="35.50024716" lon="-107.17649802">
				<ele>1822.9</ele>
				<time>2022-03-28T17:59:22Z</time>
			</trkpt>
			<trkpt lat="35.50024565" lon="-107.17654561">
				<ele>1824</ele>
				<time>2022-03-28T17:59:32Z</time>
			</trkpt>
			<trkpt lat="35.50023462" lon="-107.17659014">
				<ele>1824.5</ele>
				<time>2022-03-28T17:59:36Z</time>
			</trkpt>
			<trkpt lat="35.500221" lon="-107.17663279">
				<ele>1823.1</ele>
				<time>2022-03-28T17:59:41Z</time>
			</trkpt>
			<trkpt lat="35.50020822" lon="-107.17668073">
				<ele>1824.1</ele>
				<time>2022-03-28T18:00:02Z</time>
			</trkpt>
			<trkpt lat="35.50017938" lon="-107.176722">
				<ele>1824.9</ele>
				<time>2022-03-28T18:00:07Z</time>
			</trkpt>
			<trkpt lat="35.50015993" lon="-107.17676968">
				<ele>1824.6</ele>
				<time>2022-03-28T18:00:11Z</time>
			</trkpt>
			<trkpt lat="35.50016208" lon="-107.17682146">
				<ele>1825.3</ele>
				<time>2022-03-28T18:00:15Z</time>
			</trkpt>
			<trkpt lat="35.50019955" lon="-107.17683929">
				<ele>1825.2</ele>
				<time>2022-03-28T18:00:21Z</time>
			</trkpt>
			<trkpt lat="35.50020653" lon="-107.1768948">
				<ele>1825</ele>
				<time>2022-03-28T18:00:39Z</time>
			</trkpt>
			<trkpt lat="35.50019042" lon="-107.17694611">
				<ele>1825.5</ele>
				<time>2022-03-28T18:00:44Z</time>
			</trkpt>
			<trkpt lat="35.50018207" lon="-107.17699663">
				<ele>1824.7</ele>
				<time>2022-03-28T18:00:48Z</time>
			</trkpt>
			<trkpt lat="35.50017128" lon="-107.17704826">
				<ele>1824.9</ele>
				<time>2022-03-28T18:00:52Z</time>
			</trkpt>
			<trkpt lat="35.50015574" lon="-107.17708969">
				<ele>1825.4</ele>
				<time>2022-03-28T18:00:56Z</time>
			</trkpt>
			<trkpt lat="35.50013777" lon="-107.17713275">
				<ele>1825.4</ele>
				<time>2022-03-28T18:01:01Z</time>
			</trkpt>
			<trkpt lat="35.50014351" lon="-107.17718125">
				<ele>1825.6</ele>
				<time>2022-03-28T18:01:05Z</time>
			</trkpt>
			<trkpt lat="35.50012731" lon="-107.17723108">
				<ele>1824.2</ele>
				<time>2022-03-28T18:01:10Z</time>
			</trkpt>
			<trkpt lat="35.5001153" lon="-107.17728535">
				<ele>1824.4</ele>
				<time>2022-03-28T18:01:18Z</time>
			</trkpt>
			<trkpt lat="35.50008073" lon="-107.17732425">
				<ele>1824.9</ele>
				<time>2022-03-28T18:01:23Z</time>
			</trkpt>
			<trkpt lat="35.50005912" lon="-107.17736766">
				<ele>1824.5</ele>
				<time>2022-03-28T18:01:27Z</time>
			</trkpt>
			<trkpt lat="35.50004959" lon="-107.17741172">
				<ele>1824.1</ele>
				<time>2022-03-28T18:01:31Z</time>
			</trkpt>
			<trkpt lat="35.50002215" lon="-107.17745107">
				<ele>1824.9</ele>
				<time>2022-03-28T18:01:36Z</time>
			</trkpt>
			<trkpt lat="35.49999785" lon="-107.17749336">
				<ele>1824.5</ele>
				<time>2022-03-28T18:01:40Z</time>
			</trkpt>
			<trkpt lat="35.49996823" lon="-107.17752537">
				<ele>1825</ele>
				<time>2022-03-28T18:01:44Z</time>
			</trkpt>
			<trkpt lat="35.49994381" lon="-107.17757025">
				<ele>1824.3</ele>
				<time>2022-03-28T18:01:49Z</time>
			</trkpt>
			<trkpt lat="35.49992253" lon="-107.1776172">
				<ele>1824.6</ele>
				<time>2022-03-28T18:01:53Z</time>
			</trkpt>
			<trkpt lat="35.49989943" lon="-107.17766715">
				<ele>1824.6</ele>
				<time>2022-03-28T18:01:57Z</time>
			</trkpt>
			<trkpt lat="35.49987026" lon="-107.1777075">
				<ele>1824.5</ele>
				<time>2022-03-28T18:02:01Z</time>
			</trkpt>
			<trkpt lat="35.499835" lon="-107.17774">
				<ele>1824.1</ele>
				<time>2022-03-28T18:02:06Z</time>
			</trkpt>
			<trkpt lat="35.49980988" lon="-107.17777357">
				<ele>1824.1</ele>
				<time>2022-03-28T18:02:10Z</time>
			</trkpt>
			<trkpt lat="35.49978325" lon="-107.17781519">
				<ele>1824.5</ele>
				<time>2022-03-28T18:02:15Z</time>
			</trkpt>
			<trkpt lat="35.49977254" lon="-107.17785875">
				<ele>1824.8</ele>
				<time>2022-03-28T18:02:23Z</time>
			</trkpt>
			<trkpt lat="35.49975895" lon="-107.17791067">
				<ele>1825.1</ele>
				<time>2022-03-28T18:02:28Z</time>
			</trkpt>
			<trkpt lat="35.49973682" lon="-107.17794744">
				<ele>1825.4</ele>
				<time>2022-03-28T18:02:39Z</time>
			</trkpt>
			<trkpt lat="35.49970626" lon="-107.17797384">
				<ele>1825.1</ele>
				<time>2022-03-28T18:02:45Z</time>
			</trkpt>
			<trkpt lat="35.49967106" lon="-107.17800007">
				<ele>1825.3</ele>
				<time>2022-03-28T18:02:51Z</time>
			</trkpt>
			<trkpt lat="35.49963272" lon="-107.17802214">
				<ele>1826.6</ele>
				<time>2022-03-28T18:02:57Z</time>
			</trkpt>
			<trkpt lat="35.49959238" lon="-107.17804279">
				<ele>1827.2</ele>
				<time>2022-03-28T18:03:03Z</time>
			</trkpt>
			<trkpt lat="35.49955667" lon="-107.17805906">
				<ele>1827.7</ele>
				<time>2022-03-28T18:03:08Z</time>
			</trkpt>
			<trkpt lat="35.49951712" lon="-107.17807033">
				<ele>1827.2</ele>
				<time>2022-03-28T18:03:14Z</time>
			</trkpt>
			<trkpt lat="35.49948725" lon="-107.17809985">
				<ele>1826.5</ele>
				<time>2022-03-28T18:03:30Z</time>
			</trkpt>
			<trkpt lat="35.49944638" lon="-107.17811319">
				<ele>1827.2</ele>
				<time>2022-03-28T18:03:35Z</time>
			</trkpt>
			<trkpt lat="35.49942103" lon="-107.17815065">
				<ele>1828.7</ele>
				<time>2022-03-28T18:03:41Z</time>
			</trkpt>
			<trkpt lat="35.49938432" lon="-107.17817395">
				<ele>1828.7</ele>
				<time>2022-03-28T18:03:46Z</time>
			</trkpt>
			<trkpt lat="35.49935251" lon="-107.17819589">
				<ele>1829</ele>
				<time>2022-03-28T18:03:50Z</time>
			</trkpt>
			<trkpt lat="35.49931707" lon="-107.17822726">
				<ele>1829.5</ele>
				<time>2022-03-28T18:03:55Z</time>
			</trkpt>
			<trkpt lat="35.49929112" lon="-107.17825817">
				<ele>1829.9</ele>
				<time>2022-03-28T18:04:06Z</time>
			</trkpt>
			<trkpt lat="35.49925893" lon="-107.1782785">
				<ele>1830.1</ele>
				<time>2022-03-28T18:04:11Z</time>
			</trkpt>
			<trkpt lat="35.49924179" lon="-107.17831904">
				<ele>1831</ele>
				<time>2022-03-28T18:04:16Z</time>
			</trkpt>
			<trkpt lat="35.49922735" lon="-107.17836705">
				<ele>1831.4</ele>
				<time>2022-03-28T18:04:21Z</time>
			</trkpt>
			<trkpt lat="35.49919594" lon="-107.17839521">
				<ele>1831.2</ele>
				<time>2022-03-28T18:04:49Z</time>
			</trkpt>
			<trkpt lat="35.49916225" lon="-107.17842322">
				<ele>1831.5</ele>
				<time>2022-03-28T18:04:57Z</time>
			</trkpt>
			<trkpt lat="35.49914851" lon="-107.17846914">
				<ele>1831.4</ele>
				<time>2022-03-28T18:05:02Z</time>
			</trkpt>
			<trkpt lat="35.49913904" lon="-107.178515">
				<ele>1831.9</ele>
				<time>2022-03-28T18:05:06Z</time>
			</trkpt>
			<trkpt lat="35.49910155" lon="-107.17852529">
				<ele>1831.9</ele>
				<time>2022-03-28T18:05:13Z</time>
			</trkpt>
			<trkpt lat="35.49906335" lon="-107.1785056">
				<ele>1830.9</ele>
				<time>2022-03-28T18:05:18Z</time>
			</trkpt>
			<trkpt lat="35.49902253" lon="-107.17851651">
				<ele>1830</ele>
				<time>2022-03-28T18:05:23Z</time>
			</trkpt>
			<trkpt lat="35.49898116" lon="-107.17853679">
				<ele>1829.2</ele>
				<time>2022-03-28T18:05:27Z</time>
			</trkpt>
			<trkpt lat="35.49893871" lon="-107.17855295">
				<ele>1828.9</ele>
				<time>2022-03-28T18:05:31Z</time>
			</trkpt>
			<trkpt lat="35.49890623" lon="-107.17857385">
				<ele>1828.9</ele>
				<time>2022-03-28T18:05:34Z</time>
			</trkpt>
			<trkpt lat="35.49888479" lon="-107.1786094">
				<ele>1829.5</ele>
				<time>2022-03-28T18:05:37Z</time>
			</trkpt>
			<trkpt lat="35.49886715" lon="-107.178658">
				<ele>1830.3</ele>
				<time>2022-03-28T18:05:41Z</time>
			</trkpt>
			<trkpt lat="35.49883709" lon="-107.17868411">
				<ele>1830.5</ele>
				<time>2022-03-28T18:05:57Z</time>
			</trkpt>
			<trkpt lat="35.49881104" lon="-107.17873243">
				<ele>1829.7</ele>
				<time>2022-03-28T18:06:01Z</time>
			</trkpt>
			<trkpt lat="35.49879066" lon="-107.17877868">
				<ele>1830</ele>
				<time>2022-03-28T18:06:05Z</time>
			</trkpt>
			<trkpt lat="35.49876822" lon="-107.17882109">
				<ele>1829.1</ele>
				<time>2022-03-28T18:06:17Z</time>
			</trkpt>
			<trkpt lat="35.49876043" lon="-107.17886559">
				<ele>1828.9</ele>
				<time>2022-03-28T18:06:21Z</time>
			</trkpt>
			<trkpt lat="35.4987608" lon="-107.17891102">
				<ele>1828.6</ele>
				<time>2022-03-28T18:06:25Z</time>
			</trkpt>
			<trkpt lat="35.49873677" lon="-107.17894698">
				<ele>1827.7</ele>
				<time>2022-03-28T18:06:29Z</time>
			</trkpt>
			<trkpt lat="35.49871189" lon="-107.1789991">
				<ele>1828.3</ele>
				<time>2022-03-28T18:06:33Z</time>
			</trkpt>
			<trkpt lat="35.49869571" lon="-107.1790414">
				<ele>1828.7</ele>
				<time>2022-03-28T18:06:36Z</time>
			</trkpt>
			<trkpt lat="35.49868634" lon="-107.17909367">
				<ele>1828.6</ele>
				<time>2022-03-28T18:06:40Z</time>
			</trkpt>
			<trkpt lat="35.49869429" lon="-107.17914139">
				<ele>1829.2</ele>
				<time>2022-03-28T18:06:44Z</time>
			</trkpt>
			<trkpt lat="35.49869793" lon="-107.17919245">
				<ele>1829.8</ele>
				<time>2022-03-28T18:06:48Z</time>
			</trkpt>
			<trkpt lat="35.49871245" lon="-107.17923831">
				<ele>1829</ele>
				<time>2022-03-28T18:06:51Z</time>
			</trkpt>
			<trkpt lat="35.49874088" lon="-107.17928302">
				<ele>1829.7</ele>
				<time>2022-03-28T18:06:55Z</time>
			</trkpt>
			<trkpt lat="35.49873678" lon="-107.1793375">
				<ele>1829.9</ele>
				<time>2022-03-28T18:06:59Z</time>
			</trkpt>
			<trkpt lat="35.49873311" lon="-107.17938735">
				<ele>1829.6</ele>
				<time>2022-03-28T18:07:03Z</time>
			</trkpt>
			<trkpt lat="35.49875232" lon="-107.17943167">
				<ele>1828.9</ele>
				<time>2022-03-28T18:07:08Z</time>
			</trkpt>
			<trkpt lat="35.49875255" lon="-107.17948522">
				<ele>1830.3</ele>
				<time>2022-03-28T18:07:12Z</time>
			</trkpt>
			<trkpt lat="35.49874966" lon="-107.17953478">
				<ele>1829.4</ele>
				<time>2022-03-28T18:07:16Z</time>
			</trkpt>
			<trkpt lat="35.49875267" lon="-107.17958885">
				<ele>1829.1</ele>
				<time>2022-03-28T18:07:21Z</time>
			</trkpt>
			<trkpt lat="35.49875536" lon="-107.17963291">
				<ele>1829.1</ele>
				<time>2022-03-28T18:07:25Z</time>
			</trkpt>
			<trkpt lat="35.49875511" lon="-107.1796777">
				<ele>1829.2</ele>
				<time>2022-03-28T18:07:30Z</time>
			</trkpt>
			<trkpt lat="35.49876667" lon="-107.17972166">
				<ele>1830.8</ele>
				<time>2022-03-28T18:07:54Z</time>
			</trkpt>
			<trkpt lat="35.49878593" lon="-107.17976324">
				<ele>1830.8</ele>
				<time>2022-03-28T18:08:20Z</time>
			</trkpt>
			<trkpt lat="35.49879012" lon="-107.1798093">
				<ele>1830.9</ele>
				<time>2022-03-28T18:08:25Z</time>
			</trkpt>
			<trkpt lat="35.49877483" lon="-107.17985055">
				<ele>1830.6</ele>
				<time>2022-03-28T18:08:30Z</time>
			</trkpt>
			<trkpt lat="35.49876862" lon="-107.17989441">
				<ele>1829.9</ele>
				<time>2022-03-28T18:08:42Z</time>
			</trkpt>
			<trkpt lat="35.49876485" lon="-107.17994614">
				<ele>1829.9</ele>
				<time>2022-03-28T18:08:47Z</time>
			</trkpt>
			<trkpt lat="35.49873677" lon="-107.17998659">
				<ele>1829.8</ele>
				<time>2022-03-28T18:08:52Z</time>
			</trkpt>
			<trkpt lat="35.49871136" lon="-107.1800243">
				<ele>1829.5</ele>
				<time>2022-03-28T18:08:56Z</time>
			</trkpt>
			<trkpt lat="35.49869" lon="-107.18006771">
				<ele>1829.2</ele>
				<time>2022-03-28T18:09:00Z</time>
			</trkpt>
			<trkpt lat="35.49868401" lon="-107.18011558">
				<ele>1829.3</ele>
				<time>2022-03-28T18:09:04Z</time>
			</trkpt>
			<trkpt lat="35.49867986" lon="-107.18016079">
				<ele>1829.1</ele>
				<time>2022-03-28T18:09:08Z</time>
			</trkpt>
			<trkpt lat="35.49865648" lon="-107.18020624">
				<ele>1829.5</ele>
				<time>2022-03-28T18:09:12Z</time>
			</trkpt>
			<trkpt lat="35.49864205" lon="-107.1802511">
				<ele>1828.9</ele>
				<time>2022-03-28T18:09:16Z</time>
			</trkpt>
			<trkpt lat="35.49860987" lon="-107.18029003">
				<ele>1828</ele>
				<time>2022-03-28T18:09:27Z</time>
			</trkpt>
			<trkpt lat="35.49857592" lon="-107.18032572">
				<ele>1827.8</ele>
				<time>2022-03-28T18:09:31Z</time>
			</trkpt>
			<trkpt lat="35.4985475" lon="-107.18036755">
				<ele>1828.7</ele>
				<time>2022-03-28T18:09:35Z</time>
			</trkpt>
			<trkpt lat="35.49852021" lon="-107.18040379">
				<ele>1829.7</ele>
				<time>2022-03-28T18:09:39Z</time>
			</trkpt>
			<trkpt lat="35.49848865" lon="-107.18044343">
				<ele>1829.4</ele>
				<time>2022-03-28T18:09:43Z</time>
			</trkpt>
			<trkpt lat="35.49846465" lon="-107.18048078">
				<ele>1830</ele>
				<time>2022-03-28T18:09:47Z</time>
			</trkpt>
			<trkpt lat="35.49844574" lon="-107.1805185">
				<ele>1829.9</ele>
				<time>2022-03-28T18:10:07Z</time>
			</trkpt>
			<trkpt lat="35.49841316" lon="-107.18055086">
				<ele>1830.6</ele>
				<time>2022-03-28T18:10:12Z</time>
			</trkpt>
			<trkpt lat="35.49838501" lon="-107.18058">
				<ele>1830.8</ele>
				<time>2022-03-28T18:10:17Z</time>
			</trkpt>
			<trkpt lat="35.49835594" lon="-107.18061735">
				<ele>1831.1</ele>
				<time>2022-03-28T18:10:29Z</time>
			</trkpt>
			<trkpt lat="35.49832809" lon="-107.18065045">
				<ele>1831.7</ele>
				<time>2022-03-28T18:10:34Z</time>
			</trkpt>
			<trkpt lat="35.49829671" lon="-107.18068098">
				<ele>1831.8</ele>
				<time>2022-03-28T18:10:38Z</time>
			</trkpt>
			<trkpt lat="35.49826682" lon="-107.18070737">
				<ele>1831.8</ele>
				<time>2022-03-28T18:10:43Z</time>
			</trkpt>
			<trkpt lat="35.49823163" lon="-107.1807318">
				<ele>1831.2</ele>
				<time>2022-03-28T18:10:53Z</time>
			</trkpt>
			<trkpt lat="35.49819409" lon="-107.18076084">
				<ele>1831.8</ele>
				<time>2022-03-28T18:10:58Z</time>
			</trkpt>
			<trkpt lat="35.49816565" lon="-107.18079619">
				<ele>1831.4</ele>
				<time>2022-03-28T18:11:02Z</time>
			</trkpt>
			<trkpt lat="35.498153" lon="-107.1808466">
				<ele>1831.2</ele>
				<time>2022-03-28T18:11:06Z</time>
			</trkpt>
			<trkpt lat="35.49813017" lon="-107.1808826">
				<ele>1832</ele>
				<time>2022-03-28T18:11:10Z</time>
			</trkpt>
			<trkpt lat="35.49810881" lon="-107.18093154">
				<ele>1833</ele>
				<time>2022-03-28T18:11:57Z</time>
			</trkpt>
			<trkpt lat="35.49808793" lon="-107.18097215">
				<ele>1833.2</ele>
				<time>2022-03-28T18:12:01Z</time>
			</trkpt>
			<trkpt lat="35.4980657" lon="-107.18101438">
				<ele>1832.3</ele>
				<time>2022-03-28T18:12:05Z</time>
			</trkpt>
			<trkpt lat="35.49804889" lon="-107.18105742">
				<ele>1832.2</ele>
				<time>2022-03-28T18:12:09Z</time>
			</trkpt>
			<trkpt lat="35.49802541" lon="-107.18109591">
				<ele>1832.5</ele>
				<time>2022-03-28T18:12:14Z</time>
			</trkpt>
			<trkpt lat="35.49799269" lon="-107.18113022">
				<ele>1832.5</ele>
				<time>2022-03-28T18:12:20Z</time>
			</trkpt>
			<trkpt lat="35.49796995" lon="-107.18116934">
				<ele>1832.4</ele>
				<time>2022-03-28T18:12:25Z</time>
			</trkpt>
			<trkpt lat="35.49793695" lon="-107.18119278">
				<ele>1833</ele>
				<time>2022-03-28T18:12:30Z</time>
			</trkpt>
			<trkpt lat="35.49791119" lon="-107.18123051">
				<ele>1834</ele>
				<time>2022-03-28T18:12:34Z</time>
			</trkpt>
			<trkpt lat="35.49788934" lon="-107.18126583">
				<ele>1834.3</ele>
				<time>2022-03-28T18:12:38Z</time>
			</trkpt>
			<trkpt lat="35.49786881" lon="-107.18130392">
				<ele>1834.2</ele>
				<time>2022-03-28T18:12:42Z</time>
			</trkpt>
			<trkpt lat="35.49786206" lon="-107.18134822">
				<ele>1833.6</ele>
				<time>2022-03-28T18:12:45Z</time>
			</trkpt>
			<trkpt lat="35.49783782" lon="-107.18138137">
				<ele>1834</ele>
				<time>2022-03-28T18:12:49Z</time>
			</trkpt>
			<trkpt lat="35.49782435" lon="-107.1814244">
				<ele>1833.4</ele>
				<time>2022-03-28T18:12:53Z</time>
			</trkpt>
			<trkpt lat="35.49779834" lon="-107.1814636">
				<ele>1832.7</ele>
				<time>2022-03-28T18:12:57Z</time>
			</trkpt>
			<trkpt lat="35.49776819" lon="-107.18149258">
				<ele>1833.3</ele>
				<time>2022-03-28T18:13:01Z</time>
			</trkpt>
			<trkpt lat="35.49776192" lon="-107.18154214">
				<ele>1833.9</ele>
				<time>2022-03-28T18:13:07Z</time>
			</trkpt>
			<trkpt lat="35.49772589" lon="-107.18157559">
				<ele>1833.6</ele>
				<time>2022-03-28T18:13:12Z</time>
			</trkpt>
			<trkpt lat="35.4976997" lon="-107.18161502">
				<ele>1833.8</ele>
				<time>2022-03-28T18:13:16Z</time>
			</trkpt>
			<trkpt lat="35.49766781" lon="-107.18165646">
				<ele>1833.8</ele>
				<time>2022-03-28T18:13:20Z</time>
			</trkpt>
			<trkpt lat="35.49766169" lon="-107.18170833">
				<ele>1833.4</ele>
				<time>2022-03-28T18:13:24Z</time>
			</trkpt>
			<trkpt lat="35.49767924" lon="-107.18175795">
				<ele>1833.2</ele>
				<time>2022-03-28T18:13:26Z</time>
			</trkpt>
			<trkpt lat="35.49767256" lon="-107.18180306">
				<ele>1833.3</ele>
				<time>2022-03-28T18:13:37Z</time>
			</trkpt>
			<trkpt lat="35.49765528" lon="-107.18185471">
				<ele>1833</ele>
				<time>2022-03-28T18:13:41Z</time>
			</trkpt>
			<trkpt lat="35.49763429" lon="-107.18189467">
				<ele>1833.4</ele>
				<time>2022-03-28T18:13:45Z</time>
			</trkpt>
			<trkpt lat="35.49760122" lon="-107.18192818">
				<ele>1835.9</ele>
				<time>2022-03-28T18:13:53Z</time>
			</trkpt>
			<trkpt lat="35.49757514" lon="-107.18196795">
				<ele>1835.6</ele>
				<time>2022-03-28T18:13:57Z</time>
			</trkpt>
			<trkpt lat="35.49754363" lon="-107.18200044">
				<ele>1835.3</ele>
				<time>2022-03-28T18:14:01Z</time>
			</trkpt>
			<trkpt lat="35.49750654" lon="-107.18202701">
				<ele>1835.2</ele>
				<time>2022-03-28T18:14:05Z</time>
			</trkpt>
			<trkpt lat="35.49746468" lon="-107.18204151">
				<ele>1835.9</ele>
				<time>2022-03-28T18:14:09Z</time>
			</trkpt>
			<trkpt lat="35.49743701" lon="-107.18207299">
				<ele>1835.6</ele>
				<time>2022-03-28T18:14:13Z</time>
			</trkpt>
			<trkpt lat="35.49741086" lon="-107.18210898">
				<ele>1835.2</ele>
				<time>2022-03-28T18:14:18Z</time>
			</trkpt>
			<trkpt lat="35.49737006" lon="-107.18211902">
				<ele>1836.3</ele>
				<time>2022-03-28T18:14:25Z</time>
			</trkpt>
			<trkpt lat="35.49734451" lon="-107.18215158">
				<ele>1835.8</ele>
				<time>2022-03-28T18:15:01Z</time>
			</trkpt>
			<trkpt lat="35.49734214" lon="-107.18219628">
				<ele>1833.2</ele>
				<time>2022-03-28T18:15:27Z</time>
			</trkpt>
			<trkpt lat="35.49737886" lon="-107.18219285">
				<ele>1831.9</ele>
				<time>2022-03-28T18:15:54Z</time>
			</trkpt>
			<trkpt lat="35.49733719" lon="-107.18219094">
				<ele>1833.5</ele>
				<time>2022-03-28T18:41:54Z</time>
			</trkpt>
			<trkpt lat="35.49737349" lon="-107.18218358">
				<ele>1833.9</ele>
				<time>2022-03-28T18:42:50Z</time>
			</trkpt>
			<trkpt lat="35.49741147" lon="-107.18216803">
				<ele>1832</ele>
				<time>2022-03-28T18:49:25Z</time>
			</trkpt>
			<trkpt lat="35.49743577" lon="-107.1821338">
				<ele>1829.2</ele>
				<time>2022-03-28T18:50:52Z</time>
			</trkpt>
			<trkpt lat="35.4974713" lon="-107.18211309">
				<ele>1829.3</ele>
				<time>2022-03-28T18:50:58Z</time>
			</trkpt>
			<trkpt lat="35.49749777" lon="-107.1820757">
				<ele>1829.3</ele>
				<time>2022-03-28T18:51:07Z</time>
			</trkpt>
			<trkpt lat="35.49746209" lon="-107.18206741">
				<ele>1830.5</ele>
				<time>2022-03-28T18:51:15Z</time>
			</trkpt>
			<trkpt lat="35.49742663" lon="-107.18208785">
				<ele>1830.6</ele>
				<time>2022-03-28T18:51:20Z</time>
			</trkpt>
			<trkpt lat="35.49739122" lon="-107.18211405">
				<ele>1830.9</ele>
				<time>2022-03-28T18:51:25Z</time>
			</trkpt>
			<trkpt lat="35.49734971" lon="-107.18212891">
				<ele>1831.8</ele>
				<time>2022-03-28T18:51:32Z</time>
			</trkpt>
			<trkpt lat="35.49731191" lon="-107.18211687">
				<ele>1834.2</ele>
				<time>2022-03-28T18:51:41Z</time>
			</trkpt>
			<trkpt lat="35.49729197" lon="-107.1820789">
				<ele>1834.3</ele>
				<time>2022-03-28T18:51:49Z</time>
			</trkpt>
			<trkpt lat="35.4972552" lon="-107.18205858">
				<ele>1835.5</ele>
				<time>2022-03-28T18:51:54Z</time>
			</trkpt>
			<trkpt lat="35.4972224" lon="-107.18203865">
				<ele>1836.5</ele>
				<time>2022-03-28T18:51:58Z</time>
			</trkpt>
			<trkpt lat="35.49718947" lon="-107.18200518">
				<ele>1836.6</ele>
				<time>2022-03-28T18:52:03Z</time>
			</trkpt>
			<trkpt lat="35.49716192" lon="-107.18196936">
				<ele>1836.8</ele>
				<time>2022-03-28T18:52:09Z</time>
			</trkpt>
			<trkpt lat="35.49713867" lon="-107.18193324">
				<ele>1837.1</ele>
				<time>2022-03-28T18:52:14Z</time>
			</trkpt>
			<trkpt lat="35.49710849" lon="-107.18190564">
				<ele>1836.7</ele>
				<time>2022-03-28T18:52:18Z</time>
			</trkpt>
			<trkpt lat="35.49707305" lon="-107.18188692">
				<ele>1837.2</ele>
				<time>2022-03-28T18:52:22Z</time>
			</trkpt>
			<trkpt lat="35.49703729" lon="-107.18185498">
				<ele>1837.2</ele>
				<time>2022-03-28T18:52:27Z</time>
			</trkpt>
			<trkpt lat="35.49700383" lon="-107.18183299">
				<ele>1838.1</ele>
				<time>2022-03-28T18:52:39Z</time>
			</trkpt>
			<trkpt lat="35.4969781" lon="-107.18179931">
				<ele>1838</ele>
				<time>2022-03-28T18:52:43Z</time>
			</trkpt>
			<trkpt lat="35.49694309" lon="-107.18178596">
				<ele>1839.2</ele>
				<time>2022-03-28T18:53:16Z</time>
			</trkpt>
			<trkpt lat="35.49693105" lon="-107.18182935">
				<ele>1837.2</ele>
				<time>2022-03-28T18:53:36Z</time>
			</trkpt>
			<trkpt lat="35.4969111" lon="-107.18187363">
				<ele>1835.5</ele>
				<time>2022-03-28T18:53:41Z</time>
			</trkpt>
			<trkpt lat="35.49690204" lon="-107.18191688">
				<ele>1834.4</ele>
				<time>2022-03-28T18:53:45Z</time>
			</trkpt>
			<trkpt lat="35.49689286" lon="-107.1819632">
				<ele>1833</ele>
				<time>2022-03-28T18:53:51Z</time>
			</trkpt>
			<trkpt lat="35.49688373" lon="-107.18201379">
				<ele>1832.6</ele>
				<time>2022-03-28T18:53:57Z</time>
			</trkpt>
			<trkpt lat="35.49688281" lon="-107.18205806">
				<ele>1833.1</ele>
				<time>2022-03-28T18:54:04Z</time>
			</trkpt>
			<trkpt lat="35.49686014" lon="-107.18209837">
				<ele>1830.6</ele>
				<time>2022-03-28T18:54:15Z</time>
			</trkpt>
			<trkpt lat="35.49682886" lon="-107.18212961">
				<ele>1830.6</ele>
				<time>2022-03-28T18:54:20Z</time>
			</trkpt>
			<trkpt lat="35.49680096" lon="-107.18216777">
				<ele>1829.8</ele>
				<time>2022-03-28T18:54:27Z</time>
			</trkpt>
			<trkpt lat="35.49677949" lon="-107.18220604">
				<ele>1830.5</ele>
				<time>2022-03-28T18:54:33Z</time>
			</trkpt>
			<trkpt lat="35.49673812" lon="-107.18220406">
				<ele>1831.3</ele>
				<time>2022-03-28T18:54:48Z</time>
			</trkpt>
			<trkpt lat="35.4966948" lon="-107.18219325">
				<ele>1830.6</ele>
				<time>2022-03-28T18:54:57Z</time>
			</trkpt>
			<trkpt lat="35.4966515" lon="-107.18219077">
				<ele>1831.1</ele>
				<time>2022-03-28T18:55:01Z</time>
			</trkpt>
			<trkpt lat="35.49661437" lon="-107.18218345">
				<ele>1833.3</ele>
				<time>2022-03-28T18:55:07Z</time>
			</trkpt>
			<trkpt lat="35.49657145" lon="-107.18217047">
				<ele>1832.5</ele>
				<time>2022-03-28T18:55:12Z</time>
			</trkpt>
			<trkpt lat="35.49653411" lon="-107.18218219">
				<ele>1834.1</ele>
				<time>2022-03-28T18:55:16Z</time>
			</trkpt>
			<trkpt lat="35.49650246" lon="-107.1821544">
				<ele>1831.1</ele>
				<time>2022-03-28T18:55:21Z</time>
			</trkpt>
			<trkpt lat="35.49646684" lon="-107.18212931">
				<ele>1829.4</ele>
				<time>2022-03-28T18:55:26Z</time>
			</trkpt>
			<trkpt lat="35.49643041" lon="-107.18211078">
				<ele>1828.6</ele>
				<time>2022-03-28T18:55:32Z</time>
			</trkpt>
			<trkpt lat="35.49640185" lon="-107.18208167">
				<ele>1826.2</ele>
				<time>2022-03-28T18:55:38Z</time>
			</trkpt>
			<trkpt lat="35.4963696" lon="-107.18211368">
				<ele>1828.4</ele>
				<time>2022-03-28T18:55:44Z</time>
			</trkpt>
			<trkpt lat="35.49632949" lon="-107.18213305">
				<ele>1828.4</ele>
				<time>2022-03-28T18:55:50Z</time>
			</trkpt>
			<trkpt lat="35.49629787" lon="-107.18216599">
				<ele>1829</ele>
				<time>2022-03-28T18:55:53Z</time>
			</trkpt>
			<trkpt lat="35.49627189" lon="-107.18220598">
				<ele>1826.9</ele>
				<time>2022-03-28T18:55:56Z</time>
			</trkpt>
			<trkpt lat="35.49623319" lon="-107.18223867">
				<ele>1828.8</ele>
				<time>2022-03-28T18:56:00Z</time>
			</trkpt>
			<trkpt lat="35.49619787" lon="-107.18225228">
				<ele>1829.2</ele>
				<time>2022-03-28T18:56:03Z</time>
			</trkpt>
			<trkpt lat="35.49616113" lon="-107.18227301">
				<ele>1829.2</ele>
				<time>2022-03-28T18:56:07Z</time>
			</trkpt>
			<trkpt lat="35.49612426" lon="-107.182297">
				<ele>1829.7</ele>
				<time>2022-03-28T18:56:11Z</time>
			</trkpt>
			<trkpt lat="35.49609224" lon="-107.18231855">
				<ele>1830.6</ele>
				<time>2022-03-28T18:56:15Z</time>
			</trkpt>
			<trkpt lat="35.49605458" lon="-107.18234323">
				<ele>1829.6</ele>
				<time>2022-03-28T18:56:20Z</time>
			</trkpt>
			<trkpt lat="35.49602207" lon="-107.18237639">
				<ele>1828.6</ele>
				<time>2022-03-28T18:56:25Z</time>
			</trkpt>
			<trkpt lat="35.49599456" lon="-107.18241301">
				<ele>1828.8</ele>
				<time>2022-03-28T18:56:30Z</time>
			</trkpt>
			<trkpt lat="35.49597375" lon="-107.1824491">
				<ele>1829.1</ele>
				<time>2022-03-28T18:56:36Z</time>
			</trkpt>
			<trkpt lat="35.49595792" lon="-107.1824996">
				<ele>1829</ele>
				<time>2022-03-28T18:56:57Z</time>
			</trkpt>
			<trkpt lat="35.49594797" lon="-107.18254876">
				<ele>1829</ele>
				<time>2022-03-28T18:57:01Z</time>
			</trkpt>
			<trkpt lat="35.49593032" lon="-107.18258821">
				<ele>1828.8</ele>
				<time>2022-03-28T18:57:05Z</time>
			</trkpt>
			<trkpt lat="35.49589631" lon="-107.18261946">
				<ele>1827.5</ele>
				<time>2022-03-28T18:57:11Z</time>
			</trkpt>
			<trkpt lat="35.49587914" lon="-107.18266227">
				<ele>1828.4</ele>
				<time>2022-03-28T18:57:15Z</time>
			</trkpt>
			<trkpt lat="35.49586319" lon="-107.1827045">
				<ele>1829.2</ele>
				<time>2022-03-28T18:57:19Z</time>
			</trkpt>
			<trkpt lat="35.4958566" lon="-107.18274923">
				<ele>1829.7</ele>
				<time>2022-03-28T18:57:23Z</time>
			</trkpt>
			<trkpt lat="35.49586042" lon="-107.18280593">
				<ele>1830.4</ele>
				<time>2022-03-28T18:57:27Z</time>
			</trkpt>
			<trkpt lat="35.49585632" lon="-107.18286263">
				<ele>1830.2</ele>
				<time>2022-03-28T18:57:31Z</time>
			</trkpt>
			<trkpt lat="35.49583904" lon="-107.18291247">
				<ele>1829.7</ele>
				<time>2022-03-28T18:57:35Z</time>
			</trkpt>
			<trkpt lat="35.4958262" lon="-107.18296706">
				<ele>1829.6</ele>
				<time>2022-03-28T18:57:39Z</time>
			</trkpt>
			<trkpt lat="35.49582383" lon="-107.1830179">
				<ele>1829.4</ele>
				<time>2022-03-28T18:57:44Z</time>
			</trkpt>
			<trkpt lat="35.49581421" lon="-107.1830612">
				<ele>1829.8</ele>
				<time>2022-03-28T18:57:49Z</time>
			</trkpt>
			<trkpt lat="35.49578233" lon="-107.1830966">
				<ele>1830.9</ele>
				<time>2022-03-28T18:57:54Z</time>
			</trkpt>
			<trkpt lat="35.49576113" lon="-107.18313929">
				<ele>1830.5</ele>
				<time>2022-03-28T18:57:58Z</time>
			</trkpt>
			<trkpt lat="35.49574812" lon="-107.18318684">
				<ele>1831</ele>
				<time>2022-03-28T18:58:03Z</time>
			</trkpt>
			<trkpt lat="35.49572055" lon="-107.1832298">
				<ele>1831.1</ele>
				<time>2022-03-28T18:58:09Z</time>
			</trkpt>
			<trkpt lat="35.49569063" lon="-107.18326747">
				<ele>1830.9</ele>
				<time>2022-03-28T18:58:15Z</time>
			</trkpt>
			<trkpt lat="35.49566705" lon="-107.18331282">
				<ele>1830.4</ele>
				<time>2022-03-28T18:58:20Z</time>
			</trkpt>
			<trkpt lat="35.49565133" lon="-107.18335468">
				<ele>1829.9</ele>
				<time>2022-03-28T18:58:24Z</time>
			</trkpt>
			<trkpt lat="35.49564175" lon="-107.18339747">
				<ele>1829.4</ele>
				<time>2022-03-28T18:58:28Z</time>
			</trkpt>
			<trkpt lat="35.49560727" lon="-107.1834284">
				<ele>1829.2</ele>
				<time>2022-03-28T18:58:33Z</time>
			</trkpt>
			<trkpt lat="35.49556973" lon="-107.18344137">
				<ele>1830.9</ele>
				<time>2022-03-28T18:58:39Z</time>
			</trkpt>
			<trkpt lat="35.49555626" lon="-107.18348801">
				<ele>1831.7</ele>
				<time>2022-03-28T18:58:47Z</time>
			</trkpt>
			<trkpt lat="35.49551804" lon="-107.18350658">
				<ele>1834.3</ele>
				<time>2022-03-28T18:58:53Z</time>
			</trkpt>
			<trkpt lat="35.49547958" lon="-107.18351112">
				<ele>1835.1</ele>
				<time>2022-03-28T18:59:00Z</time>
			</trkpt>
			<trkpt lat="35.49545385" lon="-107.1835434">
				<ele>1835.4</ele>
				<time>2022-03-28T18:59:04Z</time>
			</trkpt>
			<trkpt lat="35.49543429" lon="-107.18358898">
				<ele>1837.1</ele>
				<time>2022-03-28T18:59:09Z</time>
			</trkpt>
			<trkpt lat="35.49540901" lon="-107.18363379">
				<ele>1838.4</ele>
				<time>2022-03-28T18:59:15Z</time>
			</trkpt>
			<trkpt lat="35.4953837" lon="-107.18366693">
				<ele>1839.4</ele>
				<time>2022-03-28T19:00:16Z</time>
			</trkpt>
			<trkpt lat="35.49540077" lon="-107.18371324">
				<ele>1838.2</ele>
				<time>2022-03-28T19:00:21Z</time>
			</trkpt>
			<trkpt lat="35.49540995" lon="-107.18376565">
				<ele>1838.8</ele>
				<time>2022-03-28T19:00:25Z</time>
			</trkpt>
			<trkpt lat="35.49540686" lon="-107.18381362">
				<ele>1838.6</ele>
				<time>2022-03-28T19:00:30Z</time>
			</trkpt>
			<trkpt lat="35.49537153" lon="-107.18384567">
				<ele>1839.8</ele>
				<time>2022-03-28T19:00:35Z</time>
			</trkpt>
			<trkpt lat="35.49533353" lon="-107.18387174">
				<ele>1840.5</ele>
				<time>2022-03-28T19:00:40Z</time>
			</trkpt>
			<trkpt lat="35.49529846" lon="-107.18389176">
				<ele>1841.4</ele>
				<time>2022-03-28T19:00:44Z</time>
			</trkpt>
			<trkpt lat="35.49529563" lon="-107.18394071">
				<ele>1840.3</ele>
				<time>2022-03-28T19:00:48Z</time>
			</trkpt>
			<trkpt lat="35.49528976" lon="-107.18399233">
				<ele>1839.3</ele>
				<time>2022-03-28T19:00:52Z</time>
			</trkpt>
			<trkpt lat="35.4952961" lon="-107.18404356">
				<ele>1839.1</ele>
				<time>2022-03-28T19:00:56Z</time>
			</trkpt>
			<trkpt lat="35.49531365" lon="-107.18408223">
				<ele>1837.4</ele>
				<time>2022-03-28T19:01:00Z</time>
			</trkpt>
			<trkpt lat="35.49531837" lon="-107.18413287">
				<ele>1836.1</ele>
				<time>2022-03-28T19:01:05Z</time>
			</trkpt>
			<trkpt lat="35.49530474" lon="-107.18418244">
				<ele>1835.4</ele>
				<time>2022-03-28T19:01:10Z</time>
			</trkpt>
			<trkpt lat="35.4953108" lon="-107.18422787">
				<ele>1836.6</ele>
				<time>2022-03-28T19:01:18Z</time>
			</trkpt>
			<trkpt lat="35.49528924" lon="-107.18426447">
				<ele>1836.7</ele>
				<time>2022-03-28T19:01:24Z</time>
			</trkpt>
			<trkpt lat="35.4952475" lon="-107.18427602">
				<ele>1837.5</ele>
				<time>2022-03-28T19:01:30Z</time>
			</trkpt>
			<trkpt lat="35.49522464" lon="-107.18431578">
				<ele>1838.6</ele>
				<time>2022-03-28T19:01:35Z</time>
			</trkpt>
			<trkpt lat="35.495196" lon="-107.18434736">
				<ele>1839.9</ele>
				<time>2022-03-28T19:01:40Z</time>
			</trkpt>
			<trkpt lat="35.49518347" lon="-107.18438909">
				<ele>1840.2</ele>
				<time>2022-03-28T19:01:55Z</time>
			</trkpt>
			<trkpt lat="35.49515846" lon="-107.18442645">
				<ele>1840.7</ele>
				<time>2022-03-28T19:02:02Z</time>
			</trkpt>
			<trkpt lat="35.49514084" lon="-107.18446682">
				<ele>1840.4</ele>
				<time>2022-03-28T19:02:16Z</time>
			</trkpt>
			<trkpt lat="35.49517627" lon="-107.18448146">
				<ele>1841</ele>
				<time>2022-03-28T19:02:48Z</time>
			</trkpt>
			<trkpt lat="35.49520407" lon="-107.18444993">
				<ele>1842.9</ele>
				<time>2022-03-28T19:02:56Z</time>
			</trkpt>
			<trkpt lat="35.49523484" lon="-107.18442261">
				<ele>1843.3</ele>
				<time>2022-03-28T19:03:36Z</time>
			</trkpt>
			<trkpt lat="35.49521311" lon="-107.18437622">
				<ele>1844.3</ele>
				<time>2022-03-28T19:05:24Z</time>
			</trkpt>
			<trkpt lat="35.4952182" lon="-107.18433037">
				<ele>1843.7</ele>
				<time>2022-03-28T19:05:28Z</time>
			</trkpt>
			<trkpt lat="35.49521524" lon="-107.18428511">
				<ele>1843.8</ele>
				<time>2022-03-28T19:05:32Z</time>
			</trkpt>
			<trkpt lat="35.49519524" lon="-107.18424462">
				<ele>1843.8</ele>
				<time>2022-03-28T19:05:37Z</time>
			</trkpt>
			<trkpt lat="35.4952251" lon="-107.1842164">
				<ele>1843.8</ele>
				<time>2022-03-28T19:06:00Z</time>
			</trkpt>
			<trkpt lat="35.49526801" lon="-107.18420232">
				<ele>1843.9</ele>
				<time>2022-03-28T19:06:09Z</time>
			</trkpt>
			<trkpt lat="35.4953002" lon="-107.1841658">
				<ele>1843.6</ele>
				<time>2022-03-28T19:06:13Z</time>
			</trkpt>
			<trkpt lat="35.49533589" lon="-107.1841454">
				<ele>1843.7</ele>
				<time>2022-03-28T19:06:17Z</time>
			</trkpt>
			<trkpt lat="35.49536149" lon="-107.18410511">
				<ele>1844.7</ele>
				<time>2022-03-28T19:06:23Z</time>
			</trkpt>
			<trkpt lat="35.49539854" lon="-107.18409245">
				<ele>1843.9</ele>
				<time>2022-03-28T19:06:28Z</time>
			</trkpt>
			<trkpt lat="35.49542818" lon="-107.18406643">
				<ele>1840.6</ele>
				<time>2022-03-28T19:06:42Z</time>
			</trkpt>
			<trkpt lat="35.49544312" lon="-107.18402132">
				<ele>1840.8</ele>
				<time>2022-03-28T19:06:46Z</time>
			</trkpt>
			<trkpt lat="35.49544249" lon="-107.18397169">
				<ele>1841.6</ele>
				<time>2022-03-28T19:06:51Z</time>
			</trkpt>
			<trkpt lat="35.49545376" lon="-107.18392327">
				<ele>1841.2</ele>
				<time>2022-03-28T19:06:55Z</time>
			</trkpt>
			<trkpt lat="35.4954527" lon="-107.18386774">
				<ele>1840.2</ele>
				<time>2022-03-28T19:06:59Z</time>
			</trkpt>
			<trkpt lat="35.49545787" lon="-107.18381777">
				<ele>1839.9</ele>
				<time>2022-03-28T19:07:03Z</time>
			</trkpt>
			<trkpt lat="35.49544814" lon="-107.183766">
				<ele>1840.8</ele>
				<time>2022-03-28T19:07:08Z</time>
			</trkpt>
			<trkpt lat="35.49546744" lon="-107.18372769">
				<ele>1841.1</ele>
				<time>2022-03-28T19:07:12Z</time>
			</trkpt>
			<trkpt lat="35.49547441" lon="-107.18368183">
				<ele>1840.9</ele>
				<time>2022-03-28T19:07:16Z</time>
			</trkpt>
			<trkpt lat="35.49548243" lon="-107.18363264">
				<ele>1840.6</ele>
				<time>2022-03-28T19:07:21Z</time>
			</trkpt>
			<trkpt lat="35.49550008" lon="-107.18358766">
				<ele>1842.8</ele>
				<time>2022-03-28T19:07:26Z</time>
			</trkpt>
			<trkpt lat="35.49551011" lon="-107.18353122">
				<ele>1842.9</ele>
				<time>2022-03-28T19:07:30Z</time>
			</trkpt>
			<trkpt lat="35.49551554" lon="-107.18348119">
				<ele>1842.6</ele>
				<time>2022-03-28T19:07:34Z</time>
			</trkpt>
			<trkpt lat="35.49553356" lon="-107.18343672">
				<ele>1842.3</ele>
				<time>2022-03-28T19:07:38Z</time>
			</trkpt>
			<trkpt lat="35.49554484" lon="-107.1833929">
				<ele>1840.9</ele>
				<time>2022-03-28T19:07:42Z</time>
			</trkpt>
			<trkpt lat="35.49556986" lon="-107.18336056">
				<ele>1840.3</ele>
				<time>2022-03-28T19:07:47Z</time>
			</trkpt>
			<trkpt lat="35.49558701" lon="-107.1833104">
				<ele>1841.1</ele>
				<time>2022-03-28T19:07:52Z</time>
			</trkpt>
			<trkpt lat="35.49560634" lon="-107.18325739">
				<ele>1840.3</ele>
				<time>2022-03-28T19:07:56Z</time>
			</trkpt>
			<trkpt lat="35.49561456" lon="-107.18319981">
				<ele>1839.7</ele>
				<time>2022-03-28T19:08:00Z</time>
			</trkpt>
			<trkpt lat="35.49562511" lon="-107.18315623">
				<ele>1840.2</ele>
				<time>2022-03-28T19:08:03Z</time>
			</trkpt>
			<trkpt lat="35.49563637" lon="-107.18309786">
				<ele>1840</ele>
				<time>2022-03-28T19:08:07Z</time>
			</trkpt>
			<trkpt lat="35.49563528" lon="-107.18305314">
				<ele>1839.2</ele>
				<time>2022-03-28T19:08:10Z</time>
			</trkpt>
			<trkpt lat="35.49564003" lon="-107.18300691">
				<ele>1838.7</ele>
				<time>2022-03-28T19:08:13Z</time>
			</trkpt>
			<trkpt lat="35.49565285" lon="-107.18296236">
				<ele>1838.3</ele>
				<time>2022-03-28T19:08:16Z</time>
			</trkpt>
			<trkpt lat="35.49566362" lon="-107.18290467">
				<ele>1837.4</ele>
				<time>2022-03-28T19:08:20Z</time>
			</trkpt>
			<trkpt lat="35.4956526" lon="-107.18285991">
				<ele>1838.1</ele>
				<time>2022-03-28T19:08:23Z</time>
			</trkpt>
			<trkpt lat="35.49564623" lon="-107.18281597">
				<ele>1837.6</ele>
				<time>2022-03-28T19:08:27Z</time>
			</trkpt>
			<trkpt lat="35.49565148" lon="-107.18276187">
				<ele>1837.8</ele>
				<time>2022-03-28T19:08:36Z</time>
			</trkpt>
			<trkpt lat="35.49567061" lon="-107.18271891">
				<ele>1837.5</ele>
				<time>2022-03-28T19:08:40Z</time>
			</trkpt>
			<trkpt lat="35.49569506" lon="-107.18267453">
				<ele>1837.3</ele>
				<time>2022-03-28T19:08:44Z</time>
			</trkpt>
			<trkpt lat="35.49571774" lon="-107.18262714">
				<ele>1837</ele>
				<time>2022-03-28T19:08:48Z</time>
			</trkpt>
			<trkpt lat="35.49572362" lon="-107.1825833">
				<ele>1837</ele>
				<time>2022-03-28T19:08:51Z</time>
			</trkpt>
			<trkpt lat="35.4957292" lon="-107.18253921">
				<ele>1837.8</ele>
				<time>2022-03-28T19:08:55Z</time>
			</trkpt>
			<trkpt lat="35.49574903" lon="-107.18249379">
				<ele>1838.4</ele>
				<time>2022-03-28T19:08:59Z</time>
			</trkpt>
			<trkpt lat="35.49577384" lon="-107.18244724">
				<ele>1838.2</ele>
				<time>2022-03-28T19:09:03Z</time>
			</trkpt>
			<trkpt lat="35.49580252" lon="-107.18240969">
				<ele>1839.7</ele>
				<time>2022-03-28T19:09:08Z</time>
			</trkpt>
			<trkpt lat="35.4958404" lon="-107.18238885">
				<ele>1839.5</ele>
				<time>2022-03-28T19:09:13Z</time>
			</trkpt>
			<trkpt lat="35.49585945" lon="-107.18235007">
				<ele>1839.1</ele>
				<time>2022-03-28T19:09:17Z</time>
			</trkpt>
			<trkpt lat="35.49588901" lon="-107.18229974">
				<ele>1837.5</ele>
				<time>2022-03-28T19:09:21Z</time>
			</trkpt>
			<trkpt lat="35.49592204" lon="-107.18226353">
				<ele>1838.4</ele>
				<time>2022-03-28T19:09:25Z</time>
			</trkpt>
			<trkpt lat="35.49596078" lon="-107.18227791">
				<ele>1834.3</ele>
				<time>2022-03-28T19:09:34Z</time>
			</trkpt>
			<trkpt lat="35.49599328" lon="-107.18230196">
				<ele>1834.7</ele>
				<time>2022-03-28T19:09:40Z</time>
			</trkpt>
			<trkpt lat="35.49602856" lon="-107.18231309">
				<ele>1834.2</ele>
				<time>2022-03-28T19:09:45Z</time>
			</trkpt>
			<trkpt lat="35.49606689" lon="-107.1823345">
				<ele>1832.8</ele>
				<time>2022-03-28T19:09:52Z</time>
			</trkpt>
			<trkpt lat="35.49610229" lon="-107.18234471">
				<ele>1832.5</ele>
				<time>2022-03-28T19:09:57Z</time>
			</trkpt>
			<trkpt lat="35.49614321" lon="-107.18236468">
				<ele>1833.5</ele>
				<time>2022-03-28T19:10:02Z</time>
			</trkpt>
			<trkpt lat="35.49618183" lon="-107.18236882">
				<ele>1833.6</ele>
				<time>2022-03-28T19:10:06Z</time>
			</trkpt>
			<trkpt lat="35.49622313" lon="-107.1823662">
				<ele>1833.3</ele>
				<time>2022-03-28T19:10:10Z</time>
			</trkpt>
			<trkpt lat="35.49625813" lon="-107.18235129">
				<ele>1833.7</ele>
				<time>2022-03-28T19:10:14Z</time>
			</trkpt>
			<trkpt lat="35.49629584" lon="-107.1823524">
				<ele>1834.4</ele>
				<time>2022-03-28T19:10:18Z</time>
			</trkpt>
			<trkpt lat="35.49633378" lon="-107.1823698">
				<ele>1836.6</ele>
				<time>2022-03-28T19:10:24Z</time>
			</trkpt>
			<trkpt lat="35.49637457" lon="-107.18235835">
				<ele>1836.4</ele>
				<time>2022-03-28T19:10:28Z</time>
			</trkpt>
			<trkpt lat="35.49641614" lon="-107.18235844">
				<ele>1837</ele>
				<time>2022-03-28T19:10:32Z</time>
			</trkpt>
			<trkpt lat="35.49645377" lon="-107.18234588">
				<ele>1836.3</ele>
				<time>2022-03-28T19:10:37Z</time>
			</trkpt>
			<trkpt lat="35.49649407" lon="-107.18231961">
				<ele>1836.3</ele>
				<time>2022-03-28T19:10:42Z</time>
			</trkpt>
			<trkpt lat="35.49653176" lon="-107.18229683">
				<ele>1835.4</ele>
				<time>2022-03-28T19:10:46Z</time>
			</trkpt>
			<trkpt lat="35.49656369" lon="-107.18227106">
				<ele>1834.6</ele>
				<time>2022-03-28T19:10:51Z</time>
			</trkpt>
			<trkpt lat="35.49660107" lon="-107.18225644">
				<ele>1835.1</ele>
				<time>2022-03-28T19:10:56Z</time>
			</trkpt>
			<trkpt lat="35.49664121" lon="-107.1822592">
				<ele>1835.9</ele>
				<time>2022-03-28T19:11:01Z</time>
			</trkpt>
			<trkpt lat="35.49668602" lon="-107.18225845">
				<ele>1836.1</ele>
				<time>2022-03-28T19:11:06Z</time>
			</trkpt>
			<trkpt lat="35.49673006" lon="-107.18226201">
				<ele>1837.5</ele>
				<time>2022-03-28T19:11:11Z</time>
			</trkpt>
			<trkpt lat="35.49676906" lon="-107.18226665">
				<ele>1836.2</ele>
				<time>2022-03-28T19:11:15Z</time>
			</trkpt>
			<trkpt lat="35.49680684" lon="-107.18225943">
				<ele>1838.5</ele>
				<time>2022-03-28T19:11:20Z</time>
			</trkpt>
			<trkpt lat="35.49683509" lon="-107.18222887">
				<ele>1838.2</ele>
				<time>2022-03-28T19:11:24Z</time>
			</trkpt>
			<trkpt lat="35.49687338" lon="-107.18220021">
				<ele>1839.3</ele>
				<time>2022-03-28T19:11:30Z</time>
			</trkpt>
			<trkpt lat="35.49689135" lon="-107.18215852">
				<ele>1840.2</ele>
				<time>2022-03-28T19:11:35Z</time>
			</trkpt>
			<trkpt lat="35.49691732" lon="-107.18212032">
				<ele>1841.5</ele>
				<time>2022-03-28T19:11:41Z</time>
			</trkpt>
			<trkpt lat="35.49691768" lon="-107.18206568">
				<ele>1841</ele>
				<time>2022-03-28T19:11:45Z</time>
			</trkpt>
			<trkpt lat="35.49693094" lon="-107.18201887">
				<ele>1841.2</ele>
				<time>2022-03-28T19:11:49Z</time>
			</trkpt>
			<trkpt lat="35.49693811" lon="-107.18197013">
				<ele>1841.7</ele>
				<time>2022-03-28T19:11:53Z</time>
			</trkpt>
			<trkpt lat="35.4969344" lon="-107.1819181">
				<ele>1842</ele>
				<time>2022-03-28T19:11:57Z</time>
			</trkpt>
			<trkpt lat="35.4969335" lon="-107.18186521">
				<ele>1841.7</ele>
				<time>2022-03-28T19:12:01Z</time>
			</trkpt>
			<trkpt lat="35.4969366" lon="-107.18181536">
				<ele>1842.6</ele>
				<time>2022-03-28T19:12:06Z</time>
			</trkpt>
			<trkpt lat="35.49697671" lon="-107.18180179">
				<ele>1841.5</ele>
				<time>2022-03-28T19:12:25Z</time>
			</trkpt>
			<trkpt lat="35.49701091" lon="-107.18178088">
				<ele>1839.3</ele>
				<time>2022-03-28T19:12:44Z</time>
			</trkpt>
			<trkpt lat="35.49703328" lon="-107.18174614">
				<ele>1841.3</ele>
				<time>2022-03-28T19:13:09Z</time>
			</trkpt>
			<trkpt lat="35.49707363" lon="-107.18173882">
				<ele>1840.9</ele>
				<time>2022-03-28T19:13:19Z</time>
			</trkpt>
			<trkpt lat="35.49710495" lon="-107.18171697">
				<ele>1840</ele>
				<time>2022-03-28T19:13:24Z</time>
			</trkpt>
			<trkpt lat="35.49713047" lon="-107.18168047">
				<ele>1840.1</ele>
				<time>2022-03-28T19:13:28Z</time>
			</trkpt>
			<trkpt lat="35.49715967" lon="-107.18164536">
				<ele>1841.3</ele>
				<time>2022-03-28T19:13:44Z</time>
			</trkpt>
			<trkpt lat="35.49718356" lon="-107.18160549">
				<ele>1840.7</ele>
				<time>2022-03-28T19:13:49Z</time>
			</trkpt>
			<trkpt lat="35.49719768" lon="-107.18155555">
				<ele>1838.6</ele>
				<time>2022-03-28T19:13:54Z</time>
			</trkpt>
			<trkpt lat="35.49723966" lon="-107.18153927">
				<ele>1838.1</ele>
				<time>2022-03-28T19:13:59Z</time>
			</trkpt>
			<trkpt lat="35.49727658" lon="-107.18152851">
				<ele>1837.5</ele>
				<time>2022-03-28T19:14:03Z</time>
			</trkpt>
			<trkpt lat="35.4973113" lon="-107.18151104">
				<ele>1836.8</ele>
				<time>2022-03-28T19:14:07Z</time>
			</trkpt>
			<trkpt lat="35.49735837" lon="-107.18150828">
				<ele>1835</ele>
				<time>2022-03-28T19:14:12Z</time>
			</trkpt>
			<trkpt lat="35.49739612" lon="-107.18149988">
				<ele>1834.9</ele>
				<time>2022-03-28T19:14:15Z</time>
			</trkpt>
			<trkpt lat="35.49742729" lon="-107.18146158">
				<ele>1835.1</ele>
				<time>2022-03-28T19:14:19Z</time>
			</trkpt>
			<trkpt lat="35.49743848" lon="-107.18141484">
				<ele>1834.6</ele>
				<time>2022-03-28T19:14:23Z</time>
			</trkpt>
			<trkpt lat="35.4974437" lon="-107.18136279">
				<ele>1834.2</ele>
				<time>2022-03-28T19:14:27Z</time>
			</trkpt>
			<trkpt lat="35.49748187" lon="-107.18133443">
				<ele>1835.2</ele>
				<time>2022-03-28T19:14:31Z</time>
			</trkpt>
			<trkpt lat="35.49751632" lon="-107.18131167">
				<ele>1835.1</ele>
				<time>2022-03-28T19:14:36Z</time>
			</trkpt>
			<trkpt lat="35.4975525" lon="-107.18132308">
				<ele>1834</ele>
				<time>2022-03-28T19:14:42Z</time>
			</trkpt>
			<trkpt lat="35.49758749" lon="-107.18130841">
				<ele>1833.4</ele>
				<time>2022-03-28T19:14:46Z</time>
			</trkpt>
			<trkpt lat="35.49762447" lon="-107.18128253">
				<ele>1832.6</ele>
				<time>2022-03-28T19:14:50Z</time>
			</trkpt>
			<trkpt lat="35.49765457" lon="-107.18125826">
				<ele>1831.6</ele>
				<time>2022-03-28T19:14:53Z</time>
			</trkpt>
			<trkpt lat="35.49768797" lon="-107.18122042">
				<ele>1831.5</ele>
				<time>2022-03-28T19:14:57Z</time>
			</trkpt>
			<trkpt lat="35.49772297" lon="-107.18118249">
				<ele>1830.6</ele>
				<time>2022-03-28T19:15:01Z</time>
			</trkpt>
			<trkpt lat="35.49773284" lon="-107.18113803">
				<ele>1830.7</ele>
				<time>2022-03-28T19:15:04Z</time>
			</trkpt>
			<trkpt lat="35.49774707" lon="-107.18108858">
				<ele>1830.1</ele>
				<time>2022-03-28T19:15:08Z</time>
			</trkpt>
			<trkpt lat="35.49777527" lon="-107.18104851">
				<ele>1829.4</ele>
				<time>2022-03-28T19:15:12Z</time>
			</trkpt>
			<trkpt lat="35.49779985" lon="-107.18101507">
				<ele>1830</ele>
				<time>2022-03-28T19:15:16Z</time>
			</trkpt>
			<trkpt lat="35.49782842" lon="-107.18098682">
				<ele>1829.3</ele>
				<time>2022-03-28T19:15:20Z</time>
			</trkpt>
			<trkpt lat="35.49785957" lon="-107.1809518">
				<ele>1828.8</ele>
				<time>2022-03-28T19:15:25Z</time>
			</trkpt>
			<trkpt lat="35.49789402" lon="-107.18092798">
				<ele>1829.8</ele>
				<time>2022-03-28T19:15:29Z</time>
			</trkpt>
			<trkpt lat="35.49791997" lon="-107.18088562">
				<ele>1829.8</ele>
				<time>2022-03-28T19:15:33Z</time>
			</trkpt>
			<trkpt lat="35.49794387" lon="-107.18084676">
				<ele>1829</ele>
				<time>2022-03-28T19:15:37Z</time>
			</trkpt>
			<trkpt lat="35.49797263" lon="-107.18080997">
				<ele>1829.2</ele>
				<time>2022-03-28T19:15:41Z</time>
			</trkpt>
			<trkpt lat="35.49800032" lon="-107.18078051">
				<ele>1828.4</ele>
				<time>2022-03-28T19:15:45Z</time>
			</trkpt>
			<trkpt lat="35.49802626" lon="-107.18074753">
				<ele>1828.5</ele>
				<time>2022-03-28T19:15:49Z</time>
			</trkpt>
			<trkpt lat="35.49805219" lon="-107.18071314">
				<ele>1828.7</ele>
				<time>2022-03-28T19:15:53Z</time>
			</trkpt>
			<trkpt lat="35.49807998" lon="-107.18067391">
				<ele>1828.4</ele>
				<time>2022-03-28T19:15:58Z</time>
			</trkpt>
			<trkpt lat="35.49811973" lon="-107.18066693">
				<ele>1829.5</ele>
				<time>2022-03-28T19:16:04Z</time>
			</trkpt>
			<trkpt lat="35.4981633" lon="-107.18064753">
				<ele>1829.1</ele>
				<time>2022-03-28T19:16:09Z</time>
			</trkpt>
			<trkpt lat="35.49819315" lon="-107.18061235">
				<ele>1829.4</ele>
				<time>2022-03-28T19:16:13Z</time>
			</trkpt>
			<trkpt lat="35.49820823" lon="-107.18056429">
				<ele>1828.6</ele>
				<time>2022-03-28T19:16:19Z</time>
			</trkpt>
			<trkpt lat="35.49822562" lon="-107.18052455">
				<ele>1829</ele>
				<time>2022-03-28T19:16:24Z</time>
			</trkpt>
			<trkpt lat="35.49824199" lon="-107.18047868">
				<ele>1829.3</ele>
				<time>2022-03-28T19:16:29Z</time>
			</trkpt>
			<trkpt lat="35.49825942" lon="-107.18043815">
				<ele>1829.1</ele>
				<time>2022-03-28T19:16:33Z</time>
			</trkpt>
			<trkpt lat="35.49828339" lon="-107.18039748">
				<ele>1829.3</ele>
				<time>2022-03-28T19:16:38Z</time>
			</trkpt>
			<trkpt lat="35.49830108" lon="-107.18035688">
				<ele>1828.3</ele>
				<time>2022-03-28T19:16:44Z</time>
			</trkpt>
			<trkpt lat="35.49832169" lon="-107.1803174">
				<ele>1826.6</ele>
				<time>2022-03-28T19:16:48Z</time>
			</trkpt>
			<trkpt lat="35.49834401" lon="-107.18027786">
				<ele>1826.4</ele>
				<time>2022-03-28T19:16:51Z</time>
			</trkpt>
			<trkpt lat="35.49836419" lon="-107.18023356">
				<ele>1826.6</ele>
				<time>2022-03-28T19:16:55Z</time>
			</trkpt>
			<trkpt lat="35.49838832" lon="-107.18018629">
				<ele>1826.9</ele>
				<time>2022-03-28T19:16:59Z</time>
			</trkpt>
			<trkpt lat="35.49841301" lon="-107.18015304">
				<ele>1827.7</ele>
				<time>2022-03-28T19:17:02Z</time>
			</trkpt>
			<trkpt lat="35.49844416" lon="-107.18011079">
				<ele>1827.2</ele>
				<time>2022-03-28T19:17:06Z</time>
			</trkpt>
			<trkpt lat="35.49846436" lon="-107.18006763">
				<ele>1827.1</ele>
				<time>2022-03-28T19:17:10Z</time>
			</trkpt>
			<trkpt lat="35.49847667" lon="-107.1800219">
				<ele>1826.7</ele>
				<time>2022-03-28T19:17:14Z</time>
			</trkpt>
			<trkpt lat="35.49849789" lon="-107.17997348">
				<ele>1825.8</ele>
				<time>2022-03-28T19:17:19Z</time>
			</trkpt>
			<trkpt lat="35.49851036" lon="-107.17992636">
				<ele>1824.9</ele>
				<time>2022-03-28T19:17:24Z</time>
			</trkpt>
			<trkpt lat="35.49851506" lon="-107.17987871">
				<ele>1825</ele>
				<time>2022-03-28T19:17:30Z</time>
			</trkpt>
			<trkpt lat="35.49853997" lon="-107.17984153">
				<ele>1825.2</ele>
				<time>2022-03-28T19:17:37Z</time>
			</trkpt>
			<trkpt lat="35.4985418" lon="-107.17979629">
				<ele>1825.9</ele>
				<time>2022-03-28T19:17:47Z</time>
			</trkpt>
			<trkpt lat="35.49853787" lon="-107.17975147">
				<ele>1827</ele>
				<time>2022-03-28T19:17:59Z</time>
			</trkpt>
			<trkpt lat="35.49852375" lon="-107.17970919">
				<ele>1828.8</ele>
				<time>2022-03-28T19:18:05Z</time>
			</trkpt>
			<trkpt lat="35.49849402" lon="-107.17966655">
				<ele>1830.6</ele>
				<time>2022-03-28T19:18:13Z</time>
			</trkpt>
			<trkpt lat="35.4984659" lon="-107.17963547">
				<ele>1831.8</ele>
				<time>2022-03-28T19:18:18Z</time>
			</trkpt>
			<trkpt lat="35.49844045" lon="-107.17960338">
				<ele>1832.4</ele>
				<time>2022-03-28T19:18:22Z</time>
			</trkpt>
			<trkpt lat="35.49843195" lon="-107.1795605">
				<ele>1831.8</ele>
				<time>2022-03-28T19:19:30Z</time>
			</trkpt>
			<trkpt lat="35.4983986" lon="-107.17952283">
				<ele>1832</ele>
				<time>2022-03-28T19:21:07Z</time>
			</trkpt>
			<trkpt lat="35.49840521" lon="-107.17947889">
				<ele>1831.3</ele>
				<time>2022-03-28T19:21:11Z</time>
			</trkpt>
			<trkpt lat="35.49840974" lon="-107.17943122">
				<ele>1829.5</ele>
				<time>2022-03-28T19:22:31Z</time>
			</trkpt>
			<trkpt lat="35.49841983" lon="-107.17938338">
				<ele>1828.8</ele>
				<time>2022-03-28T19:22:35Z</time>
			</trkpt>
			<trkpt lat="35.4984375" lon="-107.17933118">
				<ele>1827.9</ele>
				<time>2022-03-28T19:22:40Z</time>
			</trkpt>
			<trkpt lat="35.49846132" lon="-107.17928724">
				<ele>1828.1</ele>
				<time>2022-03-28T19:22:45Z</time>
			</trkpt>
			<trkpt lat="35.4984844" lon="-107.17924481">
				<ele>1827.6</ele>
				<time>2022-03-28T19:22:49Z</time>
			</trkpt>
			<trkpt lat="35.49848283" lon="-107.17919203">
				<ele>1827.1</ele>
				<time>2022-03-28T19:22:53Z</time>
			</trkpt>
			<trkpt lat="35.49849961" lon="-107.17914892">
				<ele>1825.9</ele>
				<time>2022-03-28T19:22:57Z</time>
			</trkpt>
			<trkpt lat="35.49853289" lon="-107.17910972">
				<ele>1825.8</ele>
				<time>2022-03-28T19:23:01Z</time>
			</trkpt>
			<trkpt lat="35.49855902" lon="-107.17907726">
				<ele>1825.7</ele>
				<time>2022-03-28T19:23:04Z</time>
			</trkpt>
			<trkpt lat="35.49857362" lon="-107.17902336">
				<ele>1825.9</ele>
				<time>2022-03-28T19:23:08Z</time>
			</trkpt>
			<trkpt lat="35.49858177" lon="-107.17896874">
				<ele>1825.9</ele>
				<time>2022-03-28T19:23:12Z</time>
			</trkpt>
			<trkpt lat="35.49860174" lon="-107.17892985">
				<ele>1826</ele>
				<time>2022-03-28T19:23:16Z</time>
			</trkpt>
			<trkpt lat="35.49864023" lon="-107.17889749">
				<ele>1825.5</ele>
				<time>2022-03-28T19:23:20Z</time>
			</trkpt>
			<trkpt lat="35.49866281" lon="-107.17886133">
				<ele>1825</ele>
				<time>2022-03-28T19:23:23Z</time>
			</trkpt>
			<trkpt lat="35.49870608" lon="-107.17883918">
				<ele>1824.6</ele>
				<time>2022-03-28T19:23:27Z</time>
			</trkpt>
			<trkpt lat="35.49874768" lon="-107.17881885">
				<ele>1825.2</ele>
				<time>2022-03-28T19:23:31Z</time>
			</trkpt>
			<trkpt lat="35.49878178" lon="-107.17878288">
				<ele>1825.7</ele>
				<time>2022-03-28T19:23:35Z</time>
			</trkpt>
			<trkpt lat="35.49879434" lon="-107.17873568">
				<ele>1826</ele>
				<time>2022-03-28T19:23:39Z</time>
			</trkpt>
			<trkpt lat="35.49881921" lon="-107.17869926">
				<ele>1826.1</ele>
				<time>2022-03-28T19:23:43Z</time>
			</trkpt>
			<trkpt lat="35.4988424" lon="-107.17866036">
				<ele>1827.4</ele>
				<time>2022-03-28T19:23:47Z</time>
			</trkpt>
			<trkpt lat="35.49886883" lon="-107.17863005">
				<ele>1829.4</ele>
				<time>2022-03-28T19:23:50Z</time>
			</trkpt>
			<trkpt lat="35.49888214" lon="-107.17858203">
				<ele>1830.1</ele>
				<time>2022-03-28T19:24:17Z</time>
			</trkpt>
			<trkpt lat="35.49891159" lon="-107.17854096">
				<ele>1829.9</ele>
				<time>2022-03-28T19:24:21Z</time>
			</trkpt>
			<trkpt lat="35.4989446" lon="-107.17850614">
				<ele>1828.6</ele>
				<time>2022-03-28T19:24:26Z</time>
			</trkpt>
			<trkpt lat="35.49898111" lon="-107.17848636">
				<ele>1828.6</ele>
				<time>2022-03-28T19:24:32Z</time>
			</trkpt>
			<trkpt lat="35.4990133" lon="-107.17845818">
				<ele>1828.4</ele>
				<time>2022-03-28T19:24:37Z</time>
			</trkpt>
			<trkpt lat="35.49904448" lon="-107.17842044">
				<ele>1828.4</ele>
				<time>2022-03-28T19:24:44Z</time>
			</trkpt>
			<trkpt lat="35.49908219" lon="-107.17839053">
				<ele>1827.6</ele>
				<time>2022-03-28T19:24:48Z</time>
			</trkpt>
			<trkpt lat="35.49911114" lon="-107.17835401">
				<ele>1827.1</ele>
				<time>2022-03-28T19:24:52Z</time>
			</trkpt>
			<trkpt lat="35.49914381" lon="-107.17831924">
				<ele>1826.5</ele>
				<time>2022-03-28T19:24:56Z</time>
			</trkpt>
			<trkpt lat="35.49917229" lon="-107.17828158">
				<ele>1825.9</ele>
				<time>2022-03-28T19:25:00Z</time>
			</trkpt>
			<trkpt lat="35.49920018" lon="-107.17824146">
				<ele>1825.7</ele>
				<time>2022-03-28T19:25:05Z</time>
			</trkpt>
			<trkpt lat="35.49923056" lon="-107.17820175">
				<ele>1825.9</ele>
				<time>2022-03-28T19:25:10Z</time>
			</trkpt>
			<trkpt lat="35.49925844" lon="-107.17816772">
				<ele>1825.9</ele>
				<time>2022-03-28T19:25:15Z</time>
			</trkpt>
			<trkpt lat="35.49927882" lon="-107.17812194">
				<ele>1824.8</ele>
				<time>2022-03-28T19:25:20Z</time>
			</trkpt>
			<trkpt lat="35.49929749" lon="-107.17808401">
				<ele>1824.5</ele>
				<time>2022-03-28T19:25:24Z</time>
			</trkpt>
			<trkpt lat="35.49932279" lon="-107.17805197">
				<ele>1824.5</ele>
				<time>2022-03-28T19:25:28Z</time>
			</trkpt>
			<trkpt lat="35.49934548" lon="-107.17801617">
				<ele>1824.2</ele>
				<time>2022-03-28T19:25:33Z</time>
			</trkpt>
			<trkpt lat="35.49936825" lon="-107.17797988">
				<ele>1824.1</ele>
				<time>2022-03-28T19:25:37Z</time>
			</trkpt>
			<trkpt lat="35.49940378" lon="-107.17794799">
				<ele>1824.5</ele>
				<time>2022-03-28T19:25:42Z</time>
			</trkpt>
			<trkpt lat="35.49944352" lon="-107.17792143">
				<ele>1824.9</ele>
				<time>2022-03-28T19:25:47Z</time>
			</trkpt>
			<trkpt lat="35.4994767" lon="-107.17789257">
				<ele>1823.9</ele>
				<time>2022-03-28T19:25:51Z</time>
			</trkpt>
			<trkpt lat="35.49949762" lon="-107.17785068">
				<ele>1824.1</ele>
				<time>2022-03-28T19:25:55Z</time>
			</trkpt>
			<trkpt lat="35.49952806" lon="-107.17781706">
				<ele>1824.1</ele>
				<time>2022-03-28T19:26:00Z</time>
			</trkpt>
			<trkpt lat="35.49956245" lon="-107.17778577">
				<ele>1824.7</ele>
				<time>2022-03-28T19:26:22Z</time>
			</trkpt>
			<trkpt lat="35.49960312" lon="-107.1777568">
				<ele>1824.1</ele>
				<time>2022-03-28T19:26:54Z</time>
			</trkpt>
			<trkpt lat="35.49963542" lon="-107.17773582">
				<ele>1824.6</ele>
				<time>2022-03-28T19:26:57Z</time>
			</trkpt>
			<trkpt lat="35.49967103" lon="-107.17769867">
				<ele>1824.1</ele>
				<time>2022-03-28T19:27:01Z</time>
			</trkpt>
			<trkpt lat="35.49970762" lon="-107.17767113">
				<ele>1824.3</ele>
				<time>2022-03-28T19:27:05Z</time>
			</trkpt>
			<trkpt lat="35.49974209" lon="-107.17764887">
				<ele>1824.6</ele>
				<time>2022-03-28T19:27:09Z</time>
			</trkpt>
			<trkpt lat="35.49975644" lon="-107.17760508">
				<ele>1824.9</ele>
				<time>2022-03-28T19:27:13Z</time>
			</trkpt>
			<trkpt lat="35.49977632" lon="-107.17756759">
				<ele>1825.3</ele>
				<time>2022-03-28T19:27:17Z</time>
			</trkpt>
			<trkpt lat="35.49978706" lon="-107.17752482">
				<ele>1827.9</ele>
				<time>2022-03-28T19:27:23Z</time>
			</trkpt>
			<trkpt lat="35.49980343" lon="-107.17748384">
				<ele>1828.6</ele>
				<time>2022-03-28T19:27:31Z</time>
			</trkpt>
			<trkpt lat="35.49981142" lon="-107.17743219">
				<ele>1827.5</ele>
				<time>2022-03-28T19:27:36Z</time>
			</trkpt>
			<trkpt lat="35.49979843" lon="-107.17738731">
				<ele>1828.9</ele>
				<time>2022-03-28T19:27:40Z</time>
			</trkpt>
			<trkpt lat="35.49979073" lon="-107.1773376">
				<ele>1828.7</ele>
				<time>2022-03-28T19:27:48Z</time>
			</trkpt>
			<trkpt lat="35.49980558" lon="-107.1772949">
				<ele>1828.5</ele>
				<time>2022-03-28T19:27:51Z</time>
			</trkpt>
			<trkpt lat="35.49982506" lon="-107.17725597">
				<ele>1829.2</ele>
				<time>2022-03-28T19:27:54Z</time>
			</trkpt>
			<trkpt lat="35.49985532" lon="-107.17722672">
				<ele>1828.9</ele>
				<time>2022-03-28T19:27:58Z</time>
			</trkpt>
			<trkpt lat="35.49987943" lon="-107.17719267">
				<ele>1828.7</ele>
				<time>2022-03-28T19:28:03Z</time>
			</trkpt>
			<trkpt lat="35.49990631" lon="-107.17715245">
				<ele>1827.8</ele>
				<time>2022-03-28T19:28:09Z</time>
			</trkpt>
			<trkpt lat="35.49993761" lon="-107.17712621">
				<ele>1827.3</ele>
				<time>2022-03-28T19:28:14Z</time>
			</trkpt>
			<trkpt lat="35.49997218" lon="-107.1770998">
				<ele>1827.2</ele>
				<time>2022-03-28T19:28:19Z</time>
			</trkpt>
			<trkpt lat="35.50001344" lon="-107.17708464">
				<ele>1825.4</ele>
				<time>2022-03-28T19:28:24Z</time>
			</trkpt>
			<trkpt lat="35.50004475" lon="-107.17706267">
				<ele>1824.8</ele>
				<time>2022-03-28T19:28:28Z</time>
			</trkpt>
			<trkpt lat="35.50007705" lon="-107.17702946">
				<ele>1824.5</ele>
				<time>2022-03-28T19:28:33Z</time>
			</trkpt>
			<trkpt lat="35.50008686" lon="-107.17698535">
				<ele>1820</ele>
				<time>2022-03-28T19:28:40Z</time>
			</trkpt>
			<trkpt lat="35.50005221" lon="-107.17695426">
				<ele>1820.6</ele>
				<time>2022-03-28T19:28:44Z</time>
			</trkpt>
			<trkpt lat="35.50003991" lon="-107.17691076">
				<ele>1821.9</ele>
				<time>2022-03-28T19:28:51Z</time>
			</trkpt>
			<trkpt lat="35.50005965" lon="-107.17686804">
				<ele>1822</ele>
				<time>2022-03-28T19:28:56Z</time>
			</trkpt>
			<trkpt lat="35.50007434" lon="-107.17682593">
				<ele>1822.6</ele>
				<time>2022-03-28T19:29:01Z</time>
			</trkpt>
			<trkpt lat="35.50009377" lon="-107.17677622">
				<ele>1823.9</ele>
				<time>2022-03-28T19:29:07Z</time>
			</trkpt>
			<trkpt lat="35.50009097" lon="-107.17672068">
				<ele>1822.8</ele>
				<time>2022-03-28T19:29:11Z</time>
			</trkpt>
			<trkpt lat="35.50008437" lon="-107.17666588">
				<ele>1822.9</ele>
				<time>2022-03-28T19:29:15Z</time>
			</trkpt>
			<trkpt lat="35.50008104" lon="-107.17661497">
				<ele>1823.3</ele>
				<time>2022-03-28T19:29:19Z</time>
			</trkpt>
			<trkpt lat="35.50007728" lon="-107.17656749">
				<ele>1823.4</ele>
				<time>2022-03-28T19:29:23Z</time>
			</trkpt>
			<trkpt lat="35.50006443" lon="-107.17651982">
				<ele>1823.1</ele>
				<time>2022-03-28T19:29:28Z</time>
			</trkpt>
			<trkpt lat="35.50002621" lon="-107.17652756">
				<ele>1823.9</ele>
				<time>2022-03-28T19:29:49Z</time>
			</trkpt>
			<trkpt lat="35.49999794" lon="-107.17649241">
				<ele>1825.4</ele>
				<time>2022-03-28T19:30:05Z</time>
			</trkpt>
			<trkpt lat="35.49996243" lon="-107.17650208">
				<ele>1826.4</ele>
				<time>2022-03-28T19:30:21Z</time>
			</trkpt>
			<trkpt lat="35.49992421" lon="-107.17647951">
				<ele>1829.9</ele>
				<time>2022-03-28T19:30:31Z</time>
			</trkpt>
			<trkpt lat="35.49989175" lon="-107.17645776">
				<ele>1831</ele>
				<time>2022-03-28T19:30:35Z</time>
			</trkpt>
			<trkpt lat="35.4998631" lon="-107.1764875">
				<ele>1830.7</ele>
				<time>2022-03-28T19:30:49Z</time>
			</trkpt>
			<trkpt lat="35.49983545" lon="-107.17651733">
				<ele>1829.3</ele>
				<time>2022-03-28T19:34:40Z</time>
			</trkpt>
			<trkpt lat="35.4997974" lon="-107.17653915">
				<ele>1828.2</ele>
				<time>2022-03-28T19:36:32Z</time>
			</trkpt>
			<trkpt lat="35.49982698" lon="-107.17651329">
				<ele>1831.2</ele>
				<time>2022-03-28T19:37:02Z</time>
			</trkpt>
			<trkpt lat="35.49983731" lon="-107.17656017">
				<ele>1833.6</ele>
				<time>2022-03-28T19:40:35Z</time>
			</trkpt>
			<trkpt lat="35.49984472" lon="-107.17660858">
				<ele>1833.6</ele>
				<time>2022-03-28T19:40:41Z</time>
			</trkpt>
			<trkpt lat="35.49984283" lon="-107.17665742">
				<ele>1834.3</ele>
				<time>2022-03-28T19:40:46Z</time>
			</trkpt>
			<trkpt lat="35.49984138" lon="-107.17670421">
				<ele>1834.9</ele>
				<time>2022-03-28T19:40:52Z</time>
			</trkpt>
			<trkpt lat="35.49987847" lon="-107.17671865">
				<ele>1837.6</ele>
				<time>2022-03-28T19:41:01Z</time>
			</trkpt>
			<trkpt lat="35.49985557" lon="-107.17668118">
				<ele>1837.9</ele>
				<time>2022-03-28T19:42:08Z</time>
			</trkpt>
			<trkpt lat="35.49981965" lon="-107.17665833">
				<ele>1838.5</ele>
				<time>2022-03-28T19:42:14Z</time>
			</trkpt>
			<trkpt lat="35.49977918" lon="-107.17665974">
				<ele>1840</ele>
				<time>2022-03-28T19:42:30Z</time>
			</trkpt>
			<trkpt lat="35.49974302" lon="-107.17665809">
				<ele>1842.6</ele>
				<time>2022-03-28T19:43:06Z</time>
			</trkpt>
			<trkpt lat="35.49970382" lon="-107.17667256">
				<ele>1842.2</ele>
				<time>2022-03-28T19:43:29Z</time>
			</trkpt>
			<trkpt lat="35.4996836" lon="-107.17663002">
				<ele>1848</ele>
				<time>2022-03-28T19:44:04Z</time>
			</trkpt>
			<trkpt lat="35.49965028" lon="-107.17660871">
				<ele>1849.3</ele>
				<time>2022-03-28T19:44:11Z</time>
			</trkpt>
			<trkpt lat="35.49961245" lon="-107.1766042">
				<ele>1850.6</ele>
				<time>2022-03-28T19:44:50Z</time>
			</trkpt>
			<trkpt lat="35.49958198" lon="-107.17657806">
				<ele>1850.6</ele>
				<time>2022-03-28T19:44:58Z</time>
			</trkpt>
			<trkpt lat="35.49955301" lon="-107.17654902">
				<ele>1852.2</ele>
				<time>2022-03-28T19:45:06Z</time>
			</trkpt>
			<trkpt lat="35.49952434" lon="-107.17651415">
				<ele>1851.2</ele>
				<time>2022-03-28T19:45:10Z</time>
			</trkpt>
			<trkpt lat="35.49949117" lon="-107.17648291">
				<ele>1850.6</ele>
				<time>2022-03-28T19:45:15Z</time>
			</trkpt>
			<trkpt lat="35.49946083" lon="-107.17644816">
				<ele>1850.3</ele>
				<time>2022-03-28T19:45:19Z</time>
			</trkpt>
			<trkpt lat="35.4994347" lon="-107.17641205">
				<ele>1849.9</ele>
				<time>2022-03-28T19:45:23Z</time>
			</trkpt>
			<trkpt lat="35.49940772" lon="-107.17637502">
				<ele>1849.7</ele>
				<time>2022-03-28T19:45:27Z</time>
			</trkpt>
			<trkpt lat="35.49938328" lon="-107.17634134">
				<ele>1849.7</ele>
				<time>2022-03-28T19:45:32Z</time>
			</trkpt>
			<trkpt lat="35.49936025" lon="-107.17630394">
				<ele>1849.4</ele>
				<time>2022-03-28T19:45:46Z</time>
			</trkpt>
			<trkpt lat="35.49933744" lon="-107.17626268">
				<ele>1849.3</ele>
				<time>2022-03-28T19:45:50Z</time>
			</trkpt>
			<trkpt lat="35.49931321" lon="-107.17622886">
				<ele>1849.5</ele>
				<time>2022-03-28T19:45:54Z</time>
			</trkpt>
			<trkpt lat="35.49927765" lon="-107.17620917">
				<ele>1849.1</ele>
				<time>2022-03-28T19:45:58Z</time>
			</trkpt>
			<trkpt lat="35.49924671" lon="-107.17616527">
				<ele>1849.1</ele>
				<time>2022-03-28T19:46:02Z</time>
			</trkpt>
			<trkpt lat="35.49921463" lon="-107.17612787">
				<ele>1848.7</ele>
				<time>2022-03-28T19:46:06Z</time>
			</trkpt>
			<trkpt lat="35.49919456" lon="-107.17608153">
				<ele>1849.6</ele>
				<time>2022-03-28T19:46:10Z</time>
			</trkpt>
			<trkpt lat="35.49918006" lon="-107.17602919">
				<ele>1850.5</ele>
				<time>2022-03-28T19:46:14Z</time>
			</trkpt>
			<trkpt lat="35.49915496" lon="-107.17598791">
				<ele>1851.2</ele>
				<time>2022-03-28T19:46:18Z</time>
			</trkpt>
			<trkpt lat="35.49913988" lon="-107.1759393">
				<ele>1851.2</ele>
				<time>2022-03-28T19:46:22Z</time>
			</trkpt>
			<trkpt lat="35.4991222" lon="-107.17589494">
				<ele>1851</ele>
				<time>2022-03-28T19:46:26Z</time>
			</trkpt>
			<trkpt lat="35.49910062" lon="-107.17585181">
				<ele>1851.2</ele>
				<time>2022-03-28T19:46:31Z</time>
			</trkpt>
			<trkpt lat="35.49907854" lon="-107.17581154">
				<ele>1851.4</ele>
				<time>2022-03-28T19:46:36Z</time>
			</trkpt>
			<trkpt lat="35.49908407" lon="-107.17575875">
				<ele>1852.3</ele>
				<time>2022-03-28T19:46:41Z</time>
			</trkpt>
			<trkpt lat="35.49908902" lon="-107.17571011">
				<ele>1853.5</ele>
				<time>2022-03-28T19:46:47Z</time>
			</trkpt>
			<trkpt lat="35.49908619" lon="-107.17565546">
				<ele>1854.2</ele>
				<time>2022-03-28T19:46:55Z</time>
			</trkpt>
			<trkpt lat="35.49908886" lon="-107.1756028">
				<ele>1854</ele>
				<time>2022-03-28T19:46:59Z</time>
			</trkpt>
			<trkpt lat="35.49908449" lon="-107.17555297">
				<ele>1854.3</ele>
				<time>2022-03-28T19:47:03Z</time>
			</trkpt>
			<trkpt lat="35.49908773" lon="-107.17550219">
				<ele>1855.3</ele>
				<time>2022-03-28T19:47:07Z</time>
			</trkpt>
			<trkpt lat="35.49909289" lon="-107.17544773">
				<ele>1855.5</ele>
				<time>2022-03-28T19:47:11Z</time>
			</trkpt>
			<trkpt lat="35.49909803" lon="-107.17540023">
				<ele>1855.8</ele>
				<time>2022-03-28T19:47:15Z</time>
			</trkpt>
			<trkpt lat="35.49910785" lon="-107.17534837">
				<ele>1855.8</ele>
				<time>2022-03-28T19:47:20Z</time>
			</trkpt>
			<trkpt lat="35.49910367" lon="-107.17530388">
				<ele>1855.9</ele>
				<time>2022-03-28T19:47:24Z</time>
			</trkpt>
			<trkpt lat="35.49910142" lon="-107.17525418">
				<ele>1856.3</ele>
				<time>2022-03-28T19:47:28Z</time>
			</trkpt>
			<trkpt lat="35.49910227" lon="-107.17520391">
				<ele>1856.8</ele>
				<time>2022-03-28T19:47:32Z</time>
			</trkpt>
			<trkpt lat="35.49909701" lon="-107.17515563">
				<ele>1857.6</ele>
				<time>2022-03-28T19:47:36Z</time>
			</trkpt>
			<trkpt lat="35.49909943" lon="-107.17510895">
				<ele>1857.2</ele>
				<time>2022-03-28T19:47:40Z</time>
			</trkpt>
			<trkpt lat="35.49909856" lon="-107.17505768">
				<ele>1856.8</ele>
				<time>2022-03-28T19:47:45Z</time>
			</trkpt>
			<trkpt lat="35.49909122" lon="-107.17500755">
				<ele>1857.2</ele>
				<time>2022-03-28T19:47:50Z</time>
			</trkpt>
			<trkpt lat="35.49910145" lon="-107.17495668">
				<ele>1857.2</ele>
				<time>2022-03-28T19:47:54Z</time>
			</trkpt>
			<trkpt lat="35.49911658" lon="-107.1749102">
				<ele>1858.1</ele>
				<time>2022-03-28T19:47:58Z</time>
			</trkpt>
			<trkpt lat="35.49910575" lon="-107.17486663">
				<ele>1860.1</ele>
				<time>2022-03-28T19:48:14Z</time>
			</trkpt>
			<trkpt lat="35.49910285" lon="-107.1748179">
				<ele>1859.5</ele>
				<time>2022-03-28T19:48:18Z</time>
			</trkpt>
			<trkpt lat="35.49911841" lon="-107.17476519">
				<ele>1859.8</ele>
				<time>2022-03-28T19:48:22Z</time>
			</trkpt>
			<trkpt lat="35.49912459" lon="-107.17471174">
				<ele>1859.1</ele>
				<time>2022-03-28T19:48:26Z</time>
			</trkpt>
			<trkpt lat="35.49913835" lon="-107.17467023">
				<ele>1857.8</ele>
				<time>2022-03-28T19:48:30Z</time>
			</trkpt>
			<trkpt lat="35.49917374" lon="-107.17464273">
				<ele>1857.7</ele>
				<time>2022-03-28T19:48:35Z</time>
			</trkpt>
			<trkpt lat="35.49919713" lon="-107.17460832">
				<ele>1856.8</ele>
				<time>2022-03-28T19:48:48Z</time>
			</trkpt>
			<trkpt lat="35.49921373" lon="-107.17456709">
				<ele>1857.3</ele>
				<time>2022-03-28T19:48:53Z</time>
			</trkpt>
			<trkpt lat="35.49925346" lon="-107.17454432">
				<ele>1856.8</ele>
				<time>2022-03-28T19:48:59Z</time>
			</trkpt>
			<trkpt lat="35.4992772" lon="-107.17450693">
				<ele>1855.6</ele>
				<time>2022-03-28T19:49:03Z</time>
			</trkpt>
			<trkpt lat="35.49928931" lon="-107.17446044">
				<ele>1856.8</ele>
				<time>2022-03-28T19:49:09Z</time>
			</trkpt>
			<trkpt lat="35.499272" lon="-107.17442065">
				<ele>1857.5</ele>
				<time>2022-03-28T19:49:14Z</time>
			</trkpt>
			<trkpt lat="35.49923839" lon="-107.17439737">
				<ele>1857.7</ele>
				<time>2022-03-28T19:49:24Z</time>
			</trkpt>
			<trkpt lat="35.49920754" lon="-107.17436361">
				<ele>1857.8</ele>
				<time>2022-03-28T19:49:28Z</time>
			</trkpt>
			<trkpt lat="35.49918222" lon="-107.17432428">
				<ele>1858.4</ele>
				<time>2022-03-28T19:49:33Z</time>
			</trkpt>
			<trkpt lat="35.49918862" lon="-107.17427834">
				<ele>1857.7</ele>
				<time>2022-03-28T19:50:01Z</time>
			</trkpt>
			<trkpt lat="35.4991965" lon="-107.17422626">
				<ele>1858</ele>
				<time>2022-03-28T19:50:05Z</time>
			</trkpt>
			<trkpt lat="35.49920991" lon="-107.17417292">
				<ele>1858.1</ele>
				<time>2022-03-28T19:50:09Z</time>
			</trkpt>
			<trkpt lat="35.49924897" lon="-107.17415115">
				<ele>1857</ele>
				<time>2022-03-28T19:50:15Z</time>
			</trkpt>
			<trkpt lat="35.49928954" lon="-107.17414194">
				<ele>1857.2</ele>
				<time>2022-03-28T19:50:19Z</time>
			</trkpt>
			<trkpt lat="35.49932297" lon="-107.17412213">
				<ele>1857.5</ele>
				<time>2022-03-28T19:50:23Z</time>
			</trkpt>
			<trkpt lat="35.49936152" lon="-107.17413926">
				<ele>1858.1</ele>
				<time>2022-03-28T19:50:39Z</time>
			</trkpt>
			<trkpt lat="35.49939267" lon="-107.17411177">
				<ele>1856.7</ele>
				<time>2022-03-28T19:51:28Z</time>
			</trkpt>
			<trkpt lat="35.49943178" lon="-107.17409147">
				<ele>1856.3</ele>
				<time>2022-03-28T19:51:33Z</time>
			</trkpt>
			<trkpt lat="35.49946813" lon="-107.17407268">
				<ele>1856.5</ele>
				<time>2022-03-28T19:51:44Z</time>
			</trkpt>
			<trkpt lat="35.49950709" lon="-107.17406019">
				<ele>1856.6</ele>
				<time>2022-03-28T19:51:49Z</time>
			</trkpt>
			<trkpt lat="35.49954666" lon="-107.17407517">
				<ele>1855.9</ele>
				<time>2022-03-28T19:51:59Z</time>
			</trkpt>
			<trkpt lat="35.49957097" lon="-107.17404257">
				<ele>1857.1</ele>
				<time>2022-03-28T19:52:14Z</time>
			</trkpt>
			<trkpt lat="35.49953991" lon="-107.17401333">
				<ele>1857.6</ele>
				<time>2022-03-28T19:52:19Z</time>
			</trkpt>
			<trkpt lat="35.49951239" lon="-107.17397267">
				<ele>1856.3</ele>
				<time>2022-03-28T19:52:25Z</time>
			</trkpt>
			<trkpt lat="35.49948199" lon="-107.17393822">
				<ele>1855.7</ele>
				<time>2022-03-28T19:52:30Z</time>
			</trkpt>
			<trkpt lat="35.49946299" lon="-107.17389756">
				<ele>1855.7</ele>
				<time>2022-03-28T19:52:34Z</time>
			</trkpt>
			<trkpt lat="35.49943719" lon="-107.17386306">
				<ele>1855.5</ele>
				<time>2022-03-28T19:52:53Z</time>
			</trkpt>
			<trkpt lat="35.49940387" lon="-107.17382825">
				<ele>1854.7</ele>
				<time>2022-03-28T19:53:17Z</time>
			</trkpt>
			<trkpt lat="35.49937632" lon="-107.17379487">
				<ele>1853.4</ele>
				<time>2022-03-28T19:53:21Z</time>
			</trkpt>
			<trkpt lat="35.49933819" lon="-107.17377299">
				<ele>1854.6</ele>
				<time>2022-03-28T19:53:25Z</time>
			</trkpt>
			<trkpt lat="35.49930046" lon="-107.17376511">
				<ele>1855.5</ele>
				<time>2022-03-28T19:53:30Z</time>
			</trkpt>
			<trkpt lat="35.49926201" lon="-107.17375949">
				<ele>1855.2</ele>
				<time>2022-03-28T19:53:35Z</time>
			</trkpt>
			<trkpt lat="35.49927096" lon="-107.1737091">
				<ele>1856.4</ele>
				<time>2022-03-28T19:53:44Z</time>
			</trkpt>
			<trkpt lat="35.49927585" lon="-107.17366495">
				<ele>1854.6</ele>
				<time>2022-03-28T19:53:48Z</time>
			</trkpt>
			<trkpt lat="35.49928066" lon="-107.17361151">
				<ele>1854.5</ele>
				<time>2022-03-28T19:53:52Z</time>
			</trkpt>
			<trkpt lat="35.49927768" lon="-107.17355665">
				<ele>1854.3</ele>
				<time>2022-03-28T19:53:56Z</time>
			</trkpt>
			<trkpt lat="35.49927043" lon="-107.17350765">
				<ele>1854.6</ele>
				<time>2022-03-28T19:54:00Z</time>
			</trkpt>
			<trkpt lat="35.49927013" lon="-107.1734585">
				<ele>1854.3</ele>
				<time>2022-03-28T19:54:04Z</time>
			</trkpt>
			<trkpt lat="35.49926484" lon="-107.17340819">
				<ele>1854.1</ele>
				<time>2022-03-28T19:54:08Z</time>
			</trkpt>
			<trkpt lat="35.49926153" lon="-107.17336341">
				<ele>1854</ele>
				<time>2022-03-28T19:54:12Z</time>
			</trkpt>
			<trkpt lat="35.49925431" lon="-107.17331425">
				<ele>1853.9</ele>
				<time>2022-03-28T19:54:17Z</time>
			</trkpt>
			<trkpt lat="35.49924847" lon="-107.17326203">
				<ele>1853.2</ele>
				<time>2022-03-28T19:54:22Z</time>
			</trkpt>
			<trkpt lat="35.4992441" lon="-107.17321201">
				<ele>1852.3</ele>
				<time>2022-03-28T19:54:26Z</time>
			</trkpt>
			<trkpt lat="35.49923991" lon="-107.17316241">
				<ele>1853</ele>
				<time>2022-03-28T19:54:30Z</time>
			</trkpt>
			<trkpt lat="35.49924838" lon="-107.17311311">
				<ele>1853.2</ele>
				<time>2022-03-28T19:54:34Z</time>
			</trkpt>
			<trkpt lat="35.49924539" lon="-107.17306753">
				<ele>1853.1</ele>
				<time>2022-03-28T19:54:38Z</time>
			</trkpt>
			<trkpt lat="35.49924972" lon="-107.17301386">
				<ele>1853.3</ele>
				<time>2022-03-28T19:54:43Z</time>
			</trkpt>
			<trkpt lat="35.49927306" lon="-107.17297004">
				<ele>1853.4</ele>
				<time>2022-03-28T19:54:48Z</time>
			</trkpt>
			<trkpt lat="35.49929424" lon="-107.17292334">
				<ele>1853.8</ele>
				<time>2022-03-28T19:54:53Z</time>
			</trkpt>
			<trkpt lat="35.49932179" lon="-107.17287987">
				<ele>1853.5</ele>
				<time>2022-03-28T19:54:59Z</time>
			</trkpt>
			<trkpt lat="35.49934235" lon="-107.17282947">
				<ele>1853.1</ele>
				<time>2022-03-28T19:55:04Z</time>
			</trkpt>
			<trkpt lat="35.49937099" lon="-107.17279048">
				<ele>1852.4</ele>
				<time>2022-03-28T19:55:08Z</time>
			</trkpt>
			<trkpt lat="35.49940283" lon="-107.17275348">
				<ele>1852.1</ele>
				<time>2022-03-28T19:55:12Z</time>
			</trkpt>
			<trkpt lat="35.49942787" lon="-107.17272037">
				<ele>1852.5</ele>
				<time>2022-03-28T19:55:16Z</time>
			</trkpt>
			<trkpt lat="35.49943561" lon="-107.17267573">
				<ele>1853</ele>
				<time>2022-03-28T19:55:20Z</time>
			</trkpt>
			<trkpt lat="35.49945534" lon="-107.17263128">
				<ele>1853.9</ele>
				<time>2022-03-28T19:55:25Z</time>
			</trkpt>
			<trkpt lat="35.49946722" lon="-107.1725852">
				<ele>1854.4</ele>
				<time>2022-03-28T19:55:30Z</time>
			</trkpt>
			<trkpt lat="35.49946928" lon="-107.17253469">
				<ele>1854.4</ele>
				<time>2022-03-28T19:55:34Z</time>
			</trkpt>
			<trkpt lat="35.49946572" lon="-107.17248944">
				<ele>1854</ele>
				<time>2022-03-28T19:55:38Z</time>
			</trkpt>
			<trkpt lat="35.4994955" lon="-107.17245552">
				<ele>1854.6</ele>
				<time>2022-03-28T19:55:44Z</time>
			</trkpt>
			<trkpt lat="35.49952235" lon="-107.17242079">
				<ele>1854.3</ele>
				<time>2022-03-28T19:55:50Z</time>
			</trkpt>
			<trkpt lat="35.49952546" lon="-107.17237209">
				<ele>1855</ele>
				<time>2022-03-28T19:56:00Z</time>
			</trkpt>
			<trkpt lat="35.49952945" lon="-107.17232716">
				<ele>1854.5</ele>
				<time>2022-03-28T19:56:04Z</time>
			</trkpt>
			<trkpt lat="35.49953733" lon="-107.17227297">
				<ele>1853.4</ele>
				<time>2022-03-28T19:56:09Z</time>
			</trkpt>
			<trkpt lat="35.49953885" lon="-107.17222862">
				<ele>1852.3</ele>
				<time>2022-03-28T19:56:14Z</time>
			</trkpt>
			<trkpt lat="35.49954702" lon="-107.17218293">
				<ele>1851</ele>
				<time>2022-03-28T19:56:21Z</time>
			</trkpt>
			<trkpt lat="35.49955764" lon="-107.17213169">
				<ele>1849.6</ele>
				<time>2022-03-28T19:56:27Z</time>
			</trkpt>
			<trkpt lat="35.49956702" lon="-107.17208773">
				<ele>1848.7</ele>
				<time>2022-03-28T19:56:33Z</time>
			</trkpt>
			<trkpt lat="35.49958904" lon="-107.17205057">
				<ele>1847.3</ele>
				<time>2022-03-28T19:56:39Z</time>
			</trkpt>
			<trkpt lat="35.49960861" lon="-107.17200734">
				<ele>1847.5</ele>
				<time>2022-03-28T19:56:54Z</time>
			</trkpt>
			<trkpt lat="35.49964166" lon="-107.17198686">
				<ele>1847.7</ele>
				<time>2022-03-28T19:57:03Z</time>
			</trkpt>
			<trkpt lat="35.49963235" lon="-107.17194414">
				<ele>1847.2</ele>
				<time>2022-03-28T19:57:17Z</time>
			</trkpt>
			<trkpt lat="35.49963463" lon="-107.17189592">
				<ele>1845.7</ele>
				<time>2022-03-28T19:57:27Z</time>
			</trkpt>
			<trkpt lat="35.49966103" lon="-107.1718626">
				<ele>1843.8</ele>
				<time>2022-03-28T19:57:34Z</time>
			</trkpt>
			<trkpt lat="35.49970408" lon="-107.17184999">
				<ele>1842.8</ele>
				<time>2022-03-28T19:57:40Z</time>
			</trkpt>
			<trkpt lat="35.49974148" lon="-107.17183396">
				<ele>1841.5</ele>
				<time>2022-03-28T19:57:44Z</time>
			</trkpt>
			<trkpt lat="35.49977759" lon="-107.17183105">
				<ele>1840.3</ele>
				<time>2022-03-28T19:57:50Z</time>
			</trkpt>
			<trkpt lat="35.49980985" lon="-107.17180214">
				<ele>1839.8</ele>
				<time>2022-03-28T19:57:56Z</time>
			</trkpt>
			<trkpt lat="35.49985231" lon="-107.1718067">
				<ele>1838.7</ele>
				<time>2022-03-28T19:58:02Z</time>
			</trkpt>
			<trkpt lat="35.49989187" lon="-107.17179257">
				<ele>1838.1</ele>
				<time>2022-03-28T19:58:06Z</time>
			</trkpt>
			<trkpt lat="35.49992251" lon="-107.17176729">
				<ele>1836.7</ele>
				<time>2022-03-28T19:58:11Z</time>
			</trkpt>
			<trkpt lat="35.49995308" lon="-107.17173437">
				<ele>1834.6</ele>
				<time>2022-03-28T19:58:16Z</time>
			</trkpt>
			<trkpt lat="35.49996119" lon="-107.17168472">
				<ele>1833.3</ele>
				<time>2022-03-28T19:58:21Z</time>
			</trkpt>
			<trkpt lat="35.49997495" lon="-107.17162991">
				<ele>1833.5</ele>
				<time>2022-03-28T19:58:26Z</time>
			</trkpt>
			<trkpt lat="35.5000018" lon="-107.17158976">
				<ele>1832.9</ele>
				<time>2022-03-28T19:58:30Z</time>
			</trkpt>
			<trkpt lat="35.5000297" lon="-107.17156156">
				<ele>1831.2</ele>
				<time>2022-03-28T19:58:36Z</time>
			</trkpt>
			<trkpt lat="35.50006748" lon="-107.17153519">
				<ele>1830.1</ele>
				<time>2022-03-28T19:58:40Z</time>
			</trkpt>
			<trkpt lat="35.50010869" lon="-107.17151522">
				<ele>1829.4</ele>
				<time>2022-03-28T19:58:45Z</time>
			</trkpt>
			<trkpt lat="35.50014919" lon="-107.1714926">
				<ele>1829</ele>
				<time>2022-03-28T19:58:49Z</time>
			</trkpt>
			<trkpt lat="35.50018668" lon="-107.17147238">
				<ele>1829.9</ele>
				<time>2022-03-28T19:58:53Z</time>
			</trkpt>
			<trkpt lat="35.50022608" lon="-107.17145405">
				<ele>1829.1</ele>
				<time>2022-03-28T19:58:57Z</time>
			</trkpt>
			<trkpt lat="35.50026589" lon="-107.17143567">
				<ele>1829</ele>
				<time>2022-03-28T19:59:01Z</time>
			</trkpt>
			<trkpt lat="35.50030687" lon="-107.17142283">
				<ele>1829.3</ele>
				<time>2022-03-28T19:59:05Z</time>
			</trkpt>
			<trkpt lat="35.50034101" lon="-107.17138835">
				<ele>1828.9</ele>
				<time>2022-03-28T19:59:10Z</time>
			</trkpt>
			<trkpt lat="35.50037363" lon="-107.17135904">
				<ele>1829</ele>
				<time>2022-03-28T19:59:15Z</time>
			</trkpt>
			<trkpt lat="35.50041448" lon="-107.17135688">
				<ele>1829.8</ele>
				<time>2022-03-28T19:59:20Z</time>
			</trkpt>
			<trkpt lat="35.50046098" lon="-107.17135671">
				<ele>1830.6</ele>
				<time>2022-03-28T19:59:25Z</time>
			</trkpt>
			<trkpt lat="35.50049882" lon="-107.17136098">
				<ele>1830.6</ele>
				<time>2022-03-28T19:59:32Z</time>
			</trkpt>
			<trkpt lat="35.50053949" lon="-107.17136629">
				<ele>1830.6</ele>
				<time>2022-03-28T19:59:36Z</time>
			</trkpt>
			<trkpt lat="35.50058156" lon="-107.17136805">
				<ele>1831.7</ele>
				<time>2022-03-28T19:59:40Z</time>
			</trkpt>
			<trkpt lat="35.5006243" lon="-107.17135815">
				<ele>1832</ele>
				<time>2022-03-28T19:59:44Z</time>
			</trkpt>
			<trkpt lat="35.50065794" lon="-107.17133038">
				<ele>1831.1</ele>
				<time>2022-03-28T19:59:48Z</time>
			</trkpt>
			<trkpt lat="35.50069847" lon="-107.17130325">
				<ele>1832.5</ele>
				<time>2022-03-28T19:59:52Z</time>
			</trkpt>
			<trkpt lat="35.50072727" lon="-107.17126501">
				<ele>1832.7</ele>
				<time>2022-03-28T19:59:56Z</time>
			</trkpt>
			<trkpt lat="35.50074369" lon="-107.17121677">
				<ele>1831.4</ele>
				<time>2022-03-28T20:00:00Z</time>
			</trkpt>
			<trkpt lat="35.50076173" lon="-107.17116993">
				<ele>1830.8</ele>
				<time>2022-03-28T20:00:04Z</time>
			</trkpt>
			<trkpt lat="35.50076458" lon="-107.17112196">
				<ele>1830.7</ele>
				<time>2022-03-28T20:00:08Z</time>
			</trkpt>
			<trkpt lat="35.50076954" lon="-107.17107346">
				<ele>1830.9</ele>
				<time>2022-03-28T20:00:12Z</time>
			</trkpt>
			<trkpt lat="35.50077756" lon="-107.17102928">
				<ele>1831.5</ele>
				<time>2022-03-28T20:00:16Z</time>
			</trkpt>
			<trkpt lat="35.50079181" lon="-107.17098295">
				<ele>1831.5</ele>
				<time>2022-03-28T20:00:20Z</time>
			</trkpt>
			<trkpt lat="35.50082441" lon="-107.17095837">
				<ele>1831.3</ele>
				<time>2022-03-28T20:00:25Z</time>
			</trkpt>
			<trkpt lat="35.50086213" lon="-107.17093254">
				<ele>1830.2</ele>
				<time>2022-03-28T20:00:32Z</time>
			</trkpt>
			<trkpt lat="35.5008871" lon="-107.17089899">
				<ele>1829.4</ele>
				<time>2022-03-28T20:00:44Z</time>
			</trkpt>
			<trkpt lat="35.50090956" lon="-107.17086307">
				<ele>1828.8</ele>
				<time>2022-03-28T20:00:54Z</time>
			</trkpt>
			<trkpt lat="35.50094102" lon="-107.1708373">
				<ele>1827.8</ele>
				<time>2022-03-28T20:01:10Z</time>
			</trkpt>
			<trkpt lat="35.50097602" lon="-107.17082014">
				<ele>1826.5</ele>
				<time>2022-03-28T20:01:23Z</time>
			</trkpt>
			<trkpt lat="35.5010151" lon="-107.17080827">
				<ele>1824.5</ele>
				<time>2022-03-28T20:01:29Z</time>
			</trkpt>
			<trkpt lat="35.5010514" lon="-107.17082779">
				<ele>1823.5</ele>
				<time>2022-03-28T20:01:34Z</time>
			</trkpt>
			<trkpt lat="35.50108094" lon="-107.17086438">
				<ele>1824</ele>
				<time>2022-03-28T20:01:40Z</time>
			</trkpt>
			<trkpt lat="35.50109729" lon="-107.1709077">
				<ele>1823.8</ele>
				<time>2022-03-28T20:01:46Z</time>
			</trkpt>
			<trkpt lat="35.50111795" lon="-107.17094415">
				<ele>1822.9</ele>
				<time>2022-03-28T20:01:50Z</time>
			</trkpt>
			<trkpt lat="35.50115794" lon="-107.17092478">
				<ele>1821.3</ele>
				<time>2022-03-28T20:01:55Z</time>
			</trkpt>
			<trkpt lat="35.50120191" lon="-107.17092034">
				<ele>1819.3</ele>
				<time>2022-03-28T20:02:12Z</time>
			</trkpt>
			<trkpt lat="35.50124075" lon="-107.17092672">
				<ele>1817.9</ele>
				<time>2022-03-28T20:02:17Z</time>
			</trkpt>
			<trkpt lat="35.50127983" lon="-107.17094576">
				<ele>1817.2</ele>
				<time>2022-03-28T20:02:30Z</time>
			</trkpt>
			<trkpt lat="35.50131588" lon="-107.17094265">
				<ele>1816</ele>
				<time>2022-03-28T20:02:37Z</time>
			</trkpt>
			<trkpt lat="35.50135982" lon="-107.17094146">
				<ele>1814.1</ele>
				<time>2022-03-28T20:02:44Z</time>
			</trkpt>
			<trkpt lat="35.50139966" lon="-107.17095151">
				<ele>1814</ele>
				<time>2022-03-28T20:02:48Z</time>
			</trkpt>
			<trkpt lat="35.50144346" lon="-107.17094786">
				<ele>1813.5</ele>
				<time>2022-03-28T20:02:52Z</time>
			</trkpt>
			<trkpt lat="35.50148347" lon="-107.17093251">
				<ele>1813.5</ele>
				<time>2022-03-28T20:02:57Z</time>
			</trkpt>
			<trkpt lat="35.50152085" lon="-107.1709371">
				<ele>1813.6</ele>
				<time>2022-03-28T20:03:01Z</time>
			</trkpt>
			<trkpt lat="35.50155957" lon="-107.17092446">
				<ele>1812.4</ele>
				<time>2022-03-28T20:03:12Z</time>
			</trkpt>
			<trkpt lat="35.50159299" lon="-107.1709057">
				<ele>1811.3</ele>
				<time>2022-03-28T20:03:17Z</time>
			</trkpt>
			<trkpt lat="35.50162854" lon="-107.17091407">
				<ele>1812.2</ele>
				<time>2022-03-28T20:03:21Z</time>
			</trkpt>
			<trkpt lat="35.50167122" lon="-107.17090938">
				<ele>1812.1</ele>
				<time>2022-03-28T20:03:26Z</time>
			</trkpt>
			<trkpt lat="35.5017108" lon="-107.1709275">
				<ele>1813.4</ele>
				<time>2022-03-28T20:03:31Z</time>
			</trkpt>
			<trkpt lat="35.50174652" lon="-107.17094071">
				<ele>1813.5</ele>
				<time>2022-03-28T20:03:36Z</time>
			</trkpt>
			<trkpt lat="35.50178684" lon="-107.17092501">
				<ele>1813.9</ele>
				<time>2022-03-28T20:03:42Z</time>
			</trkpt>
			<trkpt lat="35.5018231" lon="-107.1709143">
				<ele>1813.2</ele>
				<time>2022-03-28T20:03:46Z</time>
			</trkpt>
			<trkpt lat="35.50186584" lon="-107.17091488">
				<ele>1813.6</ele>
				<time>2022-03-28T20:03:51Z</time>
			</trkpt>
			<trkpt lat="35.50190598" lon="-107.17092543">
				<ele>1813</ele>
				<time>2022-03-28T20:03:56Z</time>
			</trkpt>
			<trkpt lat="35.50194279" lon="-107.17092359">
				<ele>1813</ele>
				<time>2022-03-28T20:04:00Z</time>
			</trkpt>
			<trkpt lat="35.50197612" lon="-107.17090291">
				<ele>1813.8</ele>
				<time>2022-03-28T20:04:12Z</time>
			</trkpt>
			<trkpt lat="35.50201673" lon="-107.1709">
				<ele>1813.6</ele>
				<time>2022-03-28T20:04:17Z</time>
			</trkpt>
			<trkpt lat="35.50205767" lon="-107.1709144">
				<ele>1814.5</ele>
				<time>2022-03-28T20:04:22Z</time>
			</trkpt>
			<trkpt lat="35.50210139" lon="-107.17092499">
				<ele>1814.9</ele>
				<time>2022-03-28T20:04:26Z</time>
			</trkpt>
			<trkpt lat="35.50214399" lon="-107.17093578">
				<ele>1814</ele>
				<time>2022-03-28T20:04:31Z</time>
			</trkpt>
			<trkpt lat="35.50218006" lon="-107.17093427">
				<ele>1814.1</ele>
				<time>2022-03-28T20:04:37Z</time>
			</trkpt>
			<trkpt lat="35.50215901" lon="-107.17088677">
				<ele>1816.2</ele>
				<time>2022-03-28T20:05:47Z</time>
			</trkpt>
			<trkpt lat="35.50217901" lon="-107.17092564">
				<ele>1816.7</ele>
				<time>2022-03-28T20:06:45Z</time>
			</trkpt>
			<trkpt lat="35.50220875" lon="-107.17096064">
				<ele>1816</ele>
				<time>2022-03-28T20:07:12Z</time>
			</trkpt>
			<trkpt lat="35.50224005" lon="-107.17100009">
				<ele>1816.4</ele>
				<time>2022-03-28T20:07:16Z</time>
			</trkpt>
			<trkpt lat="35.50227196" lon="-107.17103748">
				<ele>1816.6</ele>
				<time>2022-03-28T20:07:20Z</time>
			</trkpt>
			<trkpt lat="35.50230307" lon="-107.17106364">
				<ele>1816.8</ele>
				<time>2022-03-28T20:07:24Z</time>
			</trkpt>
			<trkpt lat="35.50233805" lon="-107.17108844">
				<ele>1816</ele>
				<time>2022-03-28T20:07:28Z</time>
			</trkpt>
			<trkpt lat="35.50237486" lon="-107.17111693">
				<ele>1815.7</ele>
				<time>2022-03-28T20:07:32Z</time>
			</trkpt>
			<trkpt lat="35.50239658" lon="-107.17115242">
				<ele>1815.6</ele>
				<time>2022-03-28T20:07:36Z</time>
			</trkpt>
			<trkpt lat="35.50242461" lon="-107.1711869">
				<ele>1816.5</ele>
				<time>2022-03-28T20:07:49Z</time>
			</trkpt>
			<trkpt lat="35.50245991" lon="-107.17122041">
				<ele>1816</ele>
				<time>2022-03-28T20:07:53Z</time>
			</trkpt>
			<trkpt lat="35.50249547" lon="-107.17125347">
				<ele>1816.3</ele>
				<time>2022-03-28T20:07:57Z</time>
			</trkpt>
			<trkpt lat="35.50252694" lon="-107.17128871">
				<ele>1813.2</ele>
				<time>2022-03-28T20:08:01Z</time>
			</trkpt>
			<trkpt lat="35.50255046" lon="-107.17132444">
				<ele>1811.3</ele>
				<time>2022-03-28T20:08:04Z</time>
			</trkpt>
			<trkpt lat="35.50258611" lon="-107.17136125">
				<ele>1811.3</ele>
				<time>2022-03-28T20:08:08Z</time>
			</trkpt>
			<trkpt lat="35.50261902" lon="-107.17139404">
				<ele>1811.5</ele>
				<time>2022-03-28T20:08:12Z</time>
			</trkpt>
			<trkpt lat="35.50263996" lon="-107.17143284">
				<ele>1811.4</ele>
				<time>2022-03-28T20:08:15Z</time>
			</trkpt>
			<trkpt lat="35.50266313" lon="-107.17148485">
				<ele>1810.8</ele>
				<time>2022-03-28T20:08:19Z</time>
			</trkpt>
			<trkpt lat="35.50269297" lon="-107.17152319">
				<ele>1810.9</ele>
				<time>2022-03-28T20:08:23Z</time>
			</trkpt>
			<trkpt lat="35.50272861" lon="-107.17154439">
				<ele>1812.1</ele>
				<time>2022-03-28T20:08:27Z</time>
			</trkpt>
			<trkpt lat="35.50276499" lon="-107.17157808">
				<ele>1810.9</ele>
				<time>2022-03-28T20:08:31Z</time>
			</trkpt>
			<trkpt lat="35.50279958" lon="-107.17160497">
				<ele>1808.3</ele>
				<time>2022-03-28T20:08:35Z</time>
			</trkpt>
			<trkpt lat="35.50284061" lon="-107.17161049">
				<ele>1808.6</ele>
				<time>2022-03-28T20:08:41Z</time>
			</trkpt>
			<trkpt lat="35.50287836" lon="-107.17162373">
				<ele>1810.3</ele>
				<time>2022-03-28T20:08:47Z</time>
			</trkpt>
			<trkpt lat="35.50291922" lon="-107.17163468">
				<ele>1810.1</ele>
				<time>2022-03-28T20:08:52Z</time>
			</trkpt>
			<trkpt lat="35.50295544" lon="-107.17165195">
				<ele>1808.9</ele>
				<time>2022-03-28T20:08:56Z</time>
			</trkpt>
			<trkpt lat="35.50298637" lon="-107.17168046">
				<ele>1809</ele>
				<time>2022-03-28T20:09:00Z</time>
			</trkpt>
			<trkpt lat="35.50301835" lon="-107.17170792">
				<ele>1807.7</ele>
				<time>2022-03-28T20:09:04Z</time>
			</trkpt>
			<trkpt lat="35.50305512" lon="-107.1717143">
				<ele>1805.5</ele>
				<time>2022-03-28T20:09:10Z</time>
			</trkpt>
			<trkpt lat="35.50309625" lon="-107.17171905">
				<ele>1806.8</ele>
				<time>2022-03-28T20:09:14Z</time>
			</trkpt>
			<trkpt lat="35.50313534" lon="-107.1717124">
				<ele>1807.4</ele>
				<time>2022-03-28T20:09:21Z</time>
			</trkpt>
			<trkpt lat="35.50317094" lon="-107.17170294">
				<ele>1808.6</ele>
				<time>2022-03-28T20:09:25Z</time>
			</trkpt>
			<trkpt lat="35.50320668" lon="-107.17168907">
				<ele>1809.4</ele>
				<time>2022-03-28T20:09:40Z</time>
			</trkpt>
			<trkpt lat="35.50324462" lon="-107.17169732">
				<ele>1808.3</ele>
				<time>2022-03-28T20:09:46Z</time>
			</trkpt>
			<trkpt lat="35.50328132" lon="-107.17169451">
				<ele>1806.8</ele>
				<time>2022-03-28T20:10:29Z</time>
			</trkpt>
			<trkpt lat="35.50332146" lon="-107.1716763">
				<ele>1805.7</ele>
				<time>2022-03-28T20:10:34Z</time>
			</trkpt>
			<trkpt lat="35.5033677" lon="-107.17167295">
				<ele>1804.7</ele>
				<time>2022-03-28T20:10:39Z</time>
			</trkpt>
			<trkpt lat="35.50340727" lon="-107.17166879">
				<ele>1802.5</ele>
				<time>2022-03-28T20:10:43Z</time>
			</trkpt>
			<trkpt lat="35.50344293" lon="-107.17165932">
				<ele>1801.3</ele>
				<time>2022-03-28T20:10:47Z</time>
			</trkpt>
			<trkpt lat="35.50347076" lon="-107.17162726">
				<ele>1802.4</ele>
				<time>2022-03-28T20:10:51Z</time>
			</trkpt>
			<trkpt lat="35.50349728" lon="-107.17159267">
				<ele>1804.2</ele>
				<time>2022-03-28T20:10:55Z</time>
			</trkpt>
			<trkpt lat="35.50352604" lon="-107.17156112">
				<ele>1803.7</ele>
				<time>2022-03-28T20:11:00Z</time>
			</trkpt>
			<trkpt lat="35.50354496" lon="-107.17151894">
				<ele>1805.8</ele>
				<time>2022-03-28T20:11:04Z</time>
			</trkpt>
			<trkpt lat="35.50357713" lon="-107.1714911">
				<ele>1805</ele>
				<time>2022-03-28T20:11:09Z</time>
			</trkpt>
			<trkpt lat="35.50357193" lon="-107.17144635">
				<ele>1806</ele>
				<time>2022-03-28T20:11:15Z</time>
			</trkpt>
			<trkpt lat="35.50359436" lon="-107.17139936">
				<ele>1806.7</ele>
				<time>2022-03-28T20:11:19Z</time>
			</trkpt>
			<trkpt lat="35.50362747" lon="-107.17138007">
				<ele>1806.2</ele>
				<time>2022-03-28T20:11:22Z</time>
			</trkpt>
			<trkpt lat="35.50361354" lon="-107.17133281">
				<ele>1807.4</ele>
				<time>2022-03-28T20:11:25Z</time>
			</trkpt>
			<trkpt lat="35.50360467" lon="-107.17127968">
				<ele>1808.2</ele>
				<time>2022-03-28T20:11:30Z</time>
			</trkpt>
			<trkpt lat="35.50360617" lon="-107.17122957">
				<ele>1807.8</ele>
				<time>2022-03-28T20:11:34Z</time>
			</trkpt>
			<trkpt lat="35.50361286" lon="-107.1711855">
				<ele>1812.1</ele>
				<time>2022-03-28T20:11:53Z</time>
			</trkpt>
			<trkpt lat="35.50363078" lon="-107.17113638">
				<ele>1811.7</ele>
				<time>2022-03-28T20:11:58Z</time>
			</trkpt>
			<trkpt lat="35.50366449" lon="-107.17110096">
				<ele>1810.2</ele>
				<time>2022-03-28T20:12:03Z</time>
			</trkpt>
			<trkpt lat="35.50368444" lon="-107.1710525">
				<ele>1810.6</ele>
				<time>2022-03-28T20:12:07Z</time>
			</trkpt>
			<trkpt lat="35.50371228" lon="-107.17101264">
				<ele>1811.6</ele>
				<time>2022-03-28T20:12:11Z</time>
			</trkpt>
			<trkpt lat="35.50374409" lon="-107.17098329">
				<ele>1811.9</ele>
				<time>2022-03-28T20:12:15Z</time>
			</trkpt>
			<trkpt lat="35.50378163" lon="-107.17095291">
				<ele>1811.2</ele>
				<time>2022-03-28T20:12:20Z</time>
			</trkpt>
			<trkpt lat="35.50381725" lon="-107.1709265">
				<ele>1809.8</ele>
				<time>2022-03-28T20:12:24Z</time>
			</trkpt>
			<trkpt lat="35.50385135" lon="-107.1709008">
				<ele>1811.6</ele>
				<time>2022-03-28T20:12:29Z</time>
			</trkpt>
			<trkpt lat="35.50388946" lon="-107.17088129">
				<ele>1811.2</ele>
				<time>2022-03-28T20:12:33Z</time>
			</trkpt>
			<trkpt lat="35.50392103" lon="-107.17084869">
				<ele>1810.5</ele>
				<time>2022-03-28T20:12:37Z</time>
			</trkpt>
			<trkpt lat="35.50394433" lon="-107.17080202">
				<ele>1810.2</ele>
				<time>2022-03-28T20:12:42Z</time>
			</trkpt>
			<trkpt lat="35.50395791" lon="-107.17076113">
				<ele>1808.3</ele>
				<time>2022-03-28T20:12:46Z</time>
			</trkpt>
			<trkpt lat="35.50397081" lon="-107.17071532">
				<ele>1808.7</ele>
				<time>2022-03-28T20:12:50Z</time>
			</trkpt>
			<trkpt lat="35.50400291" lon="-107.17069224">
				<ele>1809.5</ele>
				<time>2022-03-28T20:12:56Z</time>
			</trkpt>
			<trkpt lat="35.50401572" lon="-107.17064744">
				<ele>1810.5</ele>
				<time>2022-03-28T20:13:09Z</time>
			</trkpt>
			<trkpt lat="35.50404656" lon="-107.17062064">
				<ele>1810.9</ele>
				<time>2022-03-28T20:13:12Z</time>
			</trkpt>
			<trkpt lat="35.50407352" lon="-107.17059079">
				<ele>1811.3</ele>
				<time>2022-03-28T20:13:15Z</time>
			</trkpt>
			<trkpt lat="35.50409669" lon="-107.17055002">
				<ele>1811.6</ele>
				<time>2022-03-28T20:13:19Z</time>
			</trkpt>
			<trkpt lat="35.50411803" lon="-107.1705112">
				<ele>1810.1</ele>
				<time>2022-03-28T20:13:23Z</time>
			</trkpt>
			<trkpt lat="35.5041424" lon="-107.17047067">
				<ele>1809.4</ele>
				<time>2022-03-28T20:13:39Z</time>
			</trkpt>
			<trkpt lat="35.50415647" lon="-107.17042928">
				<ele>1807.6</ele>
				<time>2022-03-28T20:13:42Z</time>
			</trkpt>
			<trkpt lat="35.50416394" lon="-107.17037803">
				<ele>1807.9</ele>
				<time>2022-03-28T20:13:46Z</time>
			</trkpt>
			<trkpt lat="35.50418347" lon="-107.17033138">
				<ele>1808</ele>
				<time>2022-03-28T20:13:50Z</time>
			</trkpt>
			<trkpt lat="35.50419682" lon="-107.17028034">
				<ele>1808</ele>
				<time>2022-03-28T20:13:54Z</time>
			</trkpt>
			<trkpt lat="35.50420909" lon="-107.17022688">
				<ele>1808.3</ele>
				<time>2022-03-28T20:13:58Z</time>
			</trkpt>
			<trkpt lat="35.50420974" lon="-107.17017195">
				<ele>1807.7</ele>
				<time>2022-03-28T20:14:02Z</time>
			</trkpt>
			<trkpt lat="35.50421598" lon="-107.17012107">
				<ele>1807.7</ele>
				<time>2022-03-28T20:14:06Z</time>
			</trkpt>
			<trkpt lat="35.50423143" lon="-107.17007221">
				<ele>1806.4</ele>
				<time>2022-03-28T20:14:10Z</time>
			</trkpt>
			<trkpt lat="35.50425106" lon="-107.17002558">
				<ele>1807.3</ele>
				<time>2022-03-28T20:14:14Z</time>
			</trkpt>
			<trkpt lat="35.50426626" lon="-107.16997616">
				<ele>1807.5</ele>
				<time>2022-03-28T20:14:18Z</time>
			</trkpt>
			<trkpt lat="35.50428731" lon="-107.16993254">
				<ele>1807.8</ele>
				<time>2022-03-28T20:14:22Z</time>
			</trkpt>
			<trkpt lat="35.50431235" lon="-107.16988246">
				<ele>1806.5</ele>
				<time>2022-03-28T20:14:26Z</time>
			</trkpt>
			<trkpt lat="35.50433286" lon="-107.16983401">
				<ele>1806.8</ele>
				<time>2022-03-28T20:14:30Z</time>
			</trkpt>
			<trkpt lat="35.50435303" lon="-107.16978957">
				<ele>1807.2</ele>
				<time>2022-03-28T20:14:34Z</time>
			</trkpt>
			<trkpt lat="35.50438103" lon="-107.16974296">
				<ele>1806.3</ele>
				<time>2022-03-28T20:14:38Z</time>
			</trkpt>
			<trkpt lat="35.50439603" lon="-107.16969038">
				<ele>1806.5</ele>
				<time>2022-03-28T20:14:42Z</time>
			</trkpt>
			<trkpt lat="35.50440672" lon="-107.16963691">
				<ele>1806</ele>
				<time>2022-03-28T20:14:46Z</time>
			</trkpt>
			<trkpt lat="35.50441878" lon="-107.16959287">
				<ele>1805.6</ele>
				<time>2022-03-28T20:14:50Z</time>
			</trkpt>
			<trkpt lat="35.50441535" lon="-107.16954662">
				<ele>1804.6</ele>
				<time>2022-03-28T20:14:54Z</time>
			</trkpt>
			<trkpt lat="35.50442739" lon="-107.16949176">
				<ele>1802.4</ele>
				<time>2022-03-28T20:14:58Z</time>
			</trkpt>
			<trkpt lat="35.50444422" lon="-107.16944248">
				<ele>1803</ele>
				<time>2022-03-28T20:15:02Z</time>
			</trkpt>
			<trkpt lat="35.5044538" lon="-107.16938778">
				<ele>1802.5</ele>
				<time>2022-03-28T20:15:06Z</time>
			</trkpt>
			<trkpt lat="35.50445598" lon="-107.16932775">
				<ele>1801.7</ele>
				<time>2022-03-28T20:15:10Z</time>
			</trkpt>
			<trkpt lat="35.50445146" lon="-107.16927924">
				<ele>1802.6</ele>
				<time>2022-03-28T20:15:14Z</time>
			</trkpt>
			<trkpt lat="35.50445201" lon="-107.16923116">
				<ele>1803.2</ele>
				<time>2022-03-28T20:15:18Z</time>
			</trkpt>
			<trkpt lat="35.5044361" lon="-107.1691876">
				<ele>1803.7</ele>
				<time>2022-03-28T20:15:22Z</time>
			</trkpt>
			<trkpt lat="35.5044352" lon="-107.16913461">
				<ele>1803.6</ele>
				<time>2022-03-28T20:15:26Z</time>
			</trkpt>
			<trkpt lat="35.50443378" lon="-107.16908097">
				<ele>1803.9</ele>
				<time>2022-03-28T20:15:30Z</time>
			</trkpt>
			<trkpt lat="35.50442527" lon="-107.1690355">
				<ele>1804.2</ele>
				<time>2022-03-28T20:15:34Z</time>
			</trkpt>
			<trkpt lat="35.50442072" lon="-107.16899027">
				<ele>1803.6</ele>
				<time>2022-03-28T20:15:38Z</time>
			</trkpt>
			<trkpt lat="35.50441766" lon="-107.16894343">
				<ele>1804.5</ele>
				<time>2022-03-28T20:15:42Z</time>
			</trkpt>
			<trkpt lat="35.50442472" lon="-107.16888836">
				<ele>1803.3</ele>
				<time>2022-03-28T20:15:46Z</time>
			</trkpt>
			<trkpt lat="35.5044201" lon="-107.16883506">
				<ele>1802.9</ele>
				<time>2022-03-28T20:15:50Z</time>
			</trkpt>
			<trkpt lat="35.50442391" lon="-107.16878406">
				<ele>1804.3</ele>
				<time>2022-03-28T20:15:54Z</time>
			</trkpt>
			<trkpt lat="35.50442537" lon="-107.1687393">
				<ele>1804.7</ele>
				<time>2022-03-28T20:15:58Z</time>
			</trkpt>
			<trkpt lat="35.50441439" lon="-107.16869562">
				<ele>1804.8</ele>
				<time>2022-03-28T20:16:02Z</time>
			</trkpt>
			<trkpt lat="35.50441936" lon="-107.16864347">
				<ele>1805.2</ele>
				<time>2022-03-28T20:16:07Z</time>
			</trkpt>
			<trkpt lat="35.50441522" lon="-107.1685881">
				<ele>1804.8</ele>
				<time>2022-03-28T20:16:12Z</time>
			</trkpt>
			<trkpt lat="35.50441967" lon="-107.16854367">
				<ele>1804.6</ele>
				<time>2022-03-28T20:16:15Z</time>
			</trkpt>
			<trkpt lat="35.50441117" lon="-107.16849728">
				<ele>1804.9</ele>
				<time>2022-03-28T20:16:18Z</time>
			</trkpt>
			<trkpt lat="35.50439339" lon="-107.16844855">
				<ele>1804.7</ele>
				<time>2022-03-28T20:16:22Z</time>
			</trkpt>
			<trkpt lat="35.50440182" lon="-107.1684046">
				<ele>1805.6</ele>
				<time>2022-03-28T20:16:26Z</time>
			</trkpt>
			<trkpt lat="35.50441373" lon="-107.16836153">
				<ele>1807.2</ele>
				<time>2022-03-28T20:16:31Z</time>
			</trkpt>
			<trkpt lat="35.50441402" lon="-107.16831352">
				<ele>1807</ele>
				<time>2022-03-28T20:16:35Z</time>
			</trkpt>
			<trkpt lat="35.50439751" lon="-107.16826128">
				<ele>1807.2</ele>
				<time>2022-03-28T20:16:39Z</time>
			</trkpt>
			<trkpt lat="35.50438441" lon="-107.16821996">
				<ele>1807.2</ele>
				<time>2022-03-28T20:16:42Z</time>
			</trkpt>
			<trkpt lat="35.5043737" lon="-107.16817371">
				<ele>1807</ele>
				<time>2022-03-28T20:16:45Z</time>
			</trkpt>
			<trkpt lat="35.5043649" lon="-107.16812523">
				<ele>1807.2</ele>
				<time>2022-03-28T20:16:49Z</time>
			</trkpt>
			<trkpt lat="35.50435574" lon="-107.16808237">
				<ele>1806.6</ele>
				<time>2022-03-28T20:16:53Z</time>
			</trkpt>
			<trkpt lat="35.50435371" lon="-107.16803176">
				<ele>1805.9</ele>
				<time>2022-03-28T20:16:57Z</time>
			</trkpt>
			<trkpt lat="35.50436993" lon="-107.16799022">
				<ele>1805.9</ele>
				<time>2022-03-28T20:17:01Z</time>
			</trkpt>
			<trkpt lat="35.5043713" lon="-107.16794584">
				<ele>1807.2</ele>
				<time>2022-03-28T20:17:05Z</time>
			</trkpt>
			<trkpt lat="35.50435893" lon="-107.16790172">
				<ele>1807.9</ele>
				<time>2022-03-28T20:17:09Z</time>
			</trkpt>
			<trkpt lat="35.50435104" lon="-107.1678556">
				<ele>1808.4</ele>
				<time>2022-03-28T20:17:13Z</time>
			</trkpt>
			<trkpt lat="35.50433625" lon="-107.16781192">
				<ele>1809.3</ele>
				<time>2022-03-28T20:17:16Z</time>
			</trkpt>
			<trkpt lat="35.50432829" lon="-107.16775426">
				<ele>1810.2</ele>
				<time>2022-03-28T20:17:20Z</time>
			</trkpt>
			<trkpt lat="35.50431428" lon="-107.16770374">
				<ele>1810.1</ele>
				<time>2022-03-28T20:17:24Z</time>
			</trkpt>
			<trkpt lat="35.50431524" lon="-107.16765086">
				<ele>1810.1</ele>
				<time>2022-03-28T20:17:28Z</time>
			</trkpt>
			<trkpt lat="35.50432677" lon="-107.16760893">
				<ele>1810</ele>
				<time>2022-03-28T20:17:31Z</time>
			</trkpt>
			<trkpt lat="35.50433583" lon="-107.167559">
				<ele>1809.9</ele>
				<time>2022-03-28T20:17:35Z</time>
			</trkpt>
			<trkpt lat="35.50435146" lon="-107.16750729">
				<ele>1808.7</ele>
				<time>2022-03-28T20:17:39Z</time>
			</trkpt>
			<trkpt lat="35.50436924" lon="-107.16746599">
				<ele>1809.3</ele>
				<time>2022-03-28T20:17:43Z</time>
			</trkpt>
			<trkpt lat="35.50439337" lon="-107.16742468">
				<ele>1808.7</ele>
				<time>2022-03-28T20:17:47Z</time>
			</trkpt>
			<trkpt lat="35.50440205" lon="-107.16738155">
				<ele>1807.7</ele>
				<time>2022-03-28T20:17:50Z</time>
			</trkpt>
			<trkpt lat="35.50441568" lon="-107.16732466">
				<ele>1806.5</ele>
				<time>2022-03-28T20:17:54Z</time>
			</trkpt>
			<trkpt lat="35.50443537" lon="-107.1672792">
				<ele>1805.5</ele>
				<time>2022-03-28T20:17:58Z</time>
			</trkpt>
			<trkpt lat="35.50446005" lon="-107.16723748">
				<ele>1805.5</ele>
				<time>2022-03-28T20:18:02Z</time>
			</trkpt>
			<trkpt lat="35.50448477" lon="-107.16718927">
				<ele>1805.7</ele>
				<time>2022-03-28T20:18:06Z</time>
			</trkpt>
			<trkpt lat="35.50450571" lon="-107.16714268">
				<ele>1805.6</ele>
				<time>2022-03-28T20:18:10Z</time>
			</trkpt>
			<trkpt lat="35.50451856" lon="-107.16708696">
				<ele>1805.2</ele>
				<time>2022-03-28T20:18:14Z</time>
			</trkpt>
			<trkpt lat="35.50452352" lon="-107.16704158">
				<ele>1804.7</ele>
				<time>2022-03-28T20:18:17Z</time>
			</trkpt>
			<trkpt lat="35.50453065" lon="-107.16698961">
				<ele>1805</ele>
				<time>2022-03-28T20:18:21Z</time>
			</trkpt>
			<trkpt lat="35.50453699" lon="-107.16694068">
				<ele>1804.6</ele>
				<time>2022-03-28T20:18:25Z</time>
			</trkpt>
			<trkpt lat="35.50454361" lon="-107.16689321">
				<ele>1804.2</ele>
				<time>2022-03-28T20:18:29Z</time>
			</trkpt>
			<trkpt lat="35.50455109" lon="-107.16684528">
				<ele>1804</ele>
				<time>2022-03-28T20:18:36Z</time>
			</trkpt>
			<trkpt lat="35.50457457" lon="-107.16680279">
				<ele>1802.9</ele>
				<time>2022-03-28T20:18:40Z</time>
			</trkpt>
			<trkpt lat="35.5045911" lon="-107.16675694">
				<ele>1803.4</ele>
				<time>2022-03-28T20:18:44Z</time>
			</trkpt>
			<trkpt lat="35.50460636" lon="-107.1667079">
				<ele>1804.8</ele>
				<time>2022-03-28T20:18:49Z</time>
			</trkpt>
			<trkpt lat="35.50462292" lon="-107.1666594">
				<ele>1804.2</ele>
				<time>2022-03-28T20:18:53Z</time>
			</trkpt>
			<trkpt lat="35.50462414" lon="-107.16660392">
				<ele>1804</ele>
				<time>2022-03-28T20:18:57Z</time>
			</trkpt>
			<trkpt lat="35.50463058" lon="-107.16654954">
				<ele>1804.3</ele>
				<time>2022-03-28T20:19:01Z</time>
			</trkpt>
			<trkpt lat="35.50463372" lon="-107.16650003">
				<ele>1804.6</ele>
				<time>2022-03-28T20:19:05Z</time>
			</trkpt>
			<trkpt lat="35.50464508" lon="-107.16644802">
				<ele>1804.2</ele>
				<time>2022-03-28T20:19:09Z</time>
			</trkpt>
			<trkpt lat="35.50465059" lon="-107.16639937">
				<ele>1803.8</ele>
				<time>2022-03-28T20:19:13Z</time>
			</trkpt>
			<trkpt lat="35.50464705" lon="-107.16635381">
				<ele>1803.2</ele>
				<time>2022-03-28T20:19:19Z</time>
			</trkpt>
			<trkpt lat="35.50463686" lon="-107.16630995">
				<ele>1802.5</ele>
				<time>2022-03-28T20:19:24Z</time>
			</trkpt>
			<trkpt lat="35.50461048" lon="-107.1662715">
				<ele>1802.8</ele>
				<time>2022-03-28T20:19:31Z</time>
			</trkpt>
			<trkpt lat="35.50457902" lon="-107.16624467">
				<ele>1803.2</ele>
				<time>2022-03-28T20:19:35Z</time>
			</trkpt>
			<trkpt lat="35.5045525" lon="-107.16620933">
				<ele>1803.1</ele>
				<time>2022-03-28T20:19:39Z</time>
			</trkpt>
			<trkpt lat="35.5045353" lon="-107.16615827">
				<ele>1803.5</ele>
				<time>2022-03-28T20:19:43Z</time>
			</trkpt>
			<trkpt lat="35.50451086" lon="-107.16610747">
				<ele>1804.6</ele>
				<time>2022-03-28T20:19:47Z</time>
			</trkpt>
			<trkpt lat="35.50448634" lon="-107.16605985">
				<ele>1805.2</ele>
				<time>2022-03-28T20:19:51Z</time>
			</trkpt>
			<trkpt lat="35.50446097" lon="-107.16601029">
				<ele>1804.2</ele>
				<time>2022-03-28T20:19:55Z</time>
			</trkpt>
			<trkpt lat="35.50443787" lon="-107.16596847">
				<ele>1804.1</ele>
				<time>2022-03-28T20:19:59Z</time>
			</trkpt>
			<trkpt lat="35.50442084" lon="-107.1659235">
				<ele>1804.8</ele>
				<time>2022-03-28T20:20:03Z</time>
			</trkpt>
			<trkpt lat="35.50440097" lon="-107.16588203">
				<ele>1804.4</ele>
				<time>2022-03-28T20:20:06Z</time>
			</trkpt>
			<trkpt lat="35.50437805" lon="-107.1658339">
				<ele>1803.8</ele>
				<time>2022-03-28T20:20:10Z</time>
			</trkpt>
			<trkpt lat="35.50435814" lon="-107.16579501">
				<ele>1802.9</ele>
				<time>2022-03-28T20:20:14Z</time>
			</trkpt>
			<trkpt lat="35.50434491" lon="-107.16575321">
				<ele>1802.5</ele>
				<time>2022-03-28T20:20:21Z</time>
			</trkpt>
			<trkpt lat="35.50435189" lon="-107.16570991">
				<ele>1801.6</ele>
				<time>2022-03-28T20:20:24Z</time>
			</trkpt>
			<trkpt lat="35.50435485" lon="-107.16566504">
				<ele>1801.8</ele>
				<time>2022-03-28T20:21:07Z</time>
			</trkpt>
			<trkpt lat="35.50433571" lon="-107.16561919">
				<ele>1800.2</ele>
				<time>2022-03-28T20:21:12Z</time>
			</trkpt>
			<trkpt lat="35.50429865" lon="-107.16559463">
				<ele>1799.5</ele>
				<time>2022-03-28T20:21:17Z</time>
			</trkpt>
			<trkpt lat="35.50426161" lon="-107.16557246">
				<ele>1799.2</ele>
				<time>2022-03-28T20:21:23Z</time>
			</trkpt>
			<trkpt lat="35.50422488" lon="-107.16554264">
				<ele>1797.5</ele>
				<time>2022-03-28T20:21:27Z</time>
			</trkpt>
			<trkpt lat="35.50419154" lon="-107.16551572">
				<ele>1796</ele>
				<time>2022-03-28T20:21:40Z</time>
			</trkpt>
			<trkpt lat="35.50415215" lon="-107.16548885">
				<ele>1797.4</ele>
				<time>2022-03-28T20:21:45Z</time>
			</trkpt>
			<trkpt lat="35.5041148" lon="-107.16546816">
				<ele>1798.2</ele>
				<time>2022-03-28T20:21:49Z</time>
			</trkpt>
			<trkpt lat="35.50407282" lon="-107.16545476">
				<ele>1800.3</ele>
				<time>2022-03-28T20:21:53Z</time>
			</trkpt>
			<trkpt lat="35.50403015" lon="-107.16544137">
				<ele>1801.8</ele>
				<time>2022-03-28T20:21:58Z</time>
			</trkpt>
			<trkpt lat="35.5039887" lon="-107.16543207">
				<ele>1803.5</ele>
				<time>2022-03-28T20:22:02Z</time>
			</trkpt>
			<trkpt lat="35.50394431" lon="-107.16541844">
				<ele>1804.4</ele>
				<time>2022-03-28T20:22:06Z</time>
			</trkpt>
			<trkpt lat="35.50390277" lon="-107.16540786">
				<ele>1804.9</ele>
				<time>2022-03-28T20:22:10Z</time>
			</trkpt>
			<trkpt lat="35.50386412" lon="-107.16540298">
				<ele>1805.4</ele>
				<time>2022-03-28T20:22:14Z</time>
			</trkpt>
			<trkpt lat="35.50383964" lon="-107.165364">
				<ele>1803.2</ele>
				<time>2022-03-28T20:22:20Z</time>
			</trkpt>
			<trkpt lat="35.50381111" lon="-107.16532805">
				<ele>1804.1</ele>
				<time>2022-03-28T20:22:26Z</time>
			</trkpt>
			<trkpt lat="35.50377523" lon="-107.16530056">
				<ele>1804.5</ele>
				<time>2022-03-28T20:22:30Z</time>
			</trkpt>
			<trkpt lat="35.50373727" lon="-107.16530732">
				<ele>1804</ele>
				<time>2022-03-28T20:22:34Z</time>
			</trkpt>
			<trkpt lat="35.50369535" lon="-107.1653057">
				<ele>1804.6</ele>
				<time>2022-03-28T20:22:38Z</time>
			</trkpt>
			<trkpt lat="35.50365582" lon="-107.16529363">
				<ele>1805</ele>
				<time>2022-03-28T20:22:43Z</time>
			</trkpt>
			<trkpt lat="35.50362077" lon="-107.16528074">
				<ele>1804.1</ele>
				<time>2022-03-28T20:22:48Z</time>
			</trkpt>
			<trkpt lat="35.50357906" lon="-107.16527277">
				<ele>1802.1</ele>
				<time>2022-03-28T20:22:54Z</time>
			</trkpt>
			<trkpt lat="35.50354854" lon="-107.16524144">
				<ele>1801.1</ele>
				<time>2022-03-28T20:22:59Z</time>
			</trkpt>
			<trkpt lat="35.50352971" lon="-107.16520159">
				<ele>1799.8</ele>
				<time>2022-03-28T20:23:04Z</time>
			</trkpt>
			<trkpt lat="35.50351079" lon="-107.16516317">
				<ele>1800.5</ele>
				<time>2022-03-28T20:23:08Z</time>
			</trkpt>
			<trkpt lat="35.50351062" lon="-107.16510452">
				<ele>1800.3</ele>
				<time>2022-03-28T20:23:13Z</time>
			</trkpt>
			<trkpt lat="35.50349459" lon="-107.16506401">
				<ele>1800.4</ele>
				<time>2022-03-28T20:23:17Z</time>
			</trkpt>
			<trkpt lat="35.50349565" lon="-107.16501131">
				<ele>1801</ele>
				<time>2022-03-28T20:23:23Z</time>
			</trkpt>
			<trkpt lat="35.50348568" lon="-107.1649564">
				<ele>1799.7</ele>
				<time>2022-03-28T20:23:28Z</time>
			</trkpt>
			<trkpt lat="35.50347591" lon="-107.16491224">
				<ele>1799.5</ele>
				<time>2022-03-28T20:23:32Z</time>
			</trkpt>
			<trkpt lat="35.50348165" lon="-107.1648677">
				<ele>1798.3</ele>
				<time>2022-03-28T20:23:36Z</time>
			</trkpt>
			<trkpt lat="35.50348223" lon="-107.16482079">
				<ele>1797.7</ele>
				<time>2022-03-28T20:23:40Z</time>
			</trkpt>
			<trkpt lat="35.50348026" lon="-107.16477174">
				<ele>1798.2</ele>
				<time>2022-03-28T20:23:44Z</time>
			</trkpt>
			<trkpt lat="35.50346872" lon="-107.16472562">
				<ele>1798.4</ele>
				<time>2022-03-28T20:23:48Z</time>
			</trkpt>
			<trkpt lat="35.50346821" lon="-107.16468051">
				<ele>1797.4</ele>
				<time>2022-03-28T20:23:51Z</time>
			</trkpt>
			<trkpt lat="35.50347299" lon="-107.16462568">
				<ele>1796.8</ele>
				<time>2022-03-28T20:23:55Z</time>
			</trkpt>
			<trkpt lat="35.50346877" lon="-107.16457665">
				<ele>1797.2</ele>
				<time>2022-03-28T20:23:59Z</time>
			</trkpt>
			<trkpt lat="35.50346904" lon="-107.16453171">
				<ele>1797.3</ele>
				<time>2022-03-28T20:24:02Z</time>
			</trkpt>
			<trkpt lat="35.50346933" lon="-107.16447931">
				<ele>1798.1</ele>
				<time>2022-03-28T20:24:06Z</time>
			</trkpt>
			<trkpt lat="35.50344818" lon="-107.16443117">
				<ele>1798</ele>
				<time>2022-03-28T20:24:10Z</time>
			</trkpt>
			<trkpt lat="35.50343748" lon="-107.16437959">
				<ele>1798.7</ele>
				<time>2022-03-28T20:24:14Z</time>
			</trkpt>
			<trkpt lat="35.50342525" lon="-107.16432667">
				<ele>1798.2</ele>
				<time>2022-03-28T20:24:18Z</time>
			</trkpt>
			<trkpt lat="35.50340344" lon="-107.16428912">
				<ele>1799</ele>
				<time>2022-03-28T20:24:21Z</time>
			</trkpt>
			<trkpt lat="35.50338348" lon="-107.16425222">
				<ele>1798.2</ele>
				<time>2022-03-28T20:24:24Z</time>
			</trkpt>
			<trkpt lat="35.50334993" lon="-107.16421312">
				<ele>1797.7</ele>
				<time>2022-03-28T20:24:28Z</time>
			</trkpt>
			<trkpt lat="35.50332432" lon="-107.1641787">
				<ele>1797.7</ele>
				<time>2022-03-28T20:24:31Z</time>
			</trkpt>
			<trkpt lat="35.50330943" lon="-107.16413785">
				<ele>1797.2</ele>
				<time>2022-03-28T20:24:34Z</time>
			</trkpt>
			<trkpt lat="35.50328679" lon="-107.16409445">
				<ele>1797.2</ele>
				<time>2022-03-28T20:24:38Z</time>
			</trkpt>
			<trkpt lat="35.50327047" lon="-107.16404782">
				<ele>1797.2</ele>
				<time>2022-03-28T20:24:42Z</time>
			</trkpt>
			<trkpt lat="35.50324811" lon="-107.16400106">
				<ele>1797.1</ele>
				<time>2022-03-28T20:24:47Z</time>
			</trkpt>
			<trkpt lat="35.50323118" lon="-107.16395483">
				<ele>1797.7</ele>
				<time>2022-03-28T20:24:51Z</time>
			</trkpt>
			<trkpt lat="35.50321042" lon="-107.16391267">
				<ele>1798.6</ele>
				<time>2022-03-28T20:24:56Z</time>
			</trkpt>
			<trkpt lat="35.50318776" lon="-107.16387163">
				<ele>1798.6</ele>
				<time>2022-03-28T20:25:00Z</time>
			</trkpt>
			<trkpt lat="35.50317037" lon="-107.16382687">
				<ele>1799</ele>
				<time>2022-03-28T20:25:04Z</time>
			</trkpt>
			<trkpt lat="35.50314892" lon="-107.16378281">
				<ele>1798.5</ele>
				<time>2022-03-28T20:25:08Z</time>
			</trkpt>
			<trkpt lat="35.50312878" lon="-107.16374014">
				<ele>1796.7</ele>
				<time>2022-03-28T20:25:11Z</time>
			</trkpt>
			<trkpt lat="35.50311456" lon="-107.16369686">
				<ele>1796</ele>
				<time>2022-03-28T20:25:14Z</time>
			</trkpt>
			<trkpt lat="35.50310621" lon="-107.16364743">
				<ele>1796</ele>
				<time>2022-03-28T20:25:18Z</time>
			</trkpt>
			<trkpt lat="35.50309645" lon="-107.16360105">
				<ele>1797.1</ele>
				<time>2022-03-28T20:25:22Z</time>
			</trkpt>
			<trkpt lat="35.50307728" lon="-107.16355207">
				<ele>1796.4</ele>
				<time>2022-03-28T20:25:26Z</time>
			</trkpt>
			<trkpt lat="35.50305815" lon="-107.16350466">
				<ele>1795.7</ele>
				<time>2022-03-28T20:25:30Z</time>
			</trkpt>
			<trkpt lat="35.50304088" lon="-107.16345651">
				<ele>1796.3</ele>
				<time>2022-03-28T20:25:34Z</time>
			</trkpt>
			<trkpt lat="35.50303604" lon="-107.16340757">
				<ele>1795.7</ele>
				<time>2022-03-28T20:25:37Z</time>
			</trkpt>
			<trkpt lat="35.50303721" lon="-107.16335392">
				<ele>1795.6</ele>
				<time>2022-03-28T20:25:41Z</time>
			</trkpt>
			<trkpt lat="35.50302811" lon="-107.16330163">
				<ele>1795.6</ele>
				<time>2022-03-28T20:25:45Z</time>
			</trkpt>
			<trkpt lat="35.50303196" lon="-107.16325693">
				<ele>1794.9</ele>
				<time>2022-03-28T20:25:48Z</time>
			</trkpt>
			<trkpt lat="35.50303633" lon="-107.16319732">
				<ele>1794.2</ele>
				<time>2022-03-28T20:25:52Z</time>
			</trkpt>
			<trkpt lat="35.50303018" lon="-107.16314342">
				<ele>1792.2</ele>
				<time>2022-03-28T20:25:56Z</time>
			</trkpt>
			<trkpt lat="35.50301719" lon="-107.16308788">
				<ele>1791.8</ele>
				<time>2022-03-28T20:26:00Z</time>
			</trkpt>
			<trkpt lat="35.50302567" lon="-107.16303687">
				<ele>1792.6</ele>
				<time>2022-03-28T20:26:04Z</time>
			</trkpt>
			<trkpt lat="35.50305425" lon="-107.16299783">
				<ele>1794</ele>
				<time>2022-03-28T20:26:08Z</time>
			</trkpt>
			<trkpt lat="35.50306273" lon="-107.16295332">
				<ele>1793.9</ele>
				<time>2022-03-28T20:26:12Z</time>
			</trkpt>
			<trkpt lat="35.50306367" lon="-107.16290151">
				<ele>1793.6</ele>
				<time>2022-03-28T20:26:16Z</time>
			</trkpt>
			<trkpt lat="35.50304877" lon="-107.16285249">
				<ele>1793.2</ele>
				<time>2022-03-28T20:26:20Z</time>
			</trkpt>
			<trkpt lat="35.50306326" lon="-107.16280439">
				<ele>1793</ele>
				<time>2022-03-28T20:26:24Z</time>
			</trkpt>
			<trkpt lat="35.5030733" lon="-107.16276093">
				<ele>1793.5</ele>
				<time>2022-03-28T20:26:30Z</time>
			</trkpt>
			<trkpt lat="35.50307502" lon="-107.16270601">
				<ele>1793.6</ele>
				<time>2022-03-28T20:26:35Z</time>
			</trkpt>
			<trkpt lat="35.50308581" lon="-107.16266191">
				<ele>1794.1</ele>
				<time>2022-03-28T20:26:39Z</time>
			</trkpt>
			<trkpt lat="35.50307334" lon="-107.16260986">
				<ele>1792.6</ele>
				<time>2022-03-28T20:26:44Z</time>
			</trkpt>
			<trkpt lat="35.50308607" lon="-107.16256477">
				<ele>1793.1</ele>
				<time>2022-03-28T20:26:48Z</time>
			</trkpt>
			<trkpt lat="35.50309587" lon="-107.16251591">
				<ele>1793.9</ele>
				<time>2022-03-28T20:26:56Z</time>
			</trkpt>
			<trkpt lat="35.50311131" lon="-107.16247542">
				<ele>1792.3</ele>
				<time>2022-03-28T20:26:59Z</time>
			</trkpt>
			<trkpt lat="35.5031304" lon="-107.1624354">
				<ele>1792.1</ele>
				<time>2022-03-28T20:27:02Z</time>
			</trkpt>
			<trkpt lat="35.50314355" lon="-107.16239317">
				<ele>1792.5</ele>
				<time>2022-03-28T20:27:06Z</time>
			</trkpt>
			<trkpt lat="35.50313562" lon="-107.16234639">
				<ele>1792.5</ele>
				<time>2022-03-28T20:27:11Z</time>
			</trkpt>
			<trkpt lat="35.50312745" lon="-107.16229294">
				<ele>1790.5</ele>
				<time>2022-03-28T20:27:15Z</time>
			</trkpt>
			<trkpt lat="35.50313312" lon="-107.16224535">
				<ele>1790.5</ele>
				<time>2022-03-28T20:27:19Z</time>
			</trkpt>
			<trkpt lat="35.503147" lon="-107.16219318">
				<ele>1791.2</ele>
				<time>2022-03-28T20:27:23Z</time>
			</trkpt>
			<trkpt lat="35.50315554" lon="-107.16214654">
				<ele>1791.3</ele>
				<time>2022-03-28T20:27:26Z</time>
			</trkpt>
			<trkpt lat="35.50315953" lon="-107.16209527">
				<ele>1792.5</ele>
				<time>2022-03-28T20:27:30Z</time>
			</trkpt>
			<trkpt lat="35.50316389" lon="-107.16203708">
				<ele>1791.9</ele>
				<time>2022-03-28T20:27:34Z</time>
			</trkpt>
			<trkpt lat="35.50317616" lon="-107.16199323">
				<ele>1792.1</ele>
				<time>2022-03-28T20:27:37Z</time>
			</trkpt>
			<trkpt lat="35.50318378" lon="-107.16194284">
				<ele>1792.7</ele>
				<time>2022-03-28T20:27:41Z</time>
			</trkpt>
			<trkpt lat="35.5031896" lon="-107.16189377">
				<ele>1792.5</ele>
				<time>2022-03-28T20:27:45Z</time>
			</trkpt>
			<trkpt lat="35.50318197" lon="-107.16184128">
				<ele>1791.3</ele>
				<time>2022-03-28T20:27:50Z</time>
			</trkpt>
			<trkpt lat="35.50318476" lon="-107.16178847">
				<ele>1792.6</ele>
				<time>2022-03-28T20:28:02Z</time>
			</trkpt>
			<trkpt lat="35.50318557" lon="-107.16174343">
				<ele>1794</ele>
				<time>2022-03-28T20:28:06Z</time>
			</trkpt>
			<trkpt lat="35.50318461" lon="-107.16169008">
				<ele>1794.3</ele>
				<time>2022-03-28T20:28:10Z</time>
			</trkpt>
			<trkpt lat="35.50318538" lon="-107.16164471">
				<ele>1794</ele>
				<time>2022-03-28T20:28:13Z</time>
			</trkpt>
			<trkpt lat="35.50318235" lon="-107.16159611">
				<ele>1793.8</ele>
				<time>2022-03-28T20:28:16Z</time>
			</trkpt>
			<trkpt lat="35.50318315" lon="-107.16154323">
				<ele>1794.1</ele>
				<time>2022-03-28T20:28:20Z</time>
			</trkpt>
			<trkpt lat="35.50319204" lon="-107.16148878">
				<ele>1794.2</ele>
				<time>2022-03-28T20:28:24Z</time>
			</trkpt>
			<trkpt lat="35.50319979" lon="-107.16143562">
				<ele>1794.6</ele>
				<time>2022-03-28T20:28:28Z</time>
			</trkpt>
			<trkpt lat="35.50319906" lon="-107.16139107">
				<ele>1795</ele>
				<time>2022-03-28T20:28:32Z</time>
			</trkpt>
			<trkpt lat="35.50320767" lon="-107.16133532">
				<ele>1796.1</ele>
				<time>2022-03-28T20:29:24Z</time>
			</trkpt>
			<trkpt lat="35.50321011" lon="-107.16128759">
				<ele>1796.2</ele>
				<time>2022-03-28T20:29:28Z</time>
			</trkpt>
			<trkpt lat="35.50322708" lon="-107.16124132">
				<ele>1796.4</ele>
				<time>2022-03-28T20:29:32Z</time>
			</trkpt>
			<trkpt lat="35.50322922" lon="-107.16118702">
				<ele>1797.3</ele>
				<time>2022-03-28T20:29:37Z</time>
			</trkpt>
			<trkpt lat="35.50323334" lon="-107.16113682">
				<ele>1798</ele>
				<time>2022-03-28T20:29:41Z</time>
			</trkpt>
			<trkpt lat="35.50322974" lon="-107.16108209">
				<ele>1797.5</ele>
				<time>2022-03-28T20:29:45Z</time>
			</trkpt>
			<trkpt lat="35.50320546" lon="-107.16103989">
				<ele>1798</ele>
				<time>2022-03-28T20:29:50Z</time>
			</trkpt>
			<trkpt lat="35.50322394" lon="-107.16099019">
				<ele>1798.2</ele>
				<time>2022-03-28T20:29:54Z</time>
			</trkpt>
			<trkpt lat="35.50323188" lon="-107.16094531">
				<ele>1798.3</ele>
				<time>2022-03-28T20:29:58Z</time>
			</trkpt>
			<trkpt lat="35.50322716" lon="-107.16089461">
				<ele>1798.3</ele>
				<time>2022-03-28T20:30:02Z</time>
			</trkpt>
			<trkpt lat="35.50323101" lon="-107.16084349">
				<ele>1798.3</ele>
				<time>2022-03-28T20:30:06Z</time>
			</trkpt>
			<trkpt lat="35.50322004" lon="-107.16079531">
				<ele>1798.5</ele>
				<time>2022-03-28T20:30:10Z</time>
			</trkpt>
			<trkpt lat="35.50321721" lon="-107.16074849">
				<ele>1797.4</ele>
				<time>2022-03-28T20:30:13Z</time>
			</trkpt>
			<trkpt lat="35.50321577" lon="-107.16070315">
				<ele>1796.8</ele>
				<time>2022-03-28T20:30:16Z</time>
			</trkpt>
			<trkpt lat="35.50321728" lon="-107.1606533">
				<ele>1796.3</ele>
				<time>2022-03-28T20:30:19Z</time>
			</trkpt>
			<trkpt lat="35.5032227" lon="-107.16060896">
				<ele>1797.1</ele>
				<time>2022-03-28T20:30:22Z</time>
			</trkpt>
			<trkpt lat="35.50322195" lon="-107.16055524">
				<ele>1796.5</ele>
				<time>2022-03-28T20:30:26Z</time>
			</trkpt>
			<trkpt lat="35.50322845" lon="-107.16049733">
				<ele>1795.4</ele>
				<time>2022-03-28T20:30:30Z</time>
			</trkpt>
			<trkpt lat="35.50322655" lon="-107.16044055">
				<ele>1795.6</ele>
				<time>2022-03-28T20:30:34Z</time>
			</trkpt>
			<trkpt lat="35.50322283" lon="-107.16038847">
				<ele>1797.1</ele>
				<time>2022-03-28T20:30:38Z</time>
			</trkpt>
			<trkpt lat="35.50320655" lon="-107.16034658">
				<ele>1796.7</ele>
				<time>2022-03-28T20:30:41Z</time>
			</trkpt>
			<trkpt lat="35.50321362" lon="-107.16029249">
				<ele>1795.5</ele>
				<time>2022-03-28T20:30:45Z</time>
			</trkpt>
			<trkpt lat="35.50321091" lon="-107.16024227">
				<ele>1797</ele>
				<time>2022-03-28T20:30:49Z</time>
			</trkpt>
			<trkpt lat="35.50321312" lon="-107.16019776">
				<ele>1796.5</ele>
				<time>2022-03-28T20:30:53Z</time>
			</trkpt>
			<trkpt lat="35.50322673" lon="-107.16015553">
				<ele>1796.5</ele>
				<time>2022-03-28T20:30:57Z</time>
			</trkpt>
			<trkpt lat="35.5032452" lon="-107.16011251">
				<ele>1794.1</ele>
				<time>2022-03-28T20:31:01Z</time>
			</trkpt>
			<trkpt lat="35.50327226" lon="-107.16006983">
				<ele>1793.6</ele>
				<time>2022-03-28T20:31:05Z</time>
			</trkpt>
			<trkpt lat="35.50329678" lon="-107.16002651">
				<ele>1793.8</ele>
				<time>2022-03-28T20:31:09Z</time>
			</trkpt>
			<trkpt lat="35.5033189" lon="-107.15998586">
				<ele>1794</ele>
				<time>2022-03-28T20:31:13Z</time>
			</trkpt>
			<trkpt lat="35.50334072" lon="-107.15993317">
				<ele>1793.7</ele>
				<time>2022-03-28T20:31:17Z</time>
			</trkpt>
			<trkpt lat="35.50336463" lon="-107.15988932">
				<ele>1794.2</ele>
				<time>2022-03-28T20:31:21Z</time>
			</trkpt>
			<trkpt lat="35.50339066" lon="-107.15984518">
				<ele>1794.2</ele>
				<time>2022-03-28T20:31:25Z</time>
			</trkpt>
			<trkpt lat="35.50340592" lon="-107.1597998">
				<ele>1794.3</ele>
				<time>2022-03-28T20:31:29Z</time>
			</trkpt>
			<trkpt lat="35.50342697" lon="-107.15975152">
				<ele>1793.9</ele>
				<time>2022-03-28T20:31:33Z</time>
			</trkpt>
			<trkpt lat="35.50345196" lon="-107.15970824">
				<ele>1793.9</ele>
				<time>2022-03-28T20:31:42Z</time>
			</trkpt>
			<trkpt lat="35.50346826" lon="-107.1596652">
				<ele>1793</ele>
				<time>2022-03-28T20:31:45Z</time>
			</trkpt>
			<trkpt lat="35.50349407" lon="-107.15963182">
				<ele>1793.2</ele>
				<time>2022-03-28T20:31:48Z</time>
			</trkpt>
			<trkpt lat="35.50351465" lon="-107.15958806">
				<ele>1793.3</ele>
				<time>2022-03-28T20:31:52Z</time>
			</trkpt>
			<trkpt lat="35.50353714" lon="-107.15954495">
				<ele>1793.3</ele>
				<time>2022-03-28T20:31:56Z</time>
			</trkpt>
			<trkpt lat="35.50355184" lon="-107.15949297">
				<ele>1793.1</ele>
				<time>2022-03-28T20:32:00Z</time>
			</trkpt>
			<trkpt lat="35.50357487" lon="-107.15944676">
				<ele>1794</ele>
				<time>2022-03-28T20:32:04Z</time>
			</trkpt>
			<trkpt lat="35.50359025" lon="-107.15939258">
				<ele>1793.8</ele>
				<time>2022-03-28T20:32:08Z</time>
			</trkpt>
			<trkpt lat="35.50361497" lon="-107.15934275">
				<ele>1794.7</ele>
				<time>2022-03-28T20:32:12Z</time>
			</trkpt>
			<trkpt lat="35.50364806" lon="-107.15930469">
				<ele>1794.3</ele>
				<time>2022-03-28T20:32:16Z</time>
			</trkpt>
			<trkpt lat="35.50366607" lon="-107.15926143">
				<ele>1795.5</ele>
				<time>2022-03-28T20:32:22Z</time>
			</trkpt>
			<trkpt lat="35.50369447" lon="-107.15922074">
				<ele>1796.8</ele>
				<time>2022-03-28T20:32:27Z</time>
			</trkpt>
			<trkpt lat="35.50371483" lon="-107.15917126">
				<ele>1795.4</ele>
				<time>2022-03-28T20:32:32Z</time>
			</trkpt>
			<trkpt lat="35.50372008" lon="-107.15912392">
				<ele>1794.4</ele>
				<time>2022-03-28T20:32:36Z</time>
			</trkpt>
			<trkpt lat="35.50372691" lon="-107.15907811">
				<ele>1794.8</ele>
				<time>2022-03-28T20:32:42Z</time>
			</trkpt>
			<trkpt lat="35.5037679" lon="-107.15907471">
				<ele>1795.1</ele>
				<time>2022-03-28T20:32:46Z</time>
			</trkpt>
			<trkpt lat="35.50380017" lon="-107.15904336">
				<ele>1795.2</ele>
				<time>2022-03-28T20:32:50Z</time>
			</trkpt>
			<trkpt lat="35.5038215" lon="-107.1589965">
				<ele>1795.3</ele>
				<time>2022-03-28T20:32:54Z</time>
			</trkpt>
			<trkpt lat="35.50384064" lon="-107.15895485">
				<ele>1795</ele>
				<time>2022-03-28T20:32:58Z</time>
			</trkpt>
			<trkpt lat="35.50385783" lon="-107.15891538">
				<ele>1794.7</ele>
				<time>2022-03-28T20:33:02Z</time>
			</trkpt>
			<trkpt lat="35.50386927" lon="-107.15886508">
				<ele>1795.3</ele>
				<time>2022-03-28T20:33:07Z</time>
			</trkpt>
			<trkpt lat="35.5038899" lon="-107.15881765">
				<ele>1794.7</ele>
				<time>2022-03-28T20:33:11Z</time>
			</trkpt>
			<trkpt lat="35.50392391" lon="-107.15878124">
				<ele>1794.2</ele>
				<time>2022-03-28T20:33:15Z</time>
			</trkpt>
			<trkpt lat="35.50394877" lon="-107.15873416">
				<ele>1794.4</ele>
				<time>2022-03-28T20:33:19Z</time>
			</trkpt>
			<trkpt lat="35.50397924" lon="-107.15869702">
				<ele>1794.6</ele>
				<time>2022-03-28T20:33:23Z</time>
			</trkpt>
			<trkpt lat="35.50401634" lon="-107.158665">
				<ele>1794.9</ele>
				<time>2022-03-28T20:33:27Z</time>
			</trkpt>
			<trkpt lat="35.50404861" lon="-107.15862338">
				<ele>1795</ele>
				<time>2022-03-28T20:33:31Z</time>
			</trkpt>
			<trkpt lat="35.50406632" lon="-107.15858405">
				<ele>1794.8</ele>
				<time>2022-03-28T20:33:35Z</time>
			</trkpt>
			<trkpt lat="35.50406042" lon="-107.1585305">
				<ele>1795.6</ele>
				<time>2022-03-28T20:33:40Z</time>
			</trkpt>
			<trkpt lat="35.50410364" lon="-107.15852478">
				<ele>1795.1</ele>
				<time>2022-03-28T20:33:46Z</time>
			</trkpt>
			<trkpt lat="35.50414125" lon="-107.15850345">
				<ele>1795.6</ele>
				<time>2022-03-28T20:33:51Z</time>
			</trkpt>
			<trkpt lat="35.50417025" lon="-107.15846922">
				<ele>1795.8</ele>
				<time>2022-03-28T20:34:00Z</time>
			</trkpt>
			<trkpt lat="35.50415211" lon="-107.15842301">
				<ele>1795.4</ele>
				<time>2022-03-28T20:34:04Z</time>
			</trkpt>
			<trkpt lat="35.50412202" lon="-107.15837764">
				<ele>1795.5</ele>
				<time>2022-03-28T20:34:08Z</time>
			</trkpt>
			<trkpt lat="35.50409042" lon="-107.15834675">
				<ele>1795.4</ele>
				<time>2022-03-28T20:34:11Z</time>
			</trkpt>
			<trkpt lat="35.50405193" lon="-107.1583198">
				<ele>1795.4</ele>
				<time>2022-03-28T20:34:15Z</time>
			</trkpt>
			<trkpt lat="35.50401593" lon="-107.15830565">
				<ele>1796.8</ele>
				<time>2022-03-28T20:34:20Z</time>
			</trkpt>
			<trkpt lat="35.50398723" lon="-107.15826847">
				<ele>1795.4</ele>
				<time>2022-03-28T20:34:26Z</time>
			</trkpt>
			<trkpt lat="35.503961" lon="-107.15823361">
				<ele>1791.9</ele>
				<time>2022-03-28T20:34:32Z</time>
			</trkpt>
			<trkpt lat="35.50397068" lon="-107.15818796">
				<ele>1792.8</ele>
				<time>2022-03-28T20:34:36Z</time>
			</trkpt>
			<trkpt lat="35.50397723" lon="-107.15814232">
				<ele>1794.6</ele>
				<time>2022-03-28T20:34:42Z</time>
			</trkpt>
			<trkpt lat="35.50398945" lon="-107.15809397">
				<ele>1793.3</ele>
				<time>2022-03-28T20:34:47Z</time>
			</trkpt>
			<trkpt lat="35.50399482" lon="-107.15804924">
				<ele>1793.5</ele>
				<time>2022-03-28T20:34:51Z</time>
			</trkpt>
			<trkpt lat="35.50401788" lon="-107.15800095">
				<ele>1792.2</ele>
				<time>2022-03-28T20:34:55Z</time>
			</trkpt>
			<trkpt lat="35.50402036" lon="-107.15795139">
				<ele>1792.3</ele>
				<time>2022-03-28T20:34:59Z</time>
			</trkpt>
			<trkpt lat="35.50402754" lon="-107.15789885">
				<ele>1792.1</ele>
				<time>2022-03-28T20:35:04Z</time>
			</trkpt>
			<trkpt lat="35.50404537" lon="-107.1578571">
				<ele>1792.3</ele>
				<time>2022-03-28T20:35:08Z</time>
			</trkpt>
			<trkpt lat="35.50406329" lon="-107.1578044">
				<ele>1793.2</ele>
				<time>2022-03-28T20:35:12Z</time>
			</trkpt>
			<trkpt lat="35.50407941" lon="-107.15776233">
				<ele>1794.1</ele>
				<time>2022-03-28T20:35:16Z</time>
			</trkpt>
			<trkpt lat="35.50409737" lon="-107.15771724">
				<ele>1793.9</ele>
				<time>2022-03-28T20:35:21Z</time>
			</trkpt>
			<trkpt lat="35.50410504" lon="-107.15767211">
				<ele>1793.5</ele>
				<time>2022-03-28T20:35:25Z</time>
			</trkpt>
			<trkpt lat="35.50411756" lon="-107.15762507">
				<ele>1793.3</ele>
				<time>2022-03-28T20:35:29Z</time>
			</trkpt>
			<trkpt lat="35.50414685" lon="-107.15758206">
				<ele>1792.9</ele>
				<time>2022-03-28T20:35:33Z</time>
			</trkpt>
			<trkpt lat="35.50415748" lon="-107.1575325">
				<ele>1793</ele>
				<time>2022-03-28T20:35:37Z</time>
			</trkpt>
			<trkpt lat="35.50416846" lon="-107.15748167">
				<ele>1793</ele>
				<time>2022-03-28T20:35:41Z</time>
			</trkpt>
			<trkpt lat="35.50417815" lon="-107.15743388">
				<ele>1793.7</ele>
				<time>2022-03-28T20:35:45Z</time>
			</trkpt>
			<trkpt lat="35.50418996" lon="-107.15739171">
				<ele>1793.5</ele>
				<time>2022-03-28T20:35:49Z</time>
			</trkpt>
			<trkpt lat="35.50420444" lon="-107.15734571">
				<ele>1793.8</ele>
				<time>2022-03-28T20:35:53Z</time>
			</trkpt>
			<trkpt lat="35.50422795" lon="-107.15730336">
				<ele>1794</ele>
				<time>2022-03-28T20:35:57Z</time>
			</trkpt>
			<trkpt lat="35.50424745" lon="-107.15726525">
				<ele>1794.3</ele>
				<time>2022-03-28T20:36:01Z</time>
			</trkpt>
			<trkpt lat="35.50428883" lon="-107.15723706">
				<ele>1794.9</ele>
				<time>2022-03-28T20:36:06Z</time>
			</trkpt>
			<trkpt lat="35.50432221" lon="-107.15721711">
				<ele>1794.4</ele>
				<time>2022-03-28T20:36:09Z</time>
			</trkpt>
			<trkpt lat="35.50436019" lon="-107.15719549">
				<ele>1794.4</ele>
				<time>2022-03-28T20:36:13Z</time>
			</trkpt>
			<trkpt lat="35.50439666" lon="-107.15716592">
				<ele>1794.9</ele>
				<time>2022-03-28T20:36:17Z</time>
			</trkpt>
			<trkpt lat="35.5044335" lon="-107.15713389">
				<ele>1794.1</ele>
				<time>2022-03-28T20:36:22Z</time>
			</trkpt>
			<trkpt lat="35.50446625" lon="-107.15710393">
				<ele>1795.1</ele>
				<time>2022-03-28T20:36:26Z</time>
			</trkpt>
			<trkpt lat="35.50449825" lon="-107.15708092">
				<ele>1795</ele>
				<time>2022-03-28T20:36:31Z</time>
			</trkpt>
			<trkpt lat="35.50453199" lon="-107.15704161">
				<ele>1793.9</ele>
				<time>2022-03-28T20:36:35Z</time>
			</trkpt>
			<trkpt lat="35.50456312" lon="-107.1569996">
				<ele>1794</ele>
				<time>2022-03-28T20:36:39Z</time>
			</trkpt>
			<trkpt lat="35.5045936" lon="-107.15695747">
				<ele>1794.5</ele>
				<time>2022-03-28T20:36:43Z</time>
			</trkpt>
			<trkpt lat="35.50461583" lon="-107.15691261">
				<ele>1794.4</ele>
				<time>2022-03-28T20:36:47Z</time>
			</trkpt>
			<trkpt lat="35.50464141" lon="-107.15687627">
				<ele>1793.9</ele>
				<time>2022-03-28T20:36:53Z</time>
			</trkpt>
			<trkpt lat="35.50466921" lon="-107.15684185">
				<ele>1794.9</ele>
				<time>2022-03-28T20:37:19Z</time>
			</trkpt>
			<trkpt lat="35.50469902" lon="-107.15680493">
				<ele>1794.2</ele>
				<time>2022-03-28T20:37:23Z</time>
			</trkpt>
			<trkpt lat="35.50473442" lon="-107.15679341">
				<ele>1793.5</ele>
				<time>2022-03-28T20:37:27Z</time>
			</trkpt>
			<trkpt lat="35.50476076" lon="-107.15675693">
				<ele>1792.9</ele>
				<time>2022-03-28T20:37:31Z</time>
			</trkpt>
			<trkpt lat="35.50476275" lon="-107.15670439">
				<ele>1792.7</ele>
				<time>2022-03-28T20:37:35Z</time>
			</trkpt>
			<trkpt lat="35.50477102" lon="-107.15665341">
				<ele>1791.3</ele>
				<time>2022-03-28T20:37:39Z</time>
			</trkpt>
			<trkpt lat="35.50480489" lon="-107.15661409">
				<ele>1791.1</ele>
				<time>2022-03-28T20:37:43Z</time>
			</trkpt>
			<trkpt lat="35.5048283" lon="-107.15656857">
				<ele>1790.7</ele>
				<time>2022-03-28T20:37:47Z</time>
			</trkpt>
			<trkpt lat="35.50485561" lon="-107.15652975">
				<ele>1790.4</ele>
				<time>2022-03-28T20:37:51Z</time>
			</trkpt>
			<trkpt lat="35.50487128" lon="-107.15647352">
				<ele>1790</ele>
				<time>2022-03-28T20:37:55Z</time>
			</trkpt>
			<trkpt lat="35.50490651" lon="-107.15643847">
				<ele>1789.8</ele>
				<time>2022-03-28T20:37:59Z</time>
			</trkpt>
			<trkpt lat="35.50493336" lon="-107.15639917">
				<ele>1791</ele>
				<time>2022-03-28T20:38:03Z</time>
			</trkpt>
			<trkpt lat="35.5049587" lon="-107.15635516">
				<ele>1791.2</ele>
				<time>2022-03-28T20:38:07Z</time>
			</trkpt>
			<trkpt lat="35.50498039" lon="-107.15631952">
				<ele>1790.6</ele>
				<time>2022-03-28T20:38:10Z</time>
			</trkpt>
			<trkpt lat="35.50500426" lon="-107.15628406">
				<ele>1791.5</ele>
				<time>2022-03-28T20:38:14Z</time>
			</trkpt>
			<trkpt lat="35.50503363" lon="-107.15624411">
				<ele>1790.9</ele>
				<time>2022-03-28T20:38:18Z</time>
			</trkpt>
			<trkpt lat="35.50505991" lon="-107.15619921">
				<ele>1791.8</ele>
				<time>2022-03-28T20:38:22Z</time>
			</trkpt>
			<trkpt lat="35.50508493" lon="-107.15615148">
				<ele>1791.1</ele>
				<time>2022-03-28T20:38:26Z</time>
			</trkpt>
			<trkpt lat="35.50510625" lon="-107.1561047">
				<ele>1790.1</ele>
				<time>2022-03-28T20:38:30Z</time>
			</trkpt>
			<trkpt lat="35.50513148" lon="-107.15605669">
				<ele>1789.5</ele>
				<time>2022-03-28T20:38:34Z</time>
			</trkpt>
			<trkpt lat="35.50513219" lon="-107.15600782">
				<ele>1789.9</ele>
				<time>2022-03-28T20:38:37Z</time>
			</trkpt>
			<trkpt lat="35.5051487" lon="-107.15596553">
				<ele>1788.8</ele>
				<time>2022-03-28T20:38:40Z</time>
			</trkpt>
			<trkpt lat="35.50515642" lon="-107.15590941">
				<ele>1787.6</ele>
				<time>2022-03-28T20:38:44Z</time>
			</trkpt>
			<trkpt lat="35.50516474" lon="-107.15585637">
				<ele>1788.4</ele>
				<time>2022-03-28T20:38:48Z</time>
			</trkpt>
			<trkpt lat="35.50517748" lon="-107.15580954">
				<ele>1789</ele>
				<time>2022-03-28T20:38:52Z</time>
			</trkpt>
			<trkpt lat="35.50518009" lon="-107.15575645">
				<ele>1789.1</ele>
				<time>2022-03-28T20:38:56Z</time>
			</trkpt>
			<trkpt lat="35.505188" lon="-107.15571056">
				<ele>1790.2</ele>
				<time>2022-03-28T20:39:00Z</time>
			</trkpt>
			<trkpt lat="35.50520366" lon="-107.15566603">
				<ele>1790.5</ele>
				<time>2022-03-28T20:39:04Z</time>
			</trkpt>
			<trkpt lat="35.50521778" lon="-107.15562034">
				<ele>1791</ele>
				<time>2022-03-28T20:39:08Z</time>
			</trkpt>
			<trkpt lat="35.50523082" lon="-107.15557624">
				<ele>1791.8</ele>
				<time>2022-03-28T20:39:12Z</time>
			</trkpt>
			<trkpt lat="35.50524073" lon="-107.15552711">
				<ele>1792.3</ele>
				<time>2022-03-28T20:39:16Z</time>
			</trkpt>
			<trkpt lat="35.50525832" lon="-107.15547176">
				<ele>1791.2</ele>
				<time>2022-03-28T20:39:20Z</time>
			</trkpt>
			<trkpt lat="35.50528014" lon="-107.155432">
				<ele>1791</ele>
				<time>2022-03-28T20:39:23Z</time>
			</trkpt>
			<trkpt lat="35.50530598" lon="-107.15538488">
				<ele>1791.5</ele>
				<time>2022-03-28T20:39:27Z</time>
			</trkpt>
			<trkpt lat="35.50532326" lon="-107.15533655">
				<ele>1792.4</ele>
				<time>2022-03-28T20:39:31Z</time>
			</trkpt>
			<trkpt lat="35.50532746" lon="-107.15527977">
				<ele>1792.6</ele>
				<time>2022-03-28T20:39:35Z</time>
			</trkpt>
			<trkpt lat="35.50534088" lon="-107.1552388">
				<ele>1792.8</ele>
				<time>2022-03-28T20:39:38Z</time>
			</trkpt>
			<trkpt lat="35.50535366" lon="-107.15518929">
				<ele>1792.6</ele>
				<time>2022-03-28T20:39:42Z</time>
			</trkpt>
			<trkpt lat="35.50536828" lon="-107.15514294">
				<ele>1793.5</ele>
				<time>2022-03-28T20:39:46Z</time>
			</trkpt>
			<trkpt lat="35.50537576" lon="-107.15509358">
				<ele>1792.6</ele>
				<time>2022-03-28T20:39:50Z</time>
			</trkpt>
			<trkpt lat="35.50539529" lon="-107.15504666">
				<ele>1792.2</ele>
				<time>2022-03-28T20:39:54Z</time>
			</trkpt>
			<trkpt lat="35.50539076" lon="-107.15498898">
				<ele>1791.6</ele>
				<time>2022-03-28T20:39:58Z</time>
			</trkpt>
			<trkpt lat="35.50538137" lon="-107.15494373">
				<ele>1791.3</ele>
				<time>2022-03-28T20:40:01Z</time>
			</trkpt>
			<trkpt lat="35.50537978" lon="-107.15488946">
				<ele>1791.3</ele>
				<time>2022-03-28T20:40:05Z</time>
			</trkpt>
			<trkpt lat="35.50537403" lon="-107.15484493">
				<ele>1790.9</ele>
				<time>2022-03-28T20:40:08Z</time>
			</trkpt>
			<trkpt lat="35.5053789" lon="-107.1548007">
				<ele>1791</ele>
				<time>2022-03-28T20:40:11Z</time>
			</trkpt>
			<trkpt lat="35.505374" lon="-107.15474886">
				<ele>1790.8</ele>
				<time>2022-03-28T20:40:15Z</time>
			</trkpt>
			<trkpt lat="35.50537189" lon="-107.15470175">
				<ele>1792.3</ele>
				<time>2022-03-28T20:40:19Z</time>
			</trkpt>
			<trkpt lat="35.50537303" lon="-107.15465585">
				<ele>1793.3</ele>
				<time>2022-03-28T20:40:23Z</time>
			</trkpt>
			<trkpt lat="35.50537348" lon="-107.1545991">
				<ele>1792.5</ele>
				<time>2022-03-28T20:40:27Z</time>
			</trkpt>
			<trkpt lat="35.50535511" lon="-107.15455417">
				<ele>1791.8</ele>
				<time>2022-03-28T20:40:30Z</time>
			</trkpt>
			<trkpt lat="35.50535256" lon="-107.15450838">
				<ele>1791.5</ele>
				<time>2022-03-28T20:40:33Z</time>
			</trkpt>
			<trkpt lat="35.50534606" lon="-107.15446294">
				<ele>1792.2</ele>
				<time>2022-03-28T20:40:37Z</time>
			</trkpt>
			<trkpt lat="35.50533543" lon="-107.15441631">
				<ele>1792.5</ele>
				<time>2022-03-28T20:40:41Z</time>
			</trkpt>
			<trkpt lat="35.50531652" lon="-107.15436921">
				<ele>1792.2</ele>
				<time>2022-03-28T20:40:45Z</time>
			</trkpt>
			<trkpt lat="35.50530031" lon="-107.15432361">
				<ele>1792</ele>
				<time>2022-03-28T20:40:49Z</time>
			</trkpt>
			<trkpt lat="35.50527523" lon="-107.15428136">
				<ele>1792</ele>
				<time>2022-03-28T20:40:53Z</time>
			</trkpt>
			<trkpt lat="35.50526693" lon="-107.15422661">
				<ele>1790.9</ele>
				<time>2022-03-28T20:40:57Z</time>
			</trkpt>
			<trkpt lat="35.50524218" lon="-107.15418378">
				<ele>1791.6</ele>
				<time>2022-03-28T20:41:01Z</time>
			</trkpt>
			<trkpt lat="35.5052121" lon="-107.15414843">
				<ele>1789.8</ele>
				<time>2022-03-28T20:41:05Z</time>
			</trkpt>
			<trkpt lat="35.50518366" lon="-107.15410315">
				<ele>1788.4</ele>
				<time>2022-03-28T20:41:09Z</time>
			</trkpt>
			<trkpt lat="35.50516245" lon="-107.15405254">
				<ele>1786.6</ele>
				<time>2022-03-28T20:41:13Z</time>
			</trkpt>
			<trkpt lat="35.50514558" lon="-107.15400254">
				<ele>1786.1</ele>
				<time>2022-03-28T20:41:17Z</time>
			</trkpt>
			<trkpt lat="35.50512705" lon="-107.15395018">
				<ele>1787</ele>
				<time>2022-03-28T20:41:21Z</time>
			</trkpt>
			<trkpt lat="35.50511403" lon="-107.15390716">
				<ele>1786.1</ele>
				<time>2022-03-28T20:41:24Z</time>
			</trkpt>
			<trkpt lat="35.50510274" lon="-107.15386093">
				<ele>1785.2</ele>
				<time>2022-03-28T20:41:27Z</time>
			</trkpt>
			<trkpt lat="35.50507786" lon="-107.15381618">
				<ele>1785.5</ele>
				<time>2022-03-28T20:41:31Z</time>
			</trkpt>
			<trkpt lat="35.50505882" lon="-107.15376397">
				<ele>1786.4</ele>
				<time>2022-03-28T20:41:35Z</time>
			</trkpt>
			<trkpt lat="35.50503925" lon="-107.15372439">
				<ele>1785.1</ele>
				<time>2022-03-28T20:41:38Z</time>
			</trkpt>
			<trkpt lat="35.50502936" lon="-107.1536791">
				<ele>1783.9</ele>
				<time>2022-03-28T20:41:41Z</time>
			</trkpt>
			<trkpt lat="35.50502364" lon="-107.15362736">
				<ele>1784</ele>
				<time>2022-03-28T20:41:45Z</time>
			</trkpt>
			<trkpt lat="35.50501958" lon="-107.15358281">
				<ele>1785.2</ele>
				<time>2022-03-28T20:41:49Z</time>
			</trkpt>
			<trkpt lat="35.50503191" lon="-107.15352879">
				<ele>1786.8</ele>
				<time>2022-03-28T20:41:53Z</time>
			</trkpt>
			<trkpt lat="35.50504175" lon="-107.15347381">
				<ele>1787.7</ele>
				<time>2022-03-28T20:41:57Z</time>
			</trkpt>
			<trkpt lat="35.50505452" lon="-107.15342664">
				<ele>1788.9</ele>
				<time>2022-03-28T20:42:01Z</time>
			</trkpt>
			<trkpt lat="35.50506021" lon="-107.15337283">
				<ele>1787.9</ele>
				<time>2022-03-28T20:42:05Z</time>
			</trkpt>
			<trkpt lat="35.50506967" lon="-107.15332193">
				<ele>1787.4</ele>
				<time>2022-03-28T20:42:09Z</time>
			</trkpt>
			<trkpt lat="35.50506724" lon="-107.15326628">
				<ele>1785.3</ele>
				<time>2022-03-28T20:42:13Z</time>
			</trkpt>
			<trkpt lat="35.50507574" lon="-107.15322147">
				<ele>1784.6</ele>
				<time>2022-03-28T20:42:16Z</time>
			</trkpt>
			<trkpt lat="35.50509329" lon="-107.15316949">
				<ele>1785.5</ele>
				<time>2022-03-28T20:42:20Z</time>
			</trkpt>
			<trkpt lat="35.50510059" lon="-107.15312522">
				<ele>1786.6</ele>
				<time>2022-03-28T20:42:23Z</time>
			</trkpt>
			<trkpt lat="35.50510234" lon="-107.15307356">
				<ele>1786.2</ele>
				<time>2022-03-28T20:42:27Z</time>
			</trkpt>
			<trkpt lat="35.50509744" lon="-107.15302221">
				<ele>1787.7</ele>
				<time>2022-03-28T20:42:31Z</time>
			</trkpt>
			<trkpt lat="35.50511185" lon="-107.15297757">
				<ele>1788.6</ele>
				<time>2022-03-28T20:42:35Z</time>
			</trkpt>
			<trkpt lat="35.50511716" lon="-107.15292673">
				<ele>1789.4</ele>
				<time>2022-03-28T20:42:39Z</time>
			</trkpt>
			<trkpt lat="35.50514021" lon="-107.15287869">
				<ele>1789.4</ele>
				<time>2022-03-28T20:42:43Z</time>
			</trkpt>
			<trkpt lat="35.50515432" lon="-107.15283293">
				<ele>1790.5</ele>
				<time>2022-03-28T20:42:47Z</time>
			</trkpt>
			<trkpt lat="35.50516488" lon="-107.15278882">
				<ele>1790.5</ele>
				<time>2022-03-28T20:42:50Z</time>
			</trkpt>
			<trkpt lat="35.50517593" lon="-107.15274372">
				<ele>1789.9</ele>
				<time>2022-03-28T20:42:53Z</time>
			</trkpt>
			<trkpt lat="35.50518758" lon="-107.15269326">
				<ele>1788.8</ele>
				<time>2022-03-28T20:42:56Z</time>
			</trkpt>
			<trkpt lat="35.50518985" lon="-107.15263763">
				<ele>1790.1</ele>
				<time>2022-03-28T20:43:00Z</time>
			</trkpt>
			<trkpt lat="35.50519468" lon="-107.15258816">
				<ele>1789.7</ele>
				<time>2022-03-28T20:43:04Z</time>
			</trkpt>
			<trkpt lat="35.50520285" lon="-107.15253383">
				<ele>1790.2</ele>
				<time>2022-03-28T20:43:08Z</time>
			</trkpt>
			<trkpt lat="35.50520095" lon="-107.15247781">
				<ele>1789.6</ele>
				<time>2022-03-28T20:43:12Z</time>
			</trkpt>
			<trkpt lat="35.50519943" lon="-107.15242112">
				<ele>1789.6</ele>
				<time>2022-03-28T20:43:16Z</time>
			</trkpt>
			<trkpt lat="35.50522221" lon="-107.15237676">
				<ele>1789.9</ele>
				<time>2022-03-28T20:43:20Z</time>
			</trkpt>
			<trkpt lat="35.50524482" lon="-107.1523374">
				<ele>1789.5</ele>
				<time>2022-03-28T20:43:23Z</time>
			</trkpt>
			<trkpt lat="35.50526446" lon="-107.15229317">
				<ele>1789.1</ele>
				<time>2022-03-28T20:43:26Z</time>
			</trkpt>
			<trkpt lat="35.5052901" lon="-107.1522553">
				<ele>1788.3</ele>
				<time>2022-03-28T20:43:29Z</time>
			</trkpt>
			<trkpt lat="35.50531467" lon="-107.15221831">
				<ele>1788.2</ele>
				<time>2022-03-28T20:43:32Z</time>
			</trkpt>
			<trkpt lat="35.50533955" lon="-107.15218357">
				<ele>1787.8</ele>
				<time>2022-03-28T20:43:35Z</time>
			</trkpt>
			<trkpt lat="35.50536919" lon="-107.15215764">
				<ele>1786.8</ele>
				<time>2022-03-28T20:43:38Z</time>
			</trkpt>
			<trkpt lat="35.50540468" lon="-107.15212574">
				<ele>1787.3</ele>
				<time>2022-03-28T20:43:42Z</time>
			</trkpt>
			<trkpt lat="35.50542649" lon="-107.15208462">
				<ele>1786.2</ele>
				<time>2022-03-28T20:43:45Z</time>
			</trkpt>
			<trkpt lat="35.50545736" lon="-107.15204072">
				<ele>1786.7</ele>
				<time>2022-03-28T20:43:49Z</time>
			</trkpt>
			<trkpt lat="35.50548602" lon="-107.15201208">
				<ele>1786.9</ele>
				<time>2022-03-28T20:43:52Z</time>
			</trkpt>
			<trkpt lat="35.50551621" lon="-107.15196674">
				<ele>1786</ele>
				<time>2022-03-28T20:43:56Z</time>
			</trkpt>
			<trkpt lat="35.50553919" lon="-107.15192374">
				<ele>1786.9</ele>
				<time>2022-03-28T20:44:00Z</time>
			</trkpt>
			<trkpt lat="35.50556684" lon="-107.15188636">
				<ele>1787.1</ele>
				<time>2022-03-28T20:44:04Z</time>
			</trkpt>
			<trkpt lat="35.50559724" lon="-107.15184393">
				<ele>1786.5</ele>
				<time>2022-03-28T20:44:08Z</time>
			</trkpt>
			<trkpt lat="35.50562242" lon="-107.15180204">
				<ele>1786.3</ele>
				<time>2022-03-28T20:44:12Z</time>
			</trkpt>
			<trkpt lat="35.5056483" lon="-107.151765">
				<ele>1785.8</ele>
				<time>2022-03-28T20:44:15Z</time>
			</trkpt>
			<trkpt lat="35.50567351" lon="-107.15171674">
				<ele>1785.6</ele>
				<time>2022-03-28T20:44:19Z</time>
			</trkpt>
			<trkpt lat="35.50570287" lon="-107.15167496">
				<ele>1784.9</ele>
				<time>2022-03-28T20:44:23Z</time>
			</trkpt>
			<trkpt lat="35.50569987" lon="-107.15162653">
				<ele>1783.1</ele>
				<time>2022-03-28T20:44:27Z</time>
			</trkpt>
			<trkpt lat="35.50569394" lon="-107.15157822">
				<ele>1783.5</ele>
				<time>2022-03-28T20:44:32Z</time>
			</trkpt>
			<trkpt lat="35.5056705" lon="-107.15154046">
				<ele>1782</ele>
				<time>2022-03-28T20:44:36Z</time>
			</trkpt>
			<trkpt lat="35.50566507" lon="-107.15148652">
				<ele>1781.1</ele>
				<time>2022-03-28T20:44:40Z</time>
			</trkpt>
			<trkpt lat="35.50565261" lon="-107.15144138">
				<ele>1782.4</ele>
				<time>2022-03-28T20:44:44Z</time>
			</trkpt>
			<trkpt lat="35.50566672" lon="-107.15139643">
				<ele>1782.6</ele>
				<time>2022-03-28T20:44:47Z</time>
			</trkpt>
			<trkpt lat="35.50569119" lon="-107.15135513">
				<ele>1784.5</ele>
				<time>2022-03-28T20:44:51Z</time>
			</trkpt>
			<trkpt lat="35.50569889" lon="-107.15130928">
				<ele>1785.3</ele>
				<time>2022-03-28T20:44:56Z</time>
			</trkpt>
			<trkpt lat="35.50568793" lon="-107.15125655">
				<ele>1786.2</ele>
				<time>2022-03-28T20:45:02Z</time>
			</trkpt>
			<trkpt lat="35.5056842" lon="-107.15120718">
				<ele>1785.9</ele>
				<time>2022-03-28T20:45:07Z</time>
			</trkpt>
			<trkpt lat="35.50569196" lon="-107.15116078">
				<ele>1786.2</ele>
				<time>2022-03-28T20:45:11Z</time>
			</trkpt>
			<trkpt lat="35.50570494" lon="-107.15111135">
				<ele>1785.1</ele>
				<time>2022-03-28T20:45:15Z</time>
			</trkpt>
			<trkpt lat="35.50572374" lon="-107.15105957">
				<ele>1784.3</ele>
				<time>2022-03-28T20:45:19Z</time>
			</trkpt>
			<trkpt lat="35.50571602" lon="-107.15100771">
				<ele>1784.1</ele>
				<time>2022-03-28T20:45:23Z</time>
			</trkpt>
			<trkpt lat="35.50571835" lon="-107.15095765">
				<ele>1782.9</ele>
				<time>2022-03-28T20:45:27Z</time>
			</trkpt>
			<trkpt lat="35.50571257" lon="-107.15091266">
				<ele>1782.7</ele>
				<time>2022-03-28T20:45:31Z</time>
			</trkpt>
			<trkpt lat="35.50570281" lon="-107.1508655">
				<ele>1781.7</ele>
				<time>2022-03-28T20:45:35Z</time>
			</trkpt>
			<trkpt lat="35.50570828" lon="-107.1508138">
				<ele>1782.4</ele>
				<time>2022-03-28T20:45:39Z</time>
			</trkpt>
			<trkpt lat="35.5057054" lon="-107.15076815">
				<ele>1782.7</ele>
				<time>2022-03-28T20:45:43Z</time>
			</trkpt>
			<trkpt lat="35.50568611" lon="-107.15072942">
				<ele>1782.4</ele>
				<time>2022-03-28T20:45:48Z</time>
			</trkpt>
			<trkpt lat="35.50568468" lon="-107.15067597">
				<ele>1785.2</ele>
				<time>2022-03-28T20:46:03Z</time>
			</trkpt>
			<trkpt lat="35.50567924" lon="-107.15062689">
				<ele>1784.3</ele>
				<time>2022-03-28T20:46:07Z</time>
			</trkpt>
			<trkpt lat="35.50567199" lon="-107.15057543">
				<ele>1783.7</ele>
				<time>2022-03-28T20:46:11Z</time>
			</trkpt>
			<trkpt lat="35.50566551" lon="-107.15051939">
				<ele>1783.7</ele>
				<time>2022-03-28T20:46:15Z</time>
			</trkpt>
			<trkpt lat="35.50566629" lon="-107.15046717">
				<ele>1784.2</ele>
				<time>2022-03-28T20:46:19Z</time>
			</trkpt>
			<trkpt lat="35.50566274" lon="-107.15042016">
				<ele>1783.6</ele>
				<time>2022-03-28T20:46:23Z</time>
			</trkpt>
			<trkpt lat="35.50566159" lon="-107.15036907">
				<ele>1783.3</ele>
				<time>2022-03-28T20:46:27Z</time>
			</trkpt>
			<trkpt lat="35.50565551" lon="-107.15032418">
				<ele>1782.9</ele>
				<time>2022-03-28T20:46:31Z</time>
			</trkpt>
			<trkpt lat="35.50566085" lon="-107.15026978">
				<ele>1783.1</ele>
				<time>2022-03-28T20:46:35Z</time>
			</trkpt>
			<trkpt lat="35.50565459" lon="-107.15021737">
				<ele>1782.5</ele>
				<time>2022-03-28T20:46:39Z</time>
			</trkpt>
			<trkpt lat="35.50566104" lon="-107.15016963">
				<ele>1782.6</ele>
				<time>2022-03-28T20:46:43Z</time>
			</trkpt>
			<trkpt lat="35.5056725" lon="-107.15011214">
				<ele>1781.7</ele>
				<time>2022-03-28T20:46:48Z</time>
			</trkpt>
			<trkpt lat="35.50568911" lon="-107.15006933">
				<ele>1783.3</ele>
				<time>2022-03-28T20:46:51Z</time>
			</trkpt>
			<trkpt lat="35.50569487" lon="-107.15001178">
				<ele>1782.6</ele>
				<time>2022-03-28T20:46:55Z</time>
			</trkpt>
			<trkpt lat="35.50568834" lon="-107.14996661">
				<ele>1780.8</ele>
				<time>2022-03-28T20:46:58Z</time>
			</trkpt>
			<trkpt lat="35.5056823" lon="-107.1499104">
				<ele>1780.7</ele>
				<time>2022-03-28T20:47:02Z</time>
			</trkpt>
			<trkpt lat="35.50567183" lon="-107.14986775">
				<ele>1779.7</ele>
				<time>2022-03-28T20:47:05Z</time>
			</trkpt>
			<trkpt lat="35.5056872" lon="-107.14982744">
				<ele>1779.8</ele>
				<time>2022-03-28T20:47:08Z</time>
			</trkpt>
			<trkpt lat="35.50569489" lon="-107.14977454">
				<ele>1779.2</ele>
				<time>2022-03-28T20:47:12Z</time>
			</trkpt>
			<trkpt lat="35.50570109" lon="-107.14972273">
				<ele>1779</ele>
				<time>2022-03-28T20:47:16Z</time>
			</trkpt>
			<trkpt lat="35.50570663" lon="-107.14967642">
				<ele>1779.3</ele>
				<time>2022-03-28T20:47:19Z</time>
			</trkpt>
			<trkpt lat="35.5057207" lon="-107.14963194">
				<ele>1780.4</ele>
				<time>2022-03-28T20:47:22Z</time>
			</trkpt>
			<trkpt lat="35.50571227" lon="-107.14958287">
				<ele>1781.5</ele>
				<time>2022-03-28T20:47:26Z</time>
			</trkpt>
			<trkpt lat="35.50569422" lon="-107.14953602">
				<ele>1782.8</ele>
				<time>2022-03-28T20:47:30Z</time>
			</trkpt>
			<trkpt lat="35.50569306" lon="-107.14948699">
				<ele>1783.1</ele>
				<time>2022-03-28T20:47:34Z</time>
			</trkpt>
			<trkpt lat="35.50569124" lon="-107.14943519">
				<ele>1783.1</ele>
				<time>2022-03-28T20:47:38Z</time>
			</trkpt>
			<trkpt lat="35.50568031" lon="-107.14938395">
				<ele>1783.8</ele>
				<time>2022-03-28T20:47:42Z</time>
			</trkpt>
			<trkpt lat="35.50565996" lon="-107.14933993">
				<ele>1783.8</ele>
				<time>2022-03-28T20:47:46Z</time>
			</trkpt>
			<trkpt lat="35.50565863" lon="-107.14928341">
				<ele>1784</ele>
				<time>2022-03-28T20:47:51Z</time>
			</trkpt>
			<trkpt lat="35.50564007" lon="-107.14924106">
				<ele>1782.6</ele>
				<time>2022-03-28T20:47:56Z</time>
			</trkpt>
			<trkpt lat="35.50560953" lon="-107.14920094">
				<ele>1783.1</ele>
				<time>2022-03-28T20:48:00Z</time>
			</trkpt>
			<trkpt lat="35.50558193" lon="-107.14916834">
				<ele>1781.6</ele>
				<time>2022-03-28T20:48:04Z</time>
			</trkpt>
			<trkpt lat="35.50558365" lon="-107.14912012">
				<ele>1781.5</ele>
				<time>2022-03-28T20:48:08Z</time>
			</trkpt>
			<trkpt lat="35.5056091" lon="-107.14908319">
				<ele>1782.1</ele>
				<time>2022-03-28T20:48:15Z</time>
			</trkpt>
			<trkpt lat="35.50564073" lon="-107.14911608">
				<ele>1781</ele>
				<time>2022-03-28T20:48:23Z</time>
			</trkpt>
			<trkpt lat="35.50567877" lon="-107.14911229">
				<ele>1781.5</ele>
				<time>2022-03-28T20:48:36Z</time>
			</trkpt>
			<trkpt lat="35.50567494" lon="-107.14906382">
				<ele>1780.8</ele>
				<time>2022-03-28T20:48:41Z</time>
			</trkpt>
			<trkpt lat="35.50566038" lon="-107.14901592">
				<ele>1781.5</ele>
				<time>2022-03-28T20:48:46Z</time>
			</trkpt>
			<trkpt lat="35.50564988" lon="-107.14897034">
				<ele>1782.5</ele>
				<time>2022-03-28T20:48:50Z</time>
			</trkpt>
			<trkpt lat="35.50564337" lon="-107.14892659">
				<ele>1782.9</ele>
				<time>2022-03-28T20:48:54Z</time>
			</trkpt>
			<trkpt lat="35.505633" lon="-107.14888219">
				<ele>1784</ele>
				<time>2022-03-28T20:48:58Z</time>
			</trkpt>
			<trkpt lat="35.50562735" lon="-107.14883693">
				<ele>1784</ele>
				<time>2022-03-28T20:49:04Z</time>
			</trkpt>
			<trkpt lat="35.50566317" lon="-107.14882037">
				<ele>1785.8</ele>
				<time>2022-03-28T20:49:09Z</time>
			</trkpt>
			<trkpt lat="35.50570267" lon="-107.14883625">
				<ele>1787.1</ele>
				<time>2022-03-28T20:49:16Z</time>
			</trkpt>
			<trkpt lat="35.50573316" lon="-107.14886751">
				<ele>1787</ele>
				<time>2022-03-28T20:49:21Z</time>
			</trkpt>
			<trkpt lat="35.50577426" lon="-107.14888084">
				<ele>1787</ele>
				<time>2022-03-28T20:49:27Z</time>
			</trkpt>
			<trkpt lat="35.50581045" lon="-107.14886826">
				<ele>1786.3</ele>
				<time>2022-03-28T20:49:31Z</time>
			</trkpt>
			<trkpt lat="35.50585176" lon="-107.14886978">
				<ele>1787.6</ele>
				<time>2022-03-28T20:49:37Z</time>
			</trkpt>
			<trkpt lat="35.50589194" lon="-107.14888197">
				<ele>1788.5</ele>
				<time>2022-03-28T20:49:43Z</time>
			</trkpt>
			<trkpt lat="35.50592695" lon="-107.14889269">
				<ele>1789</ele>
				<time>2022-03-28T20:49:47Z</time>
			</trkpt>
			<trkpt lat="35.50596563" lon="-107.14891614">
				<ele>1790.7</ele>
				<time>2022-03-28T20:50:07Z</time>
			</trkpt>
			<trkpt lat="35.50600702" lon="-107.14893339">
				<ele>1790.9</ele>
				<time>2022-03-28T20:50:11Z</time>
			</trkpt>
			<trkpt lat="35.5060444" lon="-107.1489284">
				<ele>1790.4</ele>
				<time>2022-03-28T20:50:15Z</time>
			</trkpt>
			<trkpt lat="35.50607439" lon="-107.14895628">
				<ele>1789.9</ele>
				<time>2022-03-28T20:50:19Z</time>
			</trkpt>
			<trkpt lat="35.50609865" lon="-107.14899984">
				<ele>1791.2</ele>
				<time>2022-03-28T20:50:23Z</time>
			</trkpt>
			<trkpt lat="35.50613202" lon="-107.14903056">
				<ele>1791.6</ele>
				<time>2022-03-28T20:50:27Z</time>
			</trkpt>
			<trkpt lat="35.50616217" lon="-107.14905826">
				<ele>1793.3</ele>
				<time>2022-03-28T20:50:30Z</time>
			</trkpt>
			<trkpt lat="35.50618831" lon="-107.14908883">
				<ele>1793.8</ele>
				<time>2022-03-28T20:50:33Z</time>
			</trkpt>
			<trkpt lat="35.50619541" lon="-107.14914447">
				<ele>1794.8</ele>
				<time>2022-03-28T20:50:37Z</time>
			</trkpt>
			<trkpt lat="35.50618378" lon="-107.1491876">
				<ele>1795.2</ele>
				<time>2022-03-28T20:50:41Z</time>
			</trkpt>
			<trkpt lat="35.50616836" lon="-107.14923375">
				<ele>1795.8</ele>
				<time>2022-03-28T20:50:45Z</time>
			</trkpt>
			<trkpt lat="35.50614888" lon="-107.14928128">
				<ele>1795</ele>
				<time>2022-03-28T20:50:50Z</time>
			</trkpt>
			<trkpt lat="35.50613361" lon="-107.14933176">
				<ele>1794.2</ele>
				<time>2022-03-28T20:50:54Z</time>
			</trkpt>
			<trkpt lat="35.50612615" lon="-107.14937694">
				<ele>1794.3</ele>
				<time>2022-03-28T20:50:58Z</time>
			</trkpt>
			<trkpt lat="35.50612535" lon="-107.14942644">
				<ele>1793.6</ele>
				<time>2022-03-28T20:51:02Z</time>
			</trkpt>
			<trkpt lat="35.50612387" lon="-107.14948278">
				<ele>1793.9</ele>
				<time>2022-03-28T20:51:06Z</time>
			</trkpt>
			<trkpt lat="35.50612592" lon="-107.14953021">
				<ele>1793.7</ele>
				<time>2022-03-28T20:51:10Z</time>
			</trkpt>
			<trkpt lat="35.50612926" lon="-107.14957899">
				<ele>1794.3</ele>
				<time>2022-03-28T20:51:14Z</time>
			</trkpt>
			<trkpt lat="35.50614418" lon="-107.14962241">
				<ele>1792.6</ele>
				<time>2022-03-28T20:51:18Z</time>
			</trkpt>
			<trkpt lat="35.50615131" lon="-107.14967133">
				<ele>1793.7</ele>
				<time>2022-03-28T20:51:22Z</time>
			</trkpt>
			<trkpt lat="35.50615413" lon="-107.14972401">
				<ele>1793.9</ele>
				<time>2022-03-28T20:51:26Z</time>
			</trkpt>
			<trkpt lat="35.50615363" lon="-107.14976817">
				<ele>1793.6</ele>
				<time>2022-03-28T20:51:30Z</time>
			</trkpt>
			<trkpt lat="35.50616579" lon="-107.14982536">
				<ele>1794.5</ele>
				<time>2022-03-28T20:51:34Z</time>
			</trkpt>
			<trkpt lat="35.50618096" lon="-107.1498669">
				<ele>1795.6</ele>
				<time>2022-03-28T20:51:38Z</time>
			</trkpt>
			<trkpt lat="35.50619806" lon="-107.14988121">
				<ele>1792.9</ele>
				<time>2022-03-28T20:52:39Z</time>
			</trkpt>
		</trkseg>
	</trk>
</gpx>
